<?xml version="1.0" encoding="UTF-8" standalone="no" ?>
<gpx xmlns="http://www.topografix.com/GPX/1/1" xmlns:xsi="http://www.w3.org/2001/XMLSchema-instance" xsi:schemaLocation="http://www.topografix.com/GPX/1/1 http://www.topografix.com/GPX/1/1/gpx.xsd" version="1.1" creator="VisuGPX - https://www.visugpx.com">
  <metadata>
    <name>Pornichet 14/08/2022</name>
    <desc><![CDATA[Sortie dimanche 14 août 2022]]></desc>
  </metadata>
  <trk>
    <name><![CDATA[Pornichet Cyclisme]]></name>
    <trkseg>
      <trkpt lat="47.26484" lon="-2.33323">
        <ele>7.8000001907349</ele>
        <time>2022-08-11T11:09:27.000Z</time>
      </trkpt>
      <trkpt lat="47.26482" lon="-2.33318">
        <ele>7.8000001907349</ele>
        <time>2022-08-11T11:09:28.000Z</time>
      </trkpt>
      <trkpt lat="47.2648" lon="-2.33308">
        <ele>7.8000001907349</ele>
        <time>2022-08-11T11:09:30.000Z</time>
      </trkpt>
      <trkpt lat="47.26479" lon="-2.33303">
        <ele>7.8000001907349</ele>
        <time>2022-08-11T11:09:31.000Z</time>
      </trkpt>
      <trkpt lat="47.2648" lon="-2.33298">
        <ele>7.8000001907349</ele>
        <time>2022-08-11T11:09:32.000Z</time>
      </trkpt>
      <trkpt lat="47.26477" lon="-2.33282">
        <ele>7.8000001907349</ele>
        <time>2022-08-11T11:09:35.000Z</time>
      </trkpt>
      <trkpt lat="47.26475" lon="-2.33277">
        <ele>7.8000001907349</ele>
        <time>2022-08-11T11:09:36.000Z</time>
      </trkpt>
      <trkpt lat="47.26464" lon="-2.33272">
        <ele>7.8000001907349</ele>
        <time>2022-08-11T11:09:39.000Z</time>
      </trkpt>
      <trkpt lat="47.2646" lon="-2.33271">
        <ele>7.8000001907349</ele>
        <time>2022-08-11T11:09:40.000Z</time>
      </trkpt>
      <trkpt lat="47.26442" lon="-2.33268">
        <ele>7.8000001907349</ele>
        <time>2022-08-11T11:09:44.000Z</time>
      </trkpt>
      <trkpt lat="47.26437" lon="-2.33267">
        <ele>7.8000001907349</ele>
        <time>2022-08-11T11:09:45.000Z</time>
      </trkpt>
      <trkpt lat="47.26396" lon="-2.3326">
        <ele>7.8000001907349</ele>
        <time>2022-08-11T11:09:53.000Z</time>
      </trkpt>
      <trkpt lat="47.26391" lon="-2.33257">
        <ele>7.8000001907349</ele>
        <time>2022-08-11T11:09:54.000Z</time>
      </trkpt>
      <trkpt lat="47.26381" lon="-2.33241">
        <ele>7.8000001907349</ele>
        <time>2022-08-11T11:09:57.000Z</time>
      </trkpt>
      <trkpt lat="47.26378" lon="-2.33221">
        <ele>7.8000001907349</ele>
        <time>2022-08-11T11:10:00.000Z</time>
      </trkpt>
      <trkpt lat="47.26378" lon="-2.33214">
        <ele>7.8000001907349</ele>
        <time>2022-08-11T11:10:01.000Z</time>
      </trkpt>
      <trkpt lat="47.26374" lon="-2.33154">
        <ele>7.8000001907349</ele>
        <time>2022-08-11T11:10:10.000Z</time>
      </trkpt>
      <trkpt lat="47.26369" lon="-2.33087">
        <ele>7.8000001907349</ele>
        <time>2022-08-11T11:10:20.000Z</time>
      </trkpt>
      <trkpt lat="47.26366" lon="-2.33033">
        <ele>7.8000001907349</ele>
        <time>2022-08-11T11:10:28.000Z</time>
      </trkpt>
      <trkpt lat="47.26364" lon="-2.3299">
        <ele>7.8000001907349</ele>
        <time>2022-08-11T11:10:34.000Z</time>
      </trkpt>
      <trkpt lat="47.26359" lon="-2.32979">
        <ele>7.8000001907349</ele>
        <time>2022-08-11T11:10:36.000Z</time>
      </trkpt>
      <trkpt lat="47.26348" lon="-2.32963">
        <ele>7.8000001907349</ele>
        <time>2022-08-11T11:10:39.000Z</time>
      </trkpt>
      <trkpt lat="47.26343" lon="-2.32951">
        <ele>7.8000001907349</ele>
        <time>2022-08-11T11:10:41.000Z</time>
      </trkpt>
      <trkpt lat="47.26324" lon="-2.32891">
        <ele>7.8000001907349</ele>
        <time>2022-08-11T11:10:50.000Z</time>
      </trkpt>
      <trkpt lat="47.26317" lon="-2.32872">
        <ele>7.8000001907349</ele>
        <time>2022-08-11T11:10:53.000Z</time>
      </trkpt>
      <trkpt lat="47.26306" lon="-2.3286">
        <ele>7.8000001907349</ele>
        <time>2022-08-11T11:10:56.000Z</time>
      </trkpt>
      <trkpt lat="47.26301" lon="-2.32858">
        <ele>7.8000001907349</ele>
        <time>2022-08-11T11:10:57.000Z</time>
      </trkpt>
      <trkpt lat="47.26297" lon="-2.32855">
        <ele>7.8000001907349</ele>
        <time>2022-08-11T11:10:58.000Z</time>
      </trkpt>
      <trkpt lat="47.2629" lon="-2.32846">
        <ele>7.8000001907349</ele>
        <time>2022-08-11T11:11:00.000Z</time>
      </trkpt>
      <trkpt lat="47.26284" lon="-2.32819">
        <ele>7.8000001907349</ele>
        <time>2022-08-11T11:11:04.000Z</time>
      </trkpt>
      <trkpt lat="47.26281" lon="-2.32806">
        <ele>7.8000001907349</ele>
        <time>2022-08-11T11:11:06.000Z</time>
      </trkpt>
      <trkpt lat="47.26273" lon="-2.32783">
        <ele>7.8000001907349</ele>
        <time>2022-08-11T11:11:10.000Z</time>
      </trkpt>
      <trkpt lat="47.26254" lon="-2.3275">
        <ele>7.8000001907349</ele>
        <time>2022-08-11T11:11:16.000Z</time>
      </trkpt>
      <trkpt lat="47.2623" lon="-2.32716">
        <ele>7.8000001907349</ele>
        <time>2022-08-11T11:11:23.000Z</time>
      </trkpt>
      <trkpt lat="47.26217" lon="-2.32697">
        <ele>8.1999998092651</ele>
        <time>2022-08-11T11:11:27.000Z</time>
      </trkpt>
      <trkpt lat="47.26213" lon="-2.32693">
        <ele>8.6000003814697</ele>
        <time>2022-08-11T11:11:28.000Z</time>
      </trkpt>
      <trkpt lat="47.2621" lon="-2.32689">
        <ele>9.3999996185303</ele>
        <time>2022-08-11T11:11:29.000Z</time>
      </trkpt>
      <trkpt lat="47.26206" lon="-2.32684">
        <ele>9.8000001907349</ele>
        <time>2022-08-11T11:11:30.000Z</time>
      </trkpt>
      <trkpt lat="47.26202" lon="-2.3268">
        <ele>9.8000001907349</ele>
        <time>2022-08-11T11:11:31.000Z</time>
      </trkpt>
      <trkpt lat="47.2617" lon="-2.32653">
        <ele>9.8000001907349</ele>
        <time>2022-08-11T11:11:39.000Z</time>
      </trkpt>
      <trkpt lat="47.2614" lon="-2.32639">
        <ele>9.8000001907349</ele>
        <time>2022-08-11T11:11:46.000Z</time>
      </trkpt>
      <trkpt lat="47.26123" lon="-2.32633">
        <ele>9.8000001907349</ele>
        <time>2022-08-11T11:11:50.000Z</time>
      </trkpt>
      <trkpt lat="47.26113" lon="-2.32634">
        <ele>9.8000001907349</ele>
        <time>2022-08-11T11:11:52.000Z</time>
      </trkpt>
      <trkpt lat="47.26082" lon="-2.32638">
        <ele>9.8000001907349</ele>
        <time>2022-08-11T11:11:59.000Z</time>
      </trkpt>
      <trkpt lat="47.26064" lon="-2.3264">
        <ele>9.8000001907349</ele>
        <time>2022-08-11T11:12:05.000Z</time>
      </trkpt>
      <trkpt lat="47.26052" lon="-2.32642">
        <ele>9.8000001907349</ele>
        <time>2022-08-11T11:12:11.000Z</time>
      </trkpt>
      <trkpt lat="47.26028" lon="-2.32647">
        <ele>9.8000001907349</ele>
        <time>2022-08-11T11:12:16.000Z</time>
      </trkpt>
      <trkpt lat="47.25996" lon="-2.32652">
        <ele>9.3999996185303</ele>
        <time>2022-08-11T11:12:22.000Z</time>
      </trkpt>
      <trkpt lat="47.2599" lon="-2.32652">
        <ele>9</ele>
        <time>2022-08-11T11:12:23.000Z</time>
      </trkpt>
      <trkpt lat="47.25985" lon="-2.32652">
        <ele>8.3999996185303</ele>
        <time>2022-08-11T11:12:24.000Z</time>
      </trkpt>
      <trkpt lat="47.25979" lon="-2.32651">
        <ele>8</ele>
        <time>2022-08-11T11:12:25.000Z</time>
      </trkpt>
      <trkpt lat="47.25973" lon="-2.32651">
        <ele>7.5999999046326</ele>
        <time>2022-08-11T11:12:26.000Z</time>
      </trkpt>
      <trkpt lat="47.25961" lon="-2.32652">
        <ele>7.5999999046326</ele>
        <time>2022-08-11T11:12:28.000Z</time>
      </trkpt>
      <trkpt lat="47.25956" lon="-2.3265">
        <ele>7.5999999046326</ele>
        <time>2022-08-11T11:12:29.000Z</time>
      </trkpt>
      <trkpt lat="47.25937" lon="-2.32633">
        <ele>7.5999999046326</ele>
        <time>2022-08-11T11:12:33.000Z</time>
      </trkpt>
      <trkpt lat="47.25909" lon="-2.32595">
        <ele>7.5999999046326</ele>
        <time>2022-08-11T11:12:41.000Z</time>
      </trkpt>
      <trkpt lat="47.25898" lon="-2.32583">
        <ele>7.5999999046326</ele>
        <time>2022-08-11T11:12:44.000Z</time>
      </trkpt>
      <trkpt lat="47.2589" lon="-2.32578">
        <ele>7.5999999046326</ele>
        <time>2022-08-11T11:12:46.000Z</time>
      </trkpt>
      <trkpt lat="47.25875" lon="-2.3256">
        <ele>7.5999999046326</ele>
        <time>2022-08-11T11:12:50.000Z</time>
      </trkpt>
      <trkpt lat="47.25838" lon="-2.32509">
        <ele>7.5999999046326</ele>
        <time>2022-08-11T11:13:00.000Z</time>
      </trkpt>
      <trkpt lat="47.25825" lon="-2.32491">
        <ele>7.5999999046326</ele>
        <time>2022-08-11T11:13:04.000Z</time>
      </trkpt>
      <trkpt lat="47.25825" lon="-2.32486">
        <ele>7.5999999046326</ele>
        <time>2022-08-11T11:13:05.000Z</time>
      </trkpt>
      <trkpt lat="47.25832" lon="-2.32482">
        <ele>7.5999999046326</ele>
        <time>2022-08-11T11:13:08.000Z</time>
      </trkpt>
      <trkpt lat="47.25842" lon="-2.32484">
        <ele>7.5999999046326</ele>
        <time>2022-08-11T11:13:11.000Z</time>
      </trkpt>
      <trkpt lat="47.25856" lon="-2.32486">
        <ele>7.5999999046326</ele>
        <time>2022-08-11T11:13:15.000Z</time>
      </trkpt>
      <trkpt lat="47.25876" lon="-2.32492">
        <ele>7.5999999046326</ele>
        <time>2022-08-11T11:13:21.000Z</time>
      </trkpt>
      <trkpt lat="47.25881" lon="-2.32482">
        <ele>7.5999999046326</ele>
        <time>2022-08-11T11:13:26.000Z</time>
      </trkpt>
      <trkpt lat="47.25896" lon="-2.32468">
        <ele>7.5999999046326</ele>
        <time>2022-08-11T11:13:33.000Z</time>
      </trkpt>
      <trkpt lat="47.25923" lon="-2.32444">
        <ele>7.5999999046326</ele>
        <time>2022-08-11T11:13:39.000Z</time>
      </trkpt>
      <trkpt lat="47.25964" lon="-2.32395">
        <ele>7.5999999046326</ele>
        <time>2022-08-11T11:13:49.000Z</time>
      </trkpt>
      <trkpt lat="47.25999" lon="-2.32351">
        <ele>7.5999999046326</ele>
        <time>2022-08-11T11:13:58.000Z</time>
      </trkpt>
      <trkpt lat="47.2603" lon="-2.32312">
        <ele>7.5999999046326</ele>
        <time>2022-08-11T11:14:07.000Z</time>
      </trkpt>
      <trkpt lat="47.26058" lon="-2.3228">
        <ele>7.5999999046326</ele>
        <time>2022-08-11T11:14:15.000Z</time>
      </trkpt>
      <trkpt lat="47.2609" lon="-2.32239">
        <ele>7.5999999046326</ele>
        <time>2022-08-11T11:14:23.000Z</time>
      </trkpt>
      <trkpt lat="47.26093" lon="-2.32234">
        <ele>7.5999999046326</ele>
        <time>2022-08-11T11:14:24.000Z</time>
      </trkpt>
      <trkpt lat="47.26108" lon="-2.32205">
        <ele>7.5999999046326</ele>
        <time>2022-08-11T11:14:30.000Z</time>
      </trkpt>
      <trkpt lat="47.26126" lon="-2.32162">
        <ele>7.5999999046326</ele>
        <time>2022-08-11T11:14:38.000Z</time>
      </trkpt>
      <trkpt lat="47.26144" lon="-2.32116">
        <ele>7.5999999046326</ele>
        <time>2022-08-11T11:14:46.000Z</time>
      </trkpt>
      <trkpt lat="47.2616" lon="-2.32073">
        <ele>7.5999999046326</ele>
        <time>2022-08-11T11:14:54.000Z</time>
      </trkpt>
      <trkpt lat="47.26169" lon="-2.32053">
        <ele>7.5999999046326</ele>
        <time>2022-08-11T11:14:58.000Z</time>
      </trkpt>
      <trkpt lat="47.26182" lon="-2.32042">
        <ele>7.5999999046326</ele>
        <time>2022-08-11T11:15:03.000Z</time>
      </trkpt>
      <trkpt lat="47.26194" lon="-2.32039">
        <ele>7.5999999046326</ele>
        <time>2022-08-11T11:15:09.000Z</time>
      </trkpt>
      <trkpt lat="47.26198" lon="-2.3203">
        <ele>7.5999999046326</ele>
        <time>2022-08-11T11:15:13.000Z</time>
      </trkpt>
      <trkpt lat="47.26201" lon="-2.32024">
        <ele>7.5999999046326</ele>
        <time>2022-08-11T11:15:15.000Z</time>
      </trkpt>
      <trkpt lat="47.26204" lon="-2.32021">
        <ele>7.5999999046326</ele>
        <time>2022-08-11T11:15:17.000Z</time>
      </trkpt>
      <trkpt lat="47.2622" lon="-2.32009">
        <ele>7.5999999046326</ele>
        <time>2022-08-11T11:15:23.000Z</time>
      </trkpt>
      <trkpt lat="47.26238" lon="-2.31988">
        <ele>7.5999999046326</ele>
        <time>2022-08-11T11:15:31.000Z</time>
      </trkpt>
      <trkpt lat="47.26257" lon="-2.31967">
        <ele>7.5999999046326</ele>
        <time>2022-08-11T11:15:39.000Z</time>
      </trkpt>
      <trkpt lat="47.26267" lon="-2.31949">
        <ele>8</ele>
        <time>2022-08-11T11:15:43.000Z</time>
      </trkpt>
      <trkpt lat="47.2627" lon="-2.31943">
        <ele>8.3999996185303</ele>
        <time>2022-08-11T11:15:44.000Z</time>
      </trkpt>
      <trkpt lat="47.26273" lon="-2.31938">
        <ele>8.8000001907349</ele>
        <time>2022-08-11T11:15:45.000Z</time>
      </trkpt>
      <trkpt lat="47.26277" lon="-2.31934">
        <ele>9.1999998092651</ele>
        <time>2022-08-11T11:15:46.000Z</time>
      </trkpt>
      <trkpt lat="47.2628" lon="-2.31931">
        <ele>9.6000003814697</ele>
        <time>2022-08-11T11:15:47.000Z</time>
      </trkpt>
      <trkpt lat="47.26294" lon="-2.31914">
        <ele>9.6000003814697</ele>
        <time>2022-08-11T11:15:51.000Z</time>
      </trkpt>
      <trkpt lat="47.26304" lon="-2.31884">
        <ele>9.6000003814697</ele>
        <time>2022-08-11T11:15:59.000Z</time>
      </trkpt>
      <trkpt lat="47.26308" lon="-2.31864">
        <ele>9.6000003814697</ele>
        <time>2022-08-11T11:16:05.000Z</time>
      </trkpt>
      <trkpt lat="47.26311" lon="-2.31835">
        <ele>9.6000003814697</ele>
        <time>2022-08-11T11:16:12.000Z</time>
      </trkpt>
      <trkpt lat="47.26312" lon="-2.31793">
        <ele>9.6000003814697</ele>
        <time>2022-08-11T11:16:18.000Z</time>
      </trkpt>
      <trkpt lat="47.26313" lon="-2.31786">
        <ele>9.6000003814697</ele>
        <time>2022-08-11T11:16:19.000Z</time>
      </trkpt>
      <trkpt lat="47.26318" lon="-2.31776">
        <ele>9.6000003814697</ele>
        <time>2022-08-11T11:16:22.000Z</time>
      </trkpt>
      <trkpt lat="47.2632" lon="-2.31772">
        <ele>10</ele>
        <time>2022-08-11T11:16:23.000Z</time>
      </trkpt>
      <trkpt lat="47.26321" lon="-2.31767">
        <ele>10.39999961853</ele>
        <time>2022-08-11T11:16:24.000Z</time>
      </trkpt>
      <trkpt lat="47.26324" lon="-2.31761">
        <ele>11.39999961853</ele>
        <time>2022-08-11T11:16:25.000Z</time>
      </trkpt>
      <trkpt lat="47.26327" lon="-2.31756">
        <ele>11.800000190735</ele>
        <time>2022-08-11T11:16:26.000Z</time>
      </trkpt>
      <trkpt lat="47.26332" lon="-2.31746">
        <ele>11.800000190735</ele>
        <time>2022-08-11T11:16:28.000Z</time>
      </trkpt>
      <trkpt lat="47.26342" lon="-2.31728">
        <ele>12.199999809265</ele>
        <time>2022-08-11T11:16:33.000Z</time>
      </trkpt>
      <trkpt lat="47.26341" lon="-2.3172">
        <ele>12.60000038147</ele>
        <time>2022-08-11T11:16:34.000Z</time>
      </trkpt>
      <trkpt lat="47.26342" lon="-2.31714">
        <ele>13</ele>
        <time>2022-08-11T11:16:35.000Z</time>
      </trkpt>
      <trkpt lat="47.26344" lon="-2.31708">
        <ele>13.39999961853</ele>
        <time>2022-08-11T11:16:36.000Z</time>
      </trkpt>
      <trkpt lat="47.26347" lon="-2.31704">
        <ele>14</ele>
        <time>2022-08-11T11:16:37.000Z</time>
      </trkpt>
      <trkpt lat="47.26351" lon="-2.31701">
        <ele>14</ele>
        <time>2022-08-11T11:16:39.000Z</time>
      </trkpt>
      <trkpt lat="47.2637" lon="-2.3169">
        <ele>14</ele>
        <time>2022-08-11T11:16:46.000Z</time>
      </trkpt>
      <trkpt lat="47.26384" lon="-2.31682">
        <ele>14.39999961853</ele>
        <time>2022-08-11T11:16:52.000Z</time>
      </trkpt>
      <trkpt lat="47.26386" lon="-2.31681">
        <ele>14.800000190735</ele>
        <time>2022-08-11T11:16:53.000Z</time>
      </trkpt>
      <trkpt lat="47.26389" lon="-2.3168">
        <ele>15.199999809265</ele>
        <time>2022-08-11T11:16:54.000Z</time>
      </trkpt>
      <trkpt lat="47.26391" lon="-2.31679">
        <ele>15.60000038147</ele>
        <time>2022-08-11T11:16:55.000Z</time>
      </trkpt>
      <trkpt lat="47.26394" lon="-2.31677">
        <ele>16</ele>
        <time>2022-08-11T11:16:56.000Z</time>
      </trkpt>
      <trkpt lat="47.264" lon="-2.31668">
        <ele>16</ele>
        <time>2022-08-11T11:16:59.000Z</time>
      </trkpt>
      <trkpt lat="47.26406" lon="-2.31642">
        <ele>16</ele>
        <time>2022-08-11T11:17:05.000Z</time>
      </trkpt>
      <trkpt lat="47.2641" lon="-2.31603">
        <ele>16</ele>
        <time>2022-08-11T11:17:14.000Z</time>
      </trkpt>
      <trkpt lat="47.26411" lon="-2.31582">
        <ele>16</ele>
        <time>2022-08-11T11:17:20.000Z</time>
      </trkpt>
      <trkpt lat="47.26412" lon="-2.3157">
        <ele>16</ele>
        <time>2022-08-11T11:17:24.000Z</time>
      </trkpt>
      <trkpt lat="47.26413" lon="-2.31565">
        <ele>16</ele>
        <time>2022-08-11T11:17:26.000Z</time>
      </trkpt>
      <trkpt lat="47.26334" lon="-2.31672">
        <ele>34</ele>
        <time>2022-08-14T06:59:13.000Z</time>
      </trkpt>
      <trkpt lat="47.26334" lon="-2.31671">
        <ele>34.599998474121</ele>
        <time>2022-08-14T06:59:14.000Z</time>
      </trkpt>
      <trkpt lat="47.2633" lon="-2.31675">
        <ele>38</ele>
        <time>2022-08-14T06:59:24.000Z</time>
      </trkpt>
      <trkpt lat="47.26328" lon="-2.31675">
        <ele>38.400001525879</ele>
        <time>2022-08-14T06:59:25.000Z</time>
      </trkpt>
      <trkpt lat="47.26326" lon="-2.31676">
        <ele>38.400001525879</ele>
        <time>2022-08-14T06:59:26.000Z</time>
      </trkpt>
      <trkpt lat="47.26307" lon="-2.31685">
        <ele>38.400001525879</ele>
        <time>2022-08-14T06:59:32.000Z</time>
      </trkpt>
      <trkpt lat="47.26299" lon="-2.31688">
        <ele>38.400001525879</ele>
        <time>2022-08-14T06:59:34.000Z</time>
      </trkpt>
      <trkpt lat="47.26293" lon="-2.31694">
        <ele>38.400001525879</ele>
        <time>2022-08-14T06:59:36.000Z</time>
      </trkpt>
      <trkpt lat="47.26289" lon="-2.31709">
        <ele>38.400001525879</ele>
        <time>2022-08-14T06:59:39.000Z</time>
      </trkpt>
      <trkpt lat="47.26293" lon="-2.31729">
        <ele>38.799999237061</ele>
        <time>2022-08-14T06:59:42.000Z</time>
      </trkpt>
      <trkpt lat="47.26293" lon="-2.31735">
        <ele>39.200000762939</ele>
        <time>2022-08-14T06:59:43.000Z</time>
      </trkpt>
      <trkpt lat="47.26293" lon="-2.31741">
        <ele>39.599998474121</ele>
        <time>2022-08-14T06:59:44.000Z</time>
      </trkpt>
      <trkpt lat="47.26293" lon="-2.31749">
        <ele>40</ele>
        <time>2022-08-14T06:59:45.000Z</time>
      </trkpt>
      <trkpt lat="47.26292" lon="-2.31756">
        <ele>40.400001525879</ele>
        <time>2022-08-14T06:59:46.000Z</time>
      </trkpt>
      <trkpt lat="47.26292" lon="-2.31785">
        <ele>40.400001525879</ele>
        <time>2022-08-14T06:59:51.000Z</time>
      </trkpt>
      <trkpt lat="47.2629" lon="-2.3181">
        <ele>40.400001525879</ele>
        <time>2022-08-14T06:59:55.000Z</time>
      </trkpt>
      <trkpt lat="47.26289" lon="-2.31817">
        <ele>40.400001525879</ele>
        <time>2022-08-14T06:59:56.000Z</time>
      </trkpt>
      <trkpt lat="47.26288" lon="-2.31823">
        <ele>40.400001525879</ele>
        <time>2022-08-14T06:59:57.000Z</time>
      </trkpt>
      <trkpt lat="47.26288" lon="-2.31848">
        <ele>40.400001525879</ele>
        <time>2022-08-14T07:00:01.000Z</time>
      </trkpt>
      <trkpt lat="47.26285" lon="-2.31859">
        <ele>40.400001525879</ele>
        <time>2022-08-14T07:00:03.000Z</time>
      </trkpt>
      <trkpt lat="47.26279" lon="-2.31865">
        <ele>40.400001525879</ele>
        <time>2022-08-14T07:00:05.000Z</time>
      </trkpt>
      <trkpt lat="47.26272" lon="-2.31871">
        <ele>41.799999237061</ele>
        <time>2022-08-14T07:00:07.000Z</time>
      </trkpt>
      <trkpt lat="47.26268" lon="-2.31875">
        <ele>41.799999237061</ele>
        <time>2022-08-14T07:00:08.000Z</time>
      </trkpt>
      <trkpt lat="47.26261" lon="-2.31885">
        <ele>41.799999237061</ele>
        <time>2022-08-14T07:00:10.000Z</time>
      </trkpt>
      <trkpt lat="47.26243" lon="-2.31915">
        <ele>41.799999237061</ele>
        <time>2022-08-14T07:00:16.000Z</time>
      </trkpt>
      <trkpt lat="47.26229" lon="-2.31935">
        <ele>41.799999237061</ele>
        <time>2022-08-14T07:00:21.000Z</time>
      </trkpt>
      <trkpt lat="47.26214" lon="-2.31951">
        <ele>41.799999237061</ele>
        <time>2022-08-14T07:00:26.000Z</time>
      </trkpt>
      <trkpt lat="47.26211" lon="-2.31955">
        <ele>41.799999237061</ele>
        <time>2022-08-14T07:00:27.000Z</time>
      </trkpt>
      <trkpt lat="47.26198" lon="-2.31971">
        <ele>41.799999237061</ele>
        <time>2022-08-14T07:00:32.000Z</time>
      </trkpt>
      <trkpt lat="47.26191" lon="-2.31977">
        <ele>41.799999237061</ele>
        <time>2022-08-14T07:00:35.000Z</time>
      </trkpt>
      <trkpt lat="47.2619" lon="-2.31989">
        <ele>41.799999237061</ele>
        <time>2022-08-14T07:00:38.000Z</time>
      </trkpt>
      <trkpt lat="47.26183" lon="-2.31995">
        <ele>41.799999237061</ele>
        <time>2022-08-14T07:00:42.000Z</time>
      </trkpt>
      <trkpt lat="47.26171" lon="-2.31995">
        <ele>41.799999237061</ele>
        <time>2022-08-14T07:00:46.000Z</time>
      </trkpt>
      <trkpt lat="47.26159" lon="-2.32001">
        <ele>41.799999237061</ele>
        <time>2022-08-14T07:00:50.000Z</time>
      </trkpt>
      <trkpt lat="47.26155" lon="-2.32004">
        <ele>41.799999237061</ele>
        <time>2022-08-14T07:00:51.000Z</time>
      </trkpt>
      <trkpt lat="47.26152" lon="-2.32008">
        <ele>41.799999237061</ele>
        <time>2022-08-14T07:00:52.000Z</time>
      </trkpt>
      <trkpt lat="47.2614" lon="-2.32028">
        <ele>41.799999237061</ele>
        <time>2022-08-14T07:00:56.000Z</time>
      </trkpt>
      <trkpt lat="47.26138" lon="-2.32048">
        <ele>41.799999237061</ele>
        <time>2022-08-14T07:00:59.000Z</time>
      </trkpt>
      <trkpt lat="47.26136" lon="-2.3206">
        <ele>41.799999237061</ele>
        <time>2022-08-14T07:01:01.000Z</time>
      </trkpt>
      <trkpt lat="47.26134" lon="-2.32066">
        <ele>41.799999237061</ele>
        <time>2022-08-14T07:01:02.000Z</time>
      </trkpt>
      <trkpt lat="47.26131" lon="-2.32088">
        <ele>41.799999237061</ele>
        <time>2022-08-14T07:01:06.000Z</time>
      </trkpt>
      <trkpt lat="47.26121" lon="-2.32124">
        <ele>41.799999237061</ele>
        <time>2022-08-14T07:01:12.000Z</time>
      </trkpt>
      <trkpt lat="47.26111" lon="-2.32155">
        <ele>41.799999237061</ele>
        <time>2022-08-14T07:01:17.000Z</time>
      </trkpt>
      <trkpt lat="47.26108" lon="-2.32161">
        <ele>41.799999237061</ele>
        <time>2022-08-14T07:01:18.000Z</time>
      </trkpt>
      <trkpt lat="47.26093" lon="-2.32194">
        <ele>41.799999237061</ele>
        <time>2022-08-14T07:01:24.000Z</time>
      </trkpt>
      <trkpt lat="47.26067" lon="-2.32229">
        <ele>41.799999237061</ele>
        <time>2022-08-14T07:01:31.000Z</time>
      </trkpt>
      <trkpt lat="47.2606" lon="-2.32238">
        <ele>41.799999237061</ele>
        <time>2022-08-14T07:01:33.000Z</time>
      </trkpt>
      <trkpt lat="47.26045" lon="-2.32255">
        <ele>41.799999237061</ele>
        <time>2022-08-14T07:01:37.000Z</time>
      </trkpt>
      <trkpt lat="47.2602" lon="-2.32286">
        <ele>41.799999237061</ele>
        <time>2022-08-14T07:01:44.000Z</time>
      </trkpt>
      <trkpt lat="47.26016" lon="-2.32291">
        <ele>41.799999237061</ele>
        <time>2022-08-14T07:01:45.000Z</time>
      </trkpt>
      <trkpt lat="47.25992" lon="-2.32321">
        <ele>41.799999237061</ele>
        <time>2022-08-14T07:01:52.000Z</time>
      </trkpt>
      <trkpt lat="47.25963" lon="-2.32358">
        <ele>41.799999237061</ele>
        <time>2022-08-14T07:02:00.000Z</time>
      </trkpt>
      <trkpt lat="47.25952" lon="-2.32371">
        <ele>41.799999237061</ele>
        <time>2022-08-14T07:02:03.000Z</time>
      </trkpt>
      <trkpt lat="47.25935" lon="-2.32394">
        <ele>41.799999237061</ele>
        <time>2022-08-14T07:02:08.000Z</time>
      </trkpt>
      <trkpt lat="47.25909" lon="-2.32427">
        <ele>41.799999237061</ele>
        <time>2022-08-14T07:02:16.000Z</time>
      </trkpt>
      <trkpt lat="47.2589" lon="-2.32451">
        <ele>41.799999237061</ele>
        <time>2022-08-14T07:02:22.000Z</time>
      </trkpt>
      <trkpt lat="47.2587" lon="-2.32461">
        <ele>41.799999237061</ele>
        <time>2022-08-14T07:02:27.000Z</time>
      </trkpt>
      <trkpt lat="47.25861" lon="-2.32463">
        <ele>41.799999237061</ele>
        <time>2022-08-14T07:02:29.000Z</time>
      </trkpt>
      <trkpt lat="47.25842" lon="-2.32464">
        <ele>41.799999237061</ele>
        <time>2022-08-14T07:02:33.000Z</time>
      </trkpt>
      <trkpt lat="47.25833" lon="-2.32461">
        <ele>41.799999237061</ele>
        <time>2022-08-14T07:02:35.000Z</time>
      </trkpt>
      <trkpt lat="47.2582" lon="-2.32454">
        <ele>41.799999237061</ele>
        <time>2022-08-14T07:02:38.000Z</time>
      </trkpt>
      <trkpt lat="47.25795" lon="-2.32442">
        <ele>41.799999237061</ele>
        <time>2022-08-14T07:02:45.000Z</time>
      </trkpt>
      <trkpt lat="47.25781" lon="-2.32445">
        <ele>41.799999237061</ele>
        <time>2022-08-14T07:02:49.000Z</time>
      </trkpt>
      <trkpt lat="47.25778" lon="-2.32443">
        <ele>41.799999237061</ele>
        <time>2022-08-14T07:02:50.000Z</time>
      </trkpt>
      <trkpt lat="47.25772" lon="-2.32434">
        <ele>41.799999237061</ele>
        <time>2022-08-14T07:02:52.000Z</time>
      </trkpt>
      <trkpt lat="47.25767" lon="-2.32425">
        <ele>41.799999237061</ele>
        <time>2022-08-14T07:02:54.000Z</time>
      </trkpt>
      <trkpt lat="47.25753" lon="-2.32413">
        <ele>41.799999237061</ele>
        <time>2022-08-14T07:02:58.000Z</time>
      </trkpt>
      <trkpt lat="47.25743" lon="-2.32414">
        <ele>41.799999237061</ele>
        <time>2022-08-14T07:03:00.000Z</time>
      </trkpt>
      <trkpt lat="47.25732" lon="-2.32414">
        <ele>41.799999237061</ele>
        <time>2022-08-14T07:03:02.000Z</time>
      </trkpt>
      <trkpt lat="47.25693" lon="-2.32412">
        <ele>41.799999237061</ele>
        <time>2022-08-14T07:03:10.000Z</time>
      </trkpt>
      <trkpt lat="47.25689" lon="-2.32412">
        <ele>41.799999237061</ele>
        <time>2022-08-14T07:03:11.000Z</time>
      </trkpt>
      <trkpt lat="47.25663" lon="-2.3241">
        <ele>41.799999237061</ele>
        <time>2022-08-14T07:03:17.000Z</time>
      </trkpt>
      <trkpt lat="47.2566" lon="-2.32414">
        <ele>41.799999237061</ele>
        <time>2022-08-14T07:03:18.000Z</time>
      </trkpt>
      <trkpt lat="47.25658" lon="-2.32432">
        <ele>41.799999237061</ele>
        <time>2022-08-14T07:03:21.000Z</time>
      </trkpt>
      <trkpt lat="47.25664" lon="-2.32455">
        <ele>41.799999237061</ele>
        <time>2022-08-14T07:03:25.000Z</time>
      </trkpt>
      <trkpt lat="47.25666" lon="-2.32461">
        <ele>41.799999237061</ele>
        <time>2022-08-14T07:03:26.000Z</time>
      </trkpt>
      <trkpt lat="47.25678" lon="-2.32497">
        <ele>42.200000762939</ele>
        <time>2022-08-14T07:03:33.000Z</time>
      </trkpt>
      <trkpt lat="47.2568" lon="-2.32502">
        <ele>42.799999237061</ele>
        <time>2022-08-14T07:03:34.000Z</time>
      </trkpt>
      <trkpt lat="47.25682" lon="-2.32507">
        <ele>43.200000762939</ele>
        <time>2022-08-14T07:03:35.000Z</time>
      </trkpt>
      <trkpt lat="47.25683" lon="-2.32513">
        <ele>43.599998474121</ele>
        <time>2022-08-14T07:03:36.000Z</time>
      </trkpt>
      <trkpt lat="47.25684" lon="-2.32518">
        <ele>44</ele>
        <time>2022-08-14T07:03:37.000Z</time>
      </trkpt>
      <trkpt lat="47.25691" lon="-2.32537">
        <ele>44</ele>
        <time>2022-08-14T07:03:41.000Z</time>
      </trkpt>
      <trkpt lat="47.25703" lon="-2.32575">
        <ele>44</ele>
        <time>2022-08-14T07:03:49.000Z</time>
      </trkpt>
      <trkpt lat="47.25706" lon="-2.32585">
        <ele>44.400001525879</ele>
        <time>2022-08-14T07:03:51.000Z</time>
      </trkpt>
      <trkpt lat="47.25707" lon="-2.32591">
        <ele>44.799999237061</ele>
        <time>2022-08-14T07:03:52.000Z</time>
      </trkpt>
      <trkpt lat="47.25708" lon="-2.32597">
        <ele>45.200000762939</ele>
        <time>2022-08-14T07:03:53.000Z</time>
      </trkpt>
      <trkpt lat="47.25709" lon="-2.32602">
        <ele>46</ele>
        <time>2022-08-14T07:03:54.000Z</time>
      </trkpt>
      <trkpt lat="47.25711" lon="-2.32611">
        <ele>46</ele>
        <time>2022-08-14T07:03:56.000Z</time>
      </trkpt>
      <trkpt lat="47.25711" lon="-2.32619">
        <ele>46</ele>
        <time>2022-08-14T07:03:58.000Z</time>
      </trkpt>
      <trkpt lat="47.25705" lon="-2.32621">
        <ele>46</ele>
        <time>2022-08-14T07:04:00.000Z</time>
      </trkpt>
      <trkpt lat="47.25697" lon="-2.32622">
        <ele>46</ele>
        <time>2022-08-14T07:04:02.000Z</time>
      </trkpt>
      <trkpt lat="47.25687" lon="-2.32627">
        <ele>46</ele>
        <time>2022-08-14T07:04:05.000Z</time>
      </trkpt>
      <trkpt lat="47.25653" lon="-2.3264">
        <ele>46</ele>
        <time>2022-08-14T07:04:14.000Z</time>
      </trkpt>
      <trkpt lat="47.25649" lon="-2.32641">
        <ele>46.400001525879</ele>
        <time>2022-08-14T07:04:15.000Z</time>
      </trkpt>
      <trkpt lat="47.25645" lon="-2.32643">
        <ele>46.799999237061</ele>
        <time>2022-08-14T07:04:16.000Z</time>
      </trkpt>
      <trkpt lat="47.25641" lon="-2.32645">
        <ele>47.200000762939</ele>
        <time>2022-08-14T07:04:17.000Z</time>
      </trkpt>
      <trkpt lat="47.25638" lon="-2.32647">
        <ele>47.599998474121</ele>
        <time>2022-08-14T07:04:18.000Z</time>
      </trkpt>
      <trkpt lat="47.25635" lon="-2.32649">
        <ele>48</ele>
        <time>2022-08-14T07:04:19.000Z</time>
      </trkpt>
      <trkpt lat="47.25631" lon="-2.3265">
        <ele>48</ele>
        <time>2022-08-14T07:04:20.000Z</time>
      </trkpt>
      <trkpt lat="47.25598" lon="-2.32667">
        <ele>48</ele>
        <time>2022-08-14T07:04:29.000Z</time>
      </trkpt>
      <trkpt lat="47.25567" lon="-2.3268">
        <ele>48</ele>
        <time>2022-08-14T07:04:37.000Z</time>
      </trkpt>
      <trkpt lat="47.2555" lon="-2.32687">
        <ele>48</ele>
        <time>2022-08-14T07:04:41.000Z</time>
      </trkpt>
      <trkpt lat="47.25539" lon="-2.32694">
        <ele>48</ele>
        <time>2022-08-14T07:04:44.000Z</time>
      </trkpt>
      <trkpt lat="47.2553" lon="-2.32697">
        <ele>48</ele>
        <time>2022-08-14T07:04:46.000Z</time>
      </trkpt>
      <trkpt lat="47.25517" lon="-2.32701">
        <ele>48</ele>
        <time>2022-08-14T07:04:49.000Z</time>
      </trkpt>
      <trkpt lat="47.25513" lon="-2.32701">
        <ele>48</ele>
        <time>2022-08-14T07:04:50.000Z</time>
      </trkpt>
      <trkpt lat="47.25484" lon="-2.32704">
        <ele>48</ele>
        <time>2022-08-14T07:04:57.000Z</time>
      </trkpt>
      <trkpt lat="47.25471" lon="-2.32718">
        <ele>48</ele>
        <time>2022-08-14T07:05:01.000Z</time>
      </trkpt>
      <trkpt lat="47.25468" lon="-2.32723">
        <ele>48</ele>
        <time>2022-08-14T07:05:02.000Z</time>
      </trkpt>
      <trkpt lat="47.25449" lon="-2.32748">
        <ele>48</ele>
        <time>2022-08-14T07:05:08.000Z</time>
      </trkpt>
      <trkpt lat="47.25437" lon="-2.32767">
        <ele>48</ele>
        <time>2022-08-14T07:05:12.000Z</time>
      </trkpt>
      <trkpt lat="47.25434" lon="-2.32778">
        <ele>48</ele>
        <time>2022-08-14T07:05:14.000Z</time>
      </trkpt>
      <trkpt lat="47.25427" lon="-2.32793">
        <ele>48</ele>
        <time>2022-08-14T07:05:17.000Z</time>
      </trkpt>
      <trkpt lat="47.25419" lon="-2.32802">
        <ele>48</ele>
        <time>2022-08-14T07:05:19.000Z</time>
      </trkpt>
      <trkpt lat="47.25395" lon="-2.32834">
        <ele>47.599998474121</ele>
        <time>2022-08-14T07:05:26.000Z</time>
      </trkpt>
      <trkpt lat="47.25392" lon="-2.32838">
        <ele>47.200000762939</ele>
        <time>2022-08-14T07:05:27.000Z</time>
      </trkpt>
      <trkpt lat="47.25389" lon="-2.32843">
        <ele>46.799999237061</ele>
        <time>2022-08-14T07:05:28.000Z</time>
      </trkpt>
      <trkpt lat="47.25385" lon="-2.32848">
        <ele>46.400001525879</ele>
        <time>2022-08-14T07:05:29.000Z</time>
      </trkpt>
      <trkpt lat="47.25382" lon="-2.32852">
        <ele>46</ele>
        <time>2022-08-14T07:05:30.000Z</time>
      </trkpt>
      <trkpt lat="47.25368" lon="-2.32866">
        <ele>46</ele>
        <time>2022-08-14T07:05:34.000Z</time>
      </trkpt>
      <trkpt lat="47.25344" lon="-2.32891">
        <ele>46</ele>
        <time>2022-08-14T07:05:41.000Z</time>
      </trkpt>
      <trkpt lat="47.25318" lon="-2.32916">
        <ele>46</ele>
        <time>2022-08-14T07:05:48.000Z</time>
      </trkpt>
      <trkpt lat="47.2531" lon="-2.32927">
        <ele>46</ele>
        <time>2022-08-14T07:05:51.000Z</time>
      </trkpt>
      <trkpt lat="47.25308" lon="-2.32938">
        <ele>46</ele>
        <time>2022-08-14T07:05:53.000Z</time>
      </trkpt>
      <trkpt lat="47.25311" lon="-2.32962">
        <ele>46</ele>
        <time>2022-08-14T07:05:57.000Z</time>
      </trkpt>
      <trkpt lat="47.25315" lon="-2.32973">
        <ele>46</ele>
        <time>2022-08-14T07:05:59.000Z</time>
      </trkpt>
      <trkpt lat="47.25324" lon="-2.32995">
        <ele>46</ele>
        <time>2022-08-14T07:06:03.000Z</time>
      </trkpt>
      <trkpt lat="47.25343" lon="-2.3304">
        <ele>46</ele>
        <time>2022-08-14T07:06:11.000Z</time>
      </trkpt>
      <trkpt lat="47.25351" lon="-2.33062">
        <ele>45.599998474121</ele>
        <time>2022-08-14T07:06:15.000Z</time>
      </trkpt>
      <trkpt lat="47.25353" lon="-2.33067">
        <ele>45.200000762939</ele>
        <time>2022-08-14T07:06:16.000Z</time>
      </trkpt>
      <trkpt lat="47.25355" lon="-2.33072">
        <ele>44.799999237061</ele>
        <time>2022-08-14T07:06:17.000Z</time>
      </trkpt>
      <trkpt lat="47.25357" lon="-2.33078">
        <ele>44.400001525879</ele>
        <time>2022-08-14T07:06:18.000Z</time>
      </trkpt>
      <trkpt lat="47.25359" lon="-2.33083">
        <ele>44</ele>
        <time>2022-08-14T07:06:19.000Z</time>
      </trkpt>
      <trkpt lat="47.25371" lon="-2.33119">
        <ele>44</ele>
        <time>2022-08-14T07:06:27.000Z</time>
      </trkpt>
      <trkpt lat="47.25371" lon="-2.33119">
        <ele>44</ele>
        <time>2022-08-14T07:06:29.000Z</time>
      </trkpt>
      <trkpt lat="47.25373" lon="-2.33122">
        <ele>44</ele>
        <time>2022-08-14T07:06:55.000Z</time>
      </trkpt>
      <trkpt lat="47.25374" lon="-2.33124">
        <ele>44</ele>
        <time>2022-08-14T07:06:58.000Z</time>
      </trkpt>
      <trkpt lat="47.25375" lon="-2.33126">
        <ele>44</ele>
        <time>2022-08-14T07:07:16.000Z</time>
      </trkpt>
      <trkpt lat="47.25376" lon="-2.33129">
        <ele>44</ele>
        <time>2022-08-14T07:07:17.000Z</time>
      </trkpt>
      <trkpt lat="47.25387" lon="-2.33136">
        <ele>44</ele>
        <time>2022-08-14T07:07:21.000Z</time>
      </trkpt>
      <trkpt lat="47.25405" lon="-2.33125">
        <ele>44</ele>
        <time>2022-08-14T07:07:27.000Z</time>
      </trkpt>
      <trkpt lat="47.25432" lon="-2.33116">
        <ele>44</ele>
        <time>2022-08-14T07:07:34.000Z</time>
      </trkpt>
      <trkpt lat="47.2544" lon="-2.33113">
        <ele>43.599998474121</ele>
        <time>2022-08-14T07:07:36.000Z</time>
      </trkpt>
      <trkpt lat="47.25444" lon="-2.33111">
        <ele>42.799999237061</ele>
        <time>2022-08-14T07:07:37.000Z</time>
      </trkpt>
      <trkpt lat="47.25447" lon="-2.3311">
        <ele>42.400001525879</ele>
        <time>2022-08-14T07:07:38.000Z</time>
      </trkpt>
      <trkpt lat="47.2545" lon="-2.33108">
        <ele>42</ele>
        <time>2022-08-14T07:07:39.000Z</time>
      </trkpt>
      <trkpt lat="47.25455" lon="-2.33105">
        <ele>42</ele>
        <time>2022-08-14T07:07:40.000Z</time>
      </trkpt>
      <trkpt lat="47.25483" lon="-2.33091">
        <ele>42</ele>
        <time>2022-08-14T07:07:47.000Z</time>
      </trkpt>
      <trkpt lat="47.255" lon="-2.33073">
        <ele>42</ele>
        <time>2022-08-14T07:07:52.000Z</time>
      </trkpt>
      <trkpt lat="47.25523" lon="-2.3305">
        <ele>42</ele>
        <time>2022-08-14T07:07:59.000Z</time>
      </trkpt>
      <trkpt lat="47.25548" lon="-2.33041">
        <ele>42</ele>
        <time>2022-08-14T07:08:05.000Z</time>
      </trkpt>
      <trkpt lat="47.25584" lon="-2.33034">
        <ele>42</ele>
        <time>2022-08-14T07:08:14.000Z</time>
      </trkpt>
      <trkpt lat="47.25611" lon="-2.33028">
        <ele>42</ele>
        <time>2022-08-14T07:08:21.000Z</time>
      </trkpt>
      <trkpt lat="47.25616" lon="-2.33019">
        <ele>42</ele>
        <time>2022-08-14T07:08:23.000Z</time>
      </trkpt>
      <trkpt lat="47.25617" lon="-2.33014">
        <ele>42</ele>
        <time>2022-08-14T07:08:24.000Z</time>
      </trkpt>
      <trkpt lat="47.25617" lon="-2.33007">
        <ele>42.400001525879</ele>
        <time>2022-08-14T07:08:25.000Z</time>
      </trkpt>
      <trkpt lat="47.25616" lon="-2.33001">
        <ele>42.799999237061</ele>
        <time>2022-08-14T07:08:26.000Z</time>
      </trkpt>
      <trkpt lat="47.25615" lon="-2.32995">
        <ele>43.200000762939</ele>
        <time>2022-08-14T07:08:27.000Z</time>
      </trkpt>
      <trkpt lat="47.25614" lon="-2.3299">
        <ele>43.599998474121</ele>
        <time>2022-08-14T07:08:28.000Z</time>
      </trkpt>
      <trkpt lat="47.25613" lon="-2.32984">
        <ele>44</ele>
        <time>2022-08-14T07:08:29.000Z</time>
      </trkpt>
      <trkpt lat="47.25608" lon="-2.32956">
        <ele>44</ele>
        <time>2022-08-14T07:08:34.000Z</time>
      </trkpt>
      <trkpt lat="47.256" lon="-2.32909">
        <ele>44</ele>
        <time>2022-08-14T07:08:42.000Z</time>
      </trkpt>
      <trkpt lat="47.25599" lon="-2.32903">
        <ele>44</ele>
        <time>2022-08-14T07:08:43.000Z</time>
      </trkpt>
      <trkpt lat="47.25591" lon="-2.3284">
        <ele>44</ele>
        <time>2022-08-14T07:08:53.000Z</time>
      </trkpt>
      <trkpt lat="47.25591" lon="-2.32833">
        <ele>44</ele>
        <time>2022-08-14T07:08:54.000Z</time>
      </trkpt>
      <trkpt lat="47.25594" lon="-2.32813">
        <ele>44</ele>
        <time>2022-08-14T07:08:57.000Z</time>
      </trkpt>
      <trkpt lat="47.256" lon="-2.32779">
        <ele>44</ele>
        <time>2022-08-14T07:09:02.000Z</time>
      </trkpt>
      <trkpt lat="47.25601" lon="-2.32765">
        <ele>44</ele>
        <time>2022-08-14T07:09:04.000Z</time>
      </trkpt>
      <trkpt lat="47.25603" lon="-2.32703">
        <ele>44</ele>
        <time>2022-08-14T07:09:13.000Z</time>
      </trkpt>
      <trkpt lat="47.25606" lon="-2.32672">
        <ele>44</ele>
        <time>2022-08-14T07:09:18.000Z</time>
      </trkpt>
      <trkpt lat="47.25612" lon="-2.32666">
        <ele>44</ele>
        <time>2022-08-14T07:09:20.000Z</time>
      </trkpt>
      <trkpt lat="47.2562" lon="-2.32661">
        <ele>44</ele>
        <time>2022-08-14T07:09:22.000Z</time>
      </trkpt>
      <trkpt lat="47.25653" lon="-2.32644">
        <ele>44</ele>
        <time>2022-08-14T07:09:29.000Z</time>
      </trkpt>
      <trkpt lat="47.25685" lon="-2.32629">
        <ele>44</ele>
        <time>2022-08-14T07:09:35.000Z</time>
      </trkpt>
      <trkpt lat="47.25704" lon="-2.32619">
        <ele>43.200000762939</ele>
        <time>2022-08-14T07:09:39.000Z</time>
      </trkpt>
      <trkpt lat="47.25707" lon="-2.32615">
        <ele>42.799999237061</ele>
        <time>2022-08-14T07:09:40.000Z</time>
      </trkpt>
      <trkpt lat="47.25709" lon="-2.3261">
        <ele>42.400001525879</ele>
        <time>2022-08-14T07:09:41.000Z</time>
      </trkpt>
      <trkpt lat="47.25709" lon="-2.32603">
        <ele>42</ele>
        <time>2022-08-14T07:09:42.000Z</time>
      </trkpt>
      <trkpt lat="47.25708" lon="-2.32596">
        <ele>42</ele>
        <time>2022-08-14T07:09:43.000Z</time>
      </trkpt>
      <trkpt lat="47.25704" lon="-2.32583">
        <ele>42</ele>
        <time>2022-08-14T07:09:45.000Z</time>
      </trkpt>
      <trkpt lat="47.25695" lon="-2.32554">
        <ele>42</ele>
        <time>2022-08-14T07:09:49.000Z</time>
      </trkpt>
      <trkpt lat="47.25687" lon="-2.3253">
        <ele>41.599998474121</ele>
        <time>2022-08-14T07:09:52.000Z</time>
      </trkpt>
      <trkpt lat="47.25684" lon="-2.32522">
        <ele>41.200000762939</ele>
        <time>2022-08-14T07:09:53.000Z</time>
      </trkpt>
      <trkpt lat="47.25681" lon="-2.32514">
        <ele>40.799999237061</ele>
        <time>2022-08-14T07:09:54.000Z</time>
      </trkpt>
      <trkpt lat="47.25678" lon="-2.32505">
        <ele>40.400001525879</ele>
        <time>2022-08-14T07:09:55.000Z</time>
      </trkpt>
      <trkpt lat="47.25675" lon="-2.32496">
        <ele>40</ele>
        <time>2022-08-14T07:09:56.000Z</time>
      </trkpt>
      <trkpt lat="47.25673" lon="-2.32488">
        <ele>40</ele>
        <time>2022-08-14T07:09:57.000Z</time>
      </trkpt>
      <trkpt lat="47.2566" lon="-2.32445">
        <ele>39.599998474121</ele>
        <time>2022-08-14T07:10:02.000Z</time>
      </trkpt>
      <trkpt lat="47.25659" lon="-2.32437">
        <ele>38.799999237061</ele>
        <time>2022-08-14T07:10:03.000Z</time>
      </trkpt>
      <trkpt lat="47.25659" lon="-2.3243">
        <ele>38.200000762939</ele>
        <time>2022-08-14T07:10:04.000Z</time>
      </trkpt>
      <trkpt lat="47.2566" lon="-2.32423">
        <ele>37.799999237061</ele>
        <time>2022-08-14T07:10:05.000Z</time>
      </trkpt>
      <trkpt lat="47.25663" lon="-2.32418">
        <ele>37.799999237061</ele>
        <time>2022-08-14T07:10:06.000Z</time>
      </trkpt>
      <trkpt lat="47.25677" lon="-2.32416">
        <ele>37.799999237061</ele>
        <time>2022-08-14T07:10:09.000Z</time>
      </trkpt>
      <trkpt lat="47.25682" lon="-2.32418">
        <ele>37.799999237061</ele>
        <time>2022-08-14T07:10:10.000Z</time>
      </trkpt>
      <trkpt lat="47.25706" lon="-2.32421">
        <ele>37.799999237061</ele>
        <time>2022-08-14T07:10:14.000Z</time>
      </trkpt>
      <trkpt lat="47.25737" lon="-2.32422">
        <ele>37.400001525879</ele>
        <time>2022-08-14T07:10:19.000Z</time>
      </trkpt>
      <trkpt lat="47.25743" lon="-2.32422">
        <ele>37</ele>
        <time>2022-08-14T07:10:20.000Z</time>
      </trkpt>
      <trkpt lat="47.25749" lon="-2.32422">
        <ele>36.599998474121</ele>
        <time>2022-08-14T07:10:21.000Z</time>
      </trkpt>
      <trkpt lat="47.25756" lon="-2.32422">
        <ele>36.200000762939</ele>
        <time>2022-08-14T07:10:22.000Z</time>
      </trkpt>
      <trkpt lat="47.25761" lon="-2.32421">
        <ele>35.799999237061</ele>
        <time>2022-08-14T07:10:23.000Z</time>
      </trkpt>
      <trkpt lat="47.25772" lon="-2.32416">
        <ele>35.799999237061</ele>
        <time>2022-08-14T07:10:25.000Z</time>
      </trkpt>
      <trkpt lat="47.25786" lon="-2.32418">
        <ele>35.799999237061</ele>
        <time>2022-08-14T07:10:28.000Z</time>
      </trkpt>
      <trkpt lat="47.25795" lon="-2.32437">
        <ele>35.799999237061</ele>
        <time>2022-08-14T07:10:31.000Z</time>
      </trkpt>
      <trkpt lat="47.25802" lon="-2.3245">
        <ele>35.799999237061</ele>
        <time>2022-08-14T07:10:33.000Z</time>
      </trkpt>
      <trkpt lat="47.25805" lon="-2.32457">
        <ele>35.799999237061</ele>
        <time>2022-08-14T07:10:34.000Z</time>
      </trkpt>
      <trkpt lat="47.25811" lon="-2.32472">
        <ele>35.799999237061</ele>
        <time>2022-08-14T07:10:36.000Z</time>
      </trkpt>
      <trkpt lat="47.25833" lon="-2.32503">
        <ele>35.799999237061</ele>
        <time>2022-08-14T07:10:42.000Z</time>
      </trkpt>
      <trkpt lat="47.25859" lon="-2.32539">
        <ele>35.799999237061</ele>
        <time>2022-08-14T07:10:48.000Z</time>
      </trkpt>
      <trkpt lat="47.25888" lon="-2.32581">
        <ele>35.799999237061</ele>
        <time>2022-08-14T07:10:55.000Z</time>
      </trkpt>
      <trkpt lat="47.25906" lon="-2.32602">
        <ele>35.799999237061</ele>
        <time>2022-08-14T07:10:59.000Z</time>
      </trkpt>
      <trkpt lat="47.2591" lon="-2.32608">
        <ele>35.799999237061</ele>
        <time>2022-08-14T07:11:00.000Z</time>
      </trkpt>
      <trkpt lat="47.25943" lon="-2.32649">
        <ele>35.799999237061</ele>
        <time>2022-08-14T07:11:08.000Z</time>
      </trkpt>
      <trkpt lat="47.25947" lon="-2.32653">
        <ele>35.799999237061</ele>
        <time>2022-08-14T07:11:09.000Z</time>
      </trkpt>
      <trkpt lat="47.25962" lon="-2.3266">
        <ele>35.799999237061</ele>
        <time>2022-08-14T07:11:12.000Z</time>
      </trkpt>
      <trkpt lat="47.25985" lon="-2.32658">
        <ele>35.799999237061</ele>
        <time>2022-08-14T07:11:16.000Z</time>
      </trkpt>
      <trkpt lat="47.26003" lon="-2.32657">
        <ele>35.799999237061</ele>
        <time>2022-08-14T07:11:19.000Z</time>
      </trkpt>
      <trkpt lat="47.26021" lon="-2.32654">
        <ele>35.799999237061</ele>
        <time>2022-08-14T07:11:22.000Z</time>
      </trkpt>
      <trkpt lat="47.26065" lon="-2.32646">
        <ele>35.799999237061</ele>
        <time>2022-08-14T07:11:30.000Z</time>
      </trkpt>
      <trkpt lat="47.26098" lon="-2.32641">
        <ele>35.799999237061</ele>
        <time>2022-08-14T07:11:36.000Z</time>
      </trkpt>
      <trkpt lat="47.26131" lon="-2.3264">
        <ele>35.799999237061</ele>
        <time>2022-08-14T07:11:42.000Z</time>
      </trkpt>
      <trkpt lat="47.26137" lon="-2.32641">
        <ele>35.799999237061</ele>
        <time>2022-08-14T07:11:43.000Z</time>
      </trkpt>
      <trkpt lat="47.26157" lon="-2.3265">
        <ele>35.799999237061</ele>
        <time>2022-08-14T07:11:47.000Z</time>
      </trkpt>
      <trkpt lat="47.26177" lon="-2.32662">
        <ele>35.799999237061</ele>
        <time>2022-08-14T07:11:51.000Z</time>
      </trkpt>
      <trkpt lat="47.26202" lon="-2.32684">
        <ele>35.799999237061</ele>
        <time>2022-08-14T07:11:56.000Z</time>
      </trkpt>
      <trkpt lat="47.26206" lon="-2.32689">
        <ele>35.799999237061</ele>
        <time>2022-08-14T07:11:57.000Z</time>
      </trkpt>
      <trkpt lat="47.26227" lon="-2.3272">
        <ele>35.799999237061</ele>
        <time>2022-08-14T07:12:02.000Z</time>
      </trkpt>
      <trkpt lat="47.26261" lon="-2.32773">
        <ele>35.400001525879</ele>
        <time>2022-08-14T07:12:10.000Z</time>
      </trkpt>
      <trkpt lat="47.26265" lon="-2.32781">
        <ele>35</ele>
        <time>2022-08-14T07:12:11.000Z</time>
      </trkpt>
      <trkpt lat="47.26268" lon="-2.32788">
        <ele>34.599998474121</ele>
        <time>2022-08-14T07:12:12.000Z</time>
      </trkpt>
      <trkpt lat="47.26272" lon="-2.32796">
        <ele>34.200000762939</ele>
        <time>2022-08-14T07:12:13.000Z</time>
      </trkpt>
      <trkpt lat="47.26275" lon="-2.32804">
        <ele>33.799999237061</ele>
        <time>2022-08-14T07:12:14.000Z</time>
      </trkpt>
      <trkpt lat="47.26282" lon="-2.32829">
        <ele>33.799999237061</ele>
        <time>2022-08-14T07:12:17.000Z</time>
      </trkpt>
      <trkpt lat="47.26289" lon="-2.32852">
        <ele>33.799999237061</ele>
        <time>2022-08-14T07:12:20.000Z</time>
      </trkpt>
      <trkpt lat="47.26298" lon="-2.32861">
        <ele>33.799999237061</ele>
        <time>2022-08-14T07:12:22.000Z</time>
      </trkpt>
      <trkpt lat="47.26309" lon="-2.32865">
        <ele>33.799999237061</ele>
        <time>2022-08-14T07:12:24.000Z</time>
      </trkpt>
      <trkpt lat="47.26314" lon="-2.32869">
        <ele>33.799999237061</ele>
        <time>2022-08-14T07:12:25.000Z</time>
      </trkpt>
      <trkpt lat="47.26318" lon="-2.32875">
        <ele>33.799999237061</ele>
        <time>2022-08-14T07:12:26.000Z</time>
      </trkpt>
      <trkpt lat="47.2633" lon="-2.32913">
        <ele>33.799999237061</ele>
        <time>2022-08-14T07:12:31.000Z</time>
      </trkpt>
      <trkpt lat="47.26332" lon="-2.32921">
        <ele>33.799999237061</ele>
        <time>2022-08-14T07:12:32.000Z</time>
      </trkpt>
      <trkpt lat="47.26348" lon="-2.32968">
        <ele>33.799999237061</ele>
        <time>2022-08-14T07:12:38.000Z</time>
      </trkpt>
      <trkpt lat="47.26352" lon="-2.32974">
        <ele>33.799999237061</ele>
        <time>2022-08-14T07:12:39.000Z</time>
      </trkpt>
      <trkpt lat="47.26365" lon="-2.32995">
        <ele>33.799999237061</ele>
        <time>2022-08-14T07:12:43.000Z</time>
      </trkpt>
      <trkpt lat="47.26367" lon="-2.33026">
        <ele>33.799999237061</ele>
        <time>2022-08-14T07:12:47.000Z</time>
      </trkpt>
      <trkpt lat="47.26367" lon="-2.33035">
        <ele>33.799999237061</ele>
        <time>2022-08-14T07:12:48.000Z</time>
      </trkpt>
      <trkpt lat="47.2637" lon="-2.33094">
        <ele>33.799999237061</ele>
        <time>2022-08-14T07:12:55.000Z</time>
      </trkpt>
      <trkpt lat="47.26373" lon="-2.33144">
        <ele>33.799999237061</ele>
        <time>2022-08-14T07:13:01.000Z</time>
      </trkpt>
      <trkpt lat="47.26377" lon="-2.33209">
        <ele>33.799999237061</ele>
        <time>2022-08-14T07:13:09.000Z</time>
      </trkpt>
      <trkpt lat="47.2638" lon="-2.33242">
        <ele>33.799999237061</ele>
        <time>2022-08-14T07:13:13.000Z</time>
      </trkpt>
      <trkpt lat="47.26384" lon="-2.33256">
        <ele>33.799999237061</ele>
        <time>2022-08-14T07:13:15.000Z</time>
      </trkpt>
      <trkpt lat="47.26397" lon="-2.33267">
        <ele>33.799999237061</ele>
        <time>2022-08-14T07:13:18.000Z</time>
      </trkpt>
      <trkpt lat="47.26408" lon="-2.33268">
        <ele>33.799999237061</ele>
        <time>2022-08-14T07:13:20.000Z</time>
      </trkpt>
      <trkpt lat="47.2643" lon="-2.33271">
        <ele>33.400001525879</ele>
        <time>2022-08-14T07:13:24.000Z</time>
      </trkpt>
      <trkpt lat="47.26436" lon="-2.33271">
        <ele>33</ele>
        <time>2022-08-14T07:13:25.000Z</time>
      </trkpt>
      <trkpt lat="47.26441" lon="-2.33272">
        <ele>32.599998474121</ele>
        <time>2022-08-14T07:13:26.000Z</time>
      </trkpt>
      <trkpt lat="47.26447" lon="-2.33273">
        <ele>32.200000762939</ele>
        <time>2022-08-14T07:13:27.000Z</time>
      </trkpt>
      <trkpt lat="47.26452" lon="-2.33273">
        <ele>31.799999237061</ele>
        <time>2022-08-14T07:13:28.000Z</time>
      </trkpt>
      <trkpt lat="47.26477" lon="-2.33274">
        <ele>31.799999237061</ele>
        <time>2022-08-14T07:13:33.000Z</time>
      </trkpt>
      <trkpt lat="47.26488" lon="-2.3326">
        <ele>31.799999237061</ele>
        <time>2022-08-14T07:13:36.000Z</time>
      </trkpt>
      <trkpt lat="47.2649" lon="-2.33254">
        <ele>31.799999237061</ele>
        <time>2022-08-14T07:13:37.000Z</time>
      </trkpt>
      <trkpt lat="47.26494" lon="-2.33248">
        <ele>31.799999237061</ele>
        <time>2022-08-14T07:13:38.000Z</time>
      </trkpt>
      <trkpt lat="47.26502" lon="-2.33239">
        <ele>31.799999237061</ele>
        <time>2022-08-14T07:13:40.000Z</time>
      </trkpt>
      <trkpt lat="47.26547" lon="-2.33207">
        <ele>31.799999237061</ele>
        <time>2022-08-14T07:13:49.000Z</time>
      </trkpt>
      <trkpt lat="47.26574" lon="-2.33191">
        <ele>31.799999237061</ele>
        <time>2022-08-14T07:13:54.000Z</time>
      </trkpt>
      <trkpt lat="47.26579" lon="-2.33186">
        <ele>31.799999237061</ele>
        <time>2022-08-14T07:13:55.000Z</time>
      </trkpt>
      <trkpt lat="47.26591" lon="-2.33159">
        <ele>31.799999237061</ele>
        <time>2022-08-14T07:13:59.000Z</time>
      </trkpt>
      <trkpt lat="47.26604" lon="-2.33147">
        <ele>31.799999237061</ele>
        <time>2022-08-14T07:14:02.000Z</time>
      </trkpt>
      <trkpt lat="47.26619" lon="-2.33148">
        <ele>31.799999237061</ele>
        <time>2022-08-14T07:14:05.000Z</time>
      </trkpt>
      <trkpt lat="47.26625" lon="-2.33149">
        <ele>31.799999237061</ele>
        <time>2022-08-14T07:14:06.000Z</time>
      </trkpt>
      <trkpt lat="47.26631" lon="-2.33149">
        <ele>31.799999237061</ele>
        <time>2022-08-14T07:14:07.000Z</time>
      </trkpt>
      <trkpt lat="47.26647" lon="-2.33141">
        <ele>31.799999237061</ele>
        <time>2022-08-14T07:14:10.000Z</time>
      </trkpt>
      <trkpt lat="47.26652" lon="-2.33137">
        <ele>31.799999237061</ele>
        <time>2022-08-14T07:14:11.000Z</time>
      </trkpt>
      <trkpt lat="47.26684" lon="-2.33108">
        <ele>31.799999237061</ele>
        <time>2022-08-14T07:14:18.000Z</time>
      </trkpt>
      <trkpt lat="47.26717" lon="-2.33074">
        <ele>31.799999237061</ele>
        <time>2022-08-14T07:14:26.000Z</time>
      </trkpt>
      <trkpt lat="47.26731" lon="-2.3305">
        <ele>31.799999237061</ele>
        <time>2022-08-14T07:14:31.000Z</time>
      </trkpt>
      <trkpt lat="47.26732" lon="-2.33045">
        <ele>31.799999237061</ele>
        <time>2022-08-14T07:14:32.000Z</time>
      </trkpt>
      <trkpt lat="47.26734" lon="-2.33034">
        <ele>31.799999237061</ele>
        <time>2022-08-14T07:14:35.000Z</time>
      </trkpt>
      <trkpt lat="47.26734" lon="-2.33031">
        <ele>31.799999237061</ele>
        <time>2022-08-14T07:14:36.000Z</time>
      </trkpt>
      <trkpt lat="47.26734" lon="-2.33024">
        <ele>31.799999237061</ele>
        <time>2022-08-14T07:14:38.000Z</time>
      </trkpt>
      <trkpt lat="47.26733" lon="-2.33017">
        <ele>31.799999237061</ele>
        <time>2022-08-14T07:14:40.000Z</time>
      </trkpt>
      <trkpt lat="47.26737" lon="-2.32994">
        <ele>31.799999237061</ele>
        <time>2022-08-14T07:14:44.000Z</time>
      </trkpt>
      <trkpt lat="47.26739" lon="-2.32989">
        <ele>31.799999237061</ele>
        <time>2022-08-14T07:14:45.000Z</time>
      </trkpt>
      <trkpt lat="47.26748" lon="-2.32972">
        <ele>31.799999237061</ele>
        <time>2022-08-14T07:14:48.000Z</time>
      </trkpt>
      <trkpt lat="47.26756" lon="-2.32963">
        <ele>31.799999237061</ele>
        <time>2022-08-14T07:14:50.000Z</time>
      </trkpt>
      <trkpt lat="47.26773" lon="-2.32943">
        <ele>31.799999237061</ele>
        <time>2022-08-14T07:14:54.000Z</time>
      </trkpt>
      <trkpt lat="47.26786" lon="-2.32927">
        <ele>31.799999237061</ele>
        <time>2022-08-14T07:14:57.000Z</time>
      </trkpt>
      <trkpt lat="47.26799" lon="-2.32916">
        <ele>31.799999237061</ele>
        <time>2022-08-14T07:15:00.000Z</time>
      </trkpt>
      <trkpt lat="47.26817" lon="-2.32903">
        <ele>31.799999237061</ele>
        <time>2022-08-14T07:15:04.000Z</time>
      </trkpt>
      <trkpt lat="47.26825" lon="-2.32895">
        <ele>31.799999237061</ele>
        <time>2022-08-14T07:15:06.000Z</time>
      </trkpt>
      <trkpt lat="47.26846" lon="-2.32881">
        <ele>31.799999237061</ele>
        <time>2022-08-14T07:15:11.000Z</time>
      </trkpt>
      <trkpt lat="47.2686" lon="-2.32866">
        <ele>31.799999237061</ele>
        <time>2022-08-14T07:15:15.000Z</time>
      </trkpt>
      <trkpt lat="47.26857" lon="-2.32852">
        <ele>31.799999237061</ele>
        <time>2022-08-14T07:15:18.000Z</time>
      </trkpt>
      <trkpt lat="47.26851" lon="-2.32831">
        <ele>32.799999237061</ele>
        <time>2022-08-14T07:15:23.000Z</time>
      </trkpt>
      <trkpt lat="47.2685" lon="-2.32827">
        <ele>33.200000762939</ele>
        <time>2022-08-14T07:15:24.000Z</time>
      </trkpt>
      <trkpt lat="47.26848" lon="-2.32822">
        <ele>33.599998474121</ele>
        <time>2022-08-14T07:15:25.000Z</time>
      </trkpt>
      <trkpt lat="47.26846" lon="-2.32818">
        <ele>34.200000762939</ele>
        <time>2022-08-14T07:15:26.000Z</time>
      </trkpt>
      <trkpt lat="47.26845" lon="-2.32814">
        <ele>34.599998474121</ele>
        <time>2022-08-14T07:15:27.000Z</time>
      </trkpt>
      <trkpt lat="47.26843" lon="-2.32811">
        <ele>35</ele>
        <time>2022-08-14T07:15:28.000Z</time>
      </trkpt>
      <trkpt lat="47.26841" lon="-2.32807">
        <ele>35.400001525879</ele>
        <time>2022-08-14T07:15:29.000Z</time>
      </trkpt>
      <trkpt lat="47.26839" lon="-2.32804">
        <ele>35.799999237061</ele>
        <time>2022-08-14T07:15:30.000Z</time>
      </trkpt>
      <trkpt lat="47.26838" lon="-2.328">
        <ele>36.200000762939</ele>
        <time>2022-08-14T07:15:31.000Z</time>
      </trkpt>
      <trkpt lat="47.26836" lon="-2.32791">
        <ele>36.599998474121</ele>
        <time>2022-08-14T07:15:33.000Z</time>
      </trkpt>
      <trkpt lat="47.26835" lon="-2.32786">
        <ele>37</ele>
        <time>2022-08-14T07:15:34.000Z</time>
      </trkpt>
      <trkpt lat="47.26833" lon="-2.32782">
        <ele>37.400001525879</ele>
        <time>2022-08-14T07:15:35.000Z</time>
      </trkpt>
      <trkpt lat="47.26833" lon="-2.32777">
        <ele>37.799999237061</ele>
        <time>2022-08-14T07:15:36.000Z</time>
      </trkpt>
      <trkpt lat="47.26831" lon="-2.32773">
        <ele>38.200000762939</ele>
        <time>2022-08-14T07:15:37.000Z</time>
      </trkpt>
      <trkpt lat="47.26827" lon="-2.3276">
        <ele>38.599998474121</ele>
        <time>2022-08-14T07:15:40.000Z</time>
      </trkpt>
      <trkpt lat="47.26826" lon="-2.32756">
        <ele>39.200000762939</ele>
        <time>2022-08-14T07:15:41.000Z</time>
      </trkpt>
      <trkpt lat="47.26825" lon="-2.32752">
        <ele>39.599998474121</ele>
        <time>2022-08-14T07:15:42.000Z</time>
      </trkpt>
      <trkpt lat="47.26823" lon="-2.32748">
        <ele>40</ele>
        <time>2022-08-14T07:15:43.000Z</time>
      </trkpt>
      <trkpt lat="47.26821" lon="-2.32744">
        <ele>40.400001525879</ele>
        <time>2022-08-14T07:15:44.000Z</time>
      </trkpt>
      <trkpt lat="47.26817" lon="-2.32735">
        <ele>40.400001525879</ele>
        <time>2022-08-14T07:15:46.000Z</time>
      </trkpt>
      <trkpt lat="47.26815" lon="-2.3273">
        <ele>40.799999237061</ele>
        <time>2022-08-14T07:15:47.000Z</time>
      </trkpt>
      <trkpt lat="47.26814" lon="-2.32725">
        <ele>41.599998474121</ele>
        <time>2022-08-14T07:15:48.000Z</time>
      </trkpt>
      <trkpt lat="47.26812" lon="-2.3272">
        <ele>42.200000762939</ele>
        <time>2022-08-14T07:15:49.000Z</time>
      </trkpt>
      <trkpt lat="47.2681" lon="-2.32715">
        <ele>42.599998474121</ele>
        <time>2022-08-14T07:15:50.000Z</time>
      </trkpt>
      <trkpt lat="47.26806" lon="-2.32705">
        <ele>42.599998474121</ele>
        <time>2022-08-14T07:15:52.000Z</time>
      </trkpt>
      <trkpt lat="47.26801" lon="-2.32683">
        <ele>42.599998474121</ele>
        <time>2022-08-14T07:15:56.000Z</time>
      </trkpt>
      <trkpt lat="47.26802" lon="-2.32678">
        <ele>42.599998474121</ele>
        <time>2022-08-14T07:15:57.000Z</time>
      </trkpt>
      <trkpt lat="47.2681" lon="-2.32654">
        <ele>42.599998474121</ele>
        <time>2022-08-14T07:16:01.000Z</time>
      </trkpt>
      <trkpt lat="47.26808" lon="-2.32626">
        <ele>42.599998474121</ele>
        <time>2022-08-14T07:16:05.000Z</time>
      </trkpt>
      <trkpt lat="47.26799" lon="-2.32572">
        <ele>42.599998474121</ele>
        <time>2022-08-14T07:16:12.000Z</time>
      </trkpt>
      <trkpt lat="47.26797" lon="-2.32535">
        <ele>42.599998474121</ele>
        <time>2022-08-14T07:16:17.000Z</time>
      </trkpt>
      <trkpt lat="47.26794" lon="-2.32506">
        <ele>42.599998474121</ele>
        <time>2022-08-14T07:16:21.000Z</time>
      </trkpt>
      <trkpt lat="47.26792" lon="-2.32493">
        <ele>42.599998474121</ele>
        <time>2022-08-14T07:16:23.000Z</time>
      </trkpt>
      <trkpt lat="47.26788" lon="-2.3245">
        <ele>42.599998474121</ele>
        <time>2022-08-14T07:16:30.000Z</time>
      </trkpt>
      <trkpt lat="47.26784" lon="-2.32421">
        <ele>42.599998474121</ele>
        <time>2022-08-14T07:16:35.000Z</time>
      </trkpt>
      <trkpt lat="47.26783" lon="-2.32415">
        <ele>43</ele>
        <time>2022-08-14T07:16:36.000Z</time>
      </trkpt>
      <trkpt lat="47.26782" lon="-2.32409">
        <ele>43.799999237061</ele>
        <time>2022-08-14T07:16:37.000Z</time>
      </trkpt>
      <trkpt lat="47.26782" lon="-2.32403">
        <ele>44.200000762939</ele>
        <time>2022-08-14T07:16:38.000Z</time>
      </trkpt>
      <trkpt lat="47.26781" lon="-2.32398">
        <ele>44.599998474121</ele>
        <time>2022-08-14T07:16:39.000Z</time>
      </trkpt>
      <trkpt lat="47.26779" lon="-2.32388">
        <ele>44.599998474121</ele>
        <time>2022-08-14T07:16:41.000Z</time>
      </trkpt>
      <trkpt lat="47.26779" lon="-2.32378">
        <ele>44.599998474121</ele>
        <time>2022-08-14T07:16:43.000Z</time>
      </trkpt>
      <trkpt lat="47.26783" lon="-2.32369">
        <ele>44.599998474121</ele>
        <time>2022-08-14T07:16:45.000Z</time>
      </trkpt>
      <trkpt lat="47.26795" lon="-2.32362">
        <ele>44.599998474121</ele>
        <time>2022-08-14T07:16:48.000Z</time>
      </trkpt>
      <trkpt lat="47.268" lon="-2.32361">
        <ele>44.599998474121</ele>
        <time>2022-08-14T07:16:49.000Z</time>
      </trkpt>
      <trkpt lat="47.26815" lon="-2.32357">
        <ele>44</ele>
        <time>2022-08-14T07:16:52.000Z</time>
      </trkpt>
      <trkpt lat="47.2682" lon="-2.32356">
        <ele>43.599998474121</ele>
        <time>2022-08-14T07:16:53.000Z</time>
      </trkpt>
      <trkpt lat="47.26825" lon="-2.32354">
        <ele>43.200000762939</ele>
        <time>2022-08-14T07:16:54.000Z</time>
      </trkpt>
      <trkpt lat="47.26831" lon="-2.32353">
        <ele>42.799999237061</ele>
        <time>2022-08-14T07:16:55.000Z</time>
      </trkpt>
      <trkpt lat="47.26836" lon="-2.32351">
        <ele>42.200000762939</ele>
        <time>2022-08-14T07:16:56.000Z</time>
      </trkpt>
      <trkpt lat="47.26842" lon="-2.3235">
        <ele>41.799999237061</ele>
        <time>2022-08-14T07:16:57.000Z</time>
      </trkpt>
      <trkpt lat="47.26849" lon="-2.32348">
        <ele>41.400001525879</ele>
        <time>2022-08-14T07:16:58.000Z</time>
      </trkpt>
      <trkpt lat="47.26856" lon="-2.32347">
        <ele>40.799999237061</ele>
        <time>2022-08-14T07:16:59.000Z</time>
      </trkpt>
      <trkpt lat="47.26863" lon="-2.32345">
        <ele>40.400001525879</ele>
        <time>2022-08-14T07:17:00.000Z</time>
      </trkpt>
      <trkpt lat="47.2687" lon="-2.32344">
        <ele>39.799999237061</ele>
        <time>2022-08-14T07:17:01.000Z</time>
      </trkpt>
      <trkpt lat="47.26877" lon="-2.32343">
        <ele>39</ele>
        <time>2022-08-14T07:17:02.000Z</time>
      </trkpt>
      <trkpt lat="47.26884" lon="-2.32342">
        <ele>38.599998474121</ele>
        <time>2022-08-14T07:17:03.000Z</time>
      </trkpt>
      <trkpt lat="47.26892" lon="-2.32341">
        <ele>38</ele>
        <time>2022-08-14T07:17:04.000Z</time>
      </trkpt>
      <trkpt lat="47.26899" lon="-2.32339">
        <ele>37.599998474121</ele>
        <time>2022-08-14T07:17:05.000Z</time>
      </trkpt>
      <trkpt lat="47.26905" lon="-2.32338">
        <ele>37.599998474121</ele>
        <time>2022-08-14T07:17:06.000Z</time>
      </trkpt>
      <trkpt lat="47.26911" lon="-2.32337">
        <ele>37.200000762939</ele>
        <time>2022-08-14T07:17:07.000Z</time>
      </trkpt>
      <trkpt lat="47.26916" lon="-2.32337">
        <ele>36.599998474121</ele>
        <time>2022-08-14T07:17:08.000Z</time>
      </trkpt>
      <trkpt lat="47.26922" lon="-2.32339">
        <ele>36.200000762939</ele>
        <time>2022-08-14T07:17:09.000Z</time>
      </trkpt>
      <trkpt lat="47.26926" lon="-2.32343">
        <ele>35.599998474121</ele>
        <time>2022-08-14T07:17:10.000Z</time>
      </trkpt>
      <trkpt lat="47.2693" lon="-2.32348">
        <ele>35.200000762939</ele>
        <time>2022-08-14T07:17:11.000Z</time>
      </trkpt>
      <trkpt lat="47.26939" lon="-2.32368">
        <ele>35.200000762939</ele>
        <time>2022-08-14T07:17:14.000Z</time>
      </trkpt>
      <trkpt lat="47.26942" lon="-2.32383">
        <ele>35.200000762939</ele>
        <time>2022-08-14T07:17:16.000Z</time>
      </trkpt>
      <trkpt lat="47.26947" lon="-2.32399">
        <ele>35.200000762939</ele>
        <time>2022-08-14T07:17:18.000Z</time>
      </trkpt>
      <trkpt lat="47.26949" lon="-2.32406">
        <ele>35.200000762939</ele>
        <time>2022-08-14T07:17:19.000Z</time>
      </trkpt>
      <trkpt lat="47.26955" lon="-2.32421">
        <ele>34.799999237061</ele>
        <time>2022-08-14T07:17:21.000Z</time>
      </trkpt>
      <trkpt lat="47.26959" lon="-2.32428">
        <ele>34.400001525879</ele>
        <time>2022-08-14T07:17:22.000Z</time>
      </trkpt>
      <trkpt lat="47.26963" lon="-2.32436">
        <ele>34</ele>
        <time>2022-08-14T07:17:23.000Z</time>
      </trkpt>
      <trkpt lat="47.26968" lon="-2.32441">
        <ele>33.599998474121</ele>
        <time>2022-08-14T07:17:24.000Z</time>
      </trkpt>
      <trkpt lat="47.26972" lon="-2.32446">
        <ele>33.200000762939</ele>
        <time>2022-08-14T07:17:25.000Z</time>
      </trkpt>
      <trkpt lat="47.26977" lon="-2.32451">
        <ele>33.200000762939</ele>
        <time>2022-08-14T07:17:26.000Z</time>
      </trkpt>
      <trkpt lat="47.26981" lon="-2.32457">
        <ele>33.200000762939</ele>
        <time>2022-08-14T07:17:27.000Z</time>
      </trkpt>
      <trkpt lat="47.26988" lon="-2.32469">
        <ele>33.200000762939</ele>
        <time>2022-08-14T07:17:29.000Z</time>
      </trkpt>
      <trkpt lat="47.27003" lon="-2.32501">
        <ele>33.200000762939</ele>
        <time>2022-08-14T07:17:34.000Z</time>
      </trkpt>
      <trkpt lat="47.27008" lon="-2.32503">
        <ele>33.200000762939</ele>
        <time>2022-08-14T07:17:35.000Z</time>
      </trkpt>
      <trkpt lat="47.27012" lon="-2.32503">
        <ele>32.799999237061</ele>
        <time>2022-08-14T07:17:36.000Z</time>
      </trkpt>
      <trkpt lat="47.27017" lon="-2.32502">
        <ele>32.200000762939</ele>
        <time>2022-08-14T07:17:37.000Z</time>
      </trkpt>
      <trkpt lat="47.27021" lon="-2.32501">
        <ele>31.799999237061</ele>
        <time>2022-08-14T07:17:38.000Z</time>
      </trkpt>
      <trkpt lat="47.27025" lon="-2.32499">
        <ele>31.39999961853</ele>
        <time>2022-08-14T07:17:39.000Z</time>
      </trkpt>
      <trkpt lat="47.27028" lon="-2.32494">
        <ele>31</ele>
        <time>2022-08-14T07:17:40.000Z</time>
      </trkpt>
      <trkpt lat="47.2703" lon="-2.32479">
        <ele>31</ele>
        <time>2022-08-14T07:17:42.000Z</time>
      </trkpt>
      <trkpt lat="47.27029" lon="-2.32452">
        <ele>31</ele>
        <time>2022-08-14T07:17:46.000Z</time>
      </trkpt>
      <trkpt lat="47.27028" lon="-2.32423">
        <ele>31</ele>
        <time>2022-08-14T07:17:50.000Z</time>
      </trkpt>
      <trkpt lat="47.27028" lon="-2.32415">
        <ele>31</ele>
        <time>2022-08-14T07:17:51.000Z</time>
      </trkpt>
      <trkpt lat="47.27023" lon="-2.32368">
        <ele>31</ele>
        <time>2022-08-14T07:17:57.000Z</time>
      </trkpt>
      <trkpt lat="47.2702" lon="-2.32345">
        <ele>31</ele>
        <time>2022-08-14T07:18:00.000Z</time>
      </trkpt>
      <trkpt lat="47.27019" lon="-2.32328">
        <ele>31</ele>
        <time>2022-08-14T07:18:02.000Z</time>
      </trkpt>
      <trkpt lat="47.27018" lon="-2.32321">
        <ele>31</ele>
        <time>2022-08-14T07:18:03.000Z</time>
      </trkpt>
      <trkpt lat="47.27018" lon="-2.32297">
        <ele>31</ele>
        <time>2022-08-14T07:18:06.000Z</time>
      </trkpt>
      <trkpt lat="47.27017" lon="-2.32256">
        <ele>31</ele>
        <time>2022-08-14T07:18:11.000Z</time>
      </trkpt>
      <trkpt lat="47.27015" lon="-2.32231">
        <ele>31</ele>
        <time>2022-08-14T07:18:14.000Z</time>
      </trkpt>
      <trkpt lat="47.27012" lon="-2.32215">
        <ele>31</ele>
        <time>2022-08-14T07:18:16.000Z</time>
      </trkpt>
      <trkpt lat="47.27003" lon="-2.32187">
        <ele>31</ele>
        <time>2022-08-14T07:18:20.000Z</time>
      </trkpt>
      <trkpt lat="47.27" lon="-2.3218">
        <ele>31</ele>
        <time>2022-08-14T07:18:21.000Z</time>
      </trkpt>
      <trkpt lat="47.26988" lon="-2.32153">
        <ele>31</ele>
        <time>2022-08-14T07:18:25.000Z</time>
      </trkpt>
      <trkpt lat="47.26994" lon="-2.32135">
        <ele>31</ele>
        <time>2022-08-14T07:18:28.000Z</time>
      </trkpt>
      <trkpt lat="47.26997" lon="-2.32132">
        <ele>31</ele>
        <time>2022-08-14T07:18:29.000Z</time>
      </trkpt>
      <trkpt lat="47.27005" lon="-2.32126">
        <ele>31</ele>
        <time>2022-08-14T07:18:31.000Z</time>
      </trkpt>
      <trkpt lat="47.27009" lon="-2.32115">
        <ele>31</ele>
        <time>2022-08-14T07:18:33.000Z</time>
      </trkpt>
      <trkpt lat="47.27012" lon="-2.32102">
        <ele>31</ele>
        <time>2022-08-14T07:18:35.000Z</time>
      </trkpt>
      <trkpt lat="47.27013" lon="-2.32088">
        <ele>31</ele>
        <time>2022-08-14T07:18:37.000Z</time>
      </trkpt>
      <trkpt lat="47.27014" lon="-2.32073">
        <ele>31</ele>
        <time>2022-08-14T07:18:39.000Z</time>
      </trkpt>
      <trkpt lat="47.27015" lon="-2.32058">
        <ele>31</ele>
        <time>2022-08-14T07:18:41.000Z</time>
      </trkpt>
      <trkpt lat="47.27014" lon="-2.32044">
        <ele>31</ele>
        <time>2022-08-14T07:18:43.000Z</time>
      </trkpt>
      <trkpt lat="47.27013" lon="-2.32031">
        <ele>31</ele>
        <time>2022-08-14T07:18:45.000Z</time>
      </trkpt>
      <trkpt lat="47.27008" lon="-2.32008">
        <ele>31.39999961853</ele>
        <time>2022-08-14T07:18:49.000Z</time>
      </trkpt>
      <trkpt lat="47.27007" lon="-2.32004">
        <ele>31.799999237061</ele>
        <time>2022-08-14T07:18:50.000Z</time>
      </trkpt>
      <trkpt lat="47.27006" lon="-2.32">
        <ele>32.200000762939</ele>
        <time>2022-08-14T07:18:51.000Z</time>
      </trkpt>
      <trkpt lat="47.27005" lon="-2.31997">
        <ele>32.599998474121</ele>
        <time>2022-08-14T07:18:52.000Z</time>
      </trkpt>
      <trkpt lat="47.27004" lon="-2.31994">
        <ele>33</ele>
        <time>2022-08-14T07:18:53.000Z</time>
      </trkpt>
      <trkpt lat="47.27003" lon="-2.31992">
        <ele>33</ele>
        <time>2022-08-14T07:18:54.000Z</time>
      </trkpt>
      <trkpt lat="47.26993" lon="-2.31993">
        <ele>33</ele>
        <time>2022-08-14T07:18:58.000Z</time>
      </trkpt>
      <trkpt lat="47.2698" lon="-2.31996">
        <ele>33</ele>
        <time>2022-08-14T07:19:02.000Z</time>
      </trkpt>
      <trkpt lat="47.26977" lon="-2.31996">
        <ele>33</ele>
        <time>2022-08-14T07:19:03.000Z</time>
      </trkpt>
      <trkpt lat="47.26957" lon="-2.31998">
        <ele>33</ele>
        <time>2022-08-14T07:19:08.000Z</time>
      </trkpt>
      <trkpt lat="47.26944" lon="-2.31986">
        <ele>33.400001525879</ele>
        <time>2022-08-14T07:19:12.000Z</time>
      </trkpt>
      <trkpt lat="47.26941" lon="-2.31983">
        <ele>33.799999237061</ele>
        <time>2022-08-14T07:19:13.000Z</time>
      </trkpt>
      <trkpt lat="47.26938" lon="-2.31979">
        <ele>34.200000762939</ele>
        <time>2022-08-14T07:19:14.000Z</time>
      </trkpt>
      <trkpt lat="47.26936" lon="-2.31975">
        <ele>34.799999237061</ele>
        <time>2022-08-14T07:19:15.000Z</time>
      </trkpt>
      <trkpt lat="47.26933" lon="-2.31971">
        <ele>35.200000762939</ele>
        <time>2022-08-14T07:19:16.000Z</time>
      </trkpt>
      <trkpt lat="47.2693" lon="-2.31968">
        <ele>35.200000762939</ele>
        <time>2022-08-14T07:19:17.000Z</time>
      </trkpt>
      <trkpt lat="47.26909" lon="-2.31943">
        <ele>35.200000762939</ele>
        <time>2022-08-14T07:19:24.000Z</time>
      </trkpt>
      <trkpt lat="47.26903" lon="-2.31935">
        <ele>35.599998474121</ele>
        <time>2022-08-14T07:19:26.000Z</time>
      </trkpt>
      <trkpt lat="47.269" lon="-2.3193">
        <ele>36</ele>
        <time>2022-08-14T07:19:27.000Z</time>
      </trkpt>
      <trkpt lat="47.26897" lon="-2.31925">
        <ele>36.400001525879</ele>
        <time>2022-08-14T07:19:28.000Z</time>
      </trkpt>
      <trkpt lat="47.26894" lon="-2.31921">
        <ele>36.799999237061</ele>
        <time>2022-08-14T07:19:29.000Z</time>
      </trkpt>
      <trkpt lat="47.26891" lon="-2.31916">
        <ele>37.200000762939</ele>
        <time>2022-08-14T07:19:30.000Z</time>
      </trkpt>
      <trkpt lat="47.26885" lon="-2.31907">
        <ele>37.799999237061</ele>
        <time>2022-08-14T07:19:32.000Z</time>
      </trkpt>
      <trkpt lat="47.26882" lon="-2.31903">
        <ele>38.200000762939</ele>
        <time>2022-08-14T07:19:33.000Z</time>
      </trkpt>
      <trkpt lat="47.26879" lon="-2.319">
        <ele>38.599998474121</ele>
        <time>2022-08-14T07:19:34.000Z</time>
      </trkpt>
      <trkpt lat="47.26875" lon="-2.31897">
        <ele>39</ele>
        <time>2022-08-14T07:19:35.000Z</time>
      </trkpt>
      <trkpt lat="47.26871" lon="-2.31895">
        <ele>39.400001525879</ele>
        <time>2022-08-14T07:19:36.000Z</time>
      </trkpt>
      <trkpt lat="47.26853" lon="-2.3189">
        <ele>39.400001525879</ele>
        <time>2022-08-14T07:19:40.000Z</time>
      </trkpt>
      <trkpt lat="47.26845" lon="-2.31887">
        <ele>39.400001525879</ele>
        <time>2022-08-14T07:19:42.000Z</time>
      </trkpt>
      <trkpt lat="47.26839" lon="-2.31879">
        <ele>39.400001525879</ele>
        <time>2022-08-14T07:19:44.000Z</time>
      </trkpt>
      <trkpt lat="47.26837" lon="-2.31875">
        <ele>39.799999237061</ele>
        <time>2022-08-14T07:19:45.000Z</time>
      </trkpt>
      <trkpt lat="47.26835" lon="-2.3187">
        <ele>40.200000762939</ele>
        <time>2022-08-14T07:19:46.000Z</time>
      </trkpt>
      <trkpt lat="47.26833" lon="-2.31865">
        <ele>40.599998474121</ele>
        <time>2022-08-14T07:19:47.000Z</time>
      </trkpt>
      <trkpt lat="47.26832" lon="-2.31861">
        <ele>41</ele>
        <time>2022-08-14T07:19:48.000Z</time>
      </trkpt>
      <trkpt lat="47.2683" lon="-2.31857">
        <ele>41.599998474121</ele>
        <time>2022-08-14T07:19:49.000Z</time>
      </trkpt>
      <trkpt lat="47.26822" lon="-2.31834">
        <ele>42.400001525879</ele>
        <time>2022-08-14T07:19:55.000Z</time>
      </trkpt>
      <trkpt lat="47.26821" lon="-2.3183">
        <ele>42.799999237061</ele>
        <time>2022-08-14T07:19:56.000Z</time>
      </trkpt>
      <trkpt lat="47.2682" lon="-2.31827">
        <ele>43.200000762939</ele>
        <time>2022-08-14T07:19:57.000Z</time>
      </trkpt>
      <trkpt lat="47.26819" lon="-2.31824">
        <ele>43.599998474121</ele>
        <time>2022-08-14T07:19:58.000Z</time>
      </trkpt>
      <trkpt lat="47.26818" lon="-2.31815">
        <ele>43.599998474121</ele>
        <time>2022-08-14T07:20:01.000Z</time>
      </trkpt>
      <trkpt lat="47.26818" lon="-2.31812">
        <ele>43.599998474121</ele>
        <time>2022-08-14T07:20:02.000Z</time>
      </trkpt>
      <trkpt lat="47.26812" lon="-2.3181">
        <ele>43.599998474121</ele>
        <time>2022-08-14T07:20:05.000Z</time>
      </trkpt>
      <trkpt lat="47.26809" lon="-2.31811">
        <ele>43.599998474121</ele>
        <time>2022-08-14T07:20:06.000Z</time>
      </trkpt>
      <trkpt lat="47.26794" lon="-2.31818">
        <ele>43.599998474121</ele>
        <time>2022-08-14T07:20:10.000Z</time>
      </trkpt>
      <trkpt lat="47.26766" lon="-2.31836">
        <ele>43.599998474121</ele>
        <time>2022-08-14T07:20:17.000Z</time>
      </trkpt>
      <trkpt lat="47.26743" lon="-2.31855">
        <ele>43.599998474121</ele>
        <time>2022-08-14T07:20:23.000Z</time>
      </trkpt>
      <trkpt lat="47.26736" lon="-2.31858">
        <ele>43.599998474121</ele>
        <time>2022-08-14T07:20:25.000Z</time>
      </trkpt>
      <trkpt lat="47.26731" lon="-2.31851">
        <ele>43.599998474121</ele>
        <time>2022-08-14T07:20:27.000Z</time>
      </trkpt>
      <trkpt lat="47.2673" lon="-2.31846">
        <ele>44</ele>
        <time>2022-08-14T07:20:28.000Z</time>
      </trkpt>
      <trkpt lat="47.26728" lon="-2.31841">
        <ele>44.400001525879</ele>
        <time>2022-08-14T07:20:29.000Z</time>
      </trkpt>
      <trkpt lat="47.26726" lon="-2.31835">
        <ele>44.799999237061</ele>
        <time>2022-08-14T07:20:30.000Z</time>
      </trkpt>
      <trkpt lat="47.26725" lon="-2.3183">
        <ele>45.200000762939</ele>
        <time>2022-08-14T07:20:31.000Z</time>
      </trkpt>
      <trkpt lat="47.26723" lon="-2.31824">
        <ele>45.599998474121</ele>
        <time>2022-08-14T07:20:32.000Z</time>
      </trkpt>
      <trkpt lat="47.26722" lon="-2.31818">
        <ele>45.599998474121</ele>
        <time>2022-08-14T07:20:33.000Z</time>
      </trkpt>
      <trkpt lat="47.2671" lon="-2.31776">
        <ele>45.599998474121</ele>
        <time>2022-08-14T07:20:39.000Z</time>
      </trkpt>
      <trkpt lat="47.26693" lon="-2.31715">
        <ele>45.599998474121</ele>
        <time>2022-08-14T07:20:47.000Z</time>
      </trkpt>
      <trkpt lat="47.26676" lon="-2.31657">
        <ele>45.599998474121</ele>
        <time>2022-08-14T07:20:54.000Z</time>
      </trkpt>
      <trkpt lat="47.26653" lon="-2.31601">
        <ele>45.599998474121</ele>
        <time>2022-08-14T07:21:01.000Z</time>
      </trkpt>
      <trkpt lat="47.26628" lon="-2.31538">
        <ele>45.599998474121</ele>
        <time>2022-08-14T07:21:09.000Z</time>
      </trkpt>
      <trkpt lat="47.2661" lon="-2.31494">
        <ele>45.599998474121</ele>
        <time>2022-08-14T07:21:15.000Z</time>
      </trkpt>
      <trkpt lat="47.26615" lon="-2.31475">
        <ele>45.599998474121</ele>
        <time>2022-08-14T07:21:18.000Z</time>
      </trkpt>
      <trkpt lat="47.26617" lon="-2.31471">
        <ele>45.599998474121</ele>
        <time>2022-08-14T07:21:19.000Z</time>
      </trkpt>
      <trkpt lat="47.26624" lon="-2.31464">
        <ele>45.599998474121</ele>
        <time>2022-08-14T07:21:21.000Z</time>
      </trkpt>
      <trkpt lat="47.26628" lon="-2.31461">
        <ele>45.599998474121</ele>
        <time>2022-08-14T07:21:22.000Z</time>
      </trkpt>
      <trkpt lat="47.26654" lon="-2.3144">
        <ele>46</ele>
        <time>2022-08-14T07:21:29.000Z</time>
      </trkpt>
      <trkpt lat="47.26657" lon="-2.31438">
        <ele>46.400001525879</ele>
        <time>2022-08-14T07:21:30.000Z</time>
      </trkpt>
      <trkpt lat="47.26661" lon="-2.31436">
        <ele>46.799999237061</ele>
        <time>2022-08-14T07:21:31.000Z</time>
      </trkpt>
      <trkpt lat="47.26664" lon="-2.31434">
        <ele>47.200000762939</ele>
        <time>2022-08-14T07:21:32.000Z</time>
      </trkpt>
      <trkpt lat="47.26668" lon="-2.31433">
        <ele>47.799999237061</ele>
        <time>2022-08-14T07:21:33.000Z</time>
      </trkpt>
      <trkpt lat="47.26672" lon="-2.31431">
        <ele>47.799999237061</ele>
        <time>2022-08-14T07:21:34.000Z</time>
      </trkpt>
      <trkpt lat="47.26697" lon="-2.31416">
        <ele>47.799999237061</ele>
        <time>2022-08-14T07:21:40.000Z</time>
      </trkpt>
      <trkpt lat="47.26719" lon="-2.31403">
        <ele>48.200000762939</ele>
        <time>2022-08-14T07:21:45.000Z</time>
      </trkpt>
      <trkpt lat="47.26723" lon="-2.314">
        <ele>48.599998474121</ele>
        <time>2022-08-14T07:21:46.000Z</time>
      </trkpt>
      <trkpt lat="47.26727" lon="-2.31397">
        <ele>49</ele>
        <time>2022-08-14T07:21:47.000Z</time>
      </trkpt>
      <trkpt lat="47.26732" lon="-2.31395">
        <ele>49.400001525879</ele>
        <time>2022-08-14T07:21:48.000Z</time>
      </trkpt>
      <trkpt lat="47.26737" lon="-2.31393">
        <ele>49.799999237061</ele>
        <time>2022-08-14T07:21:49.000Z</time>
      </trkpt>
      <trkpt lat="47.26746" lon="-2.31387">
        <ele>49.799999237061</ele>
        <time>2022-08-14T07:21:51.000Z</time>
      </trkpt>
      <trkpt lat="47.2675" lon="-2.31384">
        <ele>49.799999237061</ele>
        <time>2022-08-14T07:21:52.000Z</time>
      </trkpt>
      <trkpt lat="47.26757" lon="-2.31378">
        <ele>49.799999237061</ele>
        <time>2022-08-14T07:21:54.000Z</time>
      </trkpt>
      <trkpt lat="47.26762" lon="-2.31376">
        <ele>49.799999237061</ele>
        <time>2022-08-14T07:21:55.000Z</time>
      </trkpt>
      <trkpt lat="47.26785" lon="-2.31365">
        <ele>49.799999237061</ele>
        <time>2022-08-14T07:22:00.000Z</time>
      </trkpt>
      <trkpt lat="47.26798" lon="-2.31357">
        <ele>49.799999237061</ele>
        <time>2022-08-14T07:22:03.000Z</time>
      </trkpt>
      <trkpt lat="47.26816" lon="-2.31344">
        <ele>49.799999237061</ele>
        <time>2022-08-14T07:22:08.000Z</time>
      </trkpt>
      <trkpt lat="47.26827" lon="-2.31334">
        <ele>49.799999237061</ele>
        <time>2022-08-14T07:22:11.000Z</time>
      </trkpt>
      <trkpt lat="47.2683" lon="-2.31329">
        <ele>49.799999237061</ele>
        <time>2022-08-14T07:22:12.000Z</time>
      </trkpt>
      <trkpt lat="47.26838" lon="-2.313">
        <ele>49.799999237061</ele>
        <time>2022-08-14T07:22:16.000Z</time>
      </trkpt>
      <trkpt lat="47.26846" lon="-2.31247">
        <ele>49.799999237061</ele>
        <time>2022-08-14T07:22:22.000Z</time>
      </trkpt>
      <trkpt lat="47.26849" lon="-2.31191">
        <ele>49.799999237061</ele>
        <time>2022-08-14T07:22:28.000Z</time>
      </trkpt>
      <trkpt lat="47.2685" lon="-2.31165">
        <ele>49.799999237061</ele>
        <time>2022-08-14T07:22:31.000Z</time>
      </trkpt>
      <trkpt lat="47.26852" lon="-2.31141">
        <ele>49.799999237061</ele>
        <time>2022-08-14T07:22:34.000Z</time>
      </trkpt>
      <trkpt lat="47.26852" lon="-2.3109">
        <ele>49.799999237061</ele>
        <time>2022-08-14T07:22:41.000Z</time>
      </trkpt>
      <trkpt lat="47.2685" lon="-2.31044">
        <ele>49.799999237061</ele>
        <time>2022-08-14T07:22:47.000Z</time>
      </trkpt>
      <trkpt lat="47.26846" lon="-2.30985">
        <ele>49.799999237061</ele>
        <time>2022-08-14T07:22:54.000Z</time>
      </trkpt>
      <trkpt lat="47.26837" lon="-2.30917">
        <ele>49.799999237061</ele>
        <time>2022-08-14T07:23:02.000Z</time>
      </trkpt>
      <trkpt lat="47.26829" lon="-2.30839">
        <ele>49.799999237061</ele>
        <time>2022-08-14T07:23:11.000Z</time>
      </trkpt>
      <trkpt lat="47.2683" lon="-2.30801">
        <ele>49.799999237061</ele>
        <time>2022-08-14T07:23:16.000Z</time>
      </trkpt>
      <trkpt lat="47.26821" lon="-2.30794">
        <ele>49.799999237061</ele>
        <time>2022-08-14T07:23:19.000Z</time>
      </trkpt>
      <trkpt lat="47.26805" lon="-2.30805">
        <ele>49.799999237061</ele>
        <time>2022-08-14T07:23:23.000Z</time>
      </trkpt>
      <trkpt lat="47.26801" lon="-2.30809">
        <ele>49.799999237061</ele>
        <time>2022-08-14T07:23:24.000Z</time>
      </trkpt>
      <trkpt lat="47.26779" lon="-2.30834">
        <ele>49.799999237061</ele>
        <time>2022-08-14T07:23:29.000Z</time>
      </trkpt>
      <trkpt lat="47.26748" lon="-2.30865">
        <ele>49.799999237061</ele>
        <time>2022-08-14T07:23:36.000Z</time>
      </trkpt>
      <trkpt lat="47.26734" lon="-2.30863">
        <ele>49.799999237061</ele>
        <time>2022-08-14T07:23:39.000Z</time>
      </trkpt>
      <trkpt lat="47.26727" lon="-2.30853">
        <ele>49.799999237061</ele>
        <time>2022-08-14T07:23:41.000Z</time>
      </trkpt>
      <trkpt lat="47.2672" lon="-2.30841">
        <ele>49.799999237061</ele>
        <time>2022-08-14T07:23:43.000Z</time>
      </trkpt>
      <trkpt lat="47.26702" lon="-2.30799">
        <ele>49.799999237061</ele>
        <time>2022-08-14T07:23:49.000Z</time>
      </trkpt>
      <trkpt lat="47.26693" lon="-2.30774">
        <ele>49.400001525879</ele>
        <time>2022-08-14T07:23:52.000Z</time>
      </trkpt>
      <trkpt lat="47.26689" lon="-2.30766">
        <ele>49</ele>
        <time>2022-08-14T07:23:53.000Z</time>
      </trkpt>
      <trkpt lat="47.26686" lon="-2.30758">
        <ele>48.599998474121</ele>
        <time>2022-08-14T07:23:54.000Z</time>
      </trkpt>
      <trkpt lat="47.26682" lon="-2.3075">
        <ele>48.200000762939</ele>
        <time>2022-08-14T07:23:55.000Z</time>
      </trkpt>
      <trkpt lat="47.26678" lon="-2.30741">
        <ele>47.799999237061</ele>
        <time>2022-08-14T07:23:56.000Z</time>
      </trkpt>
      <trkpt lat="47.2667" lon="-2.30724">
        <ele>47.400001525879</ele>
        <time>2022-08-14T07:23:58.000Z</time>
      </trkpt>
      <trkpt lat="47.26666" lon="-2.30715">
        <ele>47</ele>
        <time>2022-08-14T07:23:59.000Z</time>
      </trkpt>
      <trkpt lat="47.26664" lon="-2.30709">
        <ele>46.599998474121</ele>
        <time>2022-08-14T07:24:00.000Z</time>
      </trkpt>
      <trkpt lat="47.26661" lon="-2.30703">
        <ele>46.200000762939</ele>
        <time>2022-08-14T07:24:01.000Z</time>
      </trkpt>
      <trkpt lat="47.26658" lon="-2.30698">
        <ele>45.799999237061</ele>
        <time>2022-08-14T07:24:02.000Z</time>
      </trkpt>
      <trkpt lat="47.26651" lon="-2.30695">
        <ele>45.799999237061</ele>
        <time>2022-08-14T07:24:04.000Z</time>
      </trkpt>
      <trkpt lat="47.26649" lon="-2.30703">
        <ele>45.799999237061</ele>
        <time>2022-08-14T07:24:06.000Z</time>
      </trkpt>
      <trkpt lat="47.26641" lon="-2.30724">
        <ele>45.200000762939</ele>
        <time>2022-08-14T07:24:10.000Z</time>
      </trkpt>
      <trkpt lat="47.26636" lon="-2.30727">
        <ele>44.799999237061</ele>
        <time>2022-08-14T07:24:11.000Z</time>
      </trkpt>
      <trkpt lat="47.26632" lon="-2.30731">
        <ele>44.400001525879</ele>
        <time>2022-08-14T07:24:12.000Z</time>
      </trkpt>
      <trkpt lat="47.26628" lon="-2.30736">
        <ele>44</ele>
        <time>2022-08-14T07:24:13.000Z</time>
      </trkpt>
      <trkpt lat="47.26626" lon="-2.3074">
        <ele>43.599998474121</ele>
        <time>2022-08-14T07:24:14.000Z</time>
      </trkpt>
      <trkpt lat="47.26623" lon="-2.30748">
        <ele>43.599998474121</ele>
        <time>2022-08-14T07:24:16.000Z</time>
      </trkpt>
      <trkpt lat="47.26623" lon="-2.30754">
        <ele>43.599998474121</ele>
        <time>2022-08-14T07:24:18.000Z</time>
      </trkpt>
      <trkpt lat="47.26621" lon="-2.30758">
        <ele>43.599998474121</ele>
        <time>2022-08-14T07:24:19.000Z</time>
      </trkpt>
      <trkpt lat="47.26618" lon="-2.30761">
        <ele>43.599998474121</ele>
        <time>2022-08-14T07:24:20.000Z</time>
      </trkpt>
      <trkpt lat="47.266" lon="-2.30772">
        <ele>43.599998474121</ele>
        <time>2022-08-14T07:24:25.000Z</time>
      </trkpt>
      <trkpt lat="47.26596" lon="-2.30775">
        <ele>43.200000762939</ele>
        <time>2022-08-14T07:24:26.000Z</time>
      </trkpt>
      <trkpt lat="47.26594" lon="-2.30785">
        <ele>42.400001525879</ele>
        <time>2022-08-14T07:24:27.000Z</time>
      </trkpt>
      <trkpt lat="47.26589" lon="-2.30793">
        <ele>42</ele>
        <time>2022-08-14T07:24:28.000Z</time>
      </trkpt>
      <trkpt lat="47.26585" lon="-2.30799">
        <ele>41.599998474121</ele>
        <time>2022-08-14T07:24:29.000Z</time>
      </trkpt>
      <trkpt lat="47.26581" lon="-2.30805">
        <ele>41.599998474121</ele>
        <time>2022-08-14T07:24:30.000Z</time>
      </trkpt>
      <trkpt lat="47.26577" lon="-2.30812">
        <ele>41.599998474121</ele>
        <time>2022-08-14T07:24:31.000Z</time>
      </trkpt>
      <trkpt lat="47.2657" lon="-2.30824">
        <ele>41.599998474121</ele>
        <time>2022-08-14T07:24:33.000Z</time>
      </trkpt>
      <trkpt lat="47.26568" lon="-2.30828">
        <ele>41.200000762939</ele>
        <time>2022-08-14T07:24:34.000Z</time>
      </trkpt>
      <trkpt lat="47.26564" lon="-2.30833">
        <ele>40.599998474121</ele>
        <time>2022-08-14T07:24:35.000Z</time>
      </trkpt>
      <trkpt lat="47.26561" lon="-2.30836">
        <ele>40.200000762939</ele>
        <time>2022-08-14T07:24:36.000Z</time>
      </trkpt>
      <trkpt lat="47.26558" lon="-2.30838">
        <ele>39.799999237061</ele>
        <time>2022-08-14T07:24:37.000Z</time>
      </trkpt>
      <trkpt lat="47.26555" lon="-2.30841">
        <ele>39.400001525879</ele>
        <time>2022-08-14T07:24:38.000Z</time>
      </trkpt>
      <trkpt lat="47.26545" lon="-2.30849">
        <ele>39.400001525879</ele>
        <time>2022-08-14T07:24:41.000Z</time>
      </trkpt>
      <trkpt lat="47.2654" lon="-2.30858">
        <ele>39.400001525879</ele>
        <time>2022-08-14T07:24:44.000Z</time>
      </trkpt>
      <trkpt lat="47.26538" lon="-2.30861">
        <ele>39.400001525879</ele>
        <time>2022-08-14T07:24:45.000Z</time>
      </trkpt>
      <trkpt lat="47.26525" lon="-2.30876">
        <ele>39.400001525879</ele>
        <time>2022-08-14T07:24:49.000Z</time>
      </trkpt>
      <trkpt lat="47.2652" lon="-2.30881">
        <ele>39</ele>
        <time>2022-08-14T07:24:50.000Z</time>
      </trkpt>
      <trkpt lat="47.26517" lon="-2.30884">
        <ele>38.599998474121</ele>
        <time>2022-08-14T07:24:51.000Z</time>
      </trkpt>
      <trkpt lat="47.26514" lon="-2.30884">
        <ele>37.799999237061</ele>
        <time>2022-08-14T07:24:52.000Z</time>
      </trkpt>
      <trkpt lat="47.2651" lon="-2.30881">
        <ele>37.400001525879</ele>
        <time>2022-08-14T07:24:53.000Z</time>
      </trkpt>
      <trkpt lat="47.26503" lon="-2.30871">
        <ele>37.400001525879</ele>
        <time>2022-08-14T07:24:56.000Z</time>
      </trkpt>
      <trkpt lat="47.26501" lon="-2.30868">
        <ele>37.400001525879</ele>
        <time>2022-08-14T07:24:57.000Z</time>
      </trkpt>
      <trkpt lat="47.26498" lon="-2.30863">
        <ele>37.799999237061</ele>
        <time>2022-08-14T07:24:59.000Z</time>
      </trkpt>
      <trkpt lat="47.26495" lon="-2.3086">
        <ele>38.200000762939</ele>
        <time>2022-08-14T07:25:00.000Z</time>
      </trkpt>
      <trkpt lat="47.26493" lon="-2.30859">
        <ele>38.599998474121</ele>
        <time>2022-08-14T07:25:01.000Z</time>
      </trkpt>
      <trkpt lat="47.26491" lon="-2.30857">
        <ele>39</ele>
        <time>2022-08-14T07:25:02.000Z</time>
      </trkpt>
      <trkpt lat="47.26489" lon="-2.30854">
        <ele>39.400001525879</ele>
        <time>2022-08-14T07:25:03.000Z</time>
      </trkpt>
      <trkpt lat="47.26484" lon="-2.30842">
        <ele>39.400001525879</ele>
        <time>2022-08-14T07:25:06.000Z</time>
      </trkpt>
      <trkpt lat="47.26481" lon="-2.30838">
        <ele>39.799999237061</ele>
        <time>2022-08-14T07:25:07.000Z</time>
      </trkpt>
      <trkpt lat="47.26479" lon="-2.30833">
        <ele>40.200000762939</ele>
        <time>2022-08-14T07:25:08.000Z</time>
      </trkpt>
      <trkpt lat="47.26478" lon="-2.30827">
        <ele>40.599998474121</ele>
        <time>2022-08-14T07:25:09.000Z</time>
      </trkpt>
      <trkpt lat="47.26476" lon="-2.30822">
        <ele>41</ele>
        <time>2022-08-14T07:25:10.000Z</time>
      </trkpt>
      <trkpt lat="47.26473" lon="-2.30817">
        <ele>41.400001525879</ele>
        <time>2022-08-14T07:25:11.000Z</time>
      </trkpt>
      <trkpt lat="47.26471" lon="-2.30812">
        <ele>41.400001525879</ele>
        <time>2022-08-14T07:25:12.000Z</time>
      </trkpt>
      <trkpt lat="47.26461" lon="-2.30785">
        <ele>41.799999237061</ele>
        <time>2022-08-14T07:25:17.000Z</time>
      </trkpt>
      <trkpt lat="47.26459" lon="-2.3078">
        <ele>42.200000762939</ele>
        <time>2022-08-14T07:25:18.000Z</time>
      </trkpt>
      <trkpt lat="47.26457" lon="-2.30775">
        <ele>42.599998474121</ele>
        <time>2022-08-14T07:25:19.000Z</time>
      </trkpt>
      <trkpt lat="47.26455" lon="-2.30769">
        <ele>43</ele>
        <time>2022-08-14T07:25:20.000Z</time>
      </trkpt>
      <trkpt lat="47.26454" lon="-2.30764">
        <ele>43.400001525879</ele>
        <time>2022-08-14T07:25:21.000Z</time>
      </trkpt>
      <trkpt lat="47.26452" lon="-2.30759">
        <ele>43.400001525879</ele>
        <time>2022-08-14T07:25:22.000Z</time>
      </trkpt>
      <trkpt lat="47.26439" lon="-2.30729">
        <ele>43.400001525879</ele>
        <time>2022-08-14T07:25:28.000Z</time>
      </trkpt>
      <trkpt lat="47.26426" lon="-2.30701">
        <ele>43.400001525879</ele>
        <time>2022-08-14T07:25:34.000Z</time>
      </trkpt>
      <trkpt lat="47.26422" lon="-2.30692">
        <ele>43.400001525879</ele>
        <time>2022-08-14T07:25:36.000Z</time>
      </trkpt>
      <trkpt lat="47.26418" lon="-2.30689">
        <ele>43.400001525879</ele>
        <time>2022-08-14T07:25:37.000Z</time>
      </trkpt>
      <trkpt lat="47.264" lon="-2.30676">
        <ele>43.400001525879</ele>
        <time>2022-08-14T07:25:41.000Z</time>
      </trkpt>
      <trkpt lat="47.26396" lon="-2.30672">
        <ele>43.400001525879</ele>
        <time>2022-08-14T07:25:42.000Z</time>
      </trkpt>
      <trkpt lat="47.26383" lon="-2.30658">
        <ele>43.400001525879</ele>
        <time>2022-08-14T07:25:45.000Z</time>
      </trkpt>
      <trkpt lat="47.26376" lon="-2.30649">
        <ele>43.400001525879</ele>
        <time>2022-08-14T07:25:47.000Z</time>
      </trkpt>
      <trkpt lat="47.2637" lon="-2.30641">
        <ele>43.400001525879</ele>
        <time>2022-08-14T07:25:49.000Z</time>
      </trkpt>
      <trkpt lat="47.26368" lon="-2.30635">
        <ele>43.799999237061</ele>
        <time>2022-08-14T07:25:50.000Z</time>
      </trkpt>
      <trkpt lat="47.26365" lon="-2.3063">
        <ele>44.200000762939</ele>
        <time>2022-08-14T07:25:51.000Z</time>
      </trkpt>
      <trkpt lat="47.26362" lon="-2.30625">
        <ele>44.599998474121</ele>
        <time>2022-08-14T07:25:52.000Z</time>
      </trkpt>
      <trkpt lat="47.2636" lon="-2.3062">
        <ele>45</ele>
        <time>2022-08-14T07:25:53.000Z</time>
      </trkpt>
      <trkpt lat="47.26357" lon="-2.30616">
        <ele>45.400001525879</ele>
        <time>2022-08-14T07:25:54.000Z</time>
      </trkpt>
      <trkpt lat="47.26351" lon="-2.30604">
        <ele>45.400001525879</ele>
        <time>2022-08-14T07:25:57.000Z</time>
      </trkpt>
      <trkpt lat="47.26349" lon="-2.30597">
        <ele>45.400001525879</ele>
        <time>2022-08-14T07:26:00.000Z</time>
      </trkpt>
      <trkpt lat="47.26348" lon="-2.30592">
        <ele>45.400001525879</ele>
        <time>2022-08-14T07:26:25.000Z</time>
      </trkpt>
      <trkpt lat="47.26346" lon="-2.30583">
        <ele>45.400001525879</ele>
        <time>2022-08-14T07:26:28.000Z</time>
      </trkpt>
      <trkpt lat="47.26345" lon="-2.3057">
        <ele>45.400001525879</ele>
        <time>2022-08-14T07:26:31.000Z</time>
      </trkpt>
      <trkpt lat="47.26345" lon="-2.30567">
        <ele>45.400001525879</ele>
        <time>2022-08-14T07:26:32.000Z</time>
      </trkpt>
      <trkpt lat="47.26341" lon="-2.30552">
        <ele>45.400001525879</ele>
        <time>2022-08-14T07:26:35.000Z</time>
      </trkpt>
      <trkpt lat="47.2634" lon="-2.30546">
        <ele>45.400001525879</ele>
        <time>2022-08-14T07:26:36.000Z</time>
      </trkpt>
      <trkpt lat="47.26331" lon="-2.30507">
        <ele>45.400001525879</ele>
        <time>2022-08-14T07:26:42.000Z</time>
      </trkpt>
      <trkpt lat="47.26322" lon="-2.30455">
        <ele>45.400001525879</ele>
        <time>2022-08-14T07:26:49.000Z</time>
      </trkpt>
      <trkpt lat="47.26313" lon="-2.30409">
        <ele>45.400001525879</ele>
        <time>2022-08-14T07:26:55.000Z</time>
      </trkpt>
      <trkpt lat="47.26304" lon="-2.30351">
        <ele>45.400001525879</ele>
        <time>2022-08-14T07:27:02.000Z</time>
      </trkpt>
      <trkpt lat="47.26301" lon="-2.30336">
        <ele>45.400001525879</ele>
        <time>2022-08-14T07:27:04.000Z</time>
      </trkpt>
      <trkpt lat="47.26295" lon="-2.30323">
        <ele>45.400001525879</ele>
        <time>2022-08-14T07:27:06.000Z</time>
      </trkpt>
      <trkpt lat="47.26292" lon="-2.30315">
        <ele>45.400001525879</ele>
        <time>2022-08-14T07:27:07.000Z</time>
      </trkpt>
      <trkpt lat="47.26285" lon="-2.3029">
        <ele>45.400001525879</ele>
        <time>2022-08-14T07:27:10.000Z</time>
      </trkpt>
      <trkpt lat="47.26284" lon="-2.30281">
        <ele>45.400001525879</ele>
        <time>2022-08-14T07:27:11.000Z</time>
      </trkpt>
      <trkpt lat="47.26274" lon="-2.30231">
        <ele>45.400001525879</ele>
        <time>2022-08-14T07:27:17.000Z</time>
      </trkpt>
      <trkpt lat="47.26266" lon="-2.30186">
        <ele>45.400001525879</ele>
        <time>2022-08-14T07:27:23.000Z</time>
      </trkpt>
      <trkpt lat="47.26264" lon="-2.30179">
        <ele>45.400001525879</ele>
        <time>2022-08-14T07:27:24.000Z</time>
      </trkpt>
      <trkpt lat="47.26255" lon="-2.30155">
        <ele>45.799999237061</ele>
        <time>2022-08-14T07:27:28.000Z</time>
      </trkpt>
      <trkpt lat="47.26252" lon="-2.30149">
        <ele>46.200000762939</ele>
        <time>2022-08-14T07:27:29.000Z</time>
      </trkpt>
      <trkpt lat="47.26251" lon="-2.30143">
        <ele>46.599998474121</ele>
        <time>2022-08-14T07:27:30.000Z</time>
      </trkpt>
      <trkpt lat="47.26248" lon="-2.30138">
        <ele>47</ele>
        <time>2022-08-14T07:27:31.000Z</time>
      </trkpt>
      <trkpt lat="47.26245" lon="-2.30135">
        <ele>47.400001525879</ele>
        <time>2022-08-14T07:27:32.000Z</time>
      </trkpt>
      <trkpt lat="47.26233" lon="-2.30138">
        <ele>47.400001525879</ele>
        <time>2022-08-14T07:27:35.000Z</time>
      </trkpt>
      <trkpt lat="47.26207" lon="-2.30147">
        <ele>47.400001525879</ele>
        <time>2022-08-14T07:27:40.000Z</time>
      </trkpt>
      <trkpt lat="47.26178" lon="-2.30159">
        <ele>47.400001525879</ele>
        <time>2022-08-14T07:27:46.000Z</time>
      </trkpt>
      <trkpt lat="47.26175" lon="-2.30158">
        <ele>47</ele>
        <time>2022-08-14T07:27:47.000Z</time>
      </trkpt>
      <trkpt lat="47.26174" lon="-2.30155">
        <ele>46.599998474121</ele>
        <time>2022-08-14T07:27:48.000Z</time>
      </trkpt>
      <trkpt lat="47.26173" lon="-2.30151">
        <ele>46.200000762939</ele>
        <time>2022-08-14T07:27:49.000Z</time>
      </trkpt>
      <trkpt lat="47.26172" lon="-2.30147">
        <ele>45.599998474121</ele>
        <time>2022-08-14T07:27:50.000Z</time>
      </trkpt>
      <trkpt lat="47.2617" lon="-2.30146">
        <ele>45.200000762939</ele>
        <time>2022-08-14T07:27:51.000Z</time>
      </trkpt>
      <trkpt lat="47.26166" lon="-2.30148">
        <ele>45.200000762939</ele>
        <time>2022-08-14T07:27:53.000Z</time>
      </trkpt>
      <trkpt lat="47.26163" lon="-2.30149">
        <ele>45.200000762939</ele>
        <time>2022-08-14T07:27:54.000Z</time>
      </trkpt>
      <trkpt lat="47.26149" lon="-2.30154">
        <ele>45.200000762939</ele>
        <time>2022-08-14T07:27:58.000Z</time>
      </trkpt>
      <trkpt lat="47.26137" lon="-2.30158">
        <ele>44.799999237061</ele>
        <time>2022-08-14T07:28:01.000Z</time>
      </trkpt>
      <trkpt lat="47.26132" lon="-2.30159">
        <ele>44.400001525879</ele>
        <time>2022-08-14T07:28:02.000Z</time>
      </trkpt>
      <trkpt lat="47.26127" lon="-2.3016">
        <ele>44</ele>
        <time>2022-08-14T07:28:03.000Z</time>
      </trkpt>
      <trkpt lat="47.26122" lon="-2.30162">
        <ele>43.400001525879</ele>
        <time>2022-08-14T07:28:04.000Z</time>
      </trkpt>
      <trkpt lat="47.26116" lon="-2.30163">
        <ele>43</ele>
        <time>2022-08-14T07:28:05.000Z</time>
      </trkpt>
      <trkpt lat="47.26107" lon="-2.30165">
        <ele>43</ele>
        <time>2022-08-14T07:28:08.000Z</time>
      </trkpt>
      <trkpt lat="47.26105" lon="-2.30162">
        <ele>43</ele>
        <time>2022-08-14T07:28:09.000Z</time>
      </trkpt>
      <trkpt lat="47.26104" lon="-2.30158">
        <ele>42.200000762939</ele>
        <time>2022-08-14T07:28:10.000Z</time>
      </trkpt>
      <trkpt lat="47.26101" lon="-2.30153">
        <ele>41.799999237061</ele>
        <time>2022-08-14T07:28:11.000Z</time>
      </trkpt>
      <trkpt lat="47.26099" lon="-2.30149">
        <ele>41.200000762939</ele>
        <time>2022-08-14T07:28:12.000Z</time>
      </trkpt>
      <trkpt lat="47.26096" lon="-2.30149">
        <ele>40.799999237061</ele>
        <time>2022-08-14T07:28:13.000Z</time>
      </trkpt>
      <trkpt lat="47.26092" lon="-2.30149">
        <ele>40.799999237061</ele>
        <time>2022-08-14T07:28:14.000Z</time>
      </trkpt>
      <trkpt lat="47.26074" lon="-2.30149">
        <ele>40.799999237061</ele>
        <time>2022-08-14T07:28:18.000Z</time>
      </trkpt>
      <trkpt lat="47.26071" lon="-2.30146">
        <ele>40.400001525879</ele>
        <time>2022-08-14T07:28:19.000Z</time>
      </trkpt>
      <trkpt lat="47.26068" lon="-2.30142">
        <ele>40</ele>
        <time>2022-08-14T07:28:20.000Z</time>
      </trkpt>
      <trkpt lat="47.26063" lon="-2.30138">
        <ele>39.400001525879</ele>
        <time>2022-08-14T07:28:21.000Z</time>
      </trkpt>
      <trkpt lat="47.26058" lon="-2.30136">
        <ele>39</ele>
        <time>2022-08-14T07:28:22.000Z</time>
      </trkpt>
      <trkpt lat="47.26053" lon="-2.30137">
        <ele>38.599998474121</ele>
        <time>2022-08-14T07:28:23.000Z</time>
      </trkpt>
      <trkpt lat="47.26048" lon="-2.30139">
        <ele>38.599998474121</ele>
        <time>2022-08-14T07:28:24.000Z</time>
      </trkpt>
      <trkpt lat="47.26027" lon="-2.30136">
        <ele>38.599998474121</ele>
        <time>2022-08-14T07:28:28.000Z</time>
      </trkpt>
      <trkpt lat="47.26012" lon="-2.30137">
        <ele>38.200000762939</ele>
        <time>2022-08-14T07:28:31.000Z</time>
      </trkpt>
      <trkpt lat="47.26007" lon="-2.30136">
        <ele>37.599998474121</ele>
        <time>2022-08-14T07:28:32.000Z</time>
      </trkpt>
      <trkpt lat="47.26002" lon="-2.30136">
        <ele>37.200000762939</ele>
        <time>2022-08-14T07:28:33.000Z</time>
      </trkpt>
      <trkpt lat="47.25997" lon="-2.30136">
        <ele>36.799999237061</ele>
        <time>2022-08-14T07:28:34.000Z</time>
      </trkpt>
      <trkpt lat="47.25991" lon="-2.30135">
        <ele>36.400001525879</ele>
        <time>2022-08-14T07:28:35.000Z</time>
      </trkpt>
      <trkpt lat="47.25982" lon="-2.30136">
        <ele>36.400001525879</ele>
        <time>2022-08-14T07:28:37.000Z</time>
      </trkpt>
      <trkpt lat="47.25972" lon="-2.30142">
        <ele>36</ele>
        <time>2022-08-14T07:28:39.000Z</time>
      </trkpt>
      <trkpt lat="47.25969" lon="-2.30147">
        <ele>35.400001525879</ele>
        <time>2022-08-14T07:28:40.000Z</time>
      </trkpt>
      <trkpt lat="47.25966" lon="-2.30152">
        <ele>35</ele>
        <time>2022-08-14T07:28:41.000Z</time>
      </trkpt>
      <trkpt lat="47.25962" lon="-2.30158">
        <ele>34.599998474121</ele>
        <time>2022-08-14T07:28:42.000Z</time>
      </trkpt>
      <trkpt lat="47.25958" lon="-2.30163">
        <ele>34</ele>
        <time>2022-08-14T07:28:43.000Z</time>
      </trkpt>
      <trkpt lat="47.25953" lon="-2.30168">
        <ele>34</ele>
        <time>2022-08-14T07:28:44.000Z</time>
      </trkpt>
      <trkpt lat="47.25935" lon="-2.30174">
        <ele>34</ele>
        <time>2022-08-14T07:28:47.000Z</time>
      </trkpt>
      <trkpt lat="47.25906" lon="-2.30176">
        <ele>34</ele>
        <time>2022-08-14T07:28:52.000Z</time>
      </trkpt>
      <trkpt lat="47.259" lon="-2.30177">
        <ele>34</ele>
        <time>2022-08-14T07:28:53.000Z</time>
      </trkpt>
      <trkpt lat="47.25894" lon="-2.30184">
        <ele>34.400001525879</ele>
        <time>2022-08-14T07:28:55.000Z</time>
      </trkpt>
      <trkpt lat="47.25892" lon="-2.30189">
        <ele>34.799999237061</ele>
        <time>2022-08-14T07:28:56.000Z</time>
      </trkpt>
      <trkpt lat="47.25891" lon="-2.30194">
        <ele>35.200000762939</ele>
        <time>2022-08-14T07:28:57.000Z</time>
      </trkpt>
      <trkpt lat="47.2589" lon="-2.302">
        <ele>35.599998474121</ele>
        <time>2022-08-14T07:28:58.000Z</time>
      </trkpt>
      <trkpt lat="47.25891" lon="-2.30205">
        <ele>36</ele>
        <time>2022-08-14T07:28:59.000Z</time>
      </trkpt>
      <trkpt lat="47.25892" lon="-2.30208">
        <ele>36</ele>
        <time>2022-08-14T07:29:00.000Z</time>
      </trkpt>
      <trkpt lat="47.25893" lon="-2.30212">
        <ele>36</ele>
        <time>2022-08-14T07:29:01.000Z</time>
      </trkpt>
      <trkpt lat="47.25895" lon="-2.30233">
        <ele>36</ele>
        <time>2022-08-14T07:29:06.000Z</time>
      </trkpt>
      <trkpt lat="47.25895" lon="-2.30251">
        <ele>36</ele>
        <time>2022-08-14T07:29:11.000Z</time>
      </trkpt>
      <trkpt lat="47.25892" lon="-2.30267">
        <ele>36</ele>
        <time>2022-08-14T07:29:16.000Z</time>
      </trkpt>
      <trkpt lat="47.25895" lon="-2.30281">
        <ele>36</ele>
        <time>2022-08-14T07:29:20.000Z</time>
      </trkpt>
      <trkpt lat="47.25893" lon="-2.30297">
        <ele>36</ele>
        <time>2022-08-14T07:29:24.000Z</time>
      </trkpt>
      <trkpt lat="47.25888" lon="-2.30309">
        <ele>36</ele>
        <time>2022-08-14T07:29:28.000Z</time>
      </trkpt>
      <trkpt lat="47.25885" lon="-2.3031">
        <ele>36</ele>
        <time>2022-08-14T07:29:29.000Z</time>
      </trkpt>
      <trkpt lat="47.25876" lon="-2.3031">
        <ele>36</ele>
        <time>2022-08-14T07:29:32.000Z</time>
      </trkpt>
      <trkpt lat="47.2587" lon="-2.30309">
        <ele>36</ele>
        <time>2022-08-14T07:29:34.000Z</time>
      </trkpt>
      <trkpt lat="47.25865" lon="-2.30309">
        <ele>36</ele>
        <time>2022-08-14T07:29:36.000Z</time>
      </trkpt>
      <trkpt lat="47.25863" lon="-2.30307">
        <ele>36</ele>
        <time>2022-08-14T07:29:37.000Z</time>
      </trkpt>
      <trkpt lat="47.25864" lon="-2.30307">
        <ele>36</ele>
        <time>2022-08-14T07:29:38.000Z</time>
      </trkpt>
      <trkpt lat="47.25862" lon="-2.30304">
        <ele>36</ele>
        <time>2022-08-14T07:29:45.000Z</time>
      </trkpt>
      <trkpt lat="47.25861" lon="-2.30302">
        <ele>36</ele>
        <time>2022-08-14T07:29:46.000Z</time>
      </trkpt>
      <trkpt lat="47.2585" lon="-2.30285">
        <ele>36</ele>
        <time>2022-08-14T07:29:52.000Z</time>
      </trkpt>
      <trkpt lat="47.2583" lon="-2.30273">
        <ele>36</ele>
        <time>2022-08-14T07:29:57.000Z</time>
      </trkpt>
      <trkpt lat="47.25804" lon="-2.3026">
        <ele>36</ele>
        <time>2022-08-14T07:30:02.000Z</time>
      </trkpt>
      <trkpt lat="47.25784" lon="-2.30252">
        <ele>36</ele>
        <time>2022-08-14T07:30:05.000Z</time>
      </trkpt>
      <trkpt lat="47.25772" lon="-2.30245">
        <ele>36</ele>
        <time>2022-08-14T07:30:07.000Z</time>
      </trkpt>
      <trkpt lat="47.25731" lon="-2.30224">
        <ele>36</ele>
        <time>2022-08-14T07:30:15.000Z</time>
      </trkpt>
      <trkpt lat="47.25721" lon="-2.3022">
        <ele>36</ele>
        <time>2022-08-14T07:30:17.000Z</time>
      </trkpt>
      <trkpt lat="47.25706" lon="-2.30226">
        <ele>36</ele>
        <time>2022-08-14T07:30:20.000Z</time>
      </trkpt>
      <trkpt lat="47.25694" lon="-2.30249">
        <ele>36.599998474121</ele>
        <time>2022-08-14T07:30:24.000Z</time>
      </trkpt>
      <trkpt lat="47.25693" lon="-2.30256">
        <ele>37</ele>
        <time>2022-08-14T07:30:25.000Z</time>
      </trkpt>
      <trkpt lat="47.25694" lon="-2.30262">
        <ele>37.400001525879</ele>
        <time>2022-08-14T07:30:26.000Z</time>
      </trkpt>
      <trkpt lat="47.25696" lon="-2.30267">
        <ele>37.799999237061</ele>
        <time>2022-08-14T07:30:27.000Z</time>
      </trkpt>
      <trkpt lat="47.25697" lon="-2.30272">
        <ele>38.200000762939</ele>
        <time>2022-08-14T07:30:28.000Z</time>
      </trkpt>
      <trkpt lat="47.25694" lon="-2.30286">
        <ele>38.200000762939</ele>
        <time>2022-08-14T07:30:31.000Z</time>
      </trkpt>
      <trkpt lat="47.25692" lon="-2.30292">
        <ele>38.200000762939</ele>
        <time>2022-08-14T07:30:32.000Z</time>
      </trkpt>
      <trkpt lat="47.25688" lon="-2.30303">
        <ele>38.200000762939</ele>
        <time>2022-08-14T07:30:34.000Z</time>
      </trkpt>
      <trkpt lat="47.25684" lon="-2.30308">
        <ele>38.200000762939</ele>
        <time>2022-08-14T07:30:35.000Z</time>
      </trkpt>
      <trkpt lat="47.25664" lon="-2.30324">
        <ele>38.200000762939</ele>
        <time>2022-08-14T07:30:39.000Z</time>
      </trkpt>
      <trkpt lat="47.25645" lon="-2.30343">
        <ele>38.200000762939</ele>
        <time>2022-08-14T07:30:43.000Z</time>
      </trkpt>
      <trkpt lat="47.25636" lon="-2.30344">
        <ele>38.200000762939</ele>
        <time>2022-08-14T07:30:45.000Z</time>
      </trkpt>
      <trkpt lat="47.25628" lon="-2.3033">
        <ele>38.200000762939</ele>
        <time>2022-08-14T07:30:48.000Z</time>
      </trkpt>
      <trkpt lat="47.25627" lon="-2.30309">
        <ele>38.200000762939</ele>
        <time>2022-08-14T07:30:51.000Z</time>
      </trkpt>
      <trkpt lat="47.25626" lon="-2.30301">
        <ele>38.200000762939</ele>
        <time>2022-08-14T07:30:52.000Z</time>
      </trkpt>
      <trkpt lat="47.25623" lon="-2.30278">
        <ele>38.200000762939</ele>
        <time>2022-08-14T07:30:55.000Z</time>
      </trkpt>
      <trkpt lat="47.2562" lon="-2.30262">
        <ele>38.200000762939</ele>
        <time>2022-08-14T07:30:57.000Z</time>
      </trkpt>
      <trkpt lat="47.25612" lon="-2.30228">
        <ele>38.200000762939</ele>
        <time>2022-08-14T07:31:01.000Z</time>
      </trkpt>
      <trkpt lat="47.25609" lon="-2.30222">
        <ele>38.200000762939</ele>
        <time>2022-08-14T07:31:02.000Z</time>
      </trkpt>
      <trkpt lat="47.25592" lon="-2.302">
        <ele>38.200000762939</ele>
        <time>2022-08-14T07:31:06.000Z</time>
      </trkpt>
      <trkpt lat="47.25582" lon="-2.30191">
        <ele>38.200000762939</ele>
        <time>2022-08-14T07:31:08.000Z</time>
      </trkpt>
      <trkpt lat="47.25578" lon="-2.30188">
        <ele>38.200000762939</ele>
        <time>2022-08-14T07:31:09.000Z</time>
      </trkpt>
      <trkpt lat="47.25568" lon="-2.30184">
        <ele>38.200000762939</ele>
        <time>2022-08-14T07:31:11.000Z</time>
      </trkpt>
      <trkpt lat="47.25547" lon="-2.3019">
        <ele>38.200000762939</ele>
        <time>2022-08-14T07:31:15.000Z</time>
      </trkpt>
      <trkpt lat="47.25537" lon="-2.30195">
        <ele>38.200000762939</ele>
        <time>2022-08-14T07:31:17.000Z</time>
      </trkpt>
      <trkpt lat="47.25532" lon="-2.30198">
        <ele>38.200000762939</ele>
        <time>2022-08-14T07:31:18.000Z</time>
      </trkpt>
      <trkpt lat="47.25523" lon="-2.30199">
        <ele>38.200000762939</ele>
        <time>2022-08-14T07:31:20.000Z</time>
      </trkpt>
      <trkpt lat="47.25512" lon="-2.30195">
        <ele>38.200000762939</ele>
        <time>2022-08-14T07:31:23.000Z</time>
      </trkpt>
      <trkpt lat="47.25504" lon="-2.30198">
        <ele>38.599998474121</ele>
        <time>2022-08-14T07:31:26.000Z</time>
      </trkpt>
      <trkpt lat="47.25502" lon="-2.30201">
        <ele>39</ele>
        <time>2022-08-14T07:31:27.000Z</time>
      </trkpt>
      <trkpt lat="47.25499" lon="-2.30205">
        <ele>39.799999237061</ele>
        <time>2022-08-14T07:31:28.000Z</time>
      </trkpt>
      <trkpt lat="47.25496" lon="-2.30209">
        <ele>40.200000762939</ele>
        <time>2022-08-14T07:31:29.000Z</time>
      </trkpt>
      <trkpt lat="47.2549" lon="-2.30218">
        <ele>40.200000762939</ele>
        <time>2022-08-14T07:31:31.000Z</time>
      </trkpt>
      <trkpt lat="47.25488" lon="-2.30224">
        <ele>40.200000762939</ele>
        <time>2022-08-14T07:31:32.000Z</time>
      </trkpt>
      <trkpt lat="47.25486" lon="-2.30237">
        <ele>40.200000762939</ele>
        <time>2022-08-14T07:31:34.000Z</time>
      </trkpt>
      <trkpt lat="47.25477" lon="-2.30244">
        <ele>40.200000762939</ele>
        <time>2022-08-14T07:31:37.000Z</time>
      </trkpt>
      <trkpt lat="47.25465" lon="-2.3024">
        <ele>40.200000762939</ele>
        <time>2022-08-14T07:31:40.000Z</time>
      </trkpt>
      <trkpt lat="47.25461" lon="-2.3024">
        <ele>40.200000762939</ele>
        <time>2022-08-14T07:31:41.000Z</time>
      </trkpt>
      <trkpt lat="47.25453" lon="-2.30237">
        <ele>40.200000762939</ele>
        <time>2022-08-14T07:31:43.000Z</time>
      </trkpt>
      <trkpt lat="47.25443" lon="-2.30235">
        <ele>40.200000762939</ele>
        <time>2022-08-14T07:31:45.000Z</time>
      </trkpt>
      <trkpt lat="47.25426" lon="-2.30228">
        <ele>40.599998474121</ele>
        <time>2022-08-14T07:31:49.000Z</time>
      </trkpt>
      <trkpt lat="47.25421" lon="-2.30227">
        <ele>41</ele>
        <time>2022-08-14T07:31:50.000Z</time>
      </trkpt>
      <trkpt lat="47.25416" lon="-2.30225">
        <ele>41.599998474121</ele>
        <time>2022-08-14T07:31:51.000Z</time>
      </trkpt>
      <trkpt lat="47.25411" lon="-2.30221">
        <ele>42</ele>
        <time>2022-08-14T07:31:52.000Z</time>
      </trkpt>
      <trkpt lat="47.25406" lon="-2.30219">
        <ele>42.400001525879</ele>
        <time>2022-08-14T07:31:53.000Z</time>
      </trkpt>
      <trkpt lat="47.25394" lon="-2.30213">
        <ele>42.400001525879</ele>
        <time>2022-08-14T07:31:56.000Z</time>
      </trkpt>
      <trkpt lat="47.25385" lon="-2.30209">
        <ele>42.400001525879</ele>
        <time>2022-08-14T07:31:58.000Z</time>
      </trkpt>
      <trkpt lat="47.25367" lon="-2.30211">
        <ele>42.400001525879</ele>
        <time>2022-08-14T07:32:01.000Z</time>
      </trkpt>
      <trkpt lat="47.25334" lon="-2.30212">
        <ele>42.400001525879</ele>
        <time>2022-08-14T07:32:07.000Z</time>
      </trkpt>
      <trkpt lat="47.25324" lon="-2.3021">
        <ele>42.400001525879</ele>
        <time>2022-08-14T07:32:09.000Z</time>
      </trkpt>
      <trkpt lat="47.25315" lon="-2.30207">
        <ele>42.799999237061</ele>
        <time>2022-08-14T07:32:11.000Z</time>
      </trkpt>
      <trkpt lat="47.25312" lon="-2.30208">
        <ele>43.200000762939</ele>
        <time>2022-08-14T07:32:12.000Z</time>
      </trkpt>
      <trkpt lat="47.25311" lon="-2.30211">
        <ele>43.599998474121</ele>
        <time>2022-08-14T07:32:13.000Z</time>
      </trkpt>
      <trkpt lat="47.2531" lon="-2.30213">
        <ele>44</ele>
        <time>2022-08-14T07:32:14.000Z</time>
      </trkpt>
      <trkpt lat="47.25308" lon="-2.30214">
        <ele>44.400001525879</ele>
        <time>2022-08-14T07:32:15.000Z</time>
      </trkpt>
      <trkpt lat="47.25299" lon="-2.30209">
        <ele>44.400001525879</ele>
        <time>2022-08-14T07:32:18.000Z</time>
      </trkpt>
      <trkpt lat="47.25284" lon="-2.30203">
        <ele>44.400001525879</ele>
        <time>2022-08-14T07:32:22.000Z</time>
      </trkpt>
      <trkpt lat="47.25276" lon="-2.30198">
        <ele>44.400001525879</ele>
        <time>2022-08-14T07:32:24.000Z</time>
      </trkpt>
      <trkpt lat="47.25263" lon="-2.30192">
        <ele>44.400001525879</ele>
        <time>2022-08-14T07:32:27.000Z</time>
      </trkpt>
      <trkpt lat="47.25235" lon="-2.30181">
        <ele>44.400001525879</ele>
        <time>2022-08-14T07:32:33.000Z</time>
      </trkpt>
      <trkpt lat="47.25223" lon="-2.30172">
        <ele>44.799999237061</ele>
        <time>2022-08-14T07:32:36.000Z</time>
      </trkpt>
      <trkpt lat="47.25219" lon="-2.30168">
        <ele>45.200000762939</ele>
        <time>2022-08-14T07:32:37.000Z</time>
      </trkpt>
      <trkpt lat="47.25215" lon="-2.30163">
        <ele>45.599998474121</ele>
        <time>2022-08-14T07:32:38.000Z</time>
      </trkpt>
      <trkpt lat="47.2521" lon="-2.30159">
        <ele>46</ele>
        <time>2022-08-14T07:32:39.000Z</time>
      </trkpt>
      <trkpt lat="47.25205" lon="-2.30155">
        <ele>46.400001525879</ele>
        <time>2022-08-14T07:32:40.000Z</time>
      </trkpt>
      <trkpt lat="47.25197" lon="-2.30145">
        <ele>46.400001525879</ele>
        <time>2022-08-14T07:32:42.000Z</time>
      </trkpt>
      <trkpt lat="47.25195" lon="-2.30139">
        <ele>46.400001525879</ele>
        <time>2022-08-14T07:32:43.000Z</time>
      </trkpt>
      <trkpt lat="47.2518" lon="-2.30123">
        <ele>46.799999237061</ele>
        <time>2022-08-14T07:32:47.000Z</time>
      </trkpt>
      <trkpt lat="47.25175" lon="-2.30123">
        <ele>47.400001525879</ele>
        <time>2022-08-14T07:32:48.000Z</time>
      </trkpt>
      <trkpt lat="47.25169" lon="-2.30125">
        <ele>47.799999237061</ele>
        <time>2022-08-14T07:32:49.000Z</time>
      </trkpt>
      <trkpt lat="47.25164" lon="-2.30126">
        <ele>48.200000762939</ele>
        <time>2022-08-14T07:32:50.000Z</time>
      </trkpt>
      <trkpt lat="47.25159" lon="-2.30127">
        <ele>48.599998474121</ele>
        <time>2022-08-14T07:32:51.000Z</time>
      </trkpt>
      <trkpt lat="47.25138" lon="-2.30133">
        <ele>48.599998474121</ele>
        <time>2022-08-14T07:32:55.000Z</time>
      </trkpt>
      <trkpt lat="47.25132" lon="-2.30133">
        <ele>48.599998474121</ele>
        <time>2022-08-14T07:32:56.000Z</time>
      </trkpt>
      <trkpt lat="47.25118" lon="-2.30135">
        <ele>48.599998474121</ele>
        <time>2022-08-14T07:32:59.000Z</time>
      </trkpt>
      <trkpt lat="47.25094" lon="-2.3014">
        <ele>48.599998474121</ele>
        <time>2022-08-14T07:33:04.000Z</time>
      </trkpt>
      <trkpt lat="47.25089" lon="-2.3014">
        <ele>48.599998474121</ele>
        <time>2022-08-14T07:33:05.000Z</time>
      </trkpt>
      <trkpt lat="47.25069" lon="-2.30137">
        <ele>48.599998474121</ele>
        <time>2022-08-14T07:33:11.000Z</time>
      </trkpt>
      <trkpt lat="47.25069" lon="-2.30136">
        <ele>48.599998474121</ele>
        <time>2022-08-14T07:33:13.000Z</time>
      </trkpt>
      <trkpt lat="47.25067" lon="-2.30131">
        <ele>48.599998474121</ele>
        <time>2022-08-14T07:35:47.000Z</time>
      </trkpt>
      <trkpt lat="47.25069" lon="-2.30113">
        <ele>48.599998474121</ele>
        <time>2022-08-14T07:35:51.000Z</time>
      </trkpt>
      <trkpt lat="47.25069" lon="-2.30106">
        <ele>48.599998474121</ele>
        <time>2022-08-14T07:35:52.000Z</time>
      </trkpt>
      <trkpt lat="47.2507" lon="-2.30093">
        <ele>48.599998474121</ele>
        <time>2022-08-14T07:35:54.000Z</time>
      </trkpt>
      <trkpt lat="47.25071" lon="-2.3008">
        <ele>48.599998474121</ele>
        <time>2022-08-14T07:35:56.000Z</time>
      </trkpt>
      <trkpt lat="47.25072" lon="-2.30058">
        <ele>48.599998474121</ele>
        <time>2022-08-14T07:36:00.000Z</time>
      </trkpt>
      <trkpt lat="47.25069" lon="-2.30057">
        <ele>48.599998474121</ele>
        <time>2022-08-14T07:36:01.000Z</time>
      </trkpt>
      <trkpt lat="47.25056" lon="-2.30055">
        <ele>48.599998474121</ele>
        <time>2022-08-14T07:36:05.000Z</time>
      </trkpt>
      <trkpt lat="47.25047" lon="-2.30055">
        <ele>48.599998474121</ele>
        <time>2022-08-14T07:36:07.000Z</time>
      </trkpt>
      <trkpt lat="47.25035" lon="-2.30053">
        <ele>48.599998474121</ele>
        <time>2022-08-14T07:36:10.000Z</time>
      </trkpt>
      <trkpt lat="47.25003" lon="-2.30052">
        <ele>48.599998474121</ele>
        <time>2022-08-14T07:36:17.000Z</time>
      </trkpt>
      <trkpt lat="47.24979" lon="-2.30056">
        <ele>48.599998474121</ele>
        <time>2022-08-14T07:36:22.000Z</time>
      </trkpt>
      <trkpt lat="47.24975" lon="-2.30056">
        <ele>48.599998474121</ele>
        <time>2022-08-14T07:36:23.000Z</time>
      </trkpt>
      <trkpt lat="47.24944" lon="-2.30056">
        <ele>48.599998474121</ele>
        <time>2022-08-14T07:36:29.000Z</time>
      </trkpt>
      <trkpt lat="47.24909" lon="-2.30057">
        <ele>48.599998474121</ele>
        <time>2022-08-14T07:36:36.000Z</time>
      </trkpt>
      <trkpt lat="47.24903" lon="-2.3005">
        <ele>48.599998474121</ele>
        <time>2022-08-14T07:36:38.000Z</time>
      </trkpt>
      <trkpt lat="47.24903" lon="-2.30044">
        <ele>48.599998474121</ele>
        <time>2022-08-14T07:36:39.000Z</time>
      </trkpt>
      <trkpt lat="47.24901" lon="-2.30017">
        <ele>48.599998474121</ele>
        <time>2022-08-14T07:36:43.000Z</time>
      </trkpt>
      <trkpt lat="47.24892" lon="-2.29979">
        <ele>48.599998474121</ele>
        <time>2022-08-14T07:36:48.000Z</time>
      </trkpt>
      <trkpt lat="47.24879" lon="-2.2993">
        <ele>48.599998474121</ele>
        <time>2022-08-14T07:36:54.000Z</time>
      </trkpt>
      <trkpt lat="47.24876" lon="-2.29905">
        <ele>48.599998474121</ele>
        <time>2022-08-14T07:36:57.000Z</time>
      </trkpt>
      <trkpt lat="47.24875" lon="-2.29889">
        <ele>48.599998474121</ele>
        <time>2022-08-14T07:36:59.000Z</time>
      </trkpt>
      <trkpt lat="47.24873" lon="-2.29881">
        <ele>48.599998474121</ele>
        <time>2022-08-14T07:37:00.000Z</time>
      </trkpt>
      <trkpt lat="47.24868" lon="-2.29849">
        <ele>48.599998474121</ele>
        <time>2022-08-14T07:37:04.000Z</time>
      </trkpt>
      <trkpt lat="47.24865" lon="-2.29836">
        <ele>48.599998474121</ele>
        <time>2022-08-14T07:37:06.000Z</time>
      </trkpt>
      <trkpt lat="47.24858" lon="-2.29831">
        <ele>48.599998474121</ele>
        <time>2022-08-14T07:37:08.000Z</time>
      </trkpt>
      <trkpt lat="47.24847" lon="-2.29839">
        <ele>48.599998474121</ele>
        <time>2022-08-14T07:37:11.000Z</time>
      </trkpt>
      <trkpt lat="47.24828" lon="-2.29847">
        <ele>48.599998474121</ele>
        <time>2022-08-14T07:37:15.000Z</time>
      </trkpt>
      <trkpt lat="47.24805" lon="-2.29853">
        <ele>48.599998474121</ele>
        <time>2022-08-14T07:37:20.000Z</time>
      </trkpt>
      <trkpt lat="47.24801" lon="-2.29855">
        <ele>48.599998474121</ele>
        <time>2022-08-14T07:37:21.000Z</time>
      </trkpt>
      <trkpt lat="47.24779" lon="-2.2987">
        <ele>48.599998474121</ele>
        <time>2022-08-14T07:37:27.000Z</time>
      </trkpt>
      <trkpt lat="47.24752" lon="-2.29889">
        <ele>48.599998474121</ele>
        <time>2022-08-14T07:37:33.000Z</time>
      </trkpt>
      <trkpt lat="47.24746" lon="-2.29911">
        <ele>48.599998474121</ele>
        <time>2022-08-14T07:37:36.000Z</time>
      </trkpt>
      <trkpt lat="47.24746" lon="-2.29937">
        <ele>48.599998474121</ele>
        <time>2022-08-14T07:37:39.000Z</time>
      </trkpt>
      <trkpt lat="47.24746" lon="-2.29946">
        <ele>48.599998474121</ele>
        <time>2022-08-14T07:37:40.000Z</time>
      </trkpt>
      <trkpt lat="47.24741" lon="-2.29983">
        <ele>48.599998474121</ele>
        <time>2022-08-14T07:37:44.000Z</time>
      </trkpt>
      <trkpt lat="47.24738" lon="-2.29991">
        <ele>48.599998474121</ele>
        <time>2022-08-14T07:37:45.000Z</time>
      </trkpt>
      <trkpt lat="47.24722" lon="-2.30017">
        <ele>48.599998474121</ele>
        <time>2022-08-14T07:37:49.000Z</time>
      </trkpt>
      <trkpt lat="47.24717" lon="-2.30024">
        <ele>48.599998474121</ele>
        <time>2022-08-14T07:37:50.000Z</time>
      </trkpt>
      <trkpt lat="47.24712" lon="-2.30029">
        <ele>48.599998474121</ele>
        <time>2022-08-14T07:37:51.000Z</time>
      </trkpt>
      <trkpt lat="47.24691" lon="-2.30048">
        <ele>48.599998474121</ele>
        <time>2022-08-14T07:37:55.000Z</time>
      </trkpt>
      <trkpt lat="47.24665" lon="-2.30067">
        <ele>48</ele>
        <time>2022-08-14T07:38:00.000Z</time>
      </trkpt>
      <trkpt lat="47.2466" lon="-2.30071">
        <ele>47.599998474121</ele>
        <time>2022-08-14T07:38:01.000Z</time>
      </trkpt>
      <trkpt lat="47.24656" lon="-2.30074">
        <ele>47.200000762939</ele>
        <time>2022-08-14T07:38:02.000Z</time>
      </trkpt>
      <trkpt lat="47.24653" lon="-2.30078">
        <ele>46.400001525879</ele>
        <time>2022-08-14T07:38:03.000Z</time>
      </trkpt>
      <trkpt lat="47.24646" lon="-2.30085">
        <ele>46.400001525879</ele>
        <time>2022-08-14T07:38:06.000Z</time>
      </trkpt>
      <trkpt lat="47.24631" lon="-2.30099">
        <ele>46.400001525879</ele>
        <time>2022-08-14T07:38:10.000Z</time>
      </trkpt>
      <trkpt lat="47.24607" lon="-2.30123">
        <ele>46.400001525879</ele>
        <time>2022-08-14T07:38:15.000Z</time>
      </trkpt>
      <trkpt lat="47.2458" lon="-2.30162">
        <ele>46.400001525879</ele>
        <time>2022-08-14T07:38:21.000Z</time>
      </trkpt>
      <trkpt lat="47.24549" lon="-2.30204">
        <ele>46</ele>
        <time>2022-08-14T07:38:28.000Z</time>
      </trkpt>
      <trkpt lat="47.24544" lon="-2.30209">
        <ele>45.599998474121</ele>
        <time>2022-08-14T07:38:29.000Z</time>
      </trkpt>
      <trkpt lat="47.2454" lon="-2.30214">
        <ele>45.200000762939</ele>
        <time>2022-08-14T07:38:30.000Z</time>
      </trkpt>
      <trkpt lat="47.24535" lon="-2.30218">
        <ele>44.799999237061</ele>
        <time>2022-08-14T07:38:31.000Z</time>
      </trkpt>
      <trkpt lat="47.24531" lon="-2.30223">
        <ele>44.400001525879</ele>
        <time>2022-08-14T07:38:32.000Z</time>
      </trkpt>
      <trkpt lat="47.24517" lon="-2.30237">
        <ele>44.400001525879</ele>
        <time>2022-08-14T07:38:35.000Z</time>
      </trkpt>
      <trkpt lat="47.24503" lon="-2.30248">
        <ele>44.400001525879</ele>
        <time>2022-08-14T07:38:38.000Z</time>
      </trkpt>
      <trkpt lat="47.24489" lon="-2.30248">
        <ele>43.799999237061</ele>
        <time>2022-08-14T07:38:41.000Z</time>
      </trkpt>
      <trkpt lat="47.24485" lon="-2.30243">
        <ele>43.400001525879</ele>
        <time>2022-08-14T07:38:42.000Z</time>
      </trkpt>
      <trkpt lat="47.24482" lon="-2.30237">
        <ele>43</ele>
        <time>2022-08-14T07:38:43.000Z</time>
      </trkpt>
      <trkpt lat="47.2448" lon="-2.30231">
        <ele>42.599998474121</ele>
        <time>2022-08-14T07:38:44.000Z</time>
      </trkpt>
      <trkpt lat="47.24477" lon="-2.30224">
        <ele>42.200000762939</ele>
        <time>2022-08-14T07:38:45.000Z</time>
      </trkpt>
      <trkpt lat="47.24474" lon="-2.30217">
        <ele>42.200000762939</ele>
        <time>2022-08-14T07:38:46.000Z</time>
      </trkpt>
      <trkpt lat="47.24471" lon="-2.30211">
        <ele>42.200000762939</ele>
        <time>2022-08-14T07:38:47.000Z</time>
      </trkpt>
      <trkpt lat="47.2446" lon="-2.30194">
        <ele>42.200000762939</ele>
        <time>2022-08-14T07:38:50.000Z</time>
      </trkpt>
      <trkpt lat="47.24448" lon="-2.30182">
        <ele>42.599998474121</ele>
        <time>2022-08-14T07:38:53.000Z</time>
      </trkpt>
      <trkpt lat="47.24444" lon="-2.30176">
        <ele>43</ele>
        <time>2022-08-14T07:38:54.000Z</time>
      </trkpt>
      <trkpt lat="47.24441" lon="-2.3017">
        <ele>43.599998474121</ele>
        <time>2022-08-14T07:38:55.000Z</time>
      </trkpt>
      <trkpt lat="47.24438" lon="-2.30164">
        <ele>44</ele>
        <time>2022-08-14T07:38:56.000Z</time>
      </trkpt>
      <trkpt lat="47.24435" lon="-2.30158">
        <ele>44.400001525879</ele>
        <time>2022-08-14T07:38:57.000Z</time>
      </trkpt>
      <trkpt lat="47.24432" lon="-2.30152">
        <ele>44.400001525879</ele>
        <time>2022-08-14T07:38:58.000Z</time>
      </trkpt>
      <trkpt lat="47.24422" lon="-2.30147">
        <ele>44.400001525879</ele>
        <time>2022-08-14T07:39:00.000Z</time>
      </trkpt>
      <trkpt lat="47.24407" lon="-2.30137">
        <ele>44.400001525879</ele>
        <time>2022-08-14T07:39:03.000Z</time>
      </trkpt>
      <trkpt lat="47.24404" lon="-2.30129">
        <ele>44.400001525879</ele>
        <time>2022-08-14T07:39:04.000Z</time>
      </trkpt>
      <trkpt lat="47.24396" lon="-2.30108">
        <ele>44.400001525879</ele>
        <time>2022-08-14T07:39:07.000Z</time>
      </trkpt>
      <trkpt lat="47.2439" lon="-2.30095">
        <ele>44.400001525879</ele>
        <time>2022-08-14T07:39:09.000Z</time>
      </trkpt>
      <trkpt lat="47.24385" lon="-2.30091">
        <ele>44.400001525879</ele>
        <time>2022-08-14T07:39:10.000Z</time>
      </trkpt>
      <trkpt lat="47.24375" lon="-2.30088">
        <ele>44.400001525879</ele>
        <time>2022-08-14T07:39:12.000Z</time>
      </trkpt>
      <trkpt lat="47.24362" lon="-2.301">
        <ele>44.400001525879</ele>
        <time>2022-08-14T07:39:15.000Z</time>
      </trkpt>
      <trkpt lat="47.24358" lon="-2.30105">
        <ele>44.400001525879</ele>
        <time>2022-08-14T07:39:16.000Z</time>
      </trkpt>
      <trkpt lat="47.24333" lon="-2.30128">
        <ele>44.400001525879</ele>
        <time>2022-08-14T07:39:21.000Z</time>
      </trkpt>
      <trkpt lat="47.24328" lon="-2.3013">
        <ele>44.400001525879</ele>
        <time>2022-08-14T07:39:22.000Z</time>
      </trkpt>
      <trkpt lat="47.24317" lon="-2.30128">
        <ele>44</ele>
        <time>2022-08-14T07:39:24.000Z</time>
      </trkpt>
      <trkpt lat="47.24312" lon="-2.30125">
        <ele>43.599998474121</ele>
        <time>2022-08-14T07:39:25.000Z</time>
      </trkpt>
      <trkpt lat="47.24308" lon="-2.3012">
        <ele>43.200000762939</ele>
        <time>2022-08-14T07:39:26.000Z</time>
      </trkpt>
      <trkpt lat="47.24303" lon="-2.30117">
        <ele>42.799999237061</ele>
        <time>2022-08-14T07:39:27.000Z</time>
      </trkpt>
      <trkpt lat="47.24297" lon="-2.30116">
        <ele>42.400001525879</ele>
        <time>2022-08-14T07:39:28.000Z</time>
      </trkpt>
      <trkpt lat="47.24282" lon="-2.30124">
        <ele>42.400001525879</ele>
        <time>2022-08-14T07:39:31.000Z</time>
      </trkpt>
      <trkpt lat="47.24277" lon="-2.30128">
        <ele>42.400001525879</ele>
        <time>2022-08-14T07:39:32.000Z</time>
      </trkpt>
      <trkpt lat="47.24273" lon="-2.30133">
        <ele>42.400001525879</ele>
        <time>2022-08-14T07:39:33.000Z</time>
      </trkpt>
      <trkpt lat="47.2426" lon="-2.3015">
        <ele>42.400001525879</ele>
        <time>2022-08-14T07:39:36.000Z</time>
      </trkpt>
      <trkpt lat="47.24251" lon="-2.30161">
        <ele>42</ele>
        <time>2022-08-14T07:39:38.000Z</time>
      </trkpt>
      <trkpt lat="47.24246" lon="-2.30169">
        <ele>41.400001525879</ele>
        <time>2022-08-14T07:39:39.000Z</time>
      </trkpt>
      <trkpt lat="47.24243" lon="-2.30177">
        <ele>41</ele>
        <time>2022-08-14T07:39:40.000Z</time>
      </trkpt>
      <trkpt lat="47.24239" lon="-2.30185">
        <ele>40.599998474121</ele>
        <time>2022-08-14T07:39:41.000Z</time>
      </trkpt>
      <trkpt lat="47.24236" lon="-2.30194">
        <ele>40.200000762939</ele>
        <time>2022-08-14T07:39:42.000Z</time>
      </trkpt>
      <trkpt lat="47.24232" lon="-2.30201">
        <ele>39.799999237061</ele>
        <time>2022-08-14T07:39:43.000Z</time>
      </trkpt>
      <trkpt lat="47.24228" lon="-2.30208">
        <ele>39.400001525879</ele>
        <time>2022-08-14T07:39:44.000Z</time>
      </trkpt>
      <trkpt lat="47.24224" lon="-2.30214">
        <ele>39</ele>
        <time>2022-08-14T07:39:45.000Z</time>
      </trkpt>
      <trkpt lat="47.24219" lon="-2.30219">
        <ele>38.599998474121</ele>
        <time>2022-08-14T07:39:46.000Z</time>
      </trkpt>
      <trkpt lat="47.24214" lon="-2.30221">
        <ele>38.200000762939</ele>
        <time>2022-08-14T07:39:47.000Z</time>
      </trkpt>
      <trkpt lat="47.24201" lon="-2.30227">
        <ele>37.799999237061</ele>
        <time>2022-08-14T07:39:49.000Z</time>
      </trkpt>
      <trkpt lat="47.24196" lon="-2.3023">
        <ele>37.400001525879</ele>
        <time>2022-08-14T07:39:50.000Z</time>
      </trkpt>
      <trkpt lat="47.24192" lon="-2.30233">
        <ele>36.799999237061</ele>
        <time>2022-08-14T07:39:51.000Z</time>
      </trkpt>
      <trkpt lat="47.2419" lon="-2.30237">
        <ele>36.400001525879</ele>
        <time>2022-08-14T07:39:52.000Z</time>
      </trkpt>
      <trkpt lat="47.24191" lon="-2.30244">
        <ele>35.799999237061</ele>
        <time>2022-08-14T07:39:53.000Z</time>
      </trkpt>
      <trkpt lat="47.24192" lon="-2.3025">
        <ele>35.400001525879</ele>
        <time>2022-08-14T07:39:54.000Z</time>
      </trkpt>
      <trkpt lat="47.24193" lon="-2.30255">
        <ele>34.799999237061</ele>
        <time>2022-08-14T07:39:55.000Z</time>
      </trkpt>
      <trkpt lat="47.24194" lon="-2.3026">
        <ele>34.400001525879</ele>
        <time>2022-08-14T07:39:56.000Z</time>
      </trkpt>
      <trkpt lat="47.24195" lon="-2.30266">
        <ele>33.799999237061</ele>
        <time>2022-08-14T07:39:57.000Z</time>
      </trkpt>
      <trkpt lat="47.24199" lon="-2.30295">
        <ele>33.799999237061</ele>
        <time>2022-08-14T07:40:03.000Z</time>
      </trkpt>
      <trkpt lat="47.24204" lon="-2.3032">
        <ele>33.799999237061</ele>
        <time>2022-08-14T07:40:09.000Z</time>
      </trkpt>
      <trkpt lat="47.24207" lon="-2.30329">
        <ele>33.799999237061</ele>
        <time>2022-08-14T07:40:12.000Z</time>
      </trkpt>
      <trkpt lat="47.24209" lon="-2.3033">
        <ele>33.799999237061</ele>
        <time>2022-08-14T07:40:13.000Z</time>
      </trkpt>
      <trkpt lat="47.2421" lon="-2.30329">
        <ele>33.799999237061</ele>
        <time>2022-08-14T07:40:14.000Z</time>
      </trkpt>
      <trkpt lat="47.24217" lon="-2.30326">
        <ele>33.799999237061</ele>
        <time>2022-08-14T07:40:18.000Z</time>
      </trkpt>
      <trkpt lat="47.24218" lon="-2.30326">
        <ele>34.200000762939</ele>
        <time>2022-08-14T07:40:19.000Z</time>
      </trkpt>
      <trkpt lat="47.24218" lon="-2.30326">
        <ele>34.799999237061</ele>
        <time>2022-08-14T07:40:20.000Z</time>
      </trkpt>
      <trkpt lat="47.24218" lon="-2.30326">
        <ele>35.200000762939</ele>
        <time>2022-08-14T07:40:21.000Z</time>
      </trkpt>
      <trkpt lat="47.24232" lon="-2.30325">
        <ele>38</ele>
        <time>2022-08-14T07:40:54.000Z</time>
      </trkpt>
      <trkpt lat="47.24234" lon="-2.30329">
        <ele>38</ele>
        <time>2022-08-14T07:40:55.000Z</time>
      </trkpt>
      <trkpt lat="47.24244" lon="-2.30343">
        <ele>38</ele>
        <time>2022-08-14T07:41:01.000Z</time>
      </trkpt>
      <trkpt lat="47.24255" lon="-2.30356">
        <ele>38</ele>
        <time>2022-08-14T07:41:06.000Z</time>
      </trkpt>
      <trkpt lat="47.24274" lon="-2.30388">
        <ele>38</ele>
        <time>2022-08-14T07:41:14.000Z</time>
      </trkpt>
      <trkpt lat="47.24286" lon="-2.30402">
        <ele>38</ele>
        <time>2022-08-14T07:41:19.000Z</time>
      </trkpt>
      <trkpt lat="47.24307" lon="-2.30415">
        <ele>38</ele>
        <time>2022-08-14T07:41:25.000Z</time>
      </trkpt>
      <trkpt lat="47.24318" lon="-2.30425">
        <ele>38</ele>
        <time>2022-08-14T07:41:28.000Z</time>
      </trkpt>
      <trkpt lat="47.24327" lon="-2.30432">
        <ele>38</ele>
        <time>2022-08-14T07:41:30.000Z</time>
      </trkpt>
      <trkpt lat="47.24335" lon="-2.30437">
        <ele>38</ele>
        <time>2022-08-14T07:41:32.000Z</time>
      </trkpt>
      <trkpt lat="47.24345" lon="-2.30443">
        <ele>38</ele>
        <time>2022-08-14T07:41:35.000Z</time>
      </trkpt>
      <trkpt lat="47.2436" lon="-2.30444">
        <ele>38</ele>
        <time>2022-08-14T07:41:39.000Z</time>
      </trkpt>
      <trkpt lat="47.24366" lon="-2.30448">
        <ele>38</ele>
        <time>2022-08-14T07:41:41.000Z</time>
      </trkpt>
      <trkpt lat="47.24368" lon="-2.30452">
        <ele>38</ele>
        <time>2022-08-14T07:41:42.000Z</time>
      </trkpt>
      <trkpt lat="47.24371" lon="-2.30462">
        <ele>37.599998474121</ele>
        <time>2022-08-14T07:41:44.000Z</time>
      </trkpt>
      <trkpt lat="47.2437" lon="-2.30468">
        <ele>36.799999237061</ele>
        <time>2022-08-14T07:41:45.000Z</time>
      </trkpt>
      <trkpt lat="47.2437" lon="-2.30474">
        <ele>36.400001525879</ele>
        <time>2022-08-14T07:41:46.000Z</time>
      </trkpt>
      <trkpt lat="47.24369" lon="-2.3048">
        <ele>36</ele>
        <time>2022-08-14T07:41:47.000Z</time>
      </trkpt>
      <trkpt lat="47.24365" lon="-2.30494">
        <ele>36</ele>
        <time>2022-08-14T07:41:50.000Z</time>
      </trkpt>
      <trkpt lat="47.24364" lon="-2.30498">
        <ele>35.599998474121</ele>
        <time>2022-08-14T07:41:51.000Z</time>
      </trkpt>
      <trkpt lat="47.24364" lon="-2.30502">
        <ele>35.200000762939</ele>
        <time>2022-08-14T07:41:52.000Z</time>
      </trkpt>
      <trkpt lat="47.24363" lon="-2.30506">
        <ele>34.799999237061</ele>
        <time>2022-08-14T07:41:53.000Z</time>
      </trkpt>
      <trkpt lat="47.24363" lon="-2.3051">
        <ele>34.400001525879</ele>
        <time>2022-08-14T07:41:54.000Z</time>
      </trkpt>
      <trkpt lat="47.24363" lon="-2.30514">
        <ele>33.799999237061</ele>
        <time>2022-08-14T07:41:55.000Z</time>
      </trkpt>
      <trkpt lat="47.24364" lon="-2.30522">
        <ele>33.400001525879</ele>
        <time>2022-08-14T07:41:57.000Z</time>
      </trkpt>
      <trkpt lat="47.24365" lon="-2.30528">
        <ele>33</ele>
        <time>2022-08-14T07:41:58.000Z</time>
      </trkpt>
      <trkpt lat="47.24366" lon="-2.30534">
        <ele>32.400001525879</ele>
        <time>2022-08-14T07:41:59.000Z</time>
      </trkpt>
      <trkpt lat="47.24367" lon="-2.3054">
        <ele>32</ele>
        <time>2022-08-14T07:42:00.000Z</time>
      </trkpt>
      <trkpt lat="47.24369" lon="-2.30545">
        <ele>31.60000038147</ele>
        <time>2022-08-14T07:42:01.000Z</time>
      </trkpt>
      <trkpt lat="47.24372" lon="-2.30553">
        <ele>31.60000038147</ele>
        <time>2022-08-14T07:42:03.000Z</time>
      </trkpt>
      <trkpt lat="47.24389" lon="-2.30569">
        <ele>31.60000038147</ele>
        <time>2022-08-14T07:42:08.000Z</time>
      </trkpt>
      <trkpt lat="47.244" lon="-2.30575">
        <ele>31.60000038147</ele>
        <time>2022-08-14T07:42:12.000Z</time>
      </trkpt>
      <trkpt lat="47.24416" lon="-2.30569">
        <ele>31.60000038147</ele>
        <time>2022-08-14T07:42:16.000Z</time>
      </trkpt>
      <trkpt lat="47.2444" lon="-2.30557">
        <ele>31.60000038147</ele>
        <time>2022-08-14T07:42:21.000Z</time>
      </trkpt>
      <trkpt lat="47.24454" lon="-2.30547">
        <ele>31.60000038147</ele>
        <time>2022-08-14T07:42:25.000Z</time>
      </trkpt>
      <trkpt lat="47.24456" lon="-2.30548">
        <ele>32</ele>
        <time>2022-08-14T07:42:26.000Z</time>
      </trkpt>
      <trkpt lat="47.24458" lon="-2.30549">
        <ele>32.400001525879</ele>
        <time>2022-08-14T07:42:27.000Z</time>
      </trkpt>
      <trkpt lat="47.2446" lon="-2.3055">
        <ele>32.799999237061</ele>
        <time>2022-08-14T07:42:28.000Z</time>
      </trkpt>
      <trkpt lat="47.24461" lon="-2.30552">
        <ele>33.200000762939</ele>
        <time>2022-08-14T07:42:29.000Z</time>
      </trkpt>
      <trkpt lat="47.24462" lon="-2.30554">
        <ele>33.599998474121</ele>
        <time>2022-08-14T07:42:30.000Z</time>
      </trkpt>
      <trkpt lat="47.24464" lon="-2.30561">
        <ele>33.599998474121</ele>
        <time>2022-08-14T07:42:32.000Z</time>
      </trkpt>
      <trkpt lat="47.24465" lon="-2.30567">
        <ele>33.599998474121</ele>
        <time>2022-08-14T07:42:34.000Z</time>
      </trkpt>
      <trkpt lat="47.24466" lon="-2.30575">
        <ele>33.599998474121</ele>
        <time>2022-08-14T07:42:37.000Z</time>
      </trkpt>
      <trkpt lat="47.24466" lon="-2.30576">
        <ele>33.599998474121</ele>
        <time>2022-08-14T07:42:38.000Z</time>
      </trkpt>
      <trkpt lat="47.24466" lon="-2.3058">
        <ele>33.599998474121</ele>
        <time>2022-08-14T07:42:40.000Z</time>
      </trkpt>
      <trkpt lat="47.24465" lon="-2.30585">
        <ele>34</ele>
        <time>2022-08-14T07:42:42.000Z</time>
      </trkpt>
      <trkpt lat="47.24464" lon="-2.30588">
        <ele>34.400001525879</ele>
        <time>2022-08-14T07:42:43.000Z</time>
      </trkpt>
      <trkpt lat="47.24464" lon="-2.30591">
        <ele>34.799999237061</ele>
        <time>2022-08-14T07:42:44.000Z</time>
      </trkpt>
      <trkpt lat="47.24464" lon="-2.30595">
        <ele>35.200000762939</ele>
        <time>2022-08-14T07:42:45.000Z</time>
      </trkpt>
      <trkpt lat="47.24463" lon="-2.30599">
        <ele>35.599998474121</ele>
        <time>2022-08-14T07:42:46.000Z</time>
      </trkpt>
      <trkpt lat="47.24463" lon="-2.30604">
        <ele>35.599998474121</ele>
        <time>2022-08-14T07:42:47.000Z</time>
      </trkpt>
      <trkpt lat="47.2446" lon="-2.30628">
        <ele>35.599998474121</ele>
        <time>2022-08-14T07:42:52.000Z</time>
      </trkpt>
      <trkpt lat="47.24454" lon="-2.30655">
        <ele>35.599998474121</ele>
        <time>2022-08-14T07:42:57.000Z</time>
      </trkpt>
      <trkpt lat="47.24447" lon="-2.30686">
        <ele>35.599998474121</ele>
        <time>2022-08-14T07:43:02.000Z</time>
      </trkpt>
      <trkpt lat="47.24446" lon="-2.30698">
        <ele>35.599998474121</ele>
        <time>2022-08-14T07:43:04.000Z</time>
      </trkpt>
      <trkpt lat="47.24443" lon="-2.30711">
        <ele>36</ele>
        <time>2022-08-14T07:43:06.000Z</time>
      </trkpt>
      <trkpt lat="47.24443" lon="-2.30717">
        <ele>36.400001525879</ele>
        <time>2022-08-14T07:43:07.000Z</time>
      </trkpt>
      <trkpt lat="47.24443" lon="-2.30724">
        <ele>36.799999237061</ele>
        <time>2022-08-14T07:43:08.000Z</time>
      </trkpt>
      <trkpt lat="47.24442" lon="-2.30731">
        <ele>37.400001525879</ele>
        <time>2022-08-14T07:43:09.000Z</time>
      </trkpt>
      <trkpt lat="47.24442" lon="-2.30738">
        <ele>37.799999237061</ele>
        <time>2022-08-14T07:43:10.000Z</time>
      </trkpt>
      <trkpt lat="47.24441" lon="-2.30754">
        <ele>37.799999237061</ele>
        <time>2022-08-14T07:43:12.000Z</time>
      </trkpt>
      <trkpt lat="47.2444" lon="-2.30771">
        <ele>37.799999237061</ele>
        <time>2022-08-14T07:43:14.000Z</time>
      </trkpt>
      <trkpt lat="47.2444" lon="-2.30796">
        <ele>37.799999237061</ele>
        <time>2022-08-14T07:43:17.000Z</time>
      </trkpt>
      <trkpt lat="47.2444" lon="-2.3084">
        <ele>37.799999237061</ele>
        <time>2022-08-14T07:43:22.000Z</time>
      </trkpt>
      <trkpt lat="47.24439" lon="-2.30869">
        <ele>37.200000762939</ele>
        <time>2022-08-14T07:43:25.000Z</time>
      </trkpt>
      <trkpt lat="47.24438" lon="-2.30878">
        <ele>36.799999237061</ele>
        <time>2022-08-14T07:43:26.000Z</time>
      </trkpt>
      <trkpt lat="47.24437" lon="-2.30887">
        <ele>36.400001525879</ele>
        <time>2022-08-14T07:43:27.000Z</time>
      </trkpt>
      <trkpt lat="47.24437" lon="-2.30897">
        <ele>36</ele>
        <time>2022-08-14T07:43:28.000Z</time>
      </trkpt>
      <trkpt lat="47.24436" lon="-2.30906">
        <ele>35.599998474121</ele>
        <time>2022-08-14T07:43:29.000Z</time>
      </trkpt>
      <trkpt lat="47.24435" lon="-2.30914">
        <ele>35.599998474121</ele>
        <time>2022-08-14T07:43:30.000Z</time>
      </trkpt>
      <trkpt lat="47.24429" lon="-2.30929">
        <ele>35.599998474121</ele>
        <time>2022-08-14T07:43:32.000Z</time>
      </trkpt>
      <trkpt lat="47.2442" lon="-2.30942">
        <ele>35.200000762939</ele>
        <time>2022-08-14T07:43:34.000Z</time>
      </trkpt>
      <trkpt lat="47.24415" lon="-2.30949">
        <ele>34.799999237061</ele>
        <time>2022-08-14T07:43:35.000Z</time>
      </trkpt>
      <trkpt lat="47.24411" lon="-2.30957">
        <ele>34.400001525879</ele>
        <time>2022-08-14T07:43:36.000Z</time>
      </trkpt>
      <trkpt lat="47.24409" lon="-2.30965">
        <ele>34</ele>
        <time>2022-08-14T07:43:37.000Z</time>
      </trkpt>
      <trkpt lat="47.24407" lon="-2.30974">
        <ele>33.599998474121</ele>
        <time>2022-08-14T07:43:38.000Z</time>
      </trkpt>
      <trkpt lat="47.24406" lon="-2.30993">
        <ele>33.599998474121</ele>
        <time>2022-08-14T07:43:40.000Z</time>
      </trkpt>
      <trkpt lat="47.24408" lon="-2.31036">
        <ele>33.599998474121</ele>
        <time>2022-08-14T07:43:45.000Z</time>
      </trkpt>
      <trkpt lat="47.2441" lon="-2.31088">
        <ele>33.599998474121</ele>
        <time>2022-08-14T07:43:51.000Z</time>
      </trkpt>
      <trkpt lat="47.24411" lon="-2.31097">
        <ele>33.599998474121</ele>
        <time>2022-08-14T07:43:52.000Z</time>
      </trkpt>
      <trkpt lat="47.24411" lon="-2.31126">
        <ele>33.200000762939</ele>
        <time>2022-08-14T07:43:55.000Z</time>
      </trkpt>
      <trkpt lat="47.2441" lon="-2.31136">
        <ele>32.799999237061</ele>
        <time>2022-08-14T07:43:56.000Z</time>
      </trkpt>
      <trkpt lat="47.2441" lon="-2.31146">
        <ele>32.400001525879</ele>
        <time>2022-08-14T07:43:57.000Z</time>
      </trkpt>
      <trkpt lat="47.2441" lon="-2.31155">
        <ele>31.799999237061</ele>
        <time>2022-08-14T07:43:58.000Z</time>
      </trkpt>
      <trkpt lat="47.2441" lon="-2.31163">
        <ele>31.39999961853</ele>
        <time>2022-08-14T07:43:59.000Z</time>
      </trkpt>
      <trkpt lat="47.24411" lon="-2.3117">
        <ele>30.799999237061</ele>
        <time>2022-08-14T07:44:00.000Z</time>
      </trkpt>
      <trkpt lat="47.24411" lon="-2.31177">
        <ele>30.200000762939</ele>
        <time>2022-08-14T07:44:01.000Z</time>
      </trkpt>
      <trkpt lat="47.24412" lon="-2.31184">
        <ele>29.60000038147</ele>
        <time>2022-08-14T07:44:02.000Z</time>
      </trkpt>
      <trkpt lat="47.24412" lon="-2.31189">
        <ele>29</ele>
        <time>2022-08-14T07:44:03.000Z</time>
      </trkpt>
      <trkpt lat="47.24412" lon="-2.31194">
        <ele>28.39999961853</ele>
        <time>2022-08-14T07:44:04.000Z</time>
      </trkpt>
      <trkpt lat="47.24413" lon="-2.31199">
        <ele>27.60000038147</ele>
        <time>2022-08-14T07:44:05.000Z</time>
      </trkpt>
      <trkpt lat="47.24415" lon="-2.31204">
        <ele>27</ele>
        <time>2022-08-14T07:44:06.000Z</time>
      </trkpt>
      <trkpt lat="47.24418" lon="-2.3121">
        <ele>26.39999961853</ele>
        <time>2022-08-14T07:44:07.000Z</time>
      </trkpt>
      <trkpt lat="47.2442" lon="-2.31215">
        <ele>26</ele>
        <time>2022-08-14T07:44:08.000Z</time>
      </trkpt>
      <trkpt lat="47.24423" lon="-2.3122">
        <ele>25.39999961853</ele>
        <time>2022-08-14T07:44:09.000Z</time>
      </trkpt>
      <trkpt lat="47.24426" lon="-2.31223">
        <ele>24.799999237061</ele>
        <time>2022-08-14T07:44:10.000Z</time>
      </trkpt>
      <trkpt lat="47.24429" lon="-2.31225">
        <ele>24.200000762939</ele>
        <time>2022-08-14T07:44:11.000Z</time>
      </trkpt>
      <trkpt lat="47.24432" lon="-2.31225">
        <ele>23.799999237061</ele>
        <time>2022-08-14T07:44:12.000Z</time>
      </trkpt>
      <trkpt lat="47.24434" lon="-2.31224">
        <ele>23.39999961853</ele>
        <time>2022-08-14T07:44:13.000Z</time>
      </trkpt>
      <trkpt lat="47.24436" lon="-2.31223">
        <ele>22.39999961853</ele>
        <time>2022-08-14T07:44:14.000Z</time>
      </trkpt>
      <trkpt lat="47.24439" lon="-2.31222">
        <ele>22.39999961853</ele>
        <time>2022-08-14T07:44:16.000Z</time>
      </trkpt>
      <trkpt lat="47.24442" lon="-2.31222">
        <ele>23</ele>
        <time>2022-08-14T07:44:17.000Z</time>
      </trkpt>
      <trkpt lat="47.24445" lon="-2.31224">
        <ele>23.39999961853</ele>
        <time>2022-08-14T07:44:18.000Z</time>
      </trkpt>
      <trkpt lat="47.24447" lon="-2.31227">
        <ele>23.799999237061</ele>
        <time>2022-08-14T07:44:19.000Z</time>
      </trkpt>
      <trkpt lat="47.2445" lon="-2.31231">
        <ele>24.39999961853</ele>
        <time>2022-08-14T07:44:20.000Z</time>
      </trkpt>
      <trkpt lat="47.24453" lon="-2.31236">
        <ele>24.799999237061</ele>
        <time>2022-08-14T07:44:21.000Z</time>
      </trkpt>
      <trkpt lat="47.24459" lon="-2.31255">
        <ele>24.799999237061</ele>
        <time>2022-08-14T07:44:26.000Z</time>
      </trkpt>
      <trkpt lat="47.24454" lon="-2.31267">
        <ele>24.799999237061</ele>
        <time>2022-08-14T07:44:31.000Z</time>
      </trkpt>
      <trkpt lat="47.24445" lon="-2.31279">
        <ele>24.799999237061</ele>
        <time>2022-08-14T07:44:37.000Z</time>
      </trkpt>
      <trkpt lat="47.24437" lon="-2.31286">
        <ele>24.799999237061</ele>
        <time>2022-08-14T07:44:42.000Z</time>
      </trkpt>
      <trkpt lat="47.24423" lon="-2.31294">
        <ele>24.799999237061</ele>
        <time>2022-08-14T07:44:48.000Z</time>
      </trkpt>
      <trkpt lat="47.2442" lon="-2.31296">
        <ele>24.39999961853</ele>
        <time>2022-08-14T07:44:49.000Z</time>
      </trkpt>
      <trkpt lat="47.24416" lon="-2.31299">
        <ele>24</ele>
        <time>2022-08-14T07:44:50.000Z</time>
      </trkpt>
      <trkpt lat="47.24413" lon="-2.31303">
        <ele>23.60000038147</ele>
        <time>2022-08-14T07:44:51.000Z</time>
      </trkpt>
      <trkpt lat="47.24409" lon="-2.31306">
        <ele>23</ele>
        <time>2022-08-14T07:44:52.000Z</time>
      </trkpt>
      <trkpt lat="47.24406" lon="-2.31309">
        <ele>22.60000038147</ele>
        <time>2022-08-14T07:44:53.000Z</time>
      </trkpt>
      <trkpt lat="47.24387" lon="-2.31327">
        <ele>22.60000038147</ele>
        <time>2022-08-14T07:44:59.000Z</time>
      </trkpt>
      <trkpt lat="47.24384" lon="-2.3133">
        <ele>22.200000762939</ele>
        <time>2022-08-14T07:45:00.000Z</time>
      </trkpt>
      <trkpt lat="47.24381" lon="-2.31332">
        <ele>21.799999237061</ele>
        <time>2022-08-14T07:45:01.000Z</time>
      </trkpt>
      <trkpt lat="47.24378" lon="-2.31334">
        <ele>21.39999961853</ele>
        <time>2022-08-14T07:45:02.000Z</time>
      </trkpt>
      <trkpt lat="47.24375" lon="-2.31336">
        <ele>21</ele>
        <time>2022-08-14T07:45:03.000Z</time>
      </trkpt>
      <trkpt lat="47.24373" lon="-2.31338">
        <ele>20.60000038147</ele>
        <time>2022-08-14T07:45:04.000Z</time>
      </trkpt>
      <trkpt lat="47.24372" lon="-2.3134">
        <ele>20.60000038147</ele>
        <time>2022-08-14T07:45:05.000Z</time>
      </trkpt>
      <trkpt lat="47.24368" lon="-2.31344">
        <ele>20.60000038147</ele>
        <time>2022-08-14T07:45:09.000Z</time>
      </trkpt>
      <trkpt lat="47.24366" lon="-2.31345">
        <ele>20.60000038147</ele>
        <time>2022-08-14T07:45:14.000Z</time>
      </trkpt>
      <trkpt lat="47.24365" lon="-2.31344">
        <ele>20.60000038147</ele>
        <time>2022-08-14T07:45:15.000Z</time>
      </trkpt>
      <trkpt lat="47.24358" lon="-2.31334">
        <ele>20.60000038147</ele>
        <time>2022-08-14T07:45:18.000Z</time>
      </trkpt>
      <trkpt lat="47.24356" lon="-2.31329">
        <ele>20.60000038147</ele>
        <time>2022-08-14T07:45:19.000Z</time>
      </trkpt>
      <trkpt lat="47.24344" lon="-2.31301">
        <ele>20.60000038147</ele>
        <time>2022-08-14T07:45:24.000Z</time>
      </trkpt>
      <trkpt lat="47.24332" lon="-2.31267">
        <ele>20.60000038147</ele>
        <time>2022-08-14T07:45:29.000Z</time>
      </trkpt>
      <trkpt lat="47.2433" lon="-2.31261">
        <ele>20.60000038147</ele>
        <time>2022-08-14T07:45:30.000Z</time>
      </trkpt>
      <trkpt lat="47.24322" lon="-2.31241">
        <ele>20.60000038147</ele>
        <time>2022-08-14T07:45:34.000Z</time>
      </trkpt>
      <trkpt lat="47.24312" lon="-2.31245">
        <ele>20.60000038147</ele>
        <time>2022-08-14T07:45:37.000Z</time>
      </trkpt>
      <trkpt lat="47.24304" lon="-2.3127">
        <ele>20.60000038147</ele>
        <time>2022-08-14T07:45:41.000Z</time>
      </trkpt>
      <trkpt lat="47.24302" lon="-2.31277">
        <ele>20.200000762939</ele>
        <time>2022-08-14T07:45:42.000Z</time>
      </trkpt>
      <trkpt lat="47.243" lon="-2.31283">
        <ele>19.799999237061</ele>
        <time>2022-08-14T07:45:43.000Z</time>
      </trkpt>
      <trkpt lat="47.24297" lon="-2.31289">
        <ele>19.39999961853</ele>
        <time>2022-08-14T07:45:44.000Z</time>
      </trkpt>
      <trkpt lat="47.24294" lon="-2.31294">
        <ele>19</ele>
        <time>2022-08-14T07:45:45.000Z</time>
      </trkpt>
      <trkpt lat="47.2429" lon="-2.31298">
        <ele>18.60000038147</ele>
        <time>2022-08-14T07:45:46.000Z</time>
      </trkpt>
      <trkpt lat="47.24275" lon="-2.31298">
        <ele>18.60000038147</ele>
        <time>2022-08-14T07:45:49.000Z</time>
      </trkpt>
      <trkpt lat="47.24268" lon="-2.31294">
        <ele>18.60000038147</ele>
        <time>2022-08-14T07:45:51.000Z</time>
      </trkpt>
      <trkpt lat="47.24258" lon="-2.31287">
        <ele>18.60000038147</ele>
        <time>2022-08-14T07:45:54.000Z</time>
      </trkpt>
      <trkpt lat="47.24248" lon="-2.31269">
        <ele>18.60000038147</ele>
        <time>2022-08-14T07:45:58.000Z</time>
      </trkpt>
      <trkpt lat="47.24234" lon="-2.31241">
        <ele>18.60000038147</ele>
        <time>2022-08-14T07:46:03.000Z</time>
      </trkpt>
      <trkpt lat="47.24213" lon="-2.31198">
        <ele>18.60000038147</ele>
        <time>2022-08-14T07:46:10.000Z</time>
      </trkpt>
      <trkpt lat="47.24188" lon="-2.3115">
        <ele>18.60000038147</ele>
        <time>2022-08-14T07:46:18.000Z</time>
      </trkpt>
      <trkpt lat="47.24162" lon="-2.31101">
        <ele>18.60000038147</ele>
        <time>2022-08-14T07:46:26.000Z</time>
      </trkpt>
      <trkpt lat="47.24137" lon="-2.31059">
        <ele>18.60000038147</ele>
        <time>2022-08-14T07:46:33.000Z</time>
      </trkpt>
      <trkpt lat="47.24125" lon="-2.31037">
        <ele>18.60000038147</ele>
        <time>2022-08-14T07:46:37.000Z</time>
      </trkpt>
      <trkpt lat="47.2412" lon="-2.31027">
        <ele>18.60000038147</ele>
        <time>2022-08-14T07:46:39.000Z</time>
      </trkpt>
      <trkpt lat="47.24123" lon="-2.31011">
        <ele>18.60000038147</ele>
        <time>2022-08-14T07:46:42.000Z</time>
      </trkpt>
      <trkpt lat="47.24132" lon="-2.30995">
        <ele>18.60000038147</ele>
        <time>2022-08-14T07:46:45.000Z</time>
      </trkpt>
      <trkpt lat="47.24138" lon="-2.30984">
        <ele>18.60000038147</ele>
        <time>2022-08-14T07:46:47.000Z</time>
      </trkpt>
      <trkpt lat="47.24152" lon="-2.30956">
        <ele>18.60000038147</ele>
        <time>2022-08-14T07:46:52.000Z</time>
      </trkpt>
      <trkpt lat="47.24155" lon="-2.30951">
        <ele>18.60000038147</ele>
        <time>2022-08-14T07:46:53.000Z</time>
      </trkpt>
      <trkpt lat="47.2417" lon="-2.30922">
        <ele>18.60000038147</ele>
        <time>2022-08-14T07:46:59.000Z</time>
      </trkpt>
      <trkpt lat="47.24175" lon="-2.30912">
        <ele>18.60000038147</ele>
        <time>2022-08-14T07:47:03.000Z</time>
      </trkpt>
      <trkpt lat="47.24176" lon="-2.3091">
        <ele>18.60000038147</ele>
        <time>2022-08-14T07:47:04.000Z</time>
      </trkpt>
      <trkpt lat="47.24179" lon="-2.30901">
        <ele>18.60000038147</ele>
        <time>2022-08-14T07:47:07.000Z</time>
      </trkpt>
      <trkpt lat="47.24186" lon="-2.30886">
        <ele>18.60000038147</ele>
        <time>2022-08-14T07:47:11.000Z</time>
      </trkpt>
      <trkpt lat="47.2419" lon="-2.30878">
        <ele>19</ele>
        <time>2022-08-14T07:47:13.000Z</time>
      </trkpt>
      <trkpt lat="47.24192" lon="-2.30873">
        <ele>19.39999961853</ele>
        <time>2022-08-14T07:47:14.000Z</time>
      </trkpt>
      <trkpt lat="47.24194" lon="-2.30869">
        <ele>19.799999237061</ele>
        <time>2022-08-14T07:47:15.000Z</time>
      </trkpt>
      <trkpt lat="47.24196" lon="-2.30865">
        <ele>20.200000762939</ele>
        <time>2022-08-14T07:47:16.000Z</time>
      </trkpt>
      <trkpt lat="47.24199" lon="-2.3086">
        <ele>20.60000038147</ele>
        <time>2022-08-14T07:47:17.000Z</time>
      </trkpt>
      <trkpt lat="47.24204" lon="-2.30851">
        <ele>21</ele>
        <time>2022-08-14T07:47:19.000Z</time>
      </trkpt>
      <trkpt lat="47.24206" lon="-2.30847">
        <ele>21.39999961853</ele>
        <time>2022-08-14T07:47:20.000Z</time>
      </trkpt>
      <trkpt lat="47.24209" lon="-2.30843">
        <ele>21.799999237061</ele>
        <time>2022-08-14T07:47:21.000Z</time>
      </trkpt>
      <trkpt lat="47.24212" lon="-2.30838">
        <ele>22.39999961853</ele>
        <time>2022-08-14T07:47:22.000Z</time>
      </trkpt>
      <trkpt lat="47.24215" lon="-2.30833">
        <ele>22.799999237061</ele>
        <time>2022-08-14T07:47:23.000Z</time>
      </trkpt>
      <trkpt lat="47.2422" lon="-2.30823">
        <ele>22.799999237061</ele>
        <time>2022-08-14T07:47:25.000Z</time>
      </trkpt>
      <trkpt lat="47.24222" lon="-2.30818">
        <ele>23.200000762939</ele>
        <time>2022-08-14T07:47:26.000Z</time>
      </trkpt>
      <trkpt lat="47.24225" lon="-2.30813">
        <ele>23.60000038147</ele>
        <time>2022-08-14T07:47:27.000Z</time>
      </trkpt>
      <trkpt lat="47.24226" lon="-2.30809">
        <ele>24.200000762939</ele>
        <time>2022-08-14T07:47:28.000Z</time>
      </trkpt>
      <trkpt lat="47.24228" lon="-2.30805">
        <ele>24.60000038147</ele>
        <time>2022-08-14T07:47:29.000Z</time>
      </trkpt>
      <trkpt lat="47.2423" lon="-2.30801">
        <ele>25</ele>
        <time>2022-08-14T07:47:30.000Z</time>
      </trkpt>
      <trkpt lat="47.24234" lon="-2.30795">
        <ele>25</ele>
        <time>2022-08-14T07:47:32.000Z</time>
      </trkpt>
      <trkpt lat="47.24237" lon="-2.30793">
        <ele>25.39999961853</ele>
        <time>2022-08-14T07:47:34.000Z</time>
      </trkpt>
      <trkpt lat="47.2424" lon="-2.30794">
        <ele>26</ele>
        <time>2022-08-14T07:47:35.000Z</time>
      </trkpt>
      <trkpt lat="47.24242" lon="-2.30798">
        <ele>26.39999961853</ele>
        <time>2022-08-14T07:47:36.000Z</time>
      </trkpt>
      <trkpt lat="47.24244" lon="-2.30801">
        <ele>26.799999237061</ele>
        <time>2022-08-14T07:47:37.000Z</time>
      </trkpt>
      <trkpt lat="47.24247" lon="-2.30806">
        <ele>27.200000762939</ele>
        <time>2022-08-14T07:47:38.000Z</time>
      </trkpt>
      <trkpt lat="47.24249" lon="-2.30811">
        <ele>27.200000762939</ele>
        <time>2022-08-14T07:47:39.000Z</time>
      </trkpt>
      <trkpt lat="47.24253" lon="-2.30823">
        <ele>27.200000762939</ele>
        <time>2022-08-14T07:47:41.000Z</time>
      </trkpt>
      <trkpt lat="47.24256" lon="-2.30829">
        <ele>27.200000762939</ele>
        <time>2022-08-14T07:47:42.000Z</time>
      </trkpt>
      <trkpt lat="47.24262" lon="-2.30839">
        <ele>27.200000762939</ele>
        <time>2022-08-14T07:47:44.000Z</time>
      </trkpt>
      <trkpt lat="47.24276" lon="-2.30856">
        <ele>27.200000762939</ele>
        <time>2022-08-14T07:47:49.000Z</time>
      </trkpt>
      <trkpt lat="47.24279" lon="-2.30858">
        <ele>27.200000762939</ele>
        <time>2022-08-14T07:47:50.000Z</time>
      </trkpt>
      <trkpt lat="47.24283" lon="-2.30856">
        <ele>27.60000038147</ele>
        <time>2022-08-14T07:47:52.000Z</time>
      </trkpt>
      <trkpt lat="47.24284" lon="-2.30853">
        <ele>28</ele>
        <time>2022-08-14T07:47:53.000Z</time>
      </trkpt>
      <trkpt lat="47.24284" lon="-2.30849">
        <ele>28.39999961853</ele>
        <time>2022-08-14T07:47:54.000Z</time>
      </trkpt>
      <trkpt lat="47.24284" lon="-2.30845">
        <ele>28.799999237061</ele>
        <time>2022-08-14T07:47:55.000Z</time>
      </trkpt>
      <trkpt lat="47.24285" lon="-2.3084">
        <ele>29.200000762939</ele>
        <time>2022-08-14T07:47:56.000Z</time>
      </trkpt>
      <trkpt lat="47.24289" lon="-2.30827">
        <ele>29.200000762939</ele>
        <time>2022-08-14T07:47:59.000Z</time>
      </trkpt>
      <trkpt lat="47.24294" lon="-2.30819">
        <ele>29.200000762939</ele>
        <time>2022-08-14T07:48:01.000Z</time>
      </trkpt>
      <trkpt lat="47.24303" lon="-2.3081">
        <ele>29.200000762939</ele>
        <time>2022-08-14T07:48:04.000Z</time>
      </trkpt>
      <trkpt lat="47.24307" lon="-2.30807">
        <ele>29.60000038147</ele>
        <time>2022-08-14T07:48:05.000Z</time>
      </trkpt>
      <trkpt lat="47.24311" lon="-2.30804">
        <ele>30.200000762939</ele>
        <time>2022-08-14T07:48:06.000Z</time>
      </trkpt>
      <trkpt lat="47.24315" lon="-2.30802">
        <ele>30.60000038147</ele>
        <time>2022-08-14T07:48:07.000Z</time>
      </trkpt>
      <trkpt lat="47.24319" lon="-2.308">
        <ele>31</ele>
        <time>2022-08-14T07:48:08.000Z</time>
      </trkpt>
      <trkpt lat="47.24322" lon="-2.30799">
        <ele>31.39999961853</ele>
        <time>2022-08-14T07:48:09.000Z</time>
      </trkpt>
      <trkpt lat="47.24331" lon="-2.30796">
        <ele>31.39999961853</ele>
        <time>2022-08-14T07:48:11.000Z</time>
      </trkpt>
      <trkpt lat="47.24362" lon="-2.30785">
        <ele>31.39999961853</ele>
        <time>2022-08-14T07:48:18.000Z</time>
      </trkpt>
      <trkpt lat="47.24372" lon="-2.30776">
        <ele>32.200000762939</ele>
        <time>2022-08-14T07:48:21.000Z</time>
      </trkpt>
      <trkpt lat="47.24376" lon="-2.30772">
        <ele>32.599998474121</ele>
        <time>2022-08-14T07:48:22.000Z</time>
      </trkpt>
      <trkpt lat="47.24379" lon="-2.30768">
        <ele>33.200000762939</ele>
        <time>2022-08-14T07:48:23.000Z</time>
      </trkpt>
      <trkpt lat="47.24382" lon="-2.30765">
        <ele>33.599998474121</ele>
        <time>2022-08-14T07:48:24.000Z</time>
      </trkpt>
      <trkpt lat="47.24392" lon="-2.30753">
        <ele>34</ele>
        <time>2022-08-14T07:48:28.000Z</time>
      </trkpt>
      <trkpt lat="47.24394" lon="-2.3075">
        <ele>34.400001525879</ele>
        <time>2022-08-14T07:48:29.000Z</time>
      </trkpt>
      <trkpt lat="47.24396" lon="-2.30747">
        <ele>35</ele>
        <time>2022-08-14T07:48:30.000Z</time>
      </trkpt>
      <trkpt lat="47.24397" lon="-2.30742">
        <ele>35.400001525879</ele>
        <time>2022-08-14T07:48:31.000Z</time>
      </trkpt>
      <trkpt lat="47.24397" lon="-2.30738">
        <ele>35.799999237061</ele>
        <time>2022-08-14T07:48:32.000Z</time>
      </trkpt>
      <trkpt lat="47.24398" lon="-2.30733">
        <ele>35.799999237061</ele>
        <time>2022-08-14T07:48:33.000Z</time>
      </trkpt>
      <trkpt lat="47.24402" lon="-2.30702">
        <ele>35.799999237061</ele>
        <time>2022-08-14T07:48:39.000Z</time>
      </trkpt>
      <trkpt lat="47.24411" lon="-2.30667">
        <ele>35.799999237061</ele>
        <time>2022-08-14T07:48:46.000Z</time>
      </trkpt>
      <trkpt lat="47.2442" lon="-2.30634">
        <ele>35.799999237061</ele>
        <time>2022-08-14T07:48:53.000Z</time>
      </trkpt>
      <trkpt lat="47.24426" lon="-2.30623">
        <ele>35.799999237061</ele>
        <time>2022-08-14T07:48:56.000Z</time>
      </trkpt>
      <trkpt lat="47.24431" lon="-2.30617">
        <ele>35.799999237061</ele>
        <time>2022-08-14T07:48:58.000Z</time>
      </trkpt>
      <trkpt lat="47.24444" lon="-2.30605">
        <ele>35.799999237061</ele>
        <time>2022-08-14T07:49:02.000Z</time>
      </trkpt>
      <trkpt lat="47.24447" lon="-2.30601">
        <ele>35.799999237061</ele>
        <time>2022-08-14T07:49:03.000Z</time>
      </trkpt>
      <trkpt lat="47.24458" lon="-2.30584">
        <ele>35.799999237061</ele>
        <time>2022-08-14T07:49:06.000Z</time>
      </trkpt>
      <trkpt lat="47.24461" lon="-2.30576">
        <ele>35.400001525879</ele>
        <time>2022-08-14T07:49:07.000Z</time>
      </trkpt>
      <trkpt lat="47.24463" lon="-2.30569">
        <ele>35</ele>
        <time>2022-08-14T07:49:08.000Z</time>
      </trkpt>
      <trkpt lat="47.24466" lon="-2.30563">
        <ele>34.599998474121</ele>
        <time>2022-08-14T07:49:09.000Z</time>
      </trkpt>
      <trkpt lat="47.24467" lon="-2.30558">
        <ele>33.799999237061</ele>
        <time>2022-08-14T07:49:10.000Z</time>
      </trkpt>
      <trkpt lat="47.24463" lon="-2.3055">
        <ele>33.799999237061</ele>
        <time>2022-08-14T07:49:13.000Z</time>
      </trkpt>
      <trkpt lat="47.24457" lon="-2.30554">
        <ele>33.400001525879</ele>
        <time>2022-08-14T07:49:15.000Z</time>
      </trkpt>
      <trkpt lat="47.24455" lon="-2.30558">
        <ele>33</ele>
        <time>2022-08-14T07:49:16.000Z</time>
      </trkpt>
      <trkpt lat="47.24451" lon="-2.30562">
        <ele>32.599998474121</ele>
        <time>2022-08-14T07:49:17.000Z</time>
      </trkpt>
      <trkpt lat="47.24447" lon="-2.30566">
        <ele>32.200000762939</ele>
        <time>2022-08-14T07:49:18.000Z</time>
      </trkpt>
      <trkpt lat="47.24441" lon="-2.3057">
        <ele>31.799999237061</ele>
        <time>2022-08-14T07:49:19.000Z</time>
      </trkpt>
      <trkpt lat="47.24436" lon="-2.30573">
        <ele>31.799999237061</ele>
        <time>2022-08-14T07:49:20.000Z</time>
      </trkpt>
      <trkpt lat="47.24431" lon="-2.30576">
        <ele>31.799999237061</ele>
        <time>2022-08-14T07:49:21.000Z</time>
      </trkpt>
      <trkpt lat="47.24419" lon="-2.30581">
        <ele>31.200000762939</ele>
        <time>2022-08-14T07:49:23.000Z</time>
      </trkpt>
      <trkpt lat="47.24414" lon="-2.30582">
        <ele>30.799999237061</ele>
        <time>2022-08-14T07:49:24.000Z</time>
      </trkpt>
      <trkpt lat="47.24409" lon="-2.30584">
        <ele>30.39999961853</ele>
        <time>2022-08-14T07:49:25.000Z</time>
      </trkpt>
      <trkpt lat="47.24404" lon="-2.30584">
        <ele>30</ele>
        <time>2022-08-14T07:49:26.000Z</time>
      </trkpt>
      <trkpt lat="47.24398" lon="-2.30582">
        <ele>29.39999961853</ele>
        <time>2022-08-14T07:49:27.000Z</time>
      </trkpt>
      <trkpt lat="47.24392" lon="-2.30579">
        <ele>29.39999961853</ele>
        <time>2022-08-14T07:49:28.000Z</time>
      </trkpt>
      <trkpt lat="47.24376" lon="-2.30565">
        <ele>29.39999961853</ele>
        <time>2022-08-14T07:49:31.000Z</time>
      </trkpt>
      <trkpt lat="47.24372" lon="-2.3056">
        <ele>29</ele>
        <time>2022-08-14T07:49:32.000Z</time>
      </trkpt>
      <trkpt lat="47.24369" lon="-2.30553">
        <ele>28.60000038147</ele>
        <time>2022-08-14T07:49:33.000Z</time>
      </trkpt>
      <trkpt lat="47.24367" lon="-2.30547">
        <ele>28.200000762939</ele>
        <time>2022-08-14T07:49:34.000Z</time>
      </trkpt>
      <trkpt lat="47.24366" lon="-2.30541">
        <ele>27.39999961853</ele>
        <time>2022-08-14T07:49:35.000Z</time>
      </trkpt>
      <trkpt lat="47.24365" lon="-2.30535">
        <ele>27.39999961853</ele>
        <time>2022-08-14T07:49:36.000Z</time>
      </trkpt>
      <trkpt lat="47.24364" lon="-2.30526">
        <ele>27.39999961853</ele>
        <time>2022-08-14T07:49:39.000Z</time>
      </trkpt>
      <trkpt lat="47.24364" lon="-2.30525">
        <ele>27.39999961853</ele>
        <time>2022-08-14T07:49:40.000Z</time>
      </trkpt>
      <trkpt lat="47.24363" lon="-2.30521">
        <ele>27.39999961853</ele>
        <time>2022-08-14T07:50:01.000Z</time>
      </trkpt>
      <trkpt lat="47.24363" lon="-2.30519">
        <ele>27.39999961853</ele>
        <time>2022-08-14T07:50:02.000Z</time>
      </trkpt>
      <trkpt lat="47.24363" lon="-2.30513">
        <ele>27.799999237061</ele>
        <time>2022-08-14T07:50:05.000Z</time>
      </trkpt>
      <trkpt lat="47.24364" lon="-2.3051">
        <ele>28.200000762939</ele>
        <time>2022-08-14T07:50:06.000Z</time>
      </trkpt>
      <trkpt lat="47.24364" lon="-2.30507">
        <ele>28.60000038147</ele>
        <time>2022-08-14T07:50:07.000Z</time>
      </trkpt>
      <trkpt lat="47.24365" lon="-2.30503">
        <ele>29</ele>
        <time>2022-08-14T07:50:08.000Z</time>
      </trkpt>
      <trkpt lat="47.24366" lon="-2.305">
        <ele>29.39999961853</ele>
        <time>2022-08-14T07:50:09.000Z</time>
      </trkpt>
      <trkpt lat="47.24372" lon="-2.30486">
        <ele>29.39999961853</ele>
        <time>2022-08-14T07:50:13.000Z</time>
      </trkpt>
      <trkpt lat="47.24373" lon="-2.30481">
        <ele>29.799999237061</ele>
        <time>2022-08-14T07:50:14.000Z</time>
      </trkpt>
      <trkpt lat="47.24374" lon="-2.30477">
        <ele>30.39999961853</ele>
        <time>2022-08-14T07:50:15.000Z</time>
      </trkpt>
      <trkpt lat="47.24375" lon="-2.30472">
        <ele>30.799999237061</ele>
        <time>2022-08-14T07:50:16.000Z</time>
      </trkpt>
      <trkpt lat="47.24376" lon="-2.30467">
        <ele>31.200000762939</ele>
        <time>2022-08-14T07:50:17.000Z</time>
      </trkpt>
      <trkpt lat="47.24377" lon="-2.30462">
        <ele>31.60000038147</ele>
        <time>2022-08-14T07:50:18.000Z</time>
      </trkpt>
      <trkpt lat="47.24377" lon="-2.30458">
        <ele>31.60000038147</ele>
        <time>2022-08-14T07:50:19.000Z</time>
      </trkpt>
      <trkpt lat="47.24377" lon="-2.30452">
        <ele>31.60000038147</ele>
        <time>2022-08-14T07:50:21.000Z</time>
      </trkpt>
      <trkpt lat="47.24372" lon="-2.30451">
        <ele>31.60000038147</ele>
        <time>2022-08-14T07:50:23.000Z</time>
      </trkpt>
      <trkpt lat="47.24356" lon="-2.30452">
        <ele>31.60000038147</ele>
        <time>2022-08-14T07:50:28.000Z</time>
      </trkpt>
      <trkpt lat="47.24353" lon="-2.30451">
        <ele>32</ele>
        <time>2022-08-14T07:50:29.000Z</time>
      </trkpt>
      <trkpt lat="47.2435" lon="-2.3045">
        <ele>32.599998474121</ele>
        <time>2022-08-14T07:50:30.000Z</time>
      </trkpt>
      <trkpt lat="47.24348" lon="-2.30449">
        <ele>33</ele>
        <time>2022-08-14T07:50:31.000Z</time>
      </trkpt>
      <trkpt lat="47.24345" lon="-2.30447">
        <ele>33.400001525879</ele>
        <time>2022-08-14T07:50:32.000Z</time>
      </trkpt>
      <trkpt lat="47.24342" lon="-2.30446">
        <ele>33.799999237061</ele>
        <time>2022-08-14T07:50:33.000Z</time>
      </trkpt>
      <trkpt lat="47.2434" lon="-2.30445">
        <ele>33.799999237061</ele>
        <time>2022-08-14T07:50:34.000Z</time>
      </trkpt>
      <trkpt lat="47.24328" lon="-2.30438">
        <ele>33.799999237061</ele>
        <time>2022-08-14T07:50:38.000Z</time>
      </trkpt>
      <trkpt lat="47.24318" lon="-2.3043">
        <ele>33.799999237061</ele>
        <time>2022-08-14T07:50:43.000Z</time>
      </trkpt>
      <trkpt lat="47.24314" lon="-2.30428">
        <ele>33.799999237061</ele>
        <time>2022-08-14T07:50:45.000Z</time>
      </trkpt>
      <trkpt lat="47.24306" lon="-2.30423">
        <ele>33.799999237061</ele>
        <time>2022-08-14T07:50:48.000Z</time>
      </trkpt>
      <trkpt lat="47.24294" lon="-2.30414">
        <ele>33.799999237061</ele>
        <time>2022-08-14T07:50:52.000Z</time>
      </trkpt>
      <trkpt lat="47.24289" lon="-2.30409">
        <ele>33.799999237061</ele>
        <time>2022-08-14T07:50:54.000Z</time>
      </trkpt>
      <trkpt lat="47.24279" lon="-2.30397">
        <ele>33.799999237061</ele>
        <time>2022-08-14T07:50:58.000Z</time>
      </trkpt>
      <trkpt lat="47.24264" lon="-2.30371">
        <ele>33.799999237061</ele>
        <time>2022-08-14T07:51:04.000Z</time>
      </trkpt>
      <trkpt lat="47.24253" lon="-2.30351">
        <ele>33.799999237061</ele>
        <time>2022-08-14T07:51:09.000Z</time>
      </trkpt>
      <trkpt lat="47.24244" lon="-2.30336">
        <ele>33.799999237061</ele>
        <time>2022-08-14T07:51:13.000Z</time>
      </trkpt>
      <trkpt lat="47.24234" lon="-2.30327">
        <ele>33.799999237061</ele>
        <time>2022-08-14T07:51:17.000Z</time>
      </trkpt>
      <trkpt lat="47.2422" lon="-2.30333">
        <ele>33.799999237061</ele>
        <time>2022-08-14T07:51:21.000Z</time>
      </trkpt>
      <trkpt lat="47.24217" lon="-2.30333">
        <ele>33.799999237061</ele>
        <time>2022-08-14T07:51:22.000Z</time>
      </trkpt>
      <trkpt lat="47.2421" lon="-2.30333">
        <ele>33.400001525879</ele>
        <time>2022-08-14T07:51:24.000Z</time>
      </trkpt>
      <trkpt lat="47.24207" lon="-2.3033">
        <ele>32.799999237061</ele>
        <time>2022-08-14T07:51:25.000Z</time>
      </trkpt>
      <trkpt lat="47.24205" lon="-2.30328">
        <ele>32.400001525879</ele>
        <time>2022-08-14T07:51:26.000Z</time>
      </trkpt>
      <trkpt lat="47.24204" lon="-2.30325">
        <ele>32</ele>
        <time>2022-08-14T07:51:27.000Z</time>
      </trkpt>
      <trkpt lat="47.24203" lon="-2.3032">
        <ele>31.39999961853</ele>
        <time>2022-08-14T07:51:28.000Z</time>
      </trkpt>
      <trkpt lat="47.242" lon="-2.30308">
        <ele>31.39999961853</ele>
        <time>2022-08-14T07:51:30.000Z</time>
      </trkpt>
      <trkpt lat="47.24195" lon="-2.30279">
        <ele>31</ele>
        <time>2022-08-14T07:51:34.000Z</time>
      </trkpt>
      <trkpt lat="47.24194" lon="-2.30272">
        <ele>30.60000038147</ele>
        <time>2022-08-14T07:51:35.000Z</time>
      </trkpt>
      <trkpt lat="47.24193" lon="-2.30264">
        <ele>30.200000762939</ele>
        <time>2022-08-14T07:51:36.000Z</time>
      </trkpt>
      <trkpt lat="47.24192" lon="-2.30258">
        <ele>29.799999237061</ele>
        <time>2022-08-14T07:51:37.000Z</time>
      </trkpt>
      <trkpt lat="47.24191" lon="-2.30252">
        <ele>29.39999961853</ele>
        <time>2022-08-14T07:51:38.000Z</time>
      </trkpt>
      <trkpt lat="47.2419" lon="-2.30245">
        <ele>29.39999961853</ele>
        <time>2022-08-14T07:51:39.000Z</time>
      </trkpt>
      <trkpt lat="47.24186" lon="-2.30239">
        <ele>29.39999961853</ele>
        <time>2022-08-14T07:51:41.000Z</time>
      </trkpt>
      <trkpt lat="47.2418" lon="-2.30242">
        <ele>29.39999961853</ele>
        <time>2022-08-14T07:51:43.000Z</time>
      </trkpt>
      <trkpt lat="47.24176" lon="-2.30244">
        <ele>29.39999961853</ele>
        <time>2022-08-14T07:51:44.000Z</time>
      </trkpt>
      <trkpt lat="47.24163" lon="-2.30238">
        <ele>29.39999961853</ele>
        <time>2022-08-14T07:51:48.000Z</time>
      </trkpt>
      <trkpt lat="47.24156" lon="-2.30224">
        <ele>29.39999961853</ele>
        <time>2022-08-14T07:51:52.000Z</time>
      </trkpt>
      <trkpt lat="47.24151" lon="-2.30212">
        <ele>29.39999961853</ele>
        <time>2022-08-14T07:51:55.000Z</time>
      </trkpt>
      <trkpt lat="47.24148" lon="-2.30203">
        <ele>29.39999961853</ele>
        <time>2022-08-14T07:51:57.000Z</time>
      </trkpt>
      <trkpt lat="47.24145" lon="-2.30194">
        <ele>29.799999237061</ele>
        <time>2022-08-14T07:51:59.000Z</time>
      </trkpt>
      <trkpt lat="47.24144" lon="-2.3019">
        <ele>30.200000762939</ele>
        <time>2022-08-14T07:52:00.000Z</time>
      </trkpt>
      <trkpt lat="47.24142" lon="-2.30186">
        <ele>30.60000038147</ele>
        <time>2022-08-14T07:52:01.000Z</time>
      </trkpt>
      <trkpt lat="47.24141" lon="-2.30182">
        <ele>31.60000038147</ele>
        <time>2022-08-14T07:52:02.000Z</time>
      </trkpt>
      <trkpt lat="47.24134" lon="-2.30166">
        <ele>32</ele>
        <time>2022-08-14T07:52:07.000Z</time>
      </trkpt>
      <trkpt lat="47.24133" lon="-2.30166">
        <ele>32.599998474121</ele>
        <time>2022-08-14T07:52:08.000Z</time>
      </trkpt>
      <trkpt lat="47.24132" lon="-2.30165">
        <ele>33</ele>
        <time>2022-08-14T07:52:09.000Z</time>
      </trkpt>
      <trkpt lat="47.24131" lon="-2.30164">
        <ele>33.599998474121</ele>
        <time>2022-08-14T07:52:10.000Z</time>
      </trkpt>
      <trkpt lat="47.24131" lon="-2.30163">
        <ele>34.200000762939</ele>
        <time>2022-08-14T07:52:11.000Z</time>
      </trkpt>
      <trkpt lat="47.24122" lon="-2.30161">
        <ele>34.200000762939</ele>
        <time>2022-08-14T07:52:37.000Z</time>
      </trkpt>
      <trkpt lat="47.24119" lon="-2.30164">
        <ele>34.599998474121</ele>
        <time>2022-08-14T07:52:39.000Z</time>
      </trkpt>
      <trkpt lat="47.24117" lon="-2.30165">
        <ele>35</ele>
        <time>2022-08-14T07:52:40.000Z</time>
      </trkpt>
      <trkpt lat="47.24114" lon="-2.30167">
        <ele>35.400001525879</ele>
        <time>2022-08-14T07:52:41.000Z</time>
      </trkpt>
      <trkpt lat="47.24111" lon="-2.30166">
        <ele>35.799999237061</ele>
        <time>2022-08-14T07:52:42.000Z</time>
      </trkpt>
      <trkpt lat="47.24109" lon="-2.30165">
        <ele>36.200000762939</ele>
        <time>2022-08-14T07:52:43.000Z</time>
      </trkpt>
      <trkpt lat="47.24106" lon="-2.30164">
        <ele>36.200000762939</ele>
        <time>2022-08-14T07:52:44.000Z</time>
      </trkpt>
      <trkpt lat="47.24102" lon="-2.30163">
        <ele>36.200000762939</ele>
        <time>2022-08-14T07:52:46.000Z</time>
      </trkpt>
      <trkpt lat="47.241" lon="-2.30163">
        <ele>36.200000762939</ele>
        <time>2022-08-14T07:52:47.000Z</time>
      </trkpt>
      <trkpt lat="47.24097" lon="-2.30163">
        <ele>36.200000762939</ele>
        <time>2022-08-14T07:52:48.000Z</time>
      </trkpt>
      <trkpt lat="47.24087" lon="-2.30167">
        <ele>36.200000762939</ele>
        <time>2022-08-14T07:52:52.000Z</time>
      </trkpt>
      <trkpt lat="47.24076" lon="-2.30173">
        <ele>36.200000762939</ele>
        <time>2022-08-14T07:52:57.000Z</time>
      </trkpt>
      <trkpt lat="47.24065" lon="-2.30181">
        <ele>36.200000762939</ele>
        <time>2022-08-14T07:53:01.000Z</time>
      </trkpt>
      <trkpt lat="47.24054" lon="-2.30187">
        <ele>36.200000762939</ele>
        <time>2022-08-14T07:53:06.000Z</time>
      </trkpt>
      <trkpt lat="47.24047" lon="-2.30187">
        <ele>36.200000762939</ele>
        <time>2022-08-14T07:53:09.000Z</time>
      </trkpt>
      <trkpt lat="47.24045" lon="-2.30188">
        <ele>36.200000762939</ele>
        <time>2022-08-14T07:53:10.000Z</time>
      </trkpt>
      <trkpt lat="47.24043" lon="-2.30187">
        <ele>36.200000762939</ele>
        <time>2022-08-14T07:53:11.000Z</time>
      </trkpt>
      <trkpt lat="47.24038" lon="-2.3018">
        <ele>36.200000762939</ele>
        <time>2022-08-14T07:53:14.000Z</time>
      </trkpt>
      <trkpt lat="47.2403" lon="-2.30172">
        <ele>36.599998474121</ele>
        <time>2022-08-14T07:53:17.000Z</time>
      </trkpt>
      <trkpt lat="47.24027" lon="-2.30171">
        <ele>37</ele>
        <time>2022-08-14T07:53:18.000Z</time>
      </trkpt>
      <trkpt lat="47.24023" lon="-2.30169">
        <ele>37.400001525879</ele>
        <time>2022-08-14T07:53:19.000Z</time>
      </trkpt>
      <trkpt lat="47.2402" lon="-2.30168">
        <ele>37.799999237061</ele>
        <time>2022-08-14T07:53:20.000Z</time>
      </trkpt>
      <trkpt lat="47.24015" lon="-2.30165">
        <ele>38.200000762939</ele>
        <time>2022-08-14T07:53:21.000Z</time>
      </trkpt>
      <trkpt lat="47.24005" lon="-2.30158">
        <ele>38.200000762939</ele>
        <time>2022-08-14T07:53:24.000Z</time>
      </trkpt>
      <trkpt lat="47.23999" lon="-2.30156">
        <ele>38.200000762939</ele>
        <time>2022-08-14T07:53:26.000Z</time>
      </trkpt>
      <trkpt lat="47.23993" lon="-2.30155">
        <ele>38.200000762939</ele>
        <time>2022-08-14T07:53:28.000Z</time>
      </trkpt>
      <trkpt lat="47.23979" lon="-2.30144">
        <ele>38.200000762939</ele>
        <time>2022-08-14T07:53:32.000Z</time>
      </trkpt>
      <trkpt lat="47.23971" lon="-2.30141">
        <ele>38.200000762939</ele>
        <time>2022-08-14T07:53:34.000Z</time>
      </trkpt>
      <trkpt lat="47.23966" lon="-2.30141">
        <ele>37.799999237061</ele>
        <time>2022-08-14T07:53:35.000Z</time>
      </trkpt>
      <trkpt lat="47.23961" lon="-2.30141">
        <ele>37.400001525879</ele>
        <time>2022-08-14T07:53:36.000Z</time>
      </trkpt>
      <trkpt lat="47.23957" lon="-2.30141">
        <ele>37</ele>
        <time>2022-08-14T07:53:37.000Z</time>
      </trkpt>
      <trkpt lat="47.23953" lon="-2.30139">
        <ele>36.599998474121</ele>
        <time>2022-08-14T07:53:38.000Z</time>
      </trkpt>
      <trkpt lat="47.23948" lon="-2.30138">
        <ele>36.200000762939</ele>
        <time>2022-08-14T07:53:39.000Z</time>
      </trkpt>
      <trkpt lat="47.23938" lon="-2.3014">
        <ele>36.200000762939</ele>
        <time>2022-08-14T07:53:41.000Z</time>
      </trkpt>
      <trkpt lat="47.23933" lon="-2.30141">
        <ele>36.200000762939</ele>
        <time>2022-08-14T07:53:42.000Z</time>
      </trkpt>
      <trkpt lat="47.23929" lon="-2.30139">
        <ele>35.799999237061</ele>
        <time>2022-08-14T07:53:43.000Z</time>
      </trkpt>
      <trkpt lat="47.23925" lon="-2.30136">
        <ele>35.400001525879</ele>
        <time>2022-08-14T07:53:44.000Z</time>
      </trkpt>
      <trkpt lat="47.23921" lon="-2.30134">
        <ele>35</ele>
        <time>2022-08-14T07:53:45.000Z</time>
      </trkpt>
      <trkpt lat="47.23917" lon="-2.30132">
        <ele>34.400001525879</ele>
        <time>2022-08-14T07:53:46.000Z</time>
      </trkpt>
      <trkpt lat="47.23913" lon="-2.30131">
        <ele>34</ele>
        <time>2022-08-14T07:53:47.000Z</time>
      </trkpt>
      <trkpt lat="47.23911" lon="-2.30125">
        <ele>34</ele>
        <time>2022-08-14T07:53:50.000Z</time>
      </trkpt>
      <trkpt lat="47.23913" lon="-2.30119">
        <ele>34</ele>
        <time>2022-08-14T07:53:52.000Z</time>
      </trkpt>
      <trkpt lat="47.23914" lon="-2.30109">
        <ele>34</ele>
        <time>2022-08-14T07:53:55.000Z</time>
      </trkpt>
      <trkpt lat="47.23913" lon="-2.30104">
        <ele>34</ele>
        <time>2022-08-14T07:53:58.000Z</time>
      </trkpt>
      <trkpt lat="47.23911" lon="-2.30103">
        <ele>34</ele>
        <time>2022-08-14T07:53:59.000Z</time>
      </trkpt>
      <trkpt lat="47.23898" lon="-2.30094">
        <ele>34</ele>
        <time>2022-08-14T07:54:03.000Z</time>
      </trkpt>
      <trkpt lat="47.23872" lon="-2.30073">
        <ele>34</ele>
        <time>2022-08-14T07:54:09.000Z</time>
      </trkpt>
      <trkpt lat="47.23856" lon="-2.30057">
        <ele>34</ele>
        <time>2022-08-14T07:54:14.000Z</time>
      </trkpt>
      <trkpt lat="47.2385" lon="-2.30039">
        <ele>34</ele>
        <time>2022-08-14T07:54:18.000Z</time>
      </trkpt>
      <trkpt lat="47.23841" lon="-2.3">
        <ele>34.599998474121</ele>
        <time>2022-08-14T07:54:24.000Z</time>
      </trkpt>
      <trkpt lat="47.2384" lon="-2.29994">
        <ele>35</ele>
        <time>2022-08-14T07:54:25.000Z</time>
      </trkpt>
      <trkpt lat="47.23839" lon="-2.29987">
        <ele>35.400001525879</ele>
        <time>2022-08-14T07:54:26.000Z</time>
      </trkpt>
      <trkpt lat="47.23837" lon="-2.29981">
        <ele>35.799999237061</ele>
        <time>2022-08-14T07:54:27.000Z</time>
      </trkpt>
      <trkpt lat="47.23835" lon="-2.29974">
        <ele>36.200000762939</ele>
        <time>2022-08-14T07:54:28.000Z</time>
      </trkpt>
      <trkpt lat="47.2383" lon="-2.29949">
        <ele>36.200000762939</ele>
        <time>2022-08-14T07:54:32.000Z</time>
      </trkpt>
      <trkpt lat="47.23825" lon="-2.29924">
        <ele>36.599998474121</ele>
        <time>2022-08-14T07:54:36.000Z</time>
      </trkpt>
      <trkpt lat="47.23824" lon="-2.29918">
        <ele>37</ele>
        <time>2022-08-14T07:54:37.000Z</time>
      </trkpt>
      <trkpt lat="47.23823" lon="-2.29912">
        <ele>37.400001525879</ele>
        <time>2022-08-14T07:54:38.000Z</time>
      </trkpt>
      <trkpt lat="47.23822" lon="-2.29906">
        <ele>37.799999237061</ele>
        <time>2022-08-14T07:54:39.000Z</time>
      </trkpt>
      <trkpt lat="47.23821" lon="-2.29901">
        <ele>38.400001525879</ele>
        <time>2022-08-14T07:54:40.000Z</time>
      </trkpt>
      <trkpt lat="47.23812" lon="-2.29848">
        <ele>38.400001525879</ele>
        <time>2022-08-14T07:54:49.000Z</time>
      </trkpt>
      <trkpt lat="47.2381" lon="-2.29812">
        <ele>38.400001525879</ele>
        <time>2022-08-14T07:54:55.000Z</time>
      </trkpt>
      <trkpt lat="47.23811" lon="-2.29776">
        <ele>38.400001525879</ele>
        <time>2022-08-14T07:55:01.000Z</time>
      </trkpt>
      <trkpt lat="47.23812" lon="-2.29722">
        <ele>38.400001525879</ele>
        <time>2022-08-14T07:55:09.000Z</time>
      </trkpt>
      <trkpt lat="47.23814" lon="-2.29673">
        <ele>38.400001525879</ele>
        <time>2022-08-14T07:55:16.000Z</time>
      </trkpt>
      <trkpt lat="47.23815" lon="-2.29654">
        <ele>38.400001525879</ele>
        <time>2022-08-14T07:55:19.000Z</time>
      </trkpt>
      <trkpt lat="47.23814" lon="-2.29641">
        <ele>38.400001525879</ele>
        <time>2022-08-14T07:55:21.000Z</time>
      </trkpt>
      <trkpt lat="47.23814" lon="-2.29634">
        <ele>38.400001525879</ele>
        <time>2022-08-14T07:55:22.000Z</time>
      </trkpt>
      <trkpt lat="47.23814" lon="-2.29594">
        <ele>38.400001525879</ele>
        <time>2022-08-14T07:55:28.000Z</time>
      </trkpt>
      <trkpt lat="47.23816" lon="-2.29549">
        <ele>38.400001525879</ele>
        <time>2022-08-14T07:55:34.000Z</time>
      </trkpt>
      <trkpt lat="47.23816" lon="-2.29542">
        <ele>38.400001525879</ele>
        <time>2022-08-14T07:55:35.000Z</time>
      </trkpt>
      <trkpt lat="47.23816" lon="-2.29528">
        <ele>38.400001525879</ele>
        <time>2022-08-14T07:55:37.000Z</time>
      </trkpt>
      <trkpt lat="47.23819" lon="-2.29497">
        <ele>38.400001525879</ele>
        <time>2022-08-14T07:55:41.000Z</time>
      </trkpt>
      <trkpt lat="47.23819" lon="-2.29451">
        <ele>38.400001525879</ele>
        <time>2022-08-14T07:55:47.000Z</time>
      </trkpt>
      <trkpt lat="47.23821" lon="-2.29438">
        <ele>38.400001525879</ele>
        <time>2022-08-14T07:55:49.000Z</time>
      </trkpt>
      <trkpt lat="47.23823" lon="-2.29432">
        <ele>38.400001525879</ele>
        <time>2022-08-14T07:55:50.000Z</time>
      </trkpt>
      <trkpt lat="47.23832" lon="-2.29413">
        <ele>38.400001525879</ele>
        <time>2022-08-14T07:55:53.000Z</time>
      </trkpt>
      <trkpt lat="47.23847" lon="-2.2938">
        <ele>38.400001525879</ele>
        <time>2022-08-14T07:55:58.000Z</time>
      </trkpt>
      <trkpt lat="47.23865" lon="-2.29343">
        <ele>38.400001525879</ele>
        <time>2022-08-14T07:56:04.000Z</time>
      </trkpt>
      <trkpt lat="47.23878" lon="-2.29334">
        <ele>38.400001525879</ele>
        <time>2022-08-14T07:56:07.000Z</time>
      </trkpt>
      <trkpt lat="47.23888" lon="-2.29333">
        <ele>38.400001525879</ele>
        <time>2022-08-14T07:56:09.000Z</time>
      </trkpt>
      <trkpt lat="47.23901" lon="-2.29332">
        <ele>38.400001525879</ele>
        <time>2022-08-14T07:56:12.000Z</time>
      </trkpt>
      <trkpt lat="47.23911" lon="-2.29339">
        <ele>38.400001525879</ele>
        <time>2022-08-14T07:56:15.000Z</time>
      </trkpt>
      <trkpt lat="47.23925" lon="-2.29366">
        <ele>38.400001525879</ele>
        <time>2022-08-14T07:56:20.000Z</time>
      </trkpt>
      <trkpt lat="47.23944" lon="-2.29401">
        <ele>38.400001525879</ele>
        <time>2022-08-14T07:56:27.000Z</time>
      </trkpt>
      <trkpt lat="47.23963" lon="-2.29437">
        <ele>38.400001525879</ele>
        <time>2022-08-14T07:56:34.000Z</time>
      </trkpt>
      <trkpt lat="47.23975" lon="-2.29462">
        <ele>38.400001525879</ele>
        <time>2022-08-14T07:56:38.000Z</time>
      </trkpt>
      <trkpt lat="47.23981" lon="-2.29472">
        <ele>38.400001525879</ele>
        <time>2022-08-14T07:56:40.000Z</time>
      </trkpt>
      <trkpt lat="47.23992" lon="-2.29491">
        <ele>38.400001525879</ele>
        <time>2022-08-14T07:56:44.000Z</time>
      </trkpt>
      <trkpt lat="47.23994" lon="-2.29497">
        <ele>38.799999237061</ele>
        <time>2022-08-14T07:56:45.000Z</time>
      </trkpt>
      <trkpt lat="47.23995" lon="-2.29504">
        <ele>39.200000762939</ele>
        <time>2022-08-14T07:56:46.000Z</time>
      </trkpt>
      <trkpt lat="47.23996" lon="-2.29511">
        <ele>39.599998474121</ele>
        <time>2022-08-14T07:56:47.000Z</time>
      </trkpt>
      <trkpt lat="47.23996" lon="-2.29518">
        <ele>40</ele>
        <time>2022-08-14T07:56:48.000Z</time>
      </trkpt>
      <trkpt lat="47.23996" lon="-2.29526">
        <ele>40.400001525879</ele>
        <time>2022-08-14T07:56:49.000Z</time>
      </trkpt>
      <trkpt lat="47.23999" lon="-2.29564">
        <ele>40.400001525879</ele>
        <time>2022-08-14T07:56:54.000Z</time>
      </trkpt>
      <trkpt lat="47.24003" lon="-2.29611">
        <ele>40.400001525879</ele>
        <time>2022-08-14T07:57:01.000Z</time>
      </trkpt>
      <trkpt lat="47.24005" lon="-2.29635">
        <ele>40.400001525879</ele>
        <time>2022-08-14T07:57:05.000Z</time>
      </trkpt>
      <trkpt lat="47.24009" lon="-2.29674">
        <ele>40.400001525879</ele>
        <time>2022-08-14T07:57:10.000Z</time>
      </trkpt>
      <trkpt lat="47.24014" lon="-2.29698">
        <ele>40.400001525879</ele>
        <time>2022-08-14T07:57:14.000Z</time>
      </trkpt>
      <trkpt lat="47.24014" lon="-2.29716">
        <ele>40.400001525879</ele>
        <time>2022-08-14T07:57:17.000Z</time>
      </trkpt>
      <trkpt lat="47.24015" lon="-2.29728">
        <ele>40.400001525879</ele>
        <time>2022-08-14T07:57:19.000Z</time>
      </trkpt>
      <trkpt lat="47.24015" lon="-2.29741">
        <ele>40.400001525879</ele>
        <time>2022-08-14T07:57:21.000Z</time>
      </trkpt>
      <trkpt lat="47.24015" lon="-2.29754">
        <ele>40.400001525879</ele>
        <time>2022-08-14T07:57:23.000Z</time>
      </trkpt>
      <trkpt lat="47.24016" lon="-2.29787">
        <ele>40.400001525879</ele>
        <time>2022-08-14T07:57:29.000Z</time>
      </trkpt>
      <trkpt lat="47.24017" lon="-2.29791">
        <ele>40.400001525879</ele>
        <time>2022-08-14T07:57:30.000Z</time>
      </trkpt>
      <trkpt lat="47.24021" lon="-2.29797">
        <ele>40.400001525879</ele>
        <time>2022-08-14T07:57:32.000Z</time>
      </trkpt>
      <trkpt lat="47.24027" lon="-2.29795">
        <ele>40.400001525879</ele>
        <time>2022-08-14T07:57:35.000Z</time>
      </trkpt>
      <trkpt lat="47.24031" lon="-2.29795">
        <ele>40.400001525879</ele>
        <time>2022-08-14T07:57:37.000Z</time>
      </trkpt>
      <trkpt lat="47.24041" lon="-2.29795">
        <ele>40.400001525879</ele>
        <time>2022-08-14T07:57:41.000Z</time>
      </trkpt>
      <trkpt lat="47.2405" lon="-2.29792">
        <ele>40.400001525879</ele>
        <time>2022-08-14T07:57:44.000Z</time>
      </trkpt>
      <trkpt lat="47.24054" lon="-2.29792">
        <ele>40.400001525879</ele>
        <time>2022-08-14T07:57:46.000Z</time>
      </trkpt>
      <trkpt lat="47.24058" lon="-2.29789">
        <ele>40.400001525879</ele>
        <time>2022-08-14T07:57:48.000Z</time>
      </trkpt>
      <trkpt lat="47.24062" lon="-2.29787">
        <ele>40.400001525879</ele>
        <time>2022-08-14T07:57:50.000Z</time>
      </trkpt>
      <trkpt lat="47.24066" lon="-2.29787">
        <ele>40.400001525879</ele>
        <time>2022-08-14T07:57:52.000Z</time>
      </trkpt>
      <trkpt lat="47.24072" lon="-2.29793">
        <ele>40.400001525879</ele>
        <time>2022-08-14T07:57:55.000Z</time>
      </trkpt>
      <trkpt lat="47.24075" lon="-2.29802">
        <ele>40.400001525879</ele>
        <time>2022-08-14T07:57:58.000Z</time>
      </trkpt>
      <trkpt lat="47.24076" lon="-2.29812">
        <ele>40.400001525879</ele>
        <time>2022-08-14T07:58:01.000Z</time>
      </trkpt>
      <trkpt lat="47.24083" lon="-2.2983">
        <ele>40.400001525879</ele>
        <time>2022-08-14T07:58:07.000Z</time>
      </trkpt>
      <trkpt lat="47.24088" lon="-2.29836">
        <ele>40.400001525879</ele>
        <time>2022-08-14T07:58:10.000Z</time>
      </trkpt>
      <trkpt lat="47.24092" lon="-2.2984">
        <ele>40.400001525879</ele>
        <time>2022-08-14T07:58:12.000Z</time>
      </trkpt>
      <trkpt lat="47.24118" lon="-2.29836">
        <ele>40.400001525879</ele>
        <time>2022-08-14T07:58:17.000Z</time>
      </trkpt>
      <trkpt lat="47.24135" lon="-2.29835">
        <ele>40.400001525879</ele>
        <time>2022-08-14T07:58:20.000Z</time>
      </trkpt>
      <trkpt lat="47.24144" lon="-2.29835">
        <ele>40.400001525879</ele>
        <time>2022-08-14T07:58:22.000Z</time>
      </trkpt>
      <trkpt lat="47.24158" lon="-2.29841">
        <ele>40.400001525879</ele>
        <time>2022-08-14T07:58:26.000Z</time>
      </trkpt>
      <trkpt lat="47.24162" lon="-2.29843">
        <ele>40.400001525879</ele>
        <time>2022-08-14T07:58:28.000Z</time>
      </trkpt>
      <trkpt lat="47.24167" lon="-2.29845">
        <ele>40.400001525879</ele>
        <time>2022-08-14T07:58:31.000Z</time>
      </trkpt>
      <trkpt lat="47.24169" lon="-2.29848">
        <ele>40.400001525879</ele>
        <time>2022-08-14T07:58:33.000Z</time>
      </trkpt>
      <trkpt lat="47.24173" lon="-2.29857">
        <ele>40.400001525879</ele>
        <time>2022-08-14T07:58:36.000Z</time>
      </trkpt>
      <trkpt lat="47.24179" lon="-2.29872">
        <ele>40.400001525879</ele>
        <time>2022-08-14T07:58:42.000Z</time>
      </trkpt>
      <trkpt lat="47.24178" lon="-2.29879">
        <ele>40.400001525879</ele>
        <time>2022-08-14T07:58:45.000Z</time>
      </trkpt>
      <trkpt lat="47.24177" lon="-2.29884">
        <ele>40.400001525879</ele>
        <time>2022-08-14T07:58:47.000Z</time>
      </trkpt>
      <trkpt lat="47.24174" lon="-2.29891">
        <ele>40.400001525879</ele>
        <time>2022-08-14T07:58:49.000Z</time>
      </trkpt>
      <trkpt lat="47.24172" lon="-2.29898">
        <ele>40.400001525879</ele>
        <time>2022-08-14T07:58:51.000Z</time>
      </trkpt>
      <trkpt lat="47.24168" lon="-2.29918">
        <ele>40.400001525879</ele>
        <time>2022-08-14T07:58:55.000Z</time>
      </trkpt>
      <trkpt lat="47.24163" lon="-2.29941">
        <ele>40.400001525879</ele>
        <time>2022-08-14T07:59:00.000Z</time>
      </trkpt>
      <trkpt lat="47.24163" lon="-2.29951">
        <ele>40.400001525879</ele>
        <time>2022-08-14T07:59:04.000Z</time>
      </trkpt>
      <trkpt lat="47.24163" lon="-2.29956">
        <ele>40.400001525879</ele>
        <time>2022-08-14T07:59:07.000Z</time>
      </trkpt>
      <trkpt lat="47.24169" lon="-2.29967">
        <ele>40.400001525879</ele>
        <time>2022-08-14T07:59:15.000Z</time>
      </trkpt>
      <trkpt lat="47.2417" lon="-2.29971">
        <ele>40.400001525879</ele>
        <time>2022-08-14T07:59:16.000Z</time>
      </trkpt>
      <trkpt lat="47.24172" lon="-2.29975">
        <ele>40</ele>
        <time>2022-08-14T07:59:17.000Z</time>
      </trkpt>
      <trkpt lat="47.24174" lon="-2.29978">
        <ele>39.599998474121</ele>
        <time>2022-08-14T07:59:18.000Z</time>
      </trkpt>
      <trkpt lat="47.24176" lon="-2.29981">
        <ele>39.200000762939</ele>
        <time>2022-08-14T07:59:19.000Z</time>
      </trkpt>
      <trkpt lat="47.24177" lon="-2.29984">
        <ele>38.799999237061</ele>
        <time>2022-08-14T07:59:20.000Z</time>
      </trkpt>
      <trkpt lat="47.24179" lon="-2.29987">
        <ele>38.400001525879</ele>
        <time>2022-08-14T07:59:21.000Z</time>
      </trkpt>
      <trkpt lat="47.24186" lon="-2.30003">
        <ele>37.799999237061</ele>
        <time>2022-08-14T07:59:26.000Z</time>
      </trkpt>
      <trkpt lat="47.24185" lon="-2.30011">
        <ele>37</ele>
        <time>2022-08-14T07:59:27.000Z</time>
      </trkpt>
      <trkpt lat="47.24185" lon="-2.30014">
        <ele>36.599998474121</ele>
        <time>2022-08-14T07:59:28.000Z</time>
      </trkpt>
      <trkpt lat="47.24184" lon="-2.30016">
        <ele>36.200000762939</ele>
        <time>2022-08-14T07:59:29.000Z</time>
      </trkpt>
      <trkpt lat="47.24184" lon="-2.30017">
        <ele>36.200000762939</ele>
        <time>2022-08-14T07:59:31.000Z</time>
      </trkpt>
      <trkpt lat="47.24179" lon="-2.30024">
        <ele>36.200000762939</ele>
        <time>2022-08-14T07:59:36.000Z</time>
      </trkpt>
      <trkpt lat="47.24178" lon="-2.30027">
        <ele>36.200000762939</ele>
        <time>2022-08-14T07:59:37.000Z</time>
      </trkpt>
      <trkpt lat="47.24176" lon="-2.30029">
        <ele>36.200000762939</ele>
        <time>2022-08-14T07:59:38.000Z</time>
      </trkpt>
      <trkpt lat="47.2417" lon="-2.30041">
        <ele>36.200000762939</ele>
        <time>2022-08-14T07:59:41.000Z</time>
      </trkpt>
      <trkpt lat="47.24164" lon="-2.30058">
        <ele>36.200000762939</ele>
        <time>2022-08-14T07:59:45.000Z</time>
      </trkpt>
      <trkpt lat="47.24161" lon="-2.30058">
        <ele>36.200000762939</ele>
        <time>2022-08-14T07:59:47.000Z</time>
      </trkpt>
      <trkpt lat="47.24159" lon="-2.30055">
        <ele>36.200000762939</ele>
        <time>2022-08-14T07:59:49.000Z</time>
      </trkpt>
      <trkpt lat="47.24159" lon="-2.30054">
        <ele>36.200000762939</ele>
        <time>2022-08-14T07:59:50.000Z</time>
      </trkpt>
      <trkpt lat="47.24158" lon="-2.30045">
        <ele>36.200000762939</ele>
        <time>2022-08-14T07:59:54.000Z</time>
      </trkpt>
      <trkpt lat="47.24158" lon="-2.30043">
        <ele>36.200000762939</ele>
        <time>2022-08-14T07:59:55.000Z</time>
      </trkpt>
      <trkpt lat="47.24158" lon="-2.30042">
        <ele>36.200000762939</ele>
        <time>2022-08-14T07:59:57.000Z</time>
      </trkpt>
      <trkpt lat="47.24153" lon="-2.30035">
        <ele>36.200000762939</ele>
        <time>2022-08-14T08:00:11.000Z</time>
      </trkpt>
      <trkpt lat="47.24151" lon="-2.30026">
        <ele>36.200000762939</ele>
        <time>2022-08-14T08:00:15.000Z</time>
      </trkpt>
      <trkpt lat="47.24145" lon="-2.30009">
        <ele>36.200000762939</ele>
        <time>2022-08-14T08:00:20.000Z</time>
      </trkpt>
      <trkpt lat="47.24144" lon="-2.30007">
        <ele>36.200000762939</ele>
        <time>2022-08-14T08:00:21.000Z</time>
      </trkpt>
      <trkpt lat="47.24139" lon="-2.30002">
        <ele>36.200000762939</ele>
        <time>2022-08-14T08:00:23.000Z</time>
      </trkpt>
      <trkpt lat="47.24121" lon="-2.29995">
        <ele>36.200000762939</ele>
        <time>2022-08-14T08:00:28.000Z</time>
      </trkpt>
      <trkpt lat="47.24106" lon="-2.29991">
        <ele>36.200000762939</ele>
        <time>2022-08-14T08:00:33.000Z</time>
      </trkpt>
      <trkpt lat="47.24096" lon="-2.29987">
        <ele>36.200000762939</ele>
        <time>2022-08-14T08:00:37.000Z</time>
      </trkpt>
      <trkpt lat="47.24083" lon="-2.29988">
        <ele>36.200000762939</ele>
        <time>2022-08-14T08:00:42.000Z</time>
      </trkpt>
      <trkpt lat="47.24068" lon="-2.29985">
        <ele>36.200000762939</ele>
        <time>2022-08-14T08:00:46.000Z</time>
      </trkpt>
      <trkpt lat="47.24054" lon="-2.29985">
        <ele>36.200000762939</ele>
        <time>2022-08-14T08:00:50.000Z</time>
      </trkpt>
      <trkpt lat="47.24038" lon="-2.2998">
        <ele>36.200000762939</ele>
        <time>2022-08-14T08:00:54.000Z</time>
      </trkpt>
      <trkpt lat="47.24036" lon="-2.29969">
        <ele>36.200000762939</ele>
        <time>2022-08-14T08:00:57.000Z</time>
      </trkpt>
      <trkpt lat="47.24028" lon="-2.29953">
        <ele>36.200000762939</ele>
        <time>2022-08-14T08:01:01.000Z</time>
      </trkpt>
      <trkpt lat="47.24026" lon="-2.29935">
        <ele>36.200000762939</ele>
        <time>2022-08-14T08:01:05.000Z</time>
      </trkpt>
      <trkpt lat="47.24027" lon="-2.29928">
        <ele>36.200000762939</ele>
        <time>2022-08-14T08:01:07.000Z</time>
      </trkpt>
      <trkpt lat="47.24028" lon="-2.2992">
        <ele>36.200000762939</ele>
        <time>2022-08-14T08:01:10.000Z</time>
      </trkpt>
      <trkpt lat="47.2403" lon="-2.29913">
        <ele>36.200000762939</ele>
        <time>2022-08-14T08:01:13.000Z</time>
      </trkpt>
      <trkpt lat="47.24031" lon="-2.29911">
        <ele>36.200000762939</ele>
        <time>2022-08-14T08:01:15.000Z</time>
      </trkpt>
      <trkpt lat="47.24032" lon="-2.2991">
        <ele>36.200000762939</ele>
        <time>2022-08-14T08:01:16.000Z</time>
      </trkpt>
      <trkpt lat="47.24033" lon="-2.29909">
        <ele>36.200000762939</ele>
        <time>2022-08-14T08:01:28.000Z</time>
      </trkpt>
      <trkpt lat="47.24037" lon="-2.29907">
        <ele>36.200000762939</ele>
        <time>2022-08-14T08:01:30.000Z</time>
      </trkpt>
      <trkpt lat="47.24041" lon="-2.29896">
        <ele>36.200000762939</ele>
        <time>2022-08-14T08:01:34.000Z</time>
      </trkpt>
      <trkpt lat="47.24043" lon="-2.29887">
        <ele>36.200000762939</ele>
        <time>2022-08-14T08:01:37.000Z</time>
      </trkpt>
      <trkpt lat="47.24044" lon="-2.29877">
        <ele>36.200000762939</ele>
        <time>2022-08-14T08:01:39.000Z</time>
      </trkpt>
      <trkpt lat="47.24048" lon="-2.29861">
        <ele>36.200000762939</ele>
        <time>2022-08-14T08:01:42.000Z</time>
      </trkpt>
      <trkpt lat="47.24054" lon="-2.29846">
        <ele>36.599998474121</ele>
        <time>2022-08-14T08:01:45.000Z</time>
      </trkpt>
      <trkpt lat="47.24056" lon="-2.29841">
        <ele>37</ele>
        <time>2022-08-14T08:01:46.000Z</time>
      </trkpt>
      <trkpt lat="47.24058" lon="-2.29834">
        <ele>37.400001525879</ele>
        <time>2022-08-14T08:01:47.000Z</time>
      </trkpt>
      <trkpt lat="47.2406" lon="-2.29828">
        <ele>37.799999237061</ele>
        <time>2022-08-14T08:01:48.000Z</time>
      </trkpt>
      <trkpt lat="47.24062" lon="-2.29823">
        <ele>38.200000762939</ele>
        <time>2022-08-14T08:01:49.000Z</time>
      </trkpt>
      <trkpt lat="47.24067" lon="-2.29797">
        <ele>38.200000762939</ele>
        <time>2022-08-14T08:01:53.000Z</time>
      </trkpt>
      <trkpt lat="47.24071" lon="-2.29766">
        <ele>38.200000762939</ele>
        <time>2022-08-14T08:01:58.000Z</time>
      </trkpt>
      <trkpt lat="47.24068" lon="-2.29751">
        <ele>38.200000762939</ele>
        <time>2022-08-14T08:02:00.000Z</time>
      </trkpt>
      <trkpt lat="47.24065" lon="-2.29736">
        <ele>38.200000762939</ele>
        <time>2022-08-14T08:02:02.000Z</time>
      </trkpt>
      <trkpt lat="47.24057" lon="-2.29699">
        <ele>38.200000762939</ele>
        <time>2022-08-14T08:02:07.000Z</time>
      </trkpt>
      <trkpt lat="47.2405" lon="-2.29661">
        <ele>38.200000762939</ele>
        <time>2022-08-14T08:02:12.000Z</time>
      </trkpt>
      <trkpt lat="47.24051" lon="-2.29634">
        <ele>38.200000762939</ele>
        <time>2022-08-14T08:02:16.000Z</time>
      </trkpt>
      <trkpt lat="47.24064" lon="-2.29621">
        <ele>38.200000762939</ele>
        <time>2022-08-14T08:02:19.000Z</time>
      </trkpt>
      <trkpt lat="47.24069" lon="-2.29617">
        <ele>38.200000762939</ele>
        <time>2022-08-14T08:02:20.000Z</time>
      </trkpt>
      <trkpt lat="47.24084" lon="-2.29606">
        <ele>38.200000762939</ele>
        <time>2022-08-14T08:02:23.000Z</time>
      </trkpt>
      <trkpt lat="47.24094" lon="-2.29598">
        <ele>38.200000762939</ele>
        <time>2022-08-14T08:02:25.000Z</time>
      </trkpt>
      <trkpt lat="47.24109" lon="-2.29586">
        <ele>38.200000762939</ele>
        <time>2022-08-14T08:02:28.000Z</time>
      </trkpt>
      <trkpt lat="47.24112" lon="-2.2958">
        <ele>38.200000762939</ele>
        <time>2022-08-14T08:02:29.000Z</time>
      </trkpt>
      <trkpt lat="47.24114" lon="-2.29564">
        <ele>38.200000762939</ele>
        <time>2022-08-14T08:02:31.000Z</time>
      </trkpt>
      <trkpt lat="47.24109" lon="-2.29539">
        <ele>38.200000762939</ele>
        <time>2022-08-14T08:02:34.000Z</time>
      </trkpt>
      <trkpt lat="47.24107" lon="-2.29531">
        <ele>38.200000762939</ele>
        <time>2022-08-14T08:02:35.000Z</time>
      </trkpt>
      <trkpt lat="47.24098" lon="-2.29499">
        <ele>38.200000762939</ele>
        <time>2022-08-14T08:02:39.000Z</time>
      </trkpt>
      <trkpt lat="47.24099" lon="-2.2949">
        <ele>37.799999237061</ele>
        <time>2022-08-14T08:02:40.000Z</time>
      </trkpt>
      <trkpt lat="47.24101" lon="-2.29483">
        <ele>37.400001525879</ele>
        <time>2022-08-14T08:02:41.000Z</time>
      </trkpt>
      <trkpt lat="47.24105" lon="-2.29478">
        <ele>36.799999237061</ele>
        <time>2022-08-14T08:02:42.000Z</time>
      </trkpt>
      <trkpt lat="47.2411" lon="-2.29475">
        <ele>36</ele>
        <time>2022-08-14T08:02:43.000Z</time>
      </trkpt>
      <trkpt lat="47.24116" lon="-2.29472">
        <ele>36</ele>
        <time>2022-08-14T08:02:44.000Z</time>
      </trkpt>
      <trkpt lat="47.24143" lon="-2.29454">
        <ele>36</ele>
        <time>2022-08-14T08:02:49.000Z</time>
      </trkpt>
      <trkpt lat="47.24149" lon="-2.29451">
        <ele>36</ele>
        <time>2022-08-14T08:02:50.000Z</time>
      </trkpt>
      <trkpt lat="47.24162" lon="-2.29447">
        <ele>36</ele>
        <time>2022-08-14T08:02:52.000Z</time>
      </trkpt>
      <trkpt lat="47.24168" lon="-2.29445">
        <ele>36</ele>
        <time>2022-08-14T08:02:53.000Z</time>
      </trkpt>
      <trkpt lat="47.24197" lon="-2.29446">
        <ele>36</ele>
        <time>2022-08-14T08:02:57.000Z</time>
      </trkpt>
      <trkpt lat="47.24216" lon="-2.29454">
        <ele>36</ele>
        <time>2022-08-14T08:03:00.000Z</time>
      </trkpt>
      <trkpt lat="47.24221" lon="-2.29456">
        <ele>35.599998474121</ele>
        <time>2022-08-14T08:03:01.000Z</time>
      </trkpt>
      <trkpt lat="47.24227" lon="-2.29459">
        <ele>35.200000762939</ele>
        <time>2022-08-14T08:03:02.000Z</time>
      </trkpt>
      <trkpt lat="47.24232" lon="-2.29462">
        <ele>34.799999237061</ele>
        <time>2022-08-14T08:03:03.000Z</time>
      </trkpt>
      <trkpt lat="47.24238" lon="-2.29464">
        <ele>34.400001525879</ele>
        <time>2022-08-14T08:03:04.000Z</time>
      </trkpt>
      <trkpt lat="47.24244" lon="-2.29464">
        <ele>34</ele>
        <time>2022-08-14T08:03:05.000Z</time>
      </trkpt>
      <trkpt lat="47.2425" lon="-2.29463">
        <ele>34</ele>
        <time>2022-08-14T08:03:06.000Z</time>
      </trkpt>
      <trkpt lat="47.24262" lon="-2.29456">
        <ele>34</ele>
        <time>2022-08-14T08:03:08.000Z</time>
      </trkpt>
      <trkpt lat="47.24274" lon="-2.2945">
        <ele>34</ele>
        <time>2022-08-14T08:03:10.000Z</time>
      </trkpt>
      <trkpt lat="47.24304" lon="-2.29437">
        <ele>34</ele>
        <time>2022-08-14T08:03:15.000Z</time>
      </trkpt>
      <trkpt lat="47.24327" lon="-2.29444">
        <ele>34</ele>
        <time>2022-08-14T08:03:19.000Z</time>
      </trkpt>
      <trkpt lat="47.24339" lon="-2.29458">
        <ele>34</ele>
        <time>2022-08-14T08:03:22.000Z</time>
      </trkpt>
      <trkpt lat="47.24343" lon="-2.29463">
        <ele>34</ele>
        <time>2022-08-14T08:03:23.000Z</time>
      </trkpt>
      <trkpt lat="47.24348" lon="-2.29467">
        <ele>34</ele>
        <time>2022-08-14T08:03:24.000Z</time>
      </trkpt>
      <trkpt lat="47.24357" lon="-2.29468">
        <ele>34</ele>
        <time>2022-08-14T08:03:26.000Z</time>
      </trkpt>
      <trkpt lat="47.2437" lon="-2.29455">
        <ele>34</ele>
        <time>2022-08-14T08:03:29.000Z</time>
      </trkpt>
      <trkpt lat="47.24378" lon="-2.29447">
        <ele>34</ele>
        <time>2022-08-14T08:03:31.000Z</time>
      </trkpt>
      <trkpt lat="47.24392" lon="-2.29436">
        <ele>34</ele>
        <time>2022-08-14T08:03:34.000Z</time>
      </trkpt>
      <trkpt lat="47.24398" lon="-2.29434">
        <ele>34</ele>
        <time>2022-08-14T08:03:35.000Z</time>
      </trkpt>
      <trkpt lat="47.24408" lon="-2.29434">
        <ele>34</ele>
        <time>2022-08-14T08:03:37.000Z</time>
      </trkpt>
      <trkpt lat="47.24419" lon="-2.29433">
        <ele>34</ele>
        <time>2022-08-14T08:03:39.000Z</time>
      </trkpt>
      <trkpt lat="47.24434" lon="-2.2943">
        <ele>34</ele>
        <time>2022-08-14T08:03:42.000Z</time>
      </trkpt>
      <trkpt lat="47.2445" lon="-2.29428">
        <ele>34.400001525879</ele>
        <time>2022-08-14T08:03:45.000Z</time>
      </trkpt>
      <trkpt lat="47.24455" lon="-2.29428">
        <ele>35</ele>
        <time>2022-08-14T08:03:46.000Z</time>
      </trkpt>
      <trkpt lat="47.24461" lon="-2.29428">
        <ele>35.400001525879</ele>
        <time>2022-08-14T08:03:47.000Z</time>
      </trkpt>
      <trkpt lat="47.24466" lon="-2.29427">
        <ele>35.799999237061</ele>
        <time>2022-08-14T08:03:48.000Z</time>
      </trkpt>
      <trkpt lat="47.2447" lon="-2.29426">
        <ele>36.200000762939</ele>
        <time>2022-08-14T08:03:49.000Z</time>
      </trkpt>
      <trkpt lat="47.245" lon="-2.29421">
        <ele>36.200000762939</ele>
        <time>2022-08-14T08:03:55.000Z</time>
      </trkpt>
      <trkpt lat="47.24509" lon="-2.29419">
        <ele>36.599998474121</ele>
        <time>2022-08-14T08:03:57.000Z</time>
      </trkpt>
      <trkpt lat="47.24513" lon="-2.29418">
        <ele>37.599998474121</ele>
        <time>2022-08-14T08:03:58.000Z</time>
      </trkpt>
      <trkpt lat="47.24516" lon="-2.29415">
        <ele>38</ele>
        <time>2022-08-14T08:03:59.000Z</time>
      </trkpt>
      <trkpt lat="47.24519" lon="-2.29411">
        <ele>38.400001525879</ele>
        <time>2022-08-14T08:04:00.000Z</time>
      </trkpt>
      <trkpt lat="47.2452" lon="-2.29405">
        <ele>38.400001525879</ele>
        <time>2022-08-14T08:04:01.000Z</time>
      </trkpt>
      <trkpt lat="47.24521" lon="-2.29379">
        <ele>38.400001525879</ele>
        <time>2022-08-14T08:04:05.000Z</time>
      </trkpt>
      <trkpt lat="47.24516" lon="-2.2935">
        <ele>38.400001525879</ele>
        <time>2022-08-14T08:04:09.000Z</time>
      </trkpt>
      <trkpt lat="47.24515" lon="-2.29342">
        <ele>38.400001525879</ele>
        <time>2022-08-14T08:04:10.000Z</time>
      </trkpt>
      <trkpt lat="47.24514" lon="-2.293">
        <ele>38.400001525879</ele>
        <time>2022-08-14T08:04:15.000Z</time>
      </trkpt>
      <trkpt lat="47.24515" lon="-2.29241">
        <ele>38.400001525879</ele>
        <time>2022-08-14T08:04:22.000Z</time>
      </trkpt>
      <trkpt lat="47.24516" lon="-2.29219">
        <ele>38.400001525879</ele>
        <time>2022-08-14T08:04:26.000Z</time>
      </trkpt>
      <trkpt lat="47.24517" lon="-2.29215">
        <ele>38.400001525879</ele>
        <time>2022-08-14T08:04:27.000Z</time>
      </trkpt>
      <trkpt lat="47.24519" lon="-2.29193">
        <ele>38.400001525879</ele>
        <time>2022-08-14T08:04:32.000Z</time>
      </trkpt>
      <trkpt lat="47.24525" lon="-2.29161">
        <ele>38.400001525879</ele>
        <time>2022-08-14T08:04:38.000Z</time>
      </trkpt>
      <trkpt lat="47.24541" lon="-2.29102">
        <ele>38.400001525879</ele>
        <time>2022-08-14T08:04:49.000Z</time>
      </trkpt>
      <trkpt lat="47.24548" lon="-2.29064">
        <ele>38</ele>
        <time>2022-08-14T08:04:55.000Z</time>
      </trkpt>
      <trkpt lat="47.2455" lon="-2.29058">
        <ele>37.599998474121</ele>
        <time>2022-08-14T08:04:56.000Z</time>
      </trkpt>
      <trkpt lat="47.24551" lon="-2.2905">
        <ele>37.200000762939</ele>
        <time>2022-08-14T08:04:57.000Z</time>
      </trkpt>
      <trkpt lat="47.24552" lon="-2.29043">
        <ele>36.799999237061</ele>
        <time>2022-08-14T08:04:58.000Z</time>
      </trkpt>
      <trkpt lat="47.24552" lon="-2.29036">
        <ele>36.400001525879</ele>
        <time>2022-08-14T08:04:59.000Z</time>
      </trkpt>
      <trkpt lat="47.24552" lon="-2.28992">
        <ele>36.400001525879</ele>
        <time>2022-08-14T08:05:05.000Z</time>
      </trkpt>
      <trkpt lat="47.2455" lon="-2.28986">
        <ele>36.400001525879</ele>
        <time>2022-08-14T08:05:06.000Z</time>
      </trkpt>
      <trkpt lat="47.2454" lon="-2.28943">
        <ele>36.400001525879</ele>
        <time>2022-08-14T08:05:12.000Z</time>
      </trkpt>
      <trkpt lat="47.24526" lon="-2.28905">
        <ele>36</ele>
        <time>2022-08-14T08:05:17.000Z</time>
      </trkpt>
      <trkpt lat="47.24523" lon="-2.28896">
        <ele>35.599998474121</ele>
        <time>2022-08-14T08:05:18.000Z</time>
      </trkpt>
      <trkpt lat="47.24522" lon="-2.28887">
        <ele>35.200000762939</ele>
        <time>2022-08-14T08:05:19.000Z</time>
      </trkpt>
      <trkpt lat="47.24522" lon="-2.28878">
        <ele>34.799999237061</ele>
        <time>2022-08-14T08:05:20.000Z</time>
      </trkpt>
      <trkpt lat="47.24524" lon="-2.28869">
        <ele>34.400001525879</ele>
        <time>2022-08-14T08:05:21.000Z</time>
      </trkpt>
      <trkpt lat="47.24535" lon="-2.28851">
        <ele>34.400001525879</ele>
        <time>2022-08-14T08:05:24.000Z</time>
      </trkpt>
      <trkpt lat="47.24555" lon="-2.28835">
        <ele>34.400001525879</ele>
        <time>2022-08-14T08:05:28.000Z</time>
      </trkpt>
      <trkpt lat="47.24559" lon="-2.28829">
        <ele>34.400001525879</ele>
        <time>2022-08-14T08:05:29.000Z</time>
      </trkpt>
      <trkpt lat="47.24563" lon="-2.28823">
        <ele>34.400001525879</ele>
        <time>2022-08-14T08:05:30.000Z</time>
      </trkpt>
      <trkpt lat="47.24578" lon="-2.28809">
        <ele>34.400001525879</ele>
        <time>2022-08-14T08:05:33.000Z</time>
      </trkpt>
      <trkpt lat="47.24611" lon="-2.28782">
        <ele>34.400001525879</ele>
        <time>2022-08-14T08:05:39.000Z</time>
      </trkpt>
      <trkpt lat="47.24621" lon="-2.28769">
        <ele>34.400001525879</ele>
        <time>2022-08-14T08:05:41.000Z</time>
      </trkpt>
      <trkpt lat="47.24634" lon="-2.28749">
        <ele>34.400001525879</ele>
        <time>2022-08-14T08:05:44.000Z</time>
      </trkpt>
      <trkpt lat="47.24661" lon="-2.28712">
        <ele>34.400001525879</ele>
        <time>2022-08-14T08:05:50.000Z</time>
      </trkpt>
      <trkpt lat="47.24692" lon="-2.28671">
        <ele>34.400001525879</ele>
        <time>2022-08-14T08:05:57.000Z</time>
      </trkpt>
      <trkpt lat="47.24714" lon="-2.28648">
        <ele>34.400001525879</ele>
        <time>2022-08-14T08:06:02.000Z</time>
      </trkpt>
      <trkpt lat="47.24733" lon="-2.28627">
        <ele>34.400001525879</ele>
        <time>2022-08-14T08:06:06.000Z</time>
      </trkpt>
      <trkpt lat="47.24737" lon="-2.28621">
        <ele>34.400001525879</ele>
        <time>2022-08-14T08:06:07.000Z</time>
      </trkpt>
      <trkpt lat="47.24742" lon="-2.28597">
        <ele>34.799999237061</ele>
        <time>2022-08-14T08:06:10.000Z</time>
      </trkpt>
      <trkpt lat="47.24743" lon="-2.28588">
        <ele>35.200000762939</ele>
        <time>2022-08-14T08:06:11.000Z</time>
      </trkpt>
      <trkpt lat="47.24746" lon="-2.2858">
        <ele>35.599998474121</ele>
        <time>2022-08-14T08:06:12.000Z</time>
      </trkpt>
      <trkpt lat="47.24749" lon="-2.28573">
        <ele>36</ele>
        <time>2022-08-14T08:06:13.000Z</time>
      </trkpt>
      <trkpt lat="47.24753" lon="-2.28566">
        <ele>36.400001525879</ele>
        <time>2022-08-14T08:06:14.000Z</time>
      </trkpt>
      <trkpt lat="47.24757" lon="-2.2856">
        <ele>36.400001525879</ele>
        <time>2022-08-14T08:06:15.000Z</time>
      </trkpt>
      <trkpt lat="47.24767" lon="-2.28549">
        <ele>36.400001525879</ele>
        <time>2022-08-14T08:06:17.000Z</time>
      </trkpt>
      <trkpt lat="47.24787" lon="-2.28529">
        <ele>36.400001525879</ele>
        <time>2022-08-14T08:06:21.000Z</time>
      </trkpt>
      <trkpt lat="47.24827" lon="-2.28498">
        <ele>36.400001525879</ele>
        <time>2022-08-14T08:06:28.000Z</time>
      </trkpt>
      <trkpt lat="47.24856" lon="-2.28473">
        <ele>36.400001525879</ele>
        <time>2022-08-14T08:06:33.000Z</time>
      </trkpt>
      <trkpt lat="47.24883" lon="-2.28441">
        <ele>36.400001525879</ele>
        <time>2022-08-14T08:06:38.000Z</time>
      </trkpt>
      <trkpt lat="47.24889" lon="-2.28435">
        <ele>35.799999237061</ele>
        <time>2022-08-14T08:06:39.000Z</time>
      </trkpt>
      <trkpt lat="47.24896" lon="-2.28431">
        <ele>35.400001525879</ele>
        <time>2022-08-14T08:06:40.000Z</time>
      </trkpt>
      <trkpt lat="47.24903" lon="-2.28427">
        <ele>35</ele>
        <time>2022-08-14T08:06:41.000Z</time>
      </trkpt>
      <trkpt lat="47.2491" lon="-2.28423">
        <ele>34.599998474121</ele>
        <time>2022-08-14T08:06:42.000Z</time>
      </trkpt>
      <trkpt lat="47.24918" lon="-2.2842">
        <ele>34</ele>
        <time>2022-08-14T08:06:43.000Z</time>
      </trkpt>
      <trkpt lat="47.24943" lon="-2.28413">
        <ele>33.599998474121</ele>
        <time>2022-08-14T08:06:46.000Z</time>
      </trkpt>
      <trkpt lat="47.24949" lon="-2.2841">
        <ele>33.200000762939</ele>
        <time>2022-08-14T08:06:47.000Z</time>
      </trkpt>
      <trkpt lat="47.24957" lon="-2.28407">
        <ele>32.799999237061</ele>
        <time>2022-08-14T08:06:48.000Z</time>
      </trkpt>
      <trkpt lat="47.24964" lon="-2.28404">
        <ele>32.400001525879</ele>
        <time>2022-08-14T08:06:49.000Z</time>
      </trkpt>
      <trkpt lat="47.24971" lon="-2.28401">
        <ele>32</ele>
        <time>2022-08-14T08:06:50.000Z</time>
      </trkpt>
      <trkpt lat="47.24977" lon="-2.28397">
        <ele>31.200000762939</ele>
        <time>2022-08-14T08:06:51.000Z</time>
      </trkpt>
      <trkpt lat="47.24982" lon="-2.28392">
        <ele>30.799999237061</ele>
        <time>2022-08-14T08:06:52.000Z</time>
      </trkpt>
      <trkpt lat="47.24988" lon="-2.28385">
        <ele>30.39999961853</ele>
        <time>2022-08-14T08:06:53.000Z</time>
      </trkpt>
      <trkpt lat="47.24992" lon="-2.28376">
        <ele>30</ele>
        <time>2022-08-14T08:06:54.000Z</time>
      </trkpt>
      <trkpt lat="47.24998" lon="-2.28359">
        <ele>30</ele>
        <time>2022-08-14T08:06:56.000Z</time>
      </trkpt>
      <trkpt lat="47.25005" lon="-2.28346">
        <ele>30</ele>
        <time>2022-08-14T08:06:58.000Z</time>
      </trkpt>
      <trkpt lat="47.25009" lon="-2.28341">
        <ele>30</ele>
        <time>2022-08-14T08:06:59.000Z</time>
      </trkpt>
      <trkpt lat="47.25015" lon="-2.28337">
        <ele>30</ele>
        <time>2022-08-14T08:07:00.000Z</time>
      </trkpt>
      <trkpt lat="47.25028" lon="-2.28325">
        <ele>30</ele>
        <time>2022-08-14T08:07:03.000Z</time>
      </trkpt>
      <trkpt lat="47.2503" lon="-2.28316">
        <ele>30</ele>
        <time>2022-08-14T08:07:05.000Z</time>
      </trkpt>
      <trkpt lat="47.2503" lon="-2.28292">
        <ele>30</ele>
        <time>2022-08-14T08:07:09.000Z</time>
      </trkpt>
      <trkpt lat="47.25032" lon="-2.28276">
        <ele>30</ele>
        <time>2022-08-14T08:07:11.000Z</time>
      </trkpt>
      <trkpt lat="47.25034" lon="-2.28269">
        <ele>30.39999961853</ele>
        <time>2022-08-14T08:07:12.000Z</time>
      </trkpt>
      <trkpt lat="47.25035" lon="-2.28261">
        <ele>30.799999237061</ele>
        <time>2022-08-14T08:07:13.000Z</time>
      </trkpt>
      <trkpt lat="47.25037" lon="-2.28254">
        <ele>31.200000762939</ele>
        <time>2022-08-14T08:07:14.000Z</time>
      </trkpt>
      <trkpt lat="47.25038" lon="-2.28246">
        <ele>31.60000038147</ele>
        <time>2022-08-14T08:07:15.000Z</time>
      </trkpt>
      <trkpt lat="47.25039" lon="-2.28238">
        <ele>32</ele>
        <time>2022-08-14T08:07:16.000Z</time>
      </trkpt>
      <trkpt lat="47.25047" lon="-2.28205">
        <ele>32</ele>
        <time>2022-08-14T08:07:20.000Z</time>
      </trkpt>
      <trkpt lat="47.25052" lon="-2.28181">
        <ele>32</ele>
        <time>2022-08-14T08:07:23.000Z</time>
      </trkpt>
      <trkpt lat="47.25057" lon="-2.28166">
        <ele>32</ele>
        <time>2022-08-14T08:07:25.000Z</time>
      </trkpt>
      <trkpt lat="47.25068" lon="-2.2813">
        <ele>32</ele>
        <time>2022-08-14T08:07:30.000Z</time>
      </trkpt>
      <trkpt lat="47.2507" lon="-2.28116">
        <ele>32</ele>
        <time>2022-08-14T08:07:32.000Z</time>
      </trkpt>
      <trkpt lat="47.25073" lon="-2.28094">
        <ele>32</ele>
        <time>2022-08-14T08:07:35.000Z</time>
      </trkpt>
      <trkpt lat="47.25086" lon="-2.28065">
        <ele>32</ele>
        <time>2022-08-14T08:07:39.000Z</time>
      </trkpt>
      <trkpt lat="47.25092" lon="-2.28048">
        <ele>32</ele>
        <time>2022-08-14T08:07:41.000Z</time>
      </trkpt>
      <trkpt lat="47.25098" lon="-2.28032">
        <ele>32</ele>
        <time>2022-08-14T08:07:43.000Z</time>
      </trkpt>
      <trkpt lat="47.25107" lon="-2.28009">
        <ele>32.400001525879</ele>
        <time>2022-08-14T08:07:46.000Z</time>
      </trkpt>
      <trkpt lat="47.2511" lon="-2.28002">
        <ele>32.799999237061</ele>
        <time>2022-08-14T08:07:47.000Z</time>
      </trkpt>
      <trkpt lat="47.25113" lon="-2.27996">
        <ele>33.200000762939</ele>
        <time>2022-08-14T08:07:48.000Z</time>
      </trkpt>
      <trkpt lat="47.25117" lon="-2.27988">
        <ele>33.599998474121</ele>
        <time>2022-08-14T08:07:49.000Z</time>
      </trkpt>
      <trkpt lat="47.25122" lon="-2.27981">
        <ele>34</ele>
        <time>2022-08-14T08:07:50.000Z</time>
      </trkpt>
      <trkpt lat="47.25131" lon="-2.27969">
        <ele>34</ele>
        <time>2022-08-14T08:07:52.000Z</time>
      </trkpt>
      <trkpt lat="47.25152" lon="-2.27948">
        <ele>34</ele>
        <time>2022-08-14T08:07:56.000Z</time>
      </trkpt>
      <trkpt lat="47.25158" lon="-2.27944">
        <ele>34</ele>
        <time>2022-08-14T08:07:57.000Z</time>
      </trkpt>
      <trkpt lat="47.25174" lon="-2.27934">
        <ele>34.400001525879</ele>
        <time>2022-08-14T08:08:00.000Z</time>
      </trkpt>
      <trkpt lat="47.2518" lon="-2.27931">
        <ele>34.799999237061</ele>
        <time>2022-08-14T08:08:01.000Z</time>
      </trkpt>
      <trkpt lat="47.25185" lon="-2.27926">
        <ele>35.200000762939</ele>
        <time>2022-08-14T08:08:02.000Z</time>
      </trkpt>
      <trkpt lat="47.2519" lon="-2.27922">
        <ele>35.599998474121</ele>
        <time>2022-08-14T08:08:03.000Z</time>
      </trkpt>
      <trkpt lat="47.25196" lon="-2.27919">
        <ele>36</ele>
        <time>2022-08-14T08:08:04.000Z</time>
      </trkpt>
      <trkpt lat="47.25218" lon="-2.27906">
        <ele>36</ele>
        <time>2022-08-14T08:08:08.000Z</time>
      </trkpt>
      <trkpt lat="47.25248" lon="-2.27889">
        <ele>36</ele>
        <time>2022-08-14T08:08:13.000Z</time>
      </trkpt>
      <trkpt lat="47.25254" lon="-2.27886">
        <ele>36</ele>
        <time>2022-08-14T08:08:14.000Z</time>
      </trkpt>
      <trkpt lat="47.25272" lon="-2.27878">
        <ele>36</ele>
        <time>2022-08-14T08:08:17.000Z</time>
      </trkpt>
      <trkpt lat="47.25285" lon="-2.27875">
        <ele>36</ele>
        <time>2022-08-14T08:08:19.000Z</time>
      </trkpt>
      <trkpt lat="47.25292" lon="-2.27874">
        <ele>36.400001525879</ele>
        <time>2022-08-14T08:08:20.000Z</time>
      </trkpt>
      <trkpt lat="47.25299" lon="-2.27872">
        <ele>36.799999237061</ele>
        <time>2022-08-14T08:08:21.000Z</time>
      </trkpt>
      <trkpt lat="47.25305" lon="-2.2787">
        <ele>37.200000762939</ele>
        <time>2022-08-14T08:08:22.000Z</time>
      </trkpt>
      <trkpt lat="47.25311" lon="-2.27869">
        <ele>37.599998474121</ele>
        <time>2022-08-14T08:08:23.000Z</time>
      </trkpt>
      <trkpt lat="47.25318" lon="-2.27869">
        <ele>38</ele>
        <time>2022-08-14T08:08:24.000Z</time>
      </trkpt>
      <trkpt lat="47.25355" lon="-2.2786">
        <ele>38</ele>
        <time>2022-08-14T08:08:30.000Z</time>
      </trkpt>
      <trkpt lat="47.25394" lon="-2.27849">
        <ele>38</ele>
        <time>2022-08-14T08:08:37.000Z</time>
      </trkpt>
      <trkpt lat="47.25398" lon="-2.27846">
        <ele>38</ele>
        <time>2022-08-14T08:08:38.000Z</time>
      </trkpt>
      <trkpt lat="47.25403" lon="-2.27843">
        <ele>38.400001525879</ele>
        <time>2022-08-14T08:08:39.000Z</time>
      </trkpt>
      <trkpt lat="47.25408" lon="-2.2784">
        <ele>38.799999237061</ele>
        <time>2022-08-14T08:08:40.000Z</time>
      </trkpt>
      <trkpt lat="47.25414" lon="-2.27837">
        <ele>39.200000762939</ele>
        <time>2022-08-14T08:08:41.000Z</time>
      </trkpt>
      <trkpt lat="47.25419" lon="-2.27834">
        <ele>39.599998474121</ele>
        <time>2022-08-14T08:08:42.000Z</time>
      </trkpt>
      <trkpt lat="47.25425" lon="-2.2783">
        <ele>40</ele>
        <time>2022-08-14T08:08:43.000Z</time>
      </trkpt>
      <trkpt lat="47.25429" lon="-2.27826">
        <ele>40</ele>
        <time>2022-08-14T08:08:44.000Z</time>
      </trkpt>
      <trkpt lat="47.2544" lon="-2.27817">
        <ele>40</ele>
        <time>2022-08-14T08:08:46.000Z</time>
      </trkpt>
      <trkpt lat="47.25455" lon="-2.27802">
        <ele>40</ele>
        <time>2022-08-14T08:08:49.000Z</time>
      </trkpt>
      <trkpt lat="47.25462" lon="-2.27791">
        <ele>40</ele>
        <time>2022-08-14T08:08:51.000Z</time>
      </trkpt>
      <trkpt lat="47.25475" lon="-2.27777">
        <ele>40</ele>
        <time>2022-08-14T08:08:54.000Z</time>
      </trkpt>
      <trkpt lat="47.25486" lon="-2.27766">
        <ele>40</ele>
        <time>2022-08-14T08:08:57.000Z</time>
      </trkpt>
      <trkpt lat="47.25496" lon="-2.27753">
        <ele>40.599998474121</ele>
        <time>2022-08-14T08:09:00.000Z</time>
      </trkpt>
      <trkpt lat="47.25499" lon="-2.27748">
        <ele>41</ele>
        <time>2022-08-14T08:09:01.000Z</time>
      </trkpt>
      <trkpt lat="47.255" lon="-2.27743">
        <ele>41.400001525879</ele>
        <time>2022-08-14T08:09:02.000Z</time>
      </trkpt>
      <trkpt lat="47.255" lon="-2.27736">
        <ele>41.799999237061</ele>
        <time>2022-08-14T08:09:03.000Z</time>
      </trkpt>
      <trkpt lat="47.25499" lon="-2.27729">
        <ele>42.200000762939</ele>
        <time>2022-08-14T08:09:04.000Z</time>
      </trkpt>
      <trkpt lat="47.25498" lon="-2.27723">
        <ele>42.200000762939</ele>
        <time>2022-08-14T08:09:05.000Z</time>
      </trkpt>
      <trkpt lat="47.25497" lon="-2.27715">
        <ele>42.200000762939</ele>
        <time>2022-08-14T08:09:06.000Z</time>
      </trkpt>
      <trkpt lat="47.25491" lon="-2.2768">
        <ele>42.200000762939</ele>
        <time>2022-08-14T08:09:11.000Z</time>
      </trkpt>
      <trkpt lat="47.25491" lon="-2.27673">
        <ele>42.200000762939</ele>
        <time>2022-08-14T08:09:12.000Z</time>
      </trkpt>
      <trkpt lat="47.25488" lon="-2.27659">
        <ele>42.200000762939</ele>
        <time>2022-08-14T08:09:14.000Z</time>
      </trkpt>
      <trkpt lat="47.25485" lon="-2.27646">
        <ele>42.200000762939</ele>
        <time>2022-08-14T08:09:16.000Z</time>
      </trkpt>
      <trkpt lat="47.25482" lon="-2.27633">
        <ele>42.200000762939</ele>
        <time>2022-08-14T08:09:18.000Z</time>
      </trkpt>
      <trkpt lat="47.25473" lon="-2.27613">
        <ele>42.200000762939</ele>
        <time>2022-08-14T08:09:21.000Z</time>
      </trkpt>
      <trkpt lat="47.25463" lon="-2.27596">
        <ele>42.200000762939</ele>
        <time>2022-08-14T08:09:24.000Z</time>
      </trkpt>
      <trkpt lat="47.2546" lon="-2.27587">
        <ele>42.200000762939</ele>
        <time>2022-08-14T08:09:25.000Z</time>
      </trkpt>
      <trkpt lat="47.25454" lon="-2.27559">
        <ele>42.200000762939</ele>
        <time>2022-08-14T08:09:29.000Z</time>
      </trkpt>
      <trkpt lat="47.25451" lon="-2.27552">
        <ele>42.200000762939</ele>
        <time>2022-08-14T08:09:30.000Z</time>
      </trkpt>
      <trkpt lat="47.25447" lon="-2.27532">
        <ele>42.200000762939</ele>
        <time>2022-08-14T08:09:33.000Z</time>
      </trkpt>
      <trkpt lat="47.25445" lon="-2.27523">
        <ele>42.200000762939</ele>
        <time>2022-08-14T08:09:35.000Z</time>
      </trkpt>
      <trkpt lat="47.25433" lon="-2.27501">
        <ele>42.200000762939</ele>
        <time>2022-08-14T08:09:40.000Z</time>
      </trkpt>
      <trkpt lat="47.25417" lon="-2.27465">
        <ele>42.200000762939</ele>
        <time>2022-08-14T08:09:45.000Z</time>
      </trkpt>
      <trkpt lat="47.25415" lon="-2.27459">
        <ele>42.200000762939</ele>
        <time>2022-08-14T08:09:46.000Z</time>
      </trkpt>
      <trkpt lat="47.25406" lon="-2.27433">
        <ele>42.200000762939</ele>
        <time>2022-08-14T08:09:50.000Z</time>
      </trkpt>
      <trkpt lat="47.25399" lon="-2.27408">
        <ele>42.200000762939</ele>
        <time>2022-08-14T08:09:55.000Z</time>
      </trkpt>
      <trkpt lat="47.25395" lon="-2.27388">
        <ele>42.200000762939</ele>
        <time>2022-08-14T08:10:00.000Z</time>
      </trkpt>
      <trkpt lat="47.25393" lon="-2.27385">
        <ele>42.200000762939</ele>
        <time>2022-08-14T08:10:01.000Z</time>
      </trkpt>
      <trkpt lat="47.25388" lon="-2.27384">
        <ele>42.200000762939</ele>
        <time>2022-08-14T08:10:03.000Z</time>
      </trkpt>
      <trkpt lat="47.25373" lon="-2.27371">
        <ele>42.200000762939</ele>
        <time>2022-08-14T08:10:08.000Z</time>
      </trkpt>
      <trkpt lat="47.25368" lon="-2.27348">
        <ele>42.200000762939</ele>
        <time>2022-08-14T08:10:12.000Z</time>
      </trkpt>
      <trkpt lat="47.25358" lon="-2.27335">
        <ele>42.200000762939</ele>
        <time>2022-08-14T08:10:15.000Z</time>
      </trkpt>
      <trkpt lat="47.25346" lon="-2.27314">
        <ele>42.200000762939</ele>
        <time>2022-08-14T08:10:19.000Z</time>
      </trkpt>
      <trkpt lat="47.25344" lon="-2.27308">
        <ele>42.200000762939</ele>
        <time>2022-08-14T08:10:20.000Z</time>
      </trkpt>
      <trkpt lat="47.25333" lon="-2.27276">
        <ele>42.200000762939</ele>
        <time>2022-08-14T08:10:26.000Z</time>
      </trkpt>
      <trkpt lat="47.25327" lon="-2.27268">
        <ele>42.200000762939</ele>
        <time>2022-08-14T08:10:28.000Z</time>
      </trkpt>
      <trkpt lat="47.25315" lon="-2.27255">
        <ele>42.200000762939</ele>
        <time>2022-08-14T08:10:31.000Z</time>
      </trkpt>
      <trkpt lat="47.25311" lon="-2.27249">
        <ele>42.200000762939</ele>
        <time>2022-08-14T08:10:32.000Z</time>
      </trkpt>
      <trkpt lat="47.25302" lon="-2.27231">
        <ele>42.200000762939</ele>
        <time>2022-08-14T08:10:35.000Z</time>
      </trkpt>
      <trkpt lat="47.25297" lon="-2.27218">
        <ele>42.200000762939</ele>
        <time>2022-08-14T08:10:37.000Z</time>
      </trkpt>
      <trkpt lat="47.25288" lon="-2.27194">
        <ele>42.200000762939</ele>
        <time>2022-08-14T08:10:41.000Z</time>
      </trkpt>
      <trkpt lat="47.25268" lon="-2.27162">
        <ele>42.200000762939</ele>
        <time>2022-08-14T08:10:47.000Z</time>
      </trkpt>
      <trkpt lat="47.25258" lon="-2.27145">
        <ele>42.200000762939</ele>
        <time>2022-08-14T08:10:50.000Z</time>
      </trkpt>
      <trkpt lat="47.25248" lon="-2.27137">
        <ele>42.200000762939</ele>
        <time>2022-08-14T08:10:52.000Z</time>
      </trkpt>
      <trkpt lat="47.25238" lon="-2.27117">
        <ele>42.200000762939</ele>
        <time>2022-08-14T08:10:55.000Z</time>
      </trkpt>
      <trkpt lat="47.25235" lon="-2.27111">
        <ele>42.200000762939</ele>
        <time>2022-08-14T08:10:56.000Z</time>
      </trkpt>
      <trkpt lat="47.25215" lon="-2.27072">
        <ele>42.200000762939</ele>
        <time>2022-08-14T08:11:03.000Z</time>
      </trkpt>
      <trkpt lat="47.25199" lon="-2.27039">
        <ele>42.200000762939</ele>
        <time>2022-08-14T08:11:09.000Z</time>
      </trkpt>
      <trkpt lat="47.25197" lon="-2.27034">
        <ele>42.200000762939</ele>
        <time>2022-08-14T08:11:10.000Z</time>
      </trkpt>
      <trkpt lat="47.25186" lon="-2.27016">
        <ele>42.200000762939</ele>
        <time>2022-08-14T08:11:14.000Z</time>
      </trkpt>
      <trkpt lat="47.25183" lon="-2.27011">
        <ele>42.200000762939</ele>
        <time>2022-08-14T08:11:15.000Z</time>
      </trkpt>
      <trkpt lat="47.25181" lon="-2.27006">
        <ele>42.200000762939</ele>
        <time>2022-08-14T08:11:16.000Z</time>
      </trkpt>
      <trkpt lat="47.25181" lon="-2.26986">
        <ele>42.200000762939</ele>
        <time>2022-08-14T08:11:19.000Z</time>
      </trkpt>
      <trkpt lat="47.25175" lon="-2.26976">
        <ele>42.200000762939</ele>
        <time>2022-08-14T08:11:22.000Z</time>
      </trkpt>
      <trkpt lat="47.25172" lon="-2.26976">
        <ele>42.200000762939</ele>
        <time>2022-08-14T08:11:23.000Z</time>
      </trkpt>
      <trkpt lat="47.25166" lon="-2.26975">
        <ele>42.200000762939</ele>
        <time>2022-08-14T08:11:26.000Z</time>
      </trkpt>
      <trkpt lat="47.2516" lon="-2.26962">
        <ele>42.200000762939</ele>
        <time>2022-08-14T08:11:30.000Z</time>
      </trkpt>
      <trkpt lat="47.25156" lon="-2.26955">
        <ele>42.200000762939</ele>
        <time>2022-08-14T08:11:32.000Z</time>
      </trkpt>
      <trkpt lat="47.25151" lon="-2.26938">
        <ele>42.200000762939</ele>
        <time>2022-08-14T08:11:35.000Z</time>
      </trkpt>
      <trkpt lat="47.25152" lon="-2.26907">
        <ele>42.200000762939</ele>
        <time>2022-08-14T08:11:39.000Z</time>
      </trkpt>
      <trkpt lat="47.25152" lon="-2.26898">
        <ele>42.200000762939</ele>
        <time>2022-08-14T08:11:40.000Z</time>
      </trkpt>
      <trkpt lat="47.25152" lon="-2.2689">
        <ele>42.200000762939</ele>
        <time>2022-08-14T08:11:41.000Z</time>
      </trkpt>
      <trkpt lat="47.25151" lon="-2.26867">
        <ele>42.200000762939</ele>
        <time>2022-08-14T08:11:44.000Z</time>
      </trkpt>
      <trkpt lat="47.25152" lon="-2.26861">
        <ele>42.200000762939</ele>
        <time>2022-08-14T08:11:45.000Z</time>
      </trkpt>
      <trkpt lat="47.25158" lon="-2.26842">
        <ele>42.200000762939</ele>
        <time>2022-08-14T08:11:48.000Z</time>
      </trkpt>
      <trkpt lat="47.25162" lon="-2.26817">
        <ele>42.200000762939</ele>
        <time>2022-08-14T08:11:52.000Z</time>
      </trkpt>
      <trkpt lat="47.25173" lon="-2.26799">
        <ele>42.200000762939</ele>
        <time>2022-08-14T08:11:56.000Z</time>
      </trkpt>
      <trkpt lat="47.25176" lon="-2.26793">
        <ele>42.200000762939</ele>
        <time>2022-08-14T08:11:57.000Z</time>
      </trkpt>
      <trkpt lat="47.25178" lon="-2.2677">
        <ele>42.200000762939</ele>
        <time>2022-08-14T08:12:00.000Z</time>
      </trkpt>
      <trkpt lat="47.25177" lon="-2.26755">
        <ele>42.200000762939</ele>
        <time>2022-08-14T08:12:02.000Z</time>
      </trkpt>
      <trkpt lat="47.25175" lon="-2.26722">
        <ele>42.200000762939</ele>
        <time>2022-08-14T08:12:06.000Z</time>
      </trkpt>
      <trkpt lat="47.25172" lon="-2.26675">
        <ele>42.200000762939</ele>
        <time>2022-08-14T08:12:12.000Z</time>
      </trkpt>
      <trkpt lat="47.2517" lon="-2.26644">
        <ele>41.799999237061</ele>
        <time>2022-08-14T08:12:16.000Z</time>
      </trkpt>
      <trkpt lat="47.2517" lon="-2.26636">
        <ele>41.400001525879</ele>
        <time>2022-08-14T08:12:17.000Z</time>
      </trkpt>
      <trkpt lat="47.2517" lon="-2.26629">
        <ele>41</ele>
        <time>2022-08-14T08:12:18.000Z</time>
      </trkpt>
      <trkpt lat="47.2517" lon="-2.26621">
        <ele>40.599998474121</ele>
        <time>2022-08-14T08:12:19.000Z</time>
      </trkpt>
      <trkpt lat="47.25169" lon="-2.26614">
        <ele>40.200000762939</ele>
        <time>2022-08-14T08:12:20.000Z</time>
      </trkpt>
      <trkpt lat="47.25168" lon="-2.26607">
        <ele>40.200000762939</ele>
        <time>2022-08-14T08:12:21.000Z</time>
      </trkpt>
      <trkpt lat="47.25163" lon="-2.26577">
        <ele>40.200000762939</ele>
        <time>2022-08-14T08:12:25.000Z</time>
      </trkpt>
      <trkpt lat="47.25156" lon="-2.2653">
        <ele>40.200000762939</ele>
        <time>2022-08-14T08:12:31.000Z</time>
      </trkpt>
      <trkpt lat="47.25153" lon="-2.26521">
        <ele>40.200000762939</ele>
        <time>2022-08-14T08:12:32.000Z</time>
      </trkpt>
      <trkpt lat="47.25148" lon="-2.26506">
        <ele>39.799999237061</ele>
        <time>2022-08-14T08:12:34.000Z</time>
      </trkpt>
      <trkpt lat="47.25146" lon="-2.26498">
        <ele>39.400001525879</ele>
        <time>2022-08-14T08:12:35.000Z</time>
      </trkpt>
      <trkpt lat="47.25143" lon="-2.2649">
        <ele>39</ele>
        <time>2022-08-14T08:12:36.000Z</time>
      </trkpt>
      <trkpt lat="47.25141" lon="-2.26483">
        <ele>38.599998474121</ele>
        <time>2022-08-14T08:12:37.000Z</time>
      </trkpt>
      <trkpt lat="47.2514" lon="-2.26476">
        <ele>38.200000762939</ele>
        <time>2022-08-14T08:12:38.000Z</time>
      </trkpt>
      <trkpt lat="47.25136" lon="-2.26459">
        <ele>38.200000762939</ele>
        <time>2022-08-14T08:12:40.000Z</time>
      </trkpt>
      <trkpt lat="47.25133" lon="-2.2645">
        <ele>38.200000762939</ele>
        <time>2022-08-14T08:12:41.000Z</time>
      </trkpt>
      <trkpt lat="47.25128" lon="-2.26436">
        <ele>37.799999237061</ele>
        <time>2022-08-14T08:12:43.000Z</time>
      </trkpt>
      <trkpt lat="47.25125" lon="-2.2643">
        <ele>37.200000762939</ele>
        <time>2022-08-14T08:12:44.000Z</time>
      </trkpt>
      <trkpt lat="47.25122" lon="-2.26426">
        <ele>36.799999237061</ele>
        <time>2022-08-14T08:12:45.000Z</time>
      </trkpt>
      <trkpt lat="47.25117" lon="-2.26424">
        <ele>36.400001525879</ele>
        <time>2022-08-14T08:12:46.000Z</time>
      </trkpt>
      <trkpt lat="47.25112" lon="-2.26422">
        <ele>36</ele>
        <time>2022-08-14T08:12:47.000Z</time>
      </trkpt>
      <trkpt lat="47.25096" lon="-2.26421">
        <ele>36</ele>
        <time>2022-08-14T08:12:50.000Z</time>
      </trkpt>
      <trkpt lat="47.25086" lon="-2.26424">
        <ele>36</ele>
        <time>2022-08-14T08:12:52.000Z</time>
      </trkpt>
      <trkpt lat="47.25081" lon="-2.2642">
        <ele>35.599998474121</ele>
        <time>2022-08-14T08:12:53.000Z</time>
      </trkpt>
      <trkpt lat="47.25077" lon="-2.26415">
        <ele>35.200000762939</ele>
        <time>2022-08-14T08:12:54.000Z</time>
      </trkpt>
      <trkpt lat="47.25074" lon="-2.26408">
        <ele>34.799999237061</ele>
        <time>2022-08-14T08:12:55.000Z</time>
      </trkpt>
      <trkpt lat="47.25072" lon="-2.264">
        <ele>34.400001525879</ele>
        <time>2022-08-14T08:12:56.000Z</time>
      </trkpt>
      <trkpt lat="47.25071" lon="-2.26394">
        <ele>34</ele>
        <time>2022-08-14T08:12:57.000Z</time>
      </trkpt>
      <trkpt lat="47.2507" lon="-2.26392">
        <ele>34</ele>
        <time>2022-08-14T08:12:59.000Z</time>
      </trkpt>
      <trkpt lat="47.25068" lon="-2.26388">
        <ele>34</ele>
        <time>2022-08-14T08:13:06.000Z</time>
      </trkpt>
      <trkpt lat="47.25064" lon="-2.26368">
        <ele>34</ele>
        <time>2022-08-14T08:13:09.000Z</time>
      </trkpt>
      <trkpt lat="47.25061" lon="-2.26358">
        <ele>34</ele>
        <time>2022-08-14T08:13:10.000Z</time>
      </trkpt>
      <trkpt lat="47.25056" lon="-2.26335">
        <ele>34</ele>
        <time>2022-08-14T08:13:13.000Z</time>
      </trkpt>
      <trkpt lat="47.25053" lon="-2.26303">
        <ele>34</ele>
        <time>2022-08-14T08:13:15.000Z</time>
      </trkpt>
      <trkpt lat="47.25053" lon="-2.26295">
        <ele>34</ele>
        <time>2022-08-14T08:13:18.000Z</time>
      </trkpt>
      <trkpt lat="47.25055" lon="-2.26287">
        <ele>33.599998474121</ele>
        <time>2022-08-14T08:13:19.000Z</time>
      </trkpt>
      <trkpt lat="47.25056" lon="-2.26281">
        <ele>33.200000762939</ele>
        <time>2022-08-14T08:13:20.000Z</time>
      </trkpt>
      <trkpt lat="47.25058" lon="-2.26274">
        <ele>32.799999237061</ele>
        <time>2022-08-14T08:13:21.000Z</time>
      </trkpt>
      <trkpt lat="47.25061" lon="-2.26269">
        <ele>32.400001525879</ele>
        <time>2022-08-14T08:13:22.000Z</time>
      </trkpt>
      <trkpt lat="47.25064" lon="-2.26264">
        <ele>32</ele>
        <time>2022-08-14T08:13:23.000Z</time>
      </trkpt>
      <trkpt lat="47.25071" lon="-2.26251">
        <ele>32</ele>
        <time>2022-08-14T08:13:26.000Z</time>
      </trkpt>
      <trkpt lat="47.25073" lon="-2.26247">
        <ele>32</ele>
        <time>2022-08-14T08:13:27.000Z</time>
      </trkpt>
      <trkpt lat="47.25078" lon="-2.26232">
        <ele>32</ele>
        <time>2022-08-14T08:13:32.000Z</time>
      </trkpt>
      <trkpt lat="47.2508" lon="-2.26221">
        <ele>32</ele>
        <time>2022-08-14T08:13:37.000Z</time>
      </trkpt>
      <trkpt lat="47.25078" lon="-2.26199">
        <ele>32</ele>
        <time>2022-08-14T08:13:42.000Z</time>
      </trkpt>
      <trkpt lat="47.25078" lon="-2.26161">
        <ele>32</ele>
        <time>2022-08-14T08:13:49.000Z</time>
      </trkpt>
      <trkpt lat="47.25077" lon="-2.26123">
        <ele>32</ele>
        <time>2022-08-14T08:13:55.000Z</time>
      </trkpt>
      <trkpt lat="47.25078" lon="-2.26116">
        <ele>32</ele>
        <time>2022-08-14T08:13:56.000Z</time>
      </trkpt>
      <trkpt lat="47.25088" lon="-2.26061">
        <ele>32</ele>
        <time>2022-08-14T08:14:03.000Z</time>
      </trkpt>
      <trkpt lat="47.25094" lon="-2.26025">
        <ele>31.39999961853</ele>
        <time>2022-08-14T08:14:07.000Z</time>
      </trkpt>
      <trkpt lat="47.25096" lon="-2.26015">
        <ele>31</ele>
        <time>2022-08-14T08:14:08.000Z</time>
      </trkpt>
      <trkpt lat="47.25098" lon="-2.26005">
        <ele>30.60000038147</ele>
        <time>2022-08-14T08:14:09.000Z</time>
      </trkpt>
      <trkpt lat="47.25101" lon="-2.25994">
        <ele>30</ele>
        <time>2022-08-14T08:14:10.000Z</time>
      </trkpt>
      <trkpt lat="47.25104" lon="-2.25984">
        <ele>29.60000038147</ele>
        <time>2022-08-14T08:14:11.000Z</time>
      </trkpt>
      <trkpt lat="47.25115" lon="-2.25958">
        <ele>29.60000038147</ele>
        <time>2022-08-14T08:14:14.000Z</time>
      </trkpt>
      <trkpt lat="47.25136" lon="-2.25927">
        <ele>29.60000038147</ele>
        <time>2022-08-14T08:14:19.000Z</time>
      </trkpt>
      <trkpt lat="47.25149" lon="-2.25918">
        <ele>29.60000038147</ele>
        <time>2022-08-14T08:14:23.000Z</time>
      </trkpt>
      <trkpt lat="47.25164" lon="-2.25919">
        <ele>29.60000038147</ele>
        <time>2022-08-14T08:14:27.000Z</time>
      </trkpt>
      <trkpt lat="47.25173" lon="-2.25916">
        <ele>29.60000038147</ele>
        <time>2022-08-14T08:14:30.000Z</time>
      </trkpt>
      <trkpt lat="47.2519" lon="-2.25924">
        <ele>29.60000038147</ele>
        <time>2022-08-14T08:14:35.000Z</time>
      </trkpt>
      <trkpt lat="47.25212" lon="-2.25939">
        <ele>29.60000038147</ele>
        <time>2022-08-14T08:14:42.000Z</time>
      </trkpt>
      <trkpt lat="47.25228" lon="-2.25962">
        <ele>29.60000038147</ele>
        <time>2022-08-14T08:14:48.000Z</time>
      </trkpt>
      <trkpt lat="47.25239" lon="-2.25985">
        <ele>29.60000038147</ele>
        <time>2022-08-14T08:14:54.000Z</time>
      </trkpt>
      <trkpt lat="47.25253" lon="-2.26011">
        <ele>29.60000038147</ele>
        <time>2022-08-14T08:15:01.000Z</time>
      </trkpt>
      <trkpt lat="47.25265" lon="-2.26023">
        <ele>29.60000038147</ele>
        <time>2022-08-14T08:15:06.000Z</time>
      </trkpt>
      <trkpt lat="47.2528" lon="-2.26025">
        <ele>29.60000038147</ele>
        <time>2022-08-14T08:15:11.000Z</time>
      </trkpt>
      <trkpt lat="47.25294" lon="-2.26028">
        <ele>29.60000038147</ele>
        <time>2022-08-14T08:15:16.000Z</time>
      </trkpt>
      <trkpt lat="47.25304" lon="-2.2603">
        <ele>29.60000038147</ele>
        <time>2022-08-14T08:15:20.000Z</time>
      </trkpt>
      <trkpt lat="47.25313" lon="-2.26033">
        <ele>29.60000038147</ele>
        <time>2022-08-14T08:15:24.000Z</time>
      </trkpt>
      <trkpt lat="47.25317" lon="-2.26034">
        <ele>29.60000038147</ele>
        <time>2022-08-14T08:15:26.000Z</time>
      </trkpt>
      <trkpt lat="47.25322" lon="-2.26034">
        <ele>29.60000038147</ele>
        <time>2022-08-14T08:15:29.000Z</time>
      </trkpt>
      <trkpt lat="47.25324" lon="-2.26034">
        <ele>29.60000038147</ele>
        <time>2022-08-14T08:15:30.000Z</time>
      </trkpt>
      <trkpt lat="47.25331" lon="-2.26031">
        <ele>29.60000038147</ele>
        <time>2022-08-14T08:15:32.000Z</time>
      </trkpt>
      <trkpt lat="47.2534" lon="-2.26023">
        <ele>29.60000038147</ele>
        <time>2022-08-14T08:15:35.000Z</time>
      </trkpt>
      <trkpt lat="47.25349" lon="-2.26005">
        <ele>29.60000038147</ele>
        <time>2022-08-14T08:15:39.000Z</time>
      </trkpt>
      <trkpt lat="47.2535" lon="-2.25998">
        <ele>29</ele>
        <time>2022-08-14T08:15:40.000Z</time>
      </trkpt>
      <trkpt lat="47.2535" lon="-2.2599">
        <ele>28.60000038147</ele>
        <time>2022-08-14T08:15:41.000Z</time>
      </trkpt>
      <trkpt lat="47.2535" lon="-2.25983">
        <ele>28.200000762939</ele>
        <time>2022-08-14T08:15:42.000Z</time>
      </trkpt>
      <trkpt lat="47.25349" lon="-2.25975">
        <ele>27.799999237061</ele>
        <time>2022-08-14T08:15:43.000Z</time>
      </trkpt>
      <trkpt lat="47.25348" lon="-2.25968">
        <ele>27.200000762939</ele>
        <time>2022-08-14T08:15:44.000Z</time>
      </trkpt>
      <trkpt lat="47.25349" lon="-2.25947">
        <ele>27.200000762939</ele>
        <time>2022-08-14T08:15:47.000Z</time>
      </trkpt>
      <trkpt lat="47.25351" lon="-2.25926">
        <ele>27.200000762939</ele>
        <time>2022-08-14T08:15:51.000Z</time>
      </trkpt>
      <trkpt lat="47.25351" lon="-2.2592">
        <ele>27.200000762939</ele>
        <time>2022-08-14T08:15:55.000Z</time>
      </trkpt>
      <trkpt lat="47.25351" lon="-2.25917">
        <ele>27.200000762939</ele>
        <time>2022-08-14T08:15:56.000Z</time>
      </trkpt>
      <trkpt lat="47.25352" lon="-2.2591">
        <ele>27.200000762939</ele>
        <time>2022-08-14T08:16:02.000Z</time>
      </trkpt>
      <trkpt lat="47.2536" lon="-2.25901">
        <ele>27.200000762939</ele>
        <time>2022-08-14T08:16:08.000Z</time>
      </trkpt>
      <trkpt lat="47.25362" lon="-2.259">
        <ele>26.799999237061</ele>
        <time>2022-08-14T08:16:09.000Z</time>
      </trkpt>
      <trkpt lat="47.25365" lon="-2.25899">
        <ele>26.200000762939</ele>
        <time>2022-08-14T08:16:10.000Z</time>
      </trkpt>
      <trkpt lat="47.25368" lon="-2.25897">
        <ele>25.39999961853</ele>
        <time>2022-08-14T08:16:11.000Z</time>
      </trkpt>
      <trkpt lat="47.25372" lon="-2.25895">
        <ele>24.60000038147</ele>
        <time>2022-08-14T08:16:12.000Z</time>
      </trkpt>
      <trkpt lat="47.25376" lon="-2.25893">
        <ele>23.39999961853</ele>
        <time>2022-08-14T08:16:13.000Z</time>
      </trkpt>
      <trkpt lat="47.25379" lon="-2.25891">
        <ele>22</ele>
        <time>2022-08-14T08:16:14.000Z</time>
      </trkpt>
      <trkpt lat="47.2538" lon="-2.25888">
        <ele>20.799999237061</ele>
        <time>2022-08-14T08:16:15.000Z</time>
      </trkpt>
      <trkpt lat="47.25382" lon="-2.25885">
        <ele>19.60000038147</ele>
        <time>2022-08-14T08:16:16.000Z</time>
      </trkpt>
      <trkpt lat="47.25383" lon="-2.25883">
        <ele>18.39999961853</ele>
        <time>2022-08-14T08:16:17.000Z</time>
      </trkpt>
      <trkpt lat="47.25384" lon="-2.25879">
        <ele>17.200000762939</ele>
        <time>2022-08-14T08:16:18.000Z</time>
      </trkpt>
      <trkpt lat="47.25383" lon="-2.25874">
        <ele>16</ele>
        <time>2022-08-14T08:16:19.000Z</time>
      </trkpt>
      <trkpt lat="47.25382" lon="-2.25852">
        <ele>16</ele>
        <time>2022-08-14T08:16:24.000Z</time>
      </trkpt>
      <trkpt lat="47.25377" lon="-2.25839">
        <ele>16</ele>
        <time>2022-08-14T08:16:28.000Z</time>
      </trkpt>
      <trkpt lat="47.25363" lon="-2.25825">
        <ele>16</ele>
        <time>2022-08-14T08:16:33.000Z</time>
      </trkpt>
      <trkpt lat="47.25354" lon="-2.2583">
        <ele>16</ele>
        <time>2022-08-14T08:16:38.000Z</time>
      </trkpt>
      <trkpt lat="47.25353" lon="-2.25832">
        <ele>16.39999961853</ele>
        <time>2022-08-14T08:16:39.000Z</time>
      </trkpt>
      <trkpt lat="47.25352" lon="-2.25834">
        <ele>16.799999237061</ele>
        <time>2022-08-14T08:16:40.000Z</time>
      </trkpt>
      <trkpt lat="47.25352" lon="-2.25836">
        <ele>17.39999961853</ele>
        <time>2022-08-14T08:16:41.000Z</time>
      </trkpt>
      <trkpt lat="47.25352" lon="-2.25838">
        <ele>17.799999237061</ele>
        <time>2022-08-14T08:16:42.000Z</time>
      </trkpt>
      <trkpt lat="47.25352" lon="-2.2584">
        <ele>18.200000762939</ele>
        <time>2022-08-14T08:16:43.000Z</time>
      </trkpt>
      <trkpt lat="47.25351" lon="-2.25842">
        <ele>18.60000038147</ele>
        <time>2022-08-14T08:16:44.000Z</time>
      </trkpt>
      <trkpt lat="47.2535" lon="-2.25844">
        <ele>19.60000038147</ele>
        <time>2022-08-14T08:16:45.000Z</time>
      </trkpt>
      <trkpt lat="47.2535" lon="-2.25845">
        <ele>20</ele>
        <time>2022-08-14T08:16:46.000Z</time>
      </trkpt>
      <trkpt lat="47.25349" lon="-2.25846">
        <ele>20.39999961853</ele>
        <time>2022-08-14T08:16:47.000Z</time>
      </trkpt>
      <trkpt lat="47.25349" lon="-2.25847">
        <ele>20.799999237061</ele>
        <time>2022-08-14T08:16:48.000Z</time>
      </trkpt>
      <trkpt lat="47.25349" lon="-2.25848">
        <ele>21.39999961853</ele>
        <time>2022-08-14T08:16:49.000Z</time>
      </trkpt>
      <trkpt lat="47.25348" lon="-2.25849">
        <ele>21.799999237061</ele>
        <time>2022-08-14T08:16:50.000Z</time>
      </trkpt>
      <trkpt lat="47.25347" lon="-2.25849">
        <ele>22.200000762939</ele>
        <time>2022-08-14T08:16:51.000Z</time>
      </trkpt>
      <trkpt lat="47.25345" lon="-2.2585">
        <ele>22.799999237061</ele>
        <time>2022-08-14T08:16:52.000Z</time>
      </trkpt>
      <trkpt lat="47.25344" lon="-2.25851">
        <ele>22.799999237061</ele>
        <time>2022-08-14T08:16:53.000Z</time>
      </trkpt>
      <trkpt lat="47.25344" lon="-2.25848">
        <ele>22.799999237061</ele>
        <time>2022-08-14T08:17:28.000Z</time>
      </trkpt>
      <trkpt lat="47.25344" lon="-2.25831">
        <ele>22.799999237061</ele>
        <time>2022-08-14T08:17:32.000Z</time>
      </trkpt>
      <trkpt lat="47.25344" lon="-2.25802">
        <ele>22.799999237061</ele>
        <time>2022-08-14T08:17:37.000Z</time>
      </trkpt>
      <trkpt lat="47.25344" lon="-2.2578">
        <ele>22.799999237061</ele>
        <time>2022-08-14T08:17:42.000Z</time>
      </trkpt>
      <trkpt lat="47.25344" lon="-2.2576">
        <ele>22.799999237061</ele>
        <time>2022-08-14T08:17:46.000Z</time>
      </trkpt>
      <trkpt lat="47.25344" lon="-2.25738">
        <ele>22.799999237061</ele>
        <time>2022-08-14T08:17:50.000Z</time>
      </trkpt>
      <trkpt lat="47.25344" lon="-2.25723">
        <ele>22.799999237061</ele>
        <time>2022-08-14T08:17:53.000Z</time>
      </trkpt>
      <trkpt lat="47.25344" lon="-2.25717">
        <ele>22.799999237061</ele>
        <time>2022-08-14T08:17:54.000Z</time>
      </trkpt>
      <trkpt lat="47.25345" lon="-2.25699">
        <ele>22.799999237061</ele>
        <time>2022-08-14T08:17:57.000Z</time>
      </trkpt>
      <trkpt lat="47.25345" lon="-2.25695">
        <ele>22.799999237061</ele>
        <time>2022-08-14T08:17:58.000Z</time>
      </trkpt>
      <trkpt lat="47.25344" lon="-2.25674">
        <ele>22.799999237061</ele>
        <time>2022-08-14T08:18:02.000Z</time>
      </trkpt>
      <trkpt lat="47.25337" lon="-2.25646">
        <ele>22.799999237061</ele>
        <time>2022-08-14T08:18:07.000Z</time>
      </trkpt>
      <trkpt lat="47.25336" lon="-2.25634">
        <ele>22.799999237061</ele>
        <time>2022-08-14T08:18:10.000Z</time>
      </trkpt>
      <trkpt lat="47.2533" lon="-2.25603">
        <ele>22.799999237061</ele>
        <time>2022-08-14T08:18:15.000Z</time>
      </trkpt>
      <trkpt lat="47.2533" lon="-2.25591">
        <ele>22.799999237061</ele>
        <time>2022-08-14T08:18:17.000Z</time>
      </trkpt>
      <trkpt lat="47.25329" lon="-2.25583">
        <ele>22.39999961853</ele>
        <time>2022-08-14T08:18:18.000Z</time>
      </trkpt>
      <trkpt lat="47.25329" lon="-2.25575">
        <ele>21.799999237061</ele>
        <time>2022-08-14T08:18:19.000Z</time>
      </trkpt>
      <trkpt lat="47.25329" lon="-2.25567">
        <ele>21.39999961853</ele>
        <time>2022-08-14T08:18:20.000Z</time>
      </trkpt>
      <trkpt lat="47.25328" lon="-2.25559">
        <ele>21</ele>
        <time>2022-08-14T08:18:21.000Z</time>
      </trkpt>
      <trkpt lat="47.25328" lon="-2.25552">
        <ele>20.60000038147</ele>
        <time>2022-08-14T08:18:22.000Z</time>
      </trkpt>
      <trkpt lat="47.25328" lon="-2.25543">
        <ele>20.60000038147</ele>
        <time>2022-08-14T08:18:23.000Z</time>
      </trkpt>
      <trkpt lat="47.25328" lon="-2.25534">
        <ele>20.60000038147</ele>
        <time>2022-08-14T08:18:24.000Z</time>
      </trkpt>
      <trkpt lat="47.25327" lon="-2.25525">
        <ele>19.799999237061</ele>
        <time>2022-08-14T08:18:25.000Z</time>
      </trkpt>
      <trkpt lat="47.25327" lon="-2.25516">
        <ele>19.39999961853</ele>
        <time>2022-08-14T08:18:26.000Z</time>
      </trkpt>
      <trkpt lat="47.25327" lon="-2.25506">
        <ele>18.799999237061</ele>
        <time>2022-08-14T08:18:27.000Z</time>
      </trkpt>
      <trkpt lat="47.25327" lon="-2.25497">
        <ele>18.39999961853</ele>
        <time>2022-08-14T08:18:28.000Z</time>
      </trkpt>
      <trkpt lat="47.25327" lon="-2.25488">
        <ele>18</ele>
        <time>2022-08-14T08:18:29.000Z</time>
      </trkpt>
      <trkpt lat="47.25327" lon="-2.25479">
        <ele>17.39999961853</ele>
        <time>2022-08-14T08:18:30.000Z</time>
      </trkpt>
      <trkpt lat="47.25327" lon="-2.2547">
        <ele>17</ele>
        <time>2022-08-14T08:18:31.000Z</time>
      </trkpt>
      <trkpt lat="47.25327" lon="-2.25463">
        <ele>16.39999961853</ele>
        <time>2022-08-14T08:18:32.000Z</time>
      </trkpt>
      <trkpt lat="47.25327" lon="-2.25457">
        <ele>15.60000038147</ele>
        <time>2022-08-14T08:18:33.000Z</time>
      </trkpt>
      <trkpt lat="47.25328" lon="-2.25452">
        <ele>15</ele>
        <time>2022-08-14T08:18:34.000Z</time>
      </trkpt>
      <trkpt lat="47.25329" lon="-2.25447">
        <ele>14.39999961853</ele>
        <time>2022-08-14T08:18:35.000Z</time>
      </trkpt>
      <trkpt lat="47.2533" lon="-2.25443">
        <ele>13.60000038147</ele>
        <time>2022-08-14T08:18:36.000Z</time>
      </trkpt>
      <trkpt lat="47.25333" lon="-2.2544">
        <ele>13</ele>
        <time>2022-08-14T08:18:37.000Z</time>
      </trkpt>
      <trkpt lat="47.25335" lon="-2.25438">
        <ele>12.199999809265</ele>
        <time>2022-08-14T08:18:38.000Z</time>
      </trkpt>
      <trkpt lat="47.25337" lon="-2.25439">
        <ele>11.60000038147</ele>
        <time>2022-08-14T08:18:39.000Z</time>
      </trkpt>
      <trkpt lat="47.25337" lon="-2.25441">
        <ele>11</ele>
        <time>2022-08-14T08:18:40.000Z</time>
      </trkpt>
      <trkpt lat="47.25338" lon="-2.25443">
        <ele>10.39999961853</ele>
        <time>2022-08-14T08:18:41.000Z</time>
      </trkpt>
      <trkpt lat="47.25338" lon="-2.25445">
        <ele>9.8000001907349</ele>
        <time>2022-08-14T08:18:42.000Z</time>
      </trkpt>
      <trkpt lat="47.25338" lon="-2.25447">
        <ele>9</ele>
        <time>2022-08-14T08:18:43.000Z</time>
      </trkpt>
      <trkpt lat="47.2534" lon="-2.25455">
        <ele>9</ele>
        <time>2022-08-14T08:18:46.000Z</time>
      </trkpt>
      <trkpt lat="47.25344" lon="-2.2546">
        <ele>9</ele>
        <time>2022-08-14T08:18:50.000Z</time>
      </trkpt>
      <trkpt lat="47.25344" lon="-2.2546">
        <ele>9</ele>
        <time>2022-08-14T08:19:12.000Z</time>
      </trkpt>
      <trkpt lat="47.25348" lon="-2.25466">
        <ele>9</ele>
        <time>2022-08-14T08:19:14.000Z</time>
      </trkpt>
      <trkpt lat="47.25355" lon="-2.25491">
        <ele>9</ele>
        <time>2022-08-14T08:19:18.000Z</time>
      </trkpt>
      <trkpt lat="47.25361" lon="-2.2551">
        <ele>9</ele>
        <time>2022-08-14T08:19:22.000Z</time>
      </trkpt>
      <trkpt lat="47.25361" lon="-2.25512">
        <ele>9</ele>
        <time>2022-08-14T08:19:23.000Z</time>
      </trkpt>
      <trkpt lat="47.25361" lon="-2.25522">
        <ele>9</ele>
        <time>2022-08-14T08:19:27.000Z</time>
      </trkpt>
      <trkpt lat="47.25362" lon="-2.25524">
        <ele>9</ele>
        <time>2022-08-14T08:19:28.000Z</time>
      </trkpt>
      <trkpt lat="47.25361" lon="-2.25529">
        <ele>9</ele>
        <time>2022-08-14T08:19:32.000Z</time>
      </trkpt>
      <trkpt lat="47.25361" lon="-2.25532">
        <ele>9</ele>
        <time>2022-08-14T08:19:34.000Z</time>
      </trkpt>
      <trkpt lat="47.25362" lon="-2.25534">
        <ele>9</ele>
        <time>2022-08-14T08:19:36.000Z</time>
      </trkpt>
      <trkpt lat="47.25362" lon="-2.25534">
        <ele>9</ele>
        <time>2022-08-14T08:20:39.000Z</time>
      </trkpt>
      <trkpt lat="47.25364" lon="-2.25539">
        <ele>9</ele>
        <time>2022-08-14T08:20:41.000Z</time>
      </trkpt>
      <trkpt lat="47.25365" lon="-2.25545">
        <ele>9</ele>
        <time>2022-08-14T08:20:43.000Z</time>
      </trkpt>
      <trkpt lat="47.25366" lon="-2.25552">
        <ele>9</ele>
        <time>2022-08-14T08:20:45.000Z</time>
      </trkpt>
      <trkpt lat="47.2537" lon="-2.25558">
        <ele>9</ele>
        <time>2022-08-14T08:20:47.000Z</time>
      </trkpt>
      <trkpt lat="47.25373" lon="-2.25566">
        <ele>9</ele>
        <time>2022-08-14T08:20:49.000Z</time>
      </trkpt>
      <trkpt lat="47.2538" lon="-2.25588">
        <ele>9</ele>
        <time>2022-08-14T08:20:54.000Z</time>
      </trkpt>
      <trkpt lat="47.25382" lon="-2.25595">
        <ele>9</ele>
        <time>2022-08-14T08:20:56.000Z</time>
      </trkpt>
      <trkpt lat="47.25385" lon="-2.25599">
        <ele>9</ele>
        <time>2022-08-14T08:20:58.000Z</time>
      </trkpt>
      <trkpt lat="47.25389" lon="-2.25597">
        <ele>9</ele>
        <time>2022-08-14T08:21:00.000Z</time>
      </trkpt>
      <trkpt lat="47.25392" lon="-2.25592">
        <ele>9</ele>
        <time>2022-08-14T08:21:02.000Z</time>
      </trkpt>
      <trkpt lat="47.254" lon="-2.25576">
        <ele>9</ele>
        <time>2022-08-14T08:21:06.000Z</time>
      </trkpt>
      <trkpt lat="47.25416" lon="-2.25557">
        <ele>9</ele>
        <time>2022-08-14T08:21:12.000Z</time>
      </trkpt>
      <trkpt lat="47.25418" lon="-2.25556">
        <ele>9.3999996185303</ele>
        <time>2022-08-14T08:21:13.000Z</time>
      </trkpt>
      <trkpt lat="47.2542" lon="-2.25553">
        <ele>9.8000001907349</ele>
        <time>2022-08-14T08:21:14.000Z</time>
      </trkpt>
      <trkpt lat="47.25422" lon="-2.2555">
        <ele>10.199999809265</ele>
        <time>2022-08-14T08:21:15.000Z</time>
      </trkpt>
      <trkpt lat="47.25424" lon="-2.25548">
        <ele>10.60000038147</ele>
        <time>2022-08-14T08:21:16.000Z</time>
      </trkpt>
      <trkpt lat="47.25426" lon="-2.25545">
        <ele>11</ele>
        <time>2022-08-14T08:21:17.000Z</time>
      </trkpt>
      <trkpt lat="47.25429" lon="-2.25543">
        <ele>11.60000038147</ele>
        <time>2022-08-14T08:21:18.000Z</time>
      </trkpt>
      <trkpt lat="47.25432" lon="-2.25542">
        <ele>12</ele>
        <time>2022-08-14T08:21:19.000Z</time>
      </trkpt>
      <trkpt lat="47.25436" lon="-2.25542">
        <ele>12.39999961853</ele>
        <time>2022-08-14T08:21:20.000Z</time>
      </trkpt>
      <trkpt lat="47.25439" lon="-2.25544">
        <ele>12.800000190735</ele>
        <time>2022-08-14T08:21:21.000Z</time>
      </trkpt>
      <trkpt lat="47.25442" lon="-2.25546">
        <ele>13.199999809265</ele>
        <time>2022-08-14T08:21:22.000Z</time>
      </trkpt>
      <trkpt lat="47.25447" lon="-2.25551">
        <ele>13.60000038147</ele>
        <time>2022-08-14T08:21:24.000Z</time>
      </trkpt>
      <trkpt lat="47.25449" lon="-2.25554">
        <ele>14</ele>
        <time>2022-08-14T08:21:25.000Z</time>
      </trkpt>
      <trkpt lat="47.25452" lon="-2.25557">
        <ele>14.60000038147</ele>
        <time>2022-08-14T08:21:26.000Z</time>
      </trkpt>
      <trkpt lat="47.25454" lon="-2.2556">
        <ele>15</ele>
        <time>2022-08-14T08:21:27.000Z</time>
      </trkpt>
      <trkpt lat="47.25456" lon="-2.25564">
        <ele>15.39999961853</ele>
        <time>2022-08-14T08:21:28.000Z</time>
      </trkpt>
      <trkpt lat="47.25457" lon="-2.25567">
        <ele>15.39999961853</ele>
        <time>2022-08-14T08:21:29.000Z</time>
      </trkpt>
      <trkpt lat="47.25462" lon="-2.25585">
        <ele>15.39999961853</ele>
        <time>2022-08-14T08:21:33.000Z</time>
      </trkpt>
      <trkpt lat="47.25463" lon="-2.25594">
        <ele>15.800000190735</ele>
        <time>2022-08-14T08:21:35.000Z</time>
      </trkpt>
      <trkpt lat="47.25462" lon="-2.25599">
        <ele>16.200000762939</ele>
        <time>2022-08-14T08:21:36.000Z</time>
      </trkpt>
      <trkpt lat="47.25462" lon="-2.25604">
        <ele>16.60000038147</ele>
        <time>2022-08-14T08:21:37.000Z</time>
      </trkpt>
      <trkpt lat="47.25462" lon="-2.25608">
        <ele>17</ele>
        <time>2022-08-14T08:21:38.000Z</time>
      </trkpt>
      <trkpt lat="47.25462" lon="-2.25612">
        <ele>17.60000038147</ele>
        <time>2022-08-14T08:21:39.000Z</time>
      </trkpt>
      <trkpt lat="47.25461" lon="-2.25631">
        <ele>17.60000038147</ele>
        <time>2022-08-14T08:21:44.000Z</time>
      </trkpt>
      <trkpt lat="47.25459" lon="-2.25636">
        <ele>17.60000038147</ele>
        <time>2022-08-14T08:21:45.000Z</time>
      </trkpt>
      <trkpt lat="47.2545" lon="-2.25648">
        <ele>17.60000038147</ele>
        <time>2022-08-14T08:21:48.000Z</time>
      </trkpt>
      <trkpt lat="47.25447" lon="-2.25653">
        <ele>17</ele>
        <time>2022-08-14T08:21:49.000Z</time>
      </trkpt>
      <trkpt lat="47.25444" lon="-2.25657">
        <ele>16.60000038147</ele>
        <time>2022-08-14T08:21:50.000Z</time>
      </trkpt>
      <trkpt lat="47.25441" lon="-2.2566">
        <ele>16.200000762939</ele>
        <time>2022-08-14T08:21:51.000Z</time>
      </trkpt>
      <trkpt lat="47.25438" lon="-2.25662">
        <ele>15.800000190735</ele>
        <time>2022-08-14T08:21:52.000Z</time>
      </trkpt>
      <trkpt lat="47.25435" lon="-2.25661">
        <ele>15.39999961853</ele>
        <time>2022-08-14T08:21:53.000Z</time>
      </trkpt>
      <trkpt lat="47.2543" lon="-2.25658">
        <ele>15</ele>
        <time>2022-08-14T08:21:55.000Z</time>
      </trkpt>
      <trkpt lat="47.25426" lon="-2.25656">
        <ele>14.60000038147</ele>
        <time>2022-08-14T08:21:56.000Z</time>
      </trkpt>
      <trkpt lat="47.25422" lon="-2.25657">
        <ele>14.199999809265</ele>
        <time>2022-08-14T08:21:57.000Z</time>
      </trkpt>
      <trkpt lat="47.25419" lon="-2.2566">
        <ele>13.800000190735</ele>
        <time>2022-08-14T08:21:58.000Z</time>
      </trkpt>
      <trkpt lat="47.25415" lon="-2.25663">
        <ele>13.39999961853</ele>
        <time>2022-08-14T08:21:59.000Z</time>
      </trkpt>
      <trkpt lat="47.25401" lon="-2.2568">
        <ele>13.39999961853</ele>
        <time>2022-08-14T08:22:03.000Z</time>
      </trkpt>
      <trkpt lat="47.25398" lon="-2.25703">
        <ele>13.39999961853</ele>
        <time>2022-08-14T08:22:06.000Z</time>
      </trkpt>
      <trkpt lat="47.254" lon="-2.25718">
        <ele>13.39999961853</ele>
        <time>2022-08-14T08:22:08.000Z</time>
      </trkpt>
      <trkpt lat="47.25401" lon="-2.25723">
        <ele>13.39999961853</ele>
        <time>2022-08-14T08:22:09.000Z</time>
      </trkpt>
      <trkpt lat="47.25402" lon="-2.25743">
        <ele>13.39999961853</ele>
        <time>2022-08-14T08:22:13.000Z</time>
      </trkpt>
      <trkpt lat="47.25402" lon="-2.25748">
        <ele>13.39999961853</ele>
        <time>2022-08-14T08:22:14.000Z</time>
      </trkpt>
      <trkpt lat="47.25404" lon="-2.25759">
        <ele>13.39999961853</ele>
        <time>2022-08-14T08:22:17.000Z</time>
      </trkpt>
      <trkpt lat="47.2541" lon="-2.25762">
        <ele>13.39999961853</ele>
        <time>2022-08-14T08:22:20.000Z</time>
      </trkpt>
      <trkpt lat="47.25412" lon="-2.25763">
        <ele>13.39999961853</ele>
        <time>2022-08-14T08:22:21.000Z</time>
      </trkpt>
      <trkpt lat="47.25419" lon="-2.25765">
        <ele>13.39999961853</ele>
        <time>2022-08-14T08:22:25.000Z</time>
      </trkpt>
      <trkpt lat="47.25426" lon="-2.25771">
        <ele>13.800000190735</ele>
        <time>2022-08-14T08:22:28.000Z</time>
      </trkpt>
      <trkpt lat="47.25428" lon="-2.25772">
        <ele>14.199999809265</ele>
        <time>2022-08-14T08:22:29.000Z</time>
      </trkpt>
      <trkpt lat="47.25429" lon="-2.25773">
        <ele>14.60000038147</ele>
        <time>2022-08-14T08:22:30.000Z</time>
      </trkpt>
      <trkpt lat="47.25432" lon="-2.25775">
        <ele>15</ele>
        <time>2022-08-14T08:22:31.000Z</time>
      </trkpt>
      <trkpt lat="47.25434" lon="-2.25776">
        <ele>15.800000190735</ele>
        <time>2022-08-14T08:22:32.000Z</time>
      </trkpt>
      <trkpt lat="47.25435" lon="-2.25778">
        <ele>16.200000762939</ele>
        <time>2022-08-14T08:22:33.000Z</time>
      </trkpt>
      <trkpt lat="47.25437" lon="-2.25781">
        <ele>16.60000038147</ele>
        <time>2022-08-14T08:22:34.000Z</time>
      </trkpt>
      <trkpt lat="47.25437" lon="-2.25783">
        <ele>17</ele>
        <time>2022-08-14T08:22:35.000Z</time>
      </trkpt>
      <trkpt lat="47.25438" lon="-2.25787">
        <ele>17.39999961853</ele>
        <time>2022-08-14T08:22:36.000Z</time>
      </trkpt>
      <trkpt lat="47.25441" lon="-2.25794">
        <ele>17.39999961853</ele>
        <time>2022-08-14T08:22:39.000Z</time>
      </trkpt>
      <trkpt lat="47.25442" lon="-2.25796">
        <ele>17.39999961853</ele>
        <time>2022-08-14T08:22:40.000Z</time>
      </trkpt>
      <trkpt lat="47.25445" lon="-2.25798">
        <ele>18</ele>
        <time>2022-08-14T08:22:42.000Z</time>
      </trkpt>
      <trkpt lat="47.25446" lon="-2.258">
        <ele>18.39999961853</ele>
        <time>2022-08-14T08:22:43.000Z</time>
      </trkpt>
      <trkpt lat="47.25447" lon="-2.25801">
        <ele>18.799999237061</ele>
        <time>2022-08-14T08:22:44.000Z</time>
      </trkpt>
      <trkpt lat="47.25447" lon="-2.25803">
        <ele>19.39999961853</ele>
        <time>2022-08-14T08:22:45.000Z</time>
      </trkpt>
      <trkpt lat="47.25447" lon="-2.25805">
        <ele>19.799999237061</ele>
        <time>2022-08-14T08:22:46.000Z</time>
      </trkpt>
      <trkpt lat="47.25447" lon="-2.25807">
        <ele>19.799999237061</ele>
        <time>2022-08-14T08:22:47.000Z</time>
      </trkpt>
      <trkpt lat="47.25447" lon="-2.25819">
        <ele>19.799999237061</ele>
        <time>2022-08-14T08:22:51.000Z</time>
      </trkpt>
      <trkpt lat="47.25447" lon="-2.25827">
        <ele>19.799999237061</ele>
        <time>2022-08-14T08:22:53.000Z</time>
      </trkpt>
      <trkpt lat="47.25445" lon="-2.25836">
        <ele>19.799999237061</ele>
        <time>2022-08-14T08:22:55.000Z</time>
      </trkpt>
      <trkpt lat="47.25441" lon="-2.25848">
        <ele>19.799999237061</ele>
        <time>2022-08-14T08:22:59.000Z</time>
      </trkpt>
      <trkpt lat="47.25442" lon="-2.25851">
        <ele>19.799999237061</ele>
        <time>2022-08-14T08:23:00.000Z</time>
      </trkpt>
      <trkpt lat="47.25442" lon="-2.25871">
        <ele>19.799999237061</ele>
        <time>2022-08-14T08:23:05.000Z</time>
      </trkpt>
      <trkpt lat="47.25439" lon="-2.25888">
        <ele>19.799999237061</ele>
        <time>2022-08-14T08:23:10.000Z</time>
      </trkpt>
      <trkpt lat="47.25439" lon="-2.25894">
        <ele>19.799999237061</ele>
        <time>2022-08-14T08:23:12.000Z</time>
      </trkpt>
      <trkpt lat="47.25442" lon="-2.25902">
        <ele>19.799999237061</ele>
        <time>2022-08-14T08:23:14.000Z</time>
      </trkpt>
      <trkpt lat="47.25439" lon="-2.25922">
        <ele>19.799999237061</ele>
        <time>2022-08-14T08:23:18.000Z</time>
      </trkpt>
      <trkpt lat="47.25437" lon="-2.25926">
        <ele>19.39999961853</ele>
        <time>2022-08-14T08:23:19.000Z</time>
      </trkpt>
      <trkpt lat="47.25434" lon="-2.25929">
        <ele>18.799999237061</ele>
        <time>2022-08-14T08:23:20.000Z</time>
      </trkpt>
      <trkpt lat="47.2543" lon="-2.25936">
        <ele>17.799999237061</ele>
        <time>2022-08-14T08:23:21.000Z</time>
      </trkpt>
      <trkpt lat="47.25427" lon="-2.25939">
        <ele>17.39999961853</ele>
        <time>2022-08-14T08:23:22.000Z</time>
      </trkpt>
      <trkpt lat="47.25424" lon="-2.25944">
        <ele>17.39999961853</ele>
        <time>2022-08-14T08:23:40.000Z</time>
      </trkpt>
      <trkpt lat="47.25422" lon="-2.25946">
        <ele>17.39999961853</ele>
        <time>2022-08-14T08:23:41.000Z</time>
      </trkpt>
      <trkpt lat="47.25412" lon="-2.25966">
        <ele>17.39999961853</ele>
        <time>2022-08-14T08:23:47.000Z</time>
      </trkpt>
      <trkpt lat="47.25405" lon="-2.25984">
        <ele>17.39999961853</ele>
        <time>2022-08-14T08:23:52.000Z</time>
      </trkpt>
      <trkpt lat="47.25391" lon="-2.2599">
        <ele>17.39999961853</ele>
        <time>2022-08-14T08:23:57.000Z</time>
      </trkpt>
      <trkpt lat="47.25386" lon="-2.25992">
        <ele>17.799999237061</ele>
        <time>2022-08-14T08:23:59.000Z</time>
      </trkpt>
      <trkpt lat="47.25384" lon="-2.25993">
        <ele>18.200000762939</ele>
        <time>2022-08-14T08:24:00.000Z</time>
      </trkpt>
      <trkpt lat="47.25382" lon="-2.25994">
        <ele>18.799999237061</ele>
        <time>2022-08-14T08:24:01.000Z</time>
      </trkpt>
      <trkpt lat="47.2538" lon="-2.25994">
        <ele>19.200000762939</ele>
        <time>2022-08-14T08:24:02.000Z</time>
      </trkpt>
      <trkpt lat="47.2538" lon="-2.25994">
        <ele>19.60000038147</ele>
        <time>2022-08-14T08:24:03.000Z</time>
      </trkpt>
      <trkpt lat="47.25379" lon="-2.25994">
        <ele>20.200000762939</ele>
        <time>2022-08-14T08:24:04.000Z</time>
      </trkpt>
      <trkpt lat="47.25378" lon="-2.25993">
        <ele>20.60000038147</ele>
        <time>2022-08-14T08:24:05.000Z</time>
      </trkpt>
      <trkpt lat="47.25376" lon="-2.2599">
        <ele>21.200000762939</ele>
        <time>2022-08-14T08:24:06.000Z</time>
      </trkpt>
      <trkpt lat="47.25375" lon="-2.25988">
        <ele>21.60000038147</ele>
        <time>2022-08-14T08:24:07.000Z</time>
      </trkpt>
      <trkpt lat="47.25373" lon="-2.25985">
        <ele>21.60000038147</ele>
        <time>2022-08-14T08:24:08.000Z</time>
      </trkpt>
      <trkpt lat="47.2537" lon="-2.25984">
        <ele>21.60000038147</ele>
        <time>2022-08-14T08:24:09.000Z</time>
      </trkpt>
      <trkpt lat="47.25364" lon="-2.25987">
        <ele>22.200000762939</ele>
        <time>2022-08-14T08:24:12.000Z</time>
      </trkpt>
      <trkpt lat="47.25363" lon="-2.2599">
        <ele>22.60000038147</ele>
        <time>2022-08-14T08:24:13.000Z</time>
      </trkpt>
      <trkpt lat="47.25362" lon="-2.25993">
        <ele>23</ele>
        <time>2022-08-14T08:24:14.000Z</time>
      </trkpt>
      <trkpt lat="47.25363" lon="-2.25996">
        <ele>23.60000038147</ele>
        <time>2022-08-14T08:24:15.000Z</time>
      </trkpt>
      <trkpt lat="47.25363" lon="-2.25999">
        <ele>24</ele>
        <time>2022-08-14T08:24:16.000Z</time>
      </trkpt>
      <trkpt lat="47.25364" lon="-2.26002">
        <ele>24</ele>
        <time>2022-08-14T08:24:17.000Z</time>
      </trkpt>
      <trkpt lat="47.25364" lon="-2.26008">
        <ele>24</ele>
        <time>2022-08-14T08:24:21.000Z</time>
      </trkpt>
      <trkpt lat="47.25363" lon="-2.26009">
        <ele>24.39999961853</ele>
        <time>2022-08-14T08:24:22.000Z</time>
      </trkpt>
      <trkpt lat="47.25362" lon="-2.2601">
        <ele>24.799999237061</ele>
        <time>2022-08-14T08:24:23.000Z</time>
      </trkpt>
      <trkpt lat="47.25361" lon="-2.2601">
        <ele>25.200000762939</ele>
        <time>2022-08-14T08:24:24.000Z</time>
      </trkpt>
      <trkpt lat="47.2536" lon="-2.26011">
        <ele>25.799999237061</ele>
        <time>2022-08-14T08:24:25.000Z</time>
      </trkpt>
      <trkpt lat="47.25359" lon="-2.26012">
        <ele>26.200000762939</ele>
        <time>2022-08-14T08:24:26.000Z</time>
      </trkpt>
      <trkpt lat="47.25359" lon="-2.26014">
        <ele>26.200000762939</ele>
        <time>2022-08-14T08:24:27.000Z</time>
      </trkpt>
      <trkpt lat="47.25355" lon="-2.2602">
        <ele>26.200000762939</ele>
        <time>2022-08-14T08:24:32.000Z</time>
      </trkpt>
      <trkpt lat="47.25346" lon="-2.26028">
        <ele>26.60000038147</ele>
        <time>2022-08-14T08:24:36.000Z</time>
      </trkpt>
      <trkpt lat="47.25344" lon="-2.26027">
        <ele>27</ele>
        <time>2022-08-14T08:24:37.000Z</time>
      </trkpt>
      <trkpt lat="47.25343" lon="-2.26027">
        <ele>27.39999961853</ele>
        <time>2022-08-14T08:24:38.000Z</time>
      </trkpt>
      <trkpt lat="47.25341" lon="-2.26027">
        <ele>27.799999237061</ele>
        <time>2022-08-14T08:24:39.000Z</time>
      </trkpt>
      <trkpt lat="47.2534" lon="-2.26027">
        <ele>28.200000762939</ele>
        <time>2022-08-14T08:24:40.000Z</time>
      </trkpt>
      <trkpt lat="47.25338" lon="-2.26027">
        <ele>28.200000762939</ele>
        <time>2022-08-14T08:25:27.000Z</time>
      </trkpt>
      <trkpt lat="47.2534" lon="-2.26022">
        <ele>28.200000762939</ele>
        <time>2022-08-14T08:25:29.000Z</time>
      </trkpt>
      <trkpt lat="47.25351" lon="-2.26016">
        <ele>28.200000762939</ele>
        <time>2022-08-14T08:25:33.000Z</time>
      </trkpt>
      <trkpt lat="47.25357" lon="-2.26016">
        <ele>28.200000762939</ele>
        <time>2022-08-14T08:25:35.000Z</time>
      </trkpt>
      <trkpt lat="47.25367" lon="-2.26019">
        <ele>27.799999237061</ele>
        <time>2022-08-14T08:25:38.000Z</time>
      </trkpt>
      <trkpt lat="47.25371" lon="-2.26021">
        <ele>27.200000762939</ele>
        <time>2022-08-14T08:25:39.000Z</time>
      </trkpt>
      <trkpt lat="47.25373" lon="-2.26023">
        <ele>26.799999237061</ele>
        <time>2022-08-14T08:25:40.000Z</time>
      </trkpt>
      <trkpt lat="47.25375" lon="-2.26025">
        <ele>26.39999961853</ele>
        <time>2022-08-14T08:25:41.000Z</time>
      </trkpt>
      <trkpt lat="47.25377" lon="-2.26028">
        <ele>25.799999237061</ele>
        <time>2022-08-14T08:25:42.000Z</time>
      </trkpt>
      <trkpt lat="47.25379" lon="-2.26031">
        <ele>25.39999961853</ele>
        <time>2022-08-14T08:25:43.000Z</time>
      </trkpt>
      <trkpt lat="47.25382" lon="-2.26035">
        <ele>24.799999237061</ele>
        <time>2022-08-14T08:25:44.000Z</time>
      </trkpt>
      <trkpt lat="47.25384" lon="-2.26038">
        <ele>24.200000762939</ele>
        <time>2022-08-14T08:25:45.000Z</time>
      </trkpt>
      <trkpt lat="47.25387" lon="-2.26041">
        <ele>23.799999237061</ele>
        <time>2022-08-14T08:25:46.000Z</time>
      </trkpt>
      <trkpt lat="47.25389" lon="-2.26045">
        <ele>23.799999237061</ele>
        <time>2022-08-14T08:25:47.000Z</time>
      </trkpt>
      <trkpt lat="47.25393" lon="-2.26055">
        <ele>23.799999237061</ele>
        <time>2022-08-14T08:25:49.000Z</time>
      </trkpt>
      <trkpt lat="47.25393" lon="-2.26061">
        <ele>23.799999237061</ele>
        <time>2022-08-14T08:25:50.000Z</time>
      </trkpt>
      <trkpt lat="47.25393" lon="-2.26066">
        <ele>23.799999237061</ele>
        <time>2022-08-14T08:25:51.000Z</time>
      </trkpt>
      <trkpt lat="47.25399" lon="-2.26094">
        <ele>23.799999237061</ele>
        <time>2022-08-14T08:25:57.000Z</time>
      </trkpt>
      <trkpt lat="47.25399" lon="-2.26099">
        <ele>23.799999237061</ele>
        <time>2022-08-14T08:25:58.000Z</time>
      </trkpt>
      <trkpt lat="47.25397" lon="-2.26105">
        <ele>23.799999237061</ele>
        <time>2022-08-14T08:26:00.000Z</time>
      </trkpt>
      <trkpt lat="47.25392" lon="-2.26107">
        <ele>23.799999237061</ele>
        <time>2022-08-14T08:26:02.000Z</time>
      </trkpt>
      <trkpt lat="47.2539" lon="-2.2611">
        <ele>23.799999237061</ele>
        <time>2022-08-14T08:26:03.000Z</time>
      </trkpt>
      <trkpt lat="47.25388" lon="-2.26114">
        <ele>23.799999237061</ele>
        <time>2022-08-14T08:26:04.000Z</time>
      </trkpt>
      <trkpt lat="47.25385" lon="-2.26124">
        <ele>23.799999237061</ele>
        <time>2022-08-14T08:26:07.000Z</time>
      </trkpt>
      <trkpt lat="47.25383" lon="-2.2613">
        <ele>23.799999237061</ele>
        <time>2022-08-14T08:26:09.000Z</time>
      </trkpt>
      <trkpt lat="47.25379" lon="-2.26139">
        <ele>23.799999237061</ele>
        <time>2022-08-14T08:26:13.000Z</time>
      </trkpt>
      <trkpt lat="47.25375" lon="-2.26141">
        <ele>24.200000762939</ele>
        <time>2022-08-14T08:26:15.000Z</time>
      </trkpt>
      <trkpt lat="47.25373" lon="-2.2614">
        <ele>24.60000038147</ele>
        <time>2022-08-14T08:26:16.000Z</time>
      </trkpt>
      <trkpt lat="47.25371" lon="-2.2614">
        <ele>25</ele>
        <time>2022-08-14T08:26:17.000Z</time>
      </trkpt>
      <trkpt lat="47.25369" lon="-2.26139">
        <ele>25.39999961853</ele>
        <time>2022-08-14T08:26:18.000Z</time>
      </trkpt>
      <trkpt lat="47.25367" lon="-2.2614">
        <ele>25.799999237061</ele>
        <time>2022-08-14T08:26:19.000Z</time>
      </trkpt>
      <trkpt lat="47.25366" lon="-2.2614">
        <ele>25.799999237061</ele>
        <time>2022-08-14T08:26:20.000Z</time>
      </trkpt>
      <trkpt lat="47.2536" lon="-2.26143">
        <ele>25.799999237061</ele>
        <time>2022-08-14T08:26:23.000Z</time>
      </trkpt>
      <trkpt lat="47.25357" lon="-2.26144">
        <ele>26.39999961853</ele>
        <time>2022-08-14T08:26:25.000Z</time>
      </trkpt>
      <trkpt lat="47.25356" lon="-2.26145">
        <ele>26.799999237061</ele>
        <time>2022-08-14T08:26:26.000Z</time>
      </trkpt>
      <trkpt lat="47.25355" lon="-2.26146">
        <ele>27.200000762939</ele>
        <time>2022-08-14T08:26:27.000Z</time>
      </trkpt>
      <trkpt lat="47.25355" lon="-2.26148">
        <ele>27.60000038147</ele>
        <time>2022-08-14T08:26:28.000Z</time>
      </trkpt>
      <trkpt lat="47.25354" lon="-2.26149">
        <ele>28</ele>
        <time>2022-08-14T08:26:29.000Z</time>
      </trkpt>
      <trkpt lat="47.25352" lon="-2.26157">
        <ele>28</ele>
        <time>2022-08-14T08:26:34.000Z</time>
      </trkpt>
      <trkpt lat="47.25345" lon="-2.26162">
        <ele>28.39999961853</ele>
        <time>2022-08-14T08:26:39.000Z</time>
      </trkpt>
      <trkpt lat="47.25344" lon="-2.26161">
        <ele>29.39999961853</ele>
        <time>2022-08-14T08:26:40.000Z</time>
      </trkpt>
      <trkpt lat="47.25342" lon="-2.2616">
        <ele>29.799999237061</ele>
        <time>2022-08-14T08:26:41.000Z</time>
      </trkpt>
      <trkpt lat="47.25341" lon="-2.26158">
        <ele>30.39999961853</ele>
        <time>2022-08-14T08:26:42.000Z</time>
      </trkpt>
      <trkpt lat="47.25341" lon="-2.26158">
        <ele>30.39999961853</ele>
        <time>2022-08-14T08:26:43.000Z</time>
      </trkpt>
      <trkpt lat="47.25342" lon="-2.26152">
        <ele>30.39999961853</ele>
        <time>2022-08-14T08:26:54.000Z</time>
      </trkpt>
      <trkpt lat="47.25346" lon="-2.26148">
        <ele>30.39999961853</ele>
        <time>2022-08-14T08:26:58.000Z</time>
      </trkpt>
      <trkpt lat="47.25347" lon="-2.26147">
        <ele>29.799999237061</ele>
        <time>2022-08-14T08:26:59.000Z</time>
      </trkpt>
      <trkpt lat="47.25348" lon="-2.26147">
        <ele>29.39999961853</ele>
        <time>2022-08-14T08:27:00.000Z</time>
      </trkpt>
      <trkpt lat="47.25349" lon="-2.26145">
        <ele>29</ele>
        <time>2022-08-14T08:27:01.000Z</time>
      </trkpt>
      <trkpt lat="47.25349" lon="-2.26144">
        <ele>28.60000038147</ele>
        <time>2022-08-14T08:27:02.000Z</time>
      </trkpt>
      <trkpt lat="47.25349" lon="-2.26144">
        <ele>28</ele>
        <time>2022-08-14T08:27:03.000Z</time>
      </trkpt>
      <trkpt lat="47.2535" lon="-2.26144">
        <ele>28</ele>
        <time>2022-08-14T08:27:04.000Z</time>
      </trkpt>
      <trkpt lat="47.25352" lon="-2.26146">
        <ele>27.60000038147</ele>
        <time>2022-08-14T08:27:06.000Z</time>
      </trkpt>
      <trkpt lat="47.25353" lon="-2.26148">
        <ele>27.200000762939</ele>
        <time>2022-08-14T08:27:07.000Z</time>
      </trkpt>
      <trkpt lat="47.25355" lon="-2.2615">
        <ele>26.799999237061</ele>
        <time>2022-08-14T08:27:08.000Z</time>
      </trkpt>
      <trkpt lat="47.25357" lon="-2.26154">
        <ele>26.39999961853</ele>
        <time>2022-08-14T08:27:09.000Z</time>
      </trkpt>
      <trkpt lat="47.25358" lon="-2.26157">
        <ele>26</ele>
        <time>2022-08-14T08:27:10.000Z</time>
      </trkpt>
      <trkpt lat="47.25363" lon="-2.2617">
        <ele>26</ele>
        <time>2022-08-14T08:27:13.000Z</time>
      </trkpt>
      <trkpt lat="47.25373" lon="-2.26193">
        <ele>26</ele>
        <time>2022-08-14T08:27:19.000Z</time>
      </trkpt>
      <trkpt lat="47.25389" lon="-2.26218">
        <ele>26</ele>
        <time>2022-08-14T08:27:25.000Z</time>
      </trkpt>
      <trkpt lat="47.25392" lon="-2.2624">
        <ele>26.39999961853</ele>
        <time>2022-08-14T08:27:29.000Z</time>
      </trkpt>
      <trkpt lat="47.25391" lon="-2.26245">
        <ele>26.799999237061</ele>
        <time>2022-08-14T08:27:30.000Z</time>
      </trkpt>
      <trkpt lat="47.2539" lon="-2.2625">
        <ele>27.200000762939</ele>
        <time>2022-08-14T08:27:31.000Z</time>
      </trkpt>
      <trkpt lat="47.25389" lon="-2.26255">
        <ele>27.60000038147</ele>
        <time>2022-08-14T08:27:32.000Z</time>
      </trkpt>
      <trkpt lat="47.25389" lon="-2.26258">
        <ele>28</ele>
        <time>2022-08-14T08:27:33.000Z</time>
      </trkpt>
      <trkpt lat="47.2539" lon="-2.26263">
        <ele>28.39999961853</ele>
        <time>2022-08-14T08:27:34.000Z</time>
      </trkpt>
      <trkpt lat="47.25391" lon="-2.26266">
        <ele>28.799999237061</ele>
        <time>2022-08-14T08:27:35.000Z</time>
      </trkpt>
      <trkpt lat="47.25391" lon="-2.2627">
        <ele>29.200000762939</ele>
        <time>2022-08-14T08:27:36.000Z</time>
      </trkpt>
      <trkpt lat="47.25392" lon="-2.26274">
        <ele>29.60000038147</ele>
        <time>2022-08-14T08:27:37.000Z</time>
      </trkpt>
      <trkpt lat="47.25392" lon="-2.26279">
        <ele>30</ele>
        <time>2022-08-14T08:27:38.000Z</time>
      </trkpt>
      <trkpt lat="47.25394" lon="-2.26284">
        <ele>30</ele>
        <time>2022-08-14T08:27:39.000Z</time>
      </trkpt>
      <trkpt lat="47.254" lon="-2.26309">
        <ele>30</ele>
        <time>2022-08-14T08:27:45.000Z</time>
      </trkpt>
      <trkpt lat="47.25409" lon="-2.26335">
        <ele>30</ele>
        <time>2022-08-14T08:27:50.000Z</time>
      </trkpt>
      <trkpt lat="47.2542" lon="-2.26352">
        <ele>29</ele>
        <time>2022-08-14T08:27:54.000Z</time>
      </trkpt>
      <trkpt lat="47.25424" lon="-2.26358">
        <ele>28.60000038147</ele>
        <time>2022-08-14T08:27:55.000Z</time>
      </trkpt>
      <trkpt lat="47.25427" lon="-2.26366">
        <ele>28.200000762939</ele>
        <time>2022-08-14T08:27:56.000Z</time>
      </trkpt>
      <trkpt lat="47.2543" lon="-2.26373">
        <ele>27.60000038147</ele>
        <time>2022-08-14T08:27:57.000Z</time>
      </trkpt>
      <trkpt lat="47.25432" lon="-2.26382">
        <ele>27.200000762939</ele>
        <time>2022-08-14T08:27:58.000Z</time>
      </trkpt>
      <trkpt lat="47.25434" lon="-2.2639">
        <ele>26.799999237061</ele>
        <time>2022-08-14T08:27:59.000Z</time>
      </trkpt>
      <trkpt lat="47.25434" lon="-2.26398">
        <ele>26.39999961853</ele>
        <time>2022-08-14T08:28:00.000Z</time>
      </trkpt>
      <trkpt lat="47.25434" lon="-2.26404">
        <ele>25.799999237061</ele>
        <time>2022-08-14T08:28:01.000Z</time>
      </trkpt>
      <trkpt lat="47.25434" lon="-2.26411">
        <ele>25.39999961853</ele>
        <time>2022-08-14T08:28:02.000Z</time>
      </trkpt>
      <trkpt lat="47.25436" lon="-2.26418">
        <ele>25.39999961853</ele>
        <time>2022-08-14T08:28:04.000Z</time>
      </trkpt>
      <trkpt lat="47.25438" lon="-2.26419">
        <ele>25.39999961853</ele>
        <time>2022-08-14T08:28:05.000Z</time>
      </trkpt>
      <trkpt lat="47.25449" lon="-2.26423">
        <ele>25.39999961853</ele>
        <time>2022-08-14T08:28:09.000Z</time>
      </trkpt>
      <trkpt lat="47.25453" lon="-2.26429">
        <ele>25.39999961853</ele>
        <time>2022-08-14T08:28:11.000Z</time>
      </trkpt>
      <trkpt lat="47.25454" lon="-2.26434">
        <ele>25.39999961853</ele>
        <time>2022-08-14T08:28:12.000Z</time>
      </trkpt>
      <trkpt lat="47.25457" lon="-2.26448">
        <ele>25.39999961853</ele>
        <time>2022-08-14T08:28:15.000Z</time>
      </trkpt>
      <trkpt lat="47.25458" lon="-2.26453">
        <ele>25.39999961853</ele>
        <time>2022-08-14T08:28:16.000Z</time>
      </trkpt>
      <trkpt lat="47.25464" lon="-2.26465">
        <ele>25.39999961853</ele>
        <time>2022-08-14T08:28:20.000Z</time>
      </trkpt>
      <trkpt lat="47.25472" lon="-2.2648">
        <ele>25.39999961853</ele>
        <time>2022-08-14T08:28:24.000Z</time>
      </trkpt>
      <trkpt lat="47.25474" lon="-2.26484">
        <ele>25.799999237061</ele>
        <time>2022-08-14T08:28:25.000Z</time>
      </trkpt>
      <trkpt lat="47.25476" lon="-2.26488">
        <ele>26.39999961853</ele>
        <time>2022-08-14T08:28:26.000Z</time>
      </trkpt>
      <trkpt lat="47.25478" lon="-2.26493">
        <ele>26.799999237061</ele>
        <time>2022-08-14T08:28:27.000Z</time>
      </trkpt>
      <trkpt lat="47.2548" lon="-2.26496">
        <ele>27.200000762939</ele>
        <time>2022-08-14T08:28:28.000Z</time>
      </trkpt>
      <trkpt lat="47.25481" lon="-2.265">
        <ele>27.60000038147</ele>
        <time>2022-08-14T08:28:29.000Z</time>
      </trkpt>
      <trkpt lat="47.25482" lon="-2.26504">
        <ele>28</ele>
        <time>2022-08-14T08:28:30.000Z</time>
      </trkpt>
      <trkpt lat="47.25482" lon="-2.26507">
        <ele>28.39999961853</ele>
        <time>2022-08-14T08:28:31.000Z</time>
      </trkpt>
      <trkpt lat="47.25482" lon="-2.2651">
        <ele>28.799999237061</ele>
        <time>2022-08-14T08:28:32.000Z</time>
      </trkpt>
      <trkpt lat="47.25483" lon="-2.26513">
        <ele>29.200000762939</ele>
        <time>2022-08-14T08:28:33.000Z</time>
      </trkpt>
      <trkpt lat="47.25483" lon="-2.26516">
        <ele>29.799999237061</ele>
        <time>2022-08-14T08:28:34.000Z</time>
      </trkpt>
      <trkpt lat="47.25484" lon="-2.26522">
        <ele>29.799999237061</ele>
        <time>2022-08-14T08:28:36.000Z</time>
      </trkpt>
      <trkpt lat="47.25488" lon="-2.26535">
        <ele>29.799999237061</ele>
        <time>2022-08-14T08:28:42.000Z</time>
      </trkpt>
      <trkpt lat="47.25488" lon="-2.26535">
        <ele>29.799999237061</ele>
        <time>2022-08-14T08:28:44.000Z</time>
      </trkpt>
      <trkpt lat="47.25486" lon="-2.26554">
        <ele>29.799999237061</ele>
        <time>2022-08-14T08:38:27.000Z</time>
      </trkpt>
      <trkpt lat="47.25487" lon="-2.26557">
        <ele>29.799999237061</ele>
        <time>2022-08-14T08:38:28.000Z</time>
      </trkpt>
      <trkpt lat="47.25489" lon="-2.26581">
        <ele>29.799999237061</ele>
        <time>2022-08-14T08:38:34.000Z</time>
      </trkpt>
      <trkpt lat="47.25487" lon="-2.2661">
        <ele>29.799999237061</ele>
        <time>2022-08-14T08:38:40.000Z</time>
      </trkpt>
      <trkpt lat="47.25489" lon="-2.26642">
        <ele>29.799999237061</ele>
        <time>2022-08-14T08:38:45.000Z</time>
      </trkpt>
      <trkpt lat="47.2549" lon="-2.26671">
        <ele>29.799999237061</ele>
        <time>2022-08-14T08:38:50.000Z</time>
      </trkpt>
      <trkpt lat="47.25484" lon="-2.2669">
        <ele>29.799999237061</ele>
        <time>2022-08-14T08:38:55.000Z</time>
      </trkpt>
      <trkpt lat="47.25482" lon="-2.26693">
        <ele>29.799999237061</ele>
        <time>2022-08-14T08:38:56.000Z</time>
      </trkpt>
      <trkpt lat="47.25477" lon="-2.2671">
        <ele>30.60000038147</ele>
        <time>2022-08-14T08:39:01.000Z</time>
      </trkpt>
      <trkpt lat="47.25478" lon="-2.26716">
        <ele>31</ele>
        <time>2022-08-14T08:39:02.000Z</time>
      </trkpt>
      <trkpt lat="47.2548" lon="-2.26722">
        <ele>31.39999961853</ele>
        <time>2022-08-14T08:39:03.000Z</time>
      </trkpt>
      <trkpt lat="47.25481" lon="-2.26728">
        <ele>31.799999237061</ele>
        <time>2022-08-14T08:39:04.000Z</time>
      </trkpt>
      <trkpt lat="47.25491" lon="-2.26753">
        <ele>31.799999237061</ele>
        <time>2022-08-14T08:39:09.000Z</time>
      </trkpt>
      <trkpt lat="47.25506" lon="-2.2678">
        <ele>31.799999237061</ele>
        <time>2022-08-14T08:39:15.000Z</time>
      </trkpt>
      <trkpt lat="47.25512" lon="-2.26789">
        <ele>32.200000762939</ele>
        <time>2022-08-14T08:39:17.000Z</time>
      </trkpt>
      <trkpt lat="47.25514" lon="-2.26793">
        <ele>32.599998474121</ele>
        <time>2022-08-14T08:39:18.000Z</time>
      </trkpt>
      <trkpt lat="47.25516" lon="-2.26796">
        <ele>33</ele>
        <time>2022-08-14T08:39:19.000Z</time>
      </trkpt>
      <trkpt lat="47.25519" lon="-2.26799">
        <ele>33.599998474121</ele>
        <time>2022-08-14T08:39:20.000Z</time>
      </trkpt>
      <trkpt lat="47.25521" lon="-2.26804">
        <ele>34</ele>
        <time>2022-08-14T08:39:21.000Z</time>
      </trkpt>
      <trkpt lat="47.25538" lon="-2.26826">
        <ele>34</ele>
        <time>2022-08-14T08:39:27.000Z</time>
      </trkpt>
      <trkpt lat="47.25547" lon="-2.26835">
        <ele>34.400001525879</ele>
        <time>2022-08-14T08:39:30.000Z</time>
      </trkpt>
      <trkpt lat="47.2555" lon="-2.26837">
        <ele>34.799999237061</ele>
        <time>2022-08-14T08:39:31.000Z</time>
      </trkpt>
      <trkpt lat="47.25552" lon="-2.26839">
        <ele>35.200000762939</ele>
        <time>2022-08-14T08:39:32.000Z</time>
      </trkpt>
      <trkpt lat="47.25555" lon="-2.26842">
        <ele>35.599998474121</ele>
        <time>2022-08-14T08:39:33.000Z</time>
      </trkpt>
      <trkpt lat="47.25557" lon="-2.26845">
        <ele>36</ele>
        <time>2022-08-14T08:39:34.000Z</time>
      </trkpt>
      <trkpt lat="47.25572" lon="-2.26857">
        <ele>36</ele>
        <time>2022-08-14T08:39:40.000Z</time>
      </trkpt>
      <trkpt lat="47.25579" lon="-2.26861">
        <ele>36.400001525879</ele>
        <time>2022-08-14T08:39:42.000Z</time>
      </trkpt>
      <trkpt lat="47.25583" lon="-2.26863">
        <ele>37</ele>
        <time>2022-08-14T08:39:43.000Z</time>
      </trkpt>
      <trkpt lat="47.25586" lon="-2.26865">
        <ele>37.400001525879</ele>
        <time>2022-08-14T08:39:44.000Z</time>
      </trkpt>
      <trkpt lat="47.2559" lon="-2.26867">
        <ele>37.799999237061</ele>
        <time>2022-08-14T08:39:45.000Z</time>
      </trkpt>
      <trkpt lat="47.25593" lon="-2.26868">
        <ele>38.200000762939</ele>
        <time>2022-08-14T08:39:46.000Z</time>
      </trkpt>
      <trkpt lat="47.25609" lon="-2.26875">
        <ele>38.599998474121</ele>
        <time>2022-08-14T08:39:51.000Z</time>
      </trkpt>
      <trkpt lat="47.25612" lon="-2.26877">
        <ele>39</ele>
        <time>2022-08-14T08:39:52.000Z</time>
      </trkpt>
      <trkpt lat="47.25616" lon="-2.26877">
        <ele>39.400001525879</ele>
        <time>2022-08-14T08:39:53.000Z</time>
      </trkpt>
      <trkpt lat="47.25619" lon="-2.26876">
        <ele>39.799999237061</ele>
        <time>2022-08-14T08:39:54.000Z</time>
      </trkpt>
      <trkpt lat="47.25623" lon="-2.26875">
        <ele>40.200000762939</ele>
        <time>2022-08-14T08:39:55.000Z</time>
      </trkpt>
      <trkpt lat="47.2563" lon="-2.26869">
        <ele>40.200000762939</ele>
        <time>2022-08-14T08:39:57.000Z</time>
      </trkpt>
      <trkpt lat="47.25648" lon="-2.26842">
        <ele>40.200000762939</ele>
        <time>2022-08-14T08:40:03.000Z</time>
      </trkpt>
      <trkpt lat="47.25652" lon="-2.26838">
        <ele>40.200000762939</ele>
        <time>2022-08-14T08:40:04.000Z</time>
      </trkpt>
      <trkpt lat="47.25662" lon="-2.26828">
        <ele>40.200000762939</ele>
        <time>2022-08-14T08:40:07.000Z</time>
      </trkpt>
      <trkpt lat="47.2567" lon="-2.26823">
        <ele>40.200000762939</ele>
        <time>2022-08-14T08:40:09.000Z</time>
      </trkpt>
      <trkpt lat="47.25677" lon="-2.26821">
        <ele>40.200000762939</ele>
        <time>2022-08-14T08:40:11.000Z</time>
      </trkpt>
      <trkpt lat="47.25682" lon="-2.26821">
        <ele>40.200000762939</ele>
        <time>2022-08-14T08:40:12.000Z</time>
      </trkpt>
      <trkpt lat="47.25699" lon="-2.26821">
        <ele>40.200000762939</ele>
        <time>2022-08-14T08:40:16.000Z</time>
      </trkpt>
      <trkpt lat="47.25707" lon="-2.26824">
        <ele>40.200000762939</ele>
        <time>2022-08-14T08:40:18.000Z</time>
      </trkpt>
      <trkpt lat="47.25718" lon="-2.2683">
        <ele>40.200000762939</ele>
        <time>2022-08-14T08:40:21.000Z</time>
      </trkpt>
      <trkpt lat="47.25733" lon="-2.26847">
        <ele>40.200000762939</ele>
        <time>2022-08-14T08:40:26.000Z</time>
      </trkpt>
      <trkpt lat="47.25744" lon="-2.26874">
        <ele>40.200000762939</ele>
        <time>2022-08-14T08:40:31.000Z</time>
      </trkpt>
      <trkpt lat="47.25744" lon="-2.2688">
        <ele>40.200000762939</ele>
        <time>2022-08-14T08:40:32.000Z</time>
      </trkpt>
      <trkpt lat="47.25753" lon="-2.269">
        <ele>40.200000762939</ele>
        <time>2022-08-14T08:40:37.000Z</time>
      </trkpt>
      <trkpt lat="47.2577" lon="-2.26896">
        <ele>40.200000762939</ele>
        <time>2022-08-14T08:40:41.000Z</time>
      </trkpt>
      <trkpt lat="47.258" lon="-2.26881">
        <ele>40.200000762939</ele>
        <time>2022-08-14T08:40:47.000Z</time>
      </trkpt>
      <trkpt lat="47.25855" lon="-2.26855">
        <ele>40.200000762939</ele>
        <time>2022-08-14T08:40:57.000Z</time>
      </trkpt>
      <trkpt lat="47.2589" lon="-2.26839">
        <ele>39.799999237061</ele>
        <time>2022-08-14T08:41:03.000Z</time>
      </trkpt>
      <trkpt lat="47.25896" lon="-2.26836">
        <ele>39</ele>
        <time>2022-08-14T08:41:04.000Z</time>
      </trkpt>
      <trkpt lat="47.25903" lon="-2.26832">
        <ele>38.599998474121</ele>
        <time>2022-08-14T08:41:05.000Z</time>
      </trkpt>
      <trkpt lat="47.25909" lon="-2.26829">
        <ele>38.200000762939</ele>
        <time>2022-08-14T08:41:06.000Z</time>
      </trkpt>
      <trkpt lat="47.25928" lon="-2.26817">
        <ele>38.200000762939</ele>
        <time>2022-08-14T08:41:09.000Z</time>
      </trkpt>
      <trkpt lat="47.25935" lon="-2.26816">
        <ele>38.200000762939</ele>
        <time>2022-08-14T08:41:10.000Z</time>
      </trkpt>
      <trkpt lat="47.25955" lon="-2.26813">
        <ele>38.200000762939</ele>
        <time>2022-08-14T08:41:13.000Z</time>
      </trkpt>
      <trkpt lat="47.25969" lon="-2.26809">
        <ele>38.200000762939</ele>
        <time>2022-08-14T08:41:15.000Z</time>
      </trkpt>
      <trkpt lat="47.25975" lon="-2.26808">
        <ele>37.799999237061</ele>
        <time>2022-08-14T08:41:16.000Z</time>
      </trkpt>
      <trkpt lat="47.2598" lon="-2.2681">
        <ele>37.400001525879</ele>
        <time>2022-08-14T08:41:17.000Z</time>
      </trkpt>
      <trkpt lat="47.25985" lon="-2.26816">
        <ele>37</ele>
        <time>2022-08-14T08:41:18.000Z</time>
      </trkpt>
      <trkpt lat="47.25988" lon="-2.26821">
        <ele>36.599998474121</ele>
        <time>2022-08-14T08:41:19.000Z</time>
      </trkpt>
      <trkpt lat="47.2599" lon="-2.26827">
        <ele>36.200000762939</ele>
        <time>2022-08-14T08:41:20.000Z</time>
      </trkpt>
      <trkpt lat="47.2599" lon="-2.26834">
        <ele>36.200000762939</ele>
        <time>2022-08-14T08:41:21.000Z</time>
      </trkpt>
      <trkpt lat="47.25991" lon="-2.26856">
        <ele>36.200000762939</ele>
        <time>2022-08-14T08:41:24.000Z</time>
      </trkpt>
      <trkpt lat="47.25992" lon="-2.2687">
        <ele>36.200000762939</ele>
        <time>2022-08-14T08:41:26.000Z</time>
      </trkpt>
      <trkpt lat="47.25996" lon="-2.26891">
        <ele>36.200000762939</ele>
        <time>2022-08-14T08:41:29.000Z</time>
      </trkpt>
      <trkpt lat="47.26002" lon="-2.26903">
        <ele>36.200000762939</ele>
        <time>2022-08-14T08:41:31.000Z</time>
      </trkpt>
      <trkpt lat="47.26008" lon="-2.26915">
        <ele>36.200000762939</ele>
        <time>2022-08-14T08:41:33.000Z</time>
      </trkpt>
      <trkpt lat="47.26023" lon="-2.26937">
        <ele>36.200000762939</ele>
        <time>2022-08-14T08:41:37.000Z</time>
      </trkpt>
      <trkpt lat="47.26044" lon="-2.26963">
        <ele>36.200000762939</ele>
        <time>2022-08-14T08:41:42.000Z</time>
      </trkpt>
      <trkpt lat="47.26047" lon="-2.26969">
        <ele>36.200000762939</ele>
        <time>2022-08-14T08:41:43.000Z</time>
      </trkpt>
      <trkpt lat="47.26058" lon="-2.26989">
        <ele>36.200000762939</ele>
        <time>2022-08-14T08:41:46.000Z</time>
      </trkpt>
      <trkpt lat="47.26077" lon="-2.27045">
        <ele>36.200000762939</ele>
        <time>2022-08-14T08:41:53.000Z</time>
      </trkpt>
      <trkpt lat="47.26086" lon="-2.27101">
        <ele>36.200000762939</ele>
        <time>2022-08-14T08:41:59.000Z</time>
      </trkpt>
      <trkpt lat="47.261" lon="-2.27162">
        <ele>36.200000762939</ele>
        <time>2022-08-14T08:42:06.000Z</time>
      </trkpt>
      <trkpt lat="47.26105" lon="-2.27178">
        <ele>36.200000762939</ele>
        <time>2022-08-14T08:42:08.000Z</time>
      </trkpt>
      <trkpt lat="47.26117" lon="-2.27209">
        <ele>36.200000762939</ele>
        <time>2022-08-14T08:42:12.000Z</time>
      </trkpt>
      <trkpt lat="47.2612" lon="-2.27218">
        <ele>36.200000762939</ele>
        <time>2022-08-14T08:42:13.000Z</time>
      </trkpt>
      <trkpt lat="47.26129" lon="-2.27246">
        <ele>36.200000762939</ele>
        <time>2022-08-14T08:42:17.000Z</time>
      </trkpt>
      <trkpt lat="47.26138" lon="-2.27282">
        <ele>36.200000762939</ele>
        <time>2022-08-14T08:42:22.000Z</time>
      </trkpt>
      <trkpt lat="47.26141" lon="-2.27295">
        <ele>36.200000762939</ele>
        <time>2022-08-14T08:42:24.000Z</time>
      </trkpt>
      <trkpt lat="47.26146" lon="-2.27315">
        <ele>36.200000762939</ele>
        <time>2022-08-14T08:42:27.000Z</time>
      </trkpt>
      <trkpt lat="47.26161" lon="-2.27319">
        <ele>36.200000762939</ele>
        <time>2022-08-14T08:42:30.000Z</time>
      </trkpt>
      <trkpt lat="47.26178" lon="-2.27315">
        <ele>36.200000762939</ele>
        <time>2022-08-14T08:42:33.000Z</time>
      </trkpt>
      <trkpt lat="47.26189" lon="-2.27312">
        <ele>36.200000762939</ele>
        <time>2022-08-14T08:42:35.000Z</time>
      </trkpt>
      <trkpt lat="47.26206" lon="-2.27312">
        <ele>36.200000762939</ele>
        <time>2022-08-14T08:42:38.000Z</time>
      </trkpt>
      <trkpt lat="47.26218" lon="-2.27314">
        <ele>36.200000762939</ele>
        <time>2022-08-14T08:42:40.000Z</time>
      </trkpt>
      <trkpt lat="47.26235" lon="-2.27317">
        <ele>36.200000762939</ele>
        <time>2022-08-14T08:42:43.000Z</time>
      </trkpt>
      <trkpt lat="47.2624" lon="-2.27318">
        <ele>36.200000762939</ele>
        <time>2022-08-14T08:42:44.000Z</time>
      </trkpt>
      <trkpt lat="47.26251" lon="-2.2732">
        <ele>36.200000762939</ele>
        <time>2022-08-14T08:42:46.000Z</time>
      </trkpt>
      <trkpt lat="47.2627" lon="-2.27321">
        <ele>36.200000762939</ele>
        <time>2022-08-14T08:42:49.000Z</time>
      </trkpt>
      <trkpt lat="47.26314" lon="-2.27326">
        <ele>36.200000762939</ele>
        <time>2022-08-14T08:42:56.000Z</time>
      </trkpt>
      <trkpt lat="47.26336" lon="-2.27328">
        <ele>36.200000762939</ele>
        <time>2022-08-14T08:43:00.000Z</time>
      </trkpt>
      <trkpt lat="47.26342" lon="-2.27329">
        <ele>36.200000762939</ele>
        <time>2022-08-14T08:43:01.000Z</time>
      </trkpt>
      <trkpt lat="47.26371" lon="-2.27329">
        <ele>36.200000762939</ele>
        <time>2022-08-14T08:43:06.000Z</time>
      </trkpt>
      <trkpt lat="47.26402" lon="-2.27329">
        <ele>36.200000762939</ele>
        <time>2022-08-14T08:43:11.000Z</time>
      </trkpt>
      <trkpt lat="47.26407" lon="-2.27331">
        <ele>36.200000762939</ele>
        <time>2022-08-14T08:43:12.000Z</time>
      </trkpt>
      <trkpt lat="47.26419" lon="-2.27334">
        <ele>36.200000762939</ele>
        <time>2022-08-14T08:43:14.000Z</time>
      </trkpt>
      <trkpt lat="47.26424" lon="-2.27338">
        <ele>36.200000762939</ele>
        <time>2022-08-14T08:43:15.000Z</time>
      </trkpt>
      <trkpt lat="47.26428" lon="-2.27343">
        <ele>35.799999237061</ele>
        <time>2022-08-14T08:43:16.000Z</time>
      </trkpt>
      <trkpt lat="47.2643" lon="-2.2735">
        <ele>35.200000762939</ele>
        <time>2022-08-14T08:43:17.000Z</time>
      </trkpt>
      <trkpt lat="47.26433" lon="-2.27357">
        <ele>34.799999237061</ele>
        <time>2022-08-14T08:43:18.000Z</time>
      </trkpt>
      <trkpt lat="47.26436" lon="-2.27365">
        <ele>34.400001525879</ele>
        <time>2022-08-14T08:43:19.000Z</time>
      </trkpt>
      <trkpt lat="47.26439" lon="-2.27373">
        <ele>34</ele>
        <time>2022-08-14T08:43:20.000Z</time>
      </trkpt>
      <trkpt lat="47.26445" lon="-2.27388">
        <ele>34</ele>
        <time>2022-08-14T08:43:22.000Z</time>
      </trkpt>
      <trkpt lat="47.26461" lon="-2.27436">
        <ele>33.599998474121</ele>
        <time>2022-08-14T08:43:28.000Z</time>
      </trkpt>
      <trkpt lat="47.26464" lon="-2.27445">
        <ele>33.200000762939</ele>
        <time>2022-08-14T08:43:29.000Z</time>
      </trkpt>
      <trkpt lat="47.26466" lon="-2.27453">
        <ele>32.799999237061</ele>
        <time>2022-08-14T08:43:30.000Z</time>
      </trkpt>
      <trkpt lat="47.26469" lon="-2.2746">
        <ele>32.400001525879</ele>
        <time>2022-08-14T08:43:31.000Z</time>
      </trkpt>
      <trkpt lat="47.26471" lon="-2.27468">
        <ele>32</ele>
        <time>2022-08-14T08:43:32.000Z</time>
      </trkpt>
      <trkpt lat="47.26476" lon="-2.27485">
        <ele>32</ele>
        <time>2022-08-14T08:43:34.000Z</time>
      </trkpt>
      <trkpt lat="47.26481" lon="-2.2751">
        <ele>32</ele>
        <time>2022-08-14T08:43:37.000Z</time>
      </trkpt>
      <trkpt lat="47.26485" lon="-2.27526">
        <ele>32</ele>
        <time>2022-08-14T08:43:39.000Z</time>
      </trkpt>
      <trkpt lat="47.26487" lon="-2.27543">
        <ele>31.60000038147</ele>
        <time>2022-08-14T08:43:41.000Z</time>
      </trkpt>
      <trkpt lat="47.26488" lon="-2.27552">
        <ele>31</ele>
        <time>2022-08-14T08:43:42.000Z</time>
      </trkpt>
      <trkpt lat="47.26489" lon="-2.2756">
        <ele>30.60000038147</ele>
        <time>2022-08-14T08:43:43.000Z</time>
      </trkpt>
      <trkpt lat="47.26492" lon="-2.27567">
        <ele>30.200000762939</ele>
        <time>2022-08-14T08:43:44.000Z</time>
      </trkpt>
      <trkpt lat="47.26496" lon="-2.27571">
        <ele>29.799999237061</ele>
        <time>2022-08-14T08:43:45.000Z</time>
      </trkpt>
      <trkpt lat="47.26506" lon="-2.27574">
        <ele>29.799999237061</ele>
        <time>2022-08-14T08:43:47.000Z</time>
      </trkpt>
      <trkpt lat="47.26527" lon="-2.27576">
        <ele>29.799999237061</ele>
        <time>2022-08-14T08:43:51.000Z</time>
      </trkpt>
      <trkpt lat="47.26531" lon="-2.27577">
        <ele>29.799999237061</ele>
        <time>2022-08-14T08:43:52.000Z</time>
      </trkpt>
      <trkpt lat="47.26537" lon="-2.27581">
        <ele>29.799999237061</ele>
        <time>2022-08-14T08:43:55.000Z</time>
      </trkpt>
      <trkpt lat="47.26538" lon="-2.27581">
        <ele>29.799999237061</ele>
        <time>2022-08-14T08:43:57.000Z</time>
      </trkpt>
      <trkpt lat="47.26543" lon="-2.27582">
        <ele>29.799999237061</ele>
        <time>2022-08-14T08:44:13.000Z</time>
      </trkpt>
      <trkpt lat="47.26545" lon="-2.27582">
        <ele>29.799999237061</ele>
        <time>2022-08-14T08:44:14.000Z</time>
      </trkpt>
      <trkpt lat="47.2656" lon="-2.27581">
        <ele>29.799999237061</ele>
        <time>2022-08-14T08:44:19.000Z</time>
      </trkpt>
      <trkpt lat="47.26578" lon="-2.27583">
        <ele>29.799999237061</ele>
        <time>2022-08-14T08:44:23.000Z</time>
      </trkpt>
      <trkpt lat="47.26582" lon="-2.27584">
        <ele>29.799999237061</ele>
        <time>2022-08-14T08:44:24.000Z</time>
      </trkpt>
      <trkpt lat="47.26611" lon="-2.27599">
        <ele>29.799999237061</ele>
        <time>2022-08-14T08:44:31.000Z</time>
      </trkpt>
      <trkpt lat="47.26629" lon="-2.27609">
        <ele>29.799999237061</ele>
        <time>2022-08-14T08:44:35.000Z</time>
      </trkpt>
      <trkpt lat="47.26663" lon="-2.27623">
        <ele>29.799999237061</ele>
        <time>2022-08-14T08:44:42.000Z</time>
      </trkpt>
      <trkpt lat="47.26693" lon="-2.27633">
        <ele>29.799999237061</ele>
        <time>2022-08-14T08:44:48.000Z</time>
      </trkpt>
      <trkpt lat="47.26717" lon="-2.27643">
        <ele>29.799999237061</ele>
        <time>2022-08-14T08:44:53.000Z</time>
      </trkpt>
      <trkpt lat="47.26721" lon="-2.27643">
        <ele>29.799999237061</ele>
        <time>2022-08-14T08:44:54.000Z</time>
      </trkpt>
      <trkpt lat="47.26735" lon="-2.27646">
        <ele>29.799999237061</ele>
        <time>2022-08-14T08:44:57.000Z</time>
      </trkpt>
      <trkpt lat="47.26755" lon="-2.27648">
        <ele>29.799999237061</ele>
        <time>2022-08-14T08:45:02.000Z</time>
      </trkpt>
      <trkpt lat="47.26759" lon="-2.27643">
        <ele>29.799999237061</ele>
        <time>2022-08-14T08:45:03.000Z</time>
      </trkpt>
      <trkpt lat="47.2676" lon="-2.27626">
        <ele>29.799999237061</ele>
        <time>2022-08-14T08:45:06.000Z</time>
      </trkpt>
      <trkpt lat="47.26759" lon="-2.27619">
        <ele>29.799999237061</ele>
        <time>2022-08-14T08:45:07.000Z</time>
      </trkpt>
      <trkpt lat="47.26755" lon="-2.2759">
        <ele>29.799999237061</ele>
        <time>2022-08-14T08:45:11.000Z</time>
      </trkpt>
      <trkpt lat="47.26753" lon="-2.27567">
        <ele>29.799999237061</ele>
        <time>2022-08-14T08:45:14.000Z</time>
      </trkpt>
      <trkpt lat="47.26752" lon="-2.27545">
        <ele>29.799999237061</ele>
        <time>2022-08-14T08:45:17.000Z</time>
      </trkpt>
      <trkpt lat="47.26752" lon="-2.27495">
        <ele>29.799999237061</ele>
        <time>2022-08-14T08:45:24.000Z</time>
      </trkpt>
      <trkpt lat="47.26752" lon="-2.27444">
        <ele>29.799999237061</ele>
        <time>2022-08-14T08:45:31.000Z</time>
      </trkpt>
      <trkpt lat="47.26751" lon="-2.27422">
        <ele>29.799999237061</ele>
        <time>2022-08-14T08:45:34.000Z</time>
      </trkpt>
      <trkpt lat="47.26759" lon="-2.27414">
        <ele>29.799999237061</ele>
        <time>2022-08-14T08:45:36.000Z</time>
      </trkpt>
      <trkpt lat="47.26773" lon="-2.27414">
        <ele>29.799999237061</ele>
        <time>2022-08-14T08:45:39.000Z</time>
      </trkpt>
      <trkpt lat="47.26777" lon="-2.27414">
        <ele>29.799999237061</ele>
        <time>2022-08-14T08:45:40.000Z</time>
      </trkpt>
      <trkpt lat="47.26782" lon="-2.27413">
        <ele>29.799999237061</ele>
        <time>2022-08-14T08:45:41.000Z</time>
      </trkpt>
      <trkpt lat="47.26804" lon="-2.27411">
        <ele>29.799999237061</ele>
        <time>2022-08-14T08:45:46.000Z</time>
      </trkpt>
      <trkpt lat="47.26823" lon="-2.27406">
        <ele>29.799999237061</ele>
        <time>2022-08-14T08:45:51.000Z</time>
      </trkpt>
      <trkpt lat="47.26845" lon="-2.27398">
        <ele>29.799999237061</ele>
        <time>2022-08-14T08:45:55.000Z</time>
      </trkpt>
      <trkpt lat="47.26849" lon="-2.27395">
        <ele>29.39999961853</ele>
        <time>2022-08-14T08:45:56.000Z</time>
      </trkpt>
      <trkpt lat="47.26853" lon="-2.27393">
        <ele>29</ele>
        <time>2022-08-14T08:45:57.000Z</time>
      </trkpt>
      <trkpt lat="47.26857" lon="-2.27391">
        <ele>28.60000038147</ele>
        <time>2022-08-14T08:45:58.000Z</time>
      </trkpt>
      <trkpt lat="47.26862" lon="-2.27388">
        <ele>28</ele>
        <time>2022-08-14T08:45:59.000Z</time>
      </trkpt>
      <trkpt lat="47.26867" lon="-2.27385">
        <ele>27.60000038147</ele>
        <time>2022-08-14T08:46:00.000Z</time>
      </trkpt>
      <trkpt lat="47.26878" lon="-2.27379">
        <ele>27.60000038147</ele>
        <time>2022-08-14T08:46:02.000Z</time>
      </trkpt>
      <trkpt lat="47.26882" lon="-2.27378">
        <ele>27.200000762939</ele>
        <time>2022-08-14T08:46:03.000Z</time>
      </trkpt>
      <trkpt lat="47.26887" lon="-2.27376">
        <ele>26.799999237061</ele>
        <time>2022-08-14T08:46:04.000Z</time>
      </trkpt>
      <trkpt lat="47.26891" lon="-2.27374">
        <ele>26.39999961853</ele>
        <time>2022-08-14T08:46:05.000Z</time>
      </trkpt>
      <trkpt lat="47.26896" lon="-2.2737">
        <ele>26</ele>
        <time>2022-08-14T08:46:06.000Z</time>
      </trkpt>
      <trkpt lat="47.26899" lon="-2.27365">
        <ele>25.60000038147</ele>
        <time>2022-08-14T08:46:07.000Z</time>
      </trkpt>
      <trkpt lat="47.269" lon="-2.2736">
        <ele>25.60000038147</ele>
        <time>2022-08-14T08:46:08.000Z</time>
      </trkpt>
      <trkpt lat="47.26906" lon="-2.27346">
        <ele>25.60000038147</ele>
        <time>2022-08-14T08:46:12.000Z</time>
      </trkpt>
      <trkpt lat="47.2691" lon="-2.27339">
        <ele>25.60000038147</ele>
        <time>2022-08-14T08:46:14.000Z</time>
      </trkpt>
      <trkpt lat="47.26913" lon="-2.27329">
        <ele>25.60000038147</ele>
        <time>2022-08-14T08:46:16.000Z</time>
      </trkpt>
      <trkpt lat="47.26919" lon="-2.27315">
        <ele>25.60000038147</ele>
        <time>2022-08-14T08:46:20.000Z</time>
      </trkpt>
      <trkpt lat="47.26919" lon="-2.27312">
        <ele>25.60000038147</ele>
        <time>2022-08-14T08:46:21.000Z</time>
      </trkpt>
      <trkpt lat="47.26919" lon="-2.27301">
        <ele>25.60000038147</ele>
        <time>2022-08-14T08:46:25.000Z</time>
      </trkpt>
      <trkpt lat="47.2692" lon="-2.27289">
        <ele>25.60000038147</ele>
        <time>2022-08-14T08:46:29.000Z</time>
      </trkpt>
      <trkpt lat="47.26921" lon="-2.27287">
        <ele>25.60000038147</ele>
        <time>2022-08-14T08:46:30.000Z</time>
      </trkpt>
      <trkpt lat="47.26926" lon="-2.27273">
        <ele>25.60000038147</ele>
        <time>2022-08-14T08:46:33.000Z</time>
      </trkpt>
      <trkpt lat="47.26925" lon="-2.27269">
        <ele>25.60000038147</ele>
        <time>2022-08-14T08:46:34.000Z</time>
      </trkpt>
      <trkpt lat="47.26928" lon="-2.27267">
        <ele>25.60000038147</ele>
        <time>2022-08-14T08:46:35.000Z</time>
      </trkpt>
      <trkpt lat="47.26933" lon="-2.27263">
        <ele>25.60000038147</ele>
        <time>2022-08-14T08:46:37.000Z</time>
      </trkpt>
      <trkpt lat="47.2694" lon="-2.2726">
        <ele>25.60000038147</ele>
        <time>2022-08-14T08:46:40.000Z</time>
      </trkpt>
      <trkpt lat="47.26942" lon="-2.27259">
        <ele>25.60000038147</ele>
        <time>2022-08-14T08:46:41.000Z</time>
      </trkpt>
      <trkpt lat="47.26948" lon="-2.27249">
        <ele>25.60000038147</ele>
        <time>2022-08-14T08:46:45.000Z</time>
      </trkpt>
      <trkpt lat="47.26951" lon="-2.27246">
        <ele>25.60000038147</ele>
        <time>2022-08-14T08:46:46.000Z</time>
      </trkpt>
      <trkpt lat="47.26956" lon="-2.27235">
        <ele>25.60000038147</ele>
        <time>2022-08-14T08:46:49.000Z</time>
      </trkpt>
      <trkpt lat="47.26957" lon="-2.27232">
        <ele>25.60000038147</ele>
        <time>2022-08-14T08:46:50.000Z</time>
      </trkpt>
      <trkpt lat="47.26956" lon="-2.27225">
        <ele>25.60000038147</ele>
        <time>2022-08-14T08:46:51.000Z</time>
      </trkpt>
      <trkpt lat="47.26953" lon="-2.27213">
        <ele>25.60000038147</ele>
        <time>2022-08-14T08:46:54.000Z</time>
      </trkpt>
      <trkpt lat="47.26954" lon="-2.27211">
        <ele>25.60000038147</ele>
        <time>2022-08-14T08:46:55.000Z</time>
      </trkpt>
      <trkpt lat="47.26957" lon="-2.27208">
        <ele>25.60000038147</ele>
        <time>2022-08-14T08:46:57.000Z</time>
      </trkpt>
      <trkpt lat="47.26961" lon="-2.27205">
        <ele>25.60000038147</ele>
        <time>2022-08-14T08:46:58.000Z</time>
      </trkpt>
      <trkpt lat="47.26962" lon="-2.27203">
        <ele>25.60000038147</ele>
        <time>2022-08-14T08:46:59.000Z</time>
      </trkpt>
      <trkpt lat="47.26965" lon="-2.27195">
        <ele>25.60000038147</ele>
        <time>2022-08-14T08:47:02.000Z</time>
      </trkpt>
      <trkpt lat="47.26965" lon="-2.27192">
        <ele>25.60000038147</ele>
        <time>2022-08-14T08:47:03.000Z</time>
      </trkpt>
      <trkpt lat="47.26966" lon="-2.27186">
        <ele>25.60000038147</ele>
        <time>2022-08-14T08:47:05.000Z</time>
      </trkpt>
      <trkpt lat="47.26969" lon="-2.27185">
        <ele>25.60000038147</ele>
        <time>2022-08-14T08:47:06.000Z</time>
      </trkpt>
      <trkpt lat="47.26974" lon="-2.27184">
        <ele>25.60000038147</ele>
        <time>2022-08-14T08:47:10.000Z</time>
      </trkpt>
      <trkpt lat="47.26976" lon="-2.27183">
        <ele>25.60000038147</ele>
        <time>2022-08-14T08:47:11.000Z</time>
      </trkpt>
      <trkpt lat="47.26978" lon="-2.27183">
        <ele>25.60000038147</ele>
        <time>2022-08-14T08:47:12.000Z</time>
      </trkpt>
      <trkpt lat="47.26982" lon="-2.2718">
        <ele>25.60000038147</ele>
        <time>2022-08-14T08:47:13.000Z</time>
      </trkpt>
      <trkpt lat="47.26986" lon="-2.27174">
        <ele>25.60000038147</ele>
        <time>2022-08-14T08:47:15.000Z</time>
      </trkpt>
      <trkpt lat="47.26992" lon="-2.27176">
        <ele>25.60000038147</ele>
        <time>2022-08-14T08:47:18.000Z</time>
      </trkpt>
      <trkpt lat="47.26997" lon="-2.27181">
        <ele>25.200000762939</ele>
        <time>2022-08-14T08:47:21.000Z</time>
      </trkpt>
      <trkpt lat="47.27" lon="-2.2718">
        <ele>24.799999237061</ele>
        <time>2022-08-14T08:47:22.000Z</time>
      </trkpt>
      <trkpt lat="47.27002" lon="-2.27179">
        <ele>24.200000762939</ele>
        <time>2022-08-14T08:47:23.000Z</time>
      </trkpt>
      <trkpt lat="47.27003" lon="-2.27177">
        <ele>23.799999237061</ele>
        <time>2022-08-14T08:47:24.000Z</time>
      </trkpt>
      <trkpt lat="47.27003" lon="-2.27176">
        <ele>23.39999961853</ele>
        <time>2022-08-14T08:47:25.000Z</time>
      </trkpt>
      <trkpt lat="47.27004" lon="-2.27174">
        <ele>23.39999961853</ele>
        <time>2022-08-14T08:47:27.000Z</time>
      </trkpt>
      <trkpt lat="47.27007" lon="-2.27166">
        <ele>23.39999961853</ele>
        <time>2022-08-14T08:47:29.000Z</time>
      </trkpt>
      <trkpt lat="47.27016" lon="-2.27163">
        <ele>23.39999961853</ele>
        <time>2022-08-14T08:47:32.000Z</time>
      </trkpt>
      <trkpt lat="47.2702" lon="-2.27157">
        <ele>23</ele>
        <time>2022-08-14T08:47:34.000Z</time>
      </trkpt>
      <trkpt lat="47.27021" lon="-2.27153">
        <ele>22.60000038147</ele>
        <time>2022-08-14T08:47:35.000Z</time>
      </trkpt>
      <trkpt lat="47.27021" lon="-2.2715">
        <ele>22.200000762939</ele>
        <time>2022-08-14T08:47:36.000Z</time>
      </trkpt>
      <trkpt lat="47.27021" lon="-2.27146">
        <ele>21.799999237061</ele>
        <time>2022-08-14T08:47:37.000Z</time>
      </trkpt>
      <trkpt lat="47.27021" lon="-2.27143">
        <ele>21.39999961853</ele>
        <time>2022-08-14T08:47:38.000Z</time>
      </trkpt>
      <trkpt lat="47.27021" lon="-2.2714">
        <ele>21.39999961853</ele>
        <time>2022-08-14T08:47:39.000Z</time>
      </trkpt>
      <trkpt lat="47.27018" lon="-2.27127">
        <ele>21.39999961853</ele>
        <time>2022-08-14T08:47:43.000Z</time>
      </trkpt>
      <trkpt lat="47.27017" lon="-2.27123">
        <ele>21.39999961853</ele>
        <time>2022-08-14T08:47:44.000Z</time>
      </trkpt>
      <trkpt lat="47.27016" lon="-2.2712">
        <ele>21.799999237061</ele>
        <time>2022-08-14T08:47:45.000Z</time>
      </trkpt>
      <trkpt lat="47.27015" lon="-2.27117">
        <ele>22.200000762939</ele>
        <time>2022-08-14T08:47:46.000Z</time>
      </trkpt>
      <trkpt lat="47.27014" lon="-2.27114">
        <ele>22.60000038147</ele>
        <time>2022-08-14T08:47:47.000Z</time>
      </trkpt>
      <trkpt lat="47.27013" lon="-2.27111">
        <ele>23</ele>
        <time>2022-08-14T08:47:48.000Z</time>
      </trkpt>
      <trkpt lat="47.27013" lon="-2.27108">
        <ele>23.39999961853</ele>
        <time>2022-08-14T08:47:49.000Z</time>
      </trkpt>
      <trkpt lat="47.27012" lon="-2.27101">
        <ele>23.39999961853</ele>
        <time>2022-08-14T08:47:51.000Z</time>
      </trkpt>
      <trkpt lat="47.27009" lon="-2.27089">
        <ele>23.39999961853</ele>
        <time>2022-08-14T08:47:55.000Z</time>
      </trkpt>
      <trkpt lat="47.2701" lon="-2.27087">
        <ele>23.39999961853</ele>
        <time>2022-08-14T08:47:56.000Z</time>
      </trkpt>
      <trkpt lat="47.27007" lon="-2.27074">
        <ele>23.39999961853</ele>
        <time>2022-08-14T08:48:02.000Z</time>
      </trkpt>
      <trkpt lat="47.27001" lon="-2.27057">
        <ele>23.39999961853</ele>
        <time>2022-08-14T08:48:09.000Z</time>
      </trkpt>
      <trkpt lat="47.26996" lon="-2.27048">
        <ele>23.39999961853</ele>
        <time>2022-08-14T08:48:14.000Z</time>
      </trkpt>
      <trkpt lat="47.26994" lon="-2.27042">
        <ele>23.39999961853</ele>
        <time>2022-08-14T08:48:59.000Z</time>
      </trkpt>
      <trkpt lat="47.26992" lon="-2.27038">
        <ele>23.39999961853</ele>
        <time>2022-08-14T08:49:01.000Z</time>
      </trkpt>
      <trkpt lat="47.26991" lon="-2.27036">
        <ele>23.39999961853</ele>
        <time>2022-08-14T08:49:02.000Z</time>
      </trkpt>
      <trkpt lat="47.26984" lon="-2.27028">
        <ele>23.39999961853</ele>
        <time>2022-08-14T08:49:05.000Z</time>
      </trkpt>
      <trkpt lat="47.26971" lon="-2.27014">
        <ele>23.39999961853</ele>
        <time>2022-08-14T08:49:10.000Z</time>
      </trkpt>
      <trkpt lat="47.26961" lon="-2.26993">
        <ele>23.39999961853</ele>
        <time>2022-08-14T08:49:15.000Z</time>
      </trkpt>
      <trkpt lat="47.26961" lon="-2.26961">
        <ele>23.39999961853</ele>
        <time>2022-08-14T08:49:20.000Z</time>
      </trkpt>
      <trkpt lat="47.26963" lon="-2.26939">
        <ele>23.39999961853</ele>
        <time>2022-08-14T08:49:24.000Z</time>
      </trkpt>
      <trkpt lat="47.26963" lon="-2.26932">
        <ele>23.39999961853</ele>
        <time>2022-08-14T08:49:25.000Z</time>
      </trkpt>
      <trkpt lat="47.26963" lon="-2.26902">
        <ele>23.39999961853</ele>
        <time>2022-08-14T08:49:29.000Z</time>
      </trkpt>
      <trkpt lat="47.26961" lon="-2.26887">
        <ele>23.39999961853</ele>
        <time>2022-08-14T08:49:31.000Z</time>
      </trkpt>
      <trkpt lat="47.2696" lon="-2.26881">
        <ele>23</ele>
        <time>2022-08-14T08:49:32.000Z</time>
      </trkpt>
      <trkpt lat="47.26959" lon="-2.26875">
        <ele>22.60000038147</ele>
        <time>2022-08-14T08:49:33.000Z</time>
      </trkpt>
      <trkpt lat="47.26959" lon="-2.26868">
        <ele>22.200000762939</ele>
        <time>2022-08-14T08:49:34.000Z</time>
      </trkpt>
      <trkpt lat="47.26958" lon="-2.26859">
        <ele>21.799999237061</ele>
        <time>2022-08-14T08:49:35.000Z</time>
      </trkpt>
      <trkpt lat="47.26957" lon="-2.26851">
        <ele>21.39999961853</ele>
        <time>2022-08-14T08:49:36.000Z</time>
      </trkpt>
      <trkpt lat="47.26956" lon="-2.26844">
        <ele>21.39999961853</ele>
        <time>2022-08-14T08:49:37.000Z</time>
      </trkpt>
      <trkpt lat="47.26957" lon="-2.26836">
        <ele>21.39999961853</ele>
        <time>2022-08-14T08:49:38.000Z</time>
      </trkpt>
      <trkpt lat="47.26965" lon="-2.2682">
        <ele>21.39999961853</ele>
        <time>2022-08-14T08:49:41.000Z</time>
      </trkpt>
      <trkpt lat="47.26972" lon="-2.26812">
        <ele>21.39999961853</ele>
        <time>2022-08-14T08:49:43.000Z</time>
      </trkpt>
      <trkpt lat="47.26983" lon="-2.26804">
        <ele>21.39999961853</ele>
        <time>2022-08-14T08:49:46.000Z</time>
      </trkpt>
      <trkpt lat="47.26989" lon="-2.26796">
        <ele>21.39999961853</ele>
        <time>2022-08-14T08:49:49.000Z</time>
      </trkpt>
      <trkpt lat="47.27" lon="-2.26789">
        <ele>21.39999961853</ele>
        <time>2022-08-14T08:49:53.000Z</time>
      </trkpt>
      <trkpt lat="47.27003" lon="-2.26785">
        <ele>21.39999961853</ele>
        <time>2022-08-14T08:49:54.000Z</time>
      </trkpt>
      <trkpt lat="47.2701" lon="-2.26774">
        <ele>21.39999961853</ele>
        <time>2022-08-14T08:49:57.000Z</time>
      </trkpt>
      <trkpt lat="47.27011" lon="-2.26771">
        <ele>21</ele>
        <time>2022-08-14T08:49:58.000Z</time>
      </trkpt>
      <trkpt lat="47.27013" lon="-2.26768">
        <ele>20.60000038147</ele>
        <time>2022-08-14T08:49:59.000Z</time>
      </trkpt>
      <trkpt lat="47.27015" lon="-2.26766">
        <ele>20.200000762939</ele>
        <time>2022-08-14T08:50:00.000Z</time>
      </trkpt>
      <trkpt lat="47.27017" lon="-2.26764">
        <ele>19.799999237061</ele>
        <time>2022-08-14T08:50:01.000Z</time>
      </trkpt>
      <trkpt lat="47.2702" lon="-2.26762">
        <ele>19.39999961853</ele>
        <time>2022-08-14T08:50:02.000Z</time>
      </trkpt>
      <trkpt lat="47.27027" lon="-2.26754">
        <ele>19.39999961853</ele>
        <time>2022-08-14T08:50:06.000Z</time>
      </trkpt>
      <trkpt lat="47.27029" lon="-2.26752">
        <ele>19.39999961853</ele>
        <time>2022-08-14T08:50:10.000Z</time>
      </trkpt>
      <trkpt lat="47.27029" lon="-2.26749">
        <ele>19.39999961853</ele>
        <time>2022-08-14T08:50:11.000Z</time>
      </trkpt>
      <trkpt lat="47.27031" lon="-2.26727">
        <ele>19.39999961853</ele>
        <time>2022-08-14T08:50:15.000Z</time>
      </trkpt>
      <trkpt lat="47.27032" lon="-2.26697">
        <ele>19.39999961853</ele>
        <time>2022-08-14T08:50:20.000Z</time>
      </trkpt>
      <trkpt lat="47.2703" lon="-2.26678">
        <ele>19.39999961853</ele>
        <time>2022-08-14T08:50:24.000Z</time>
      </trkpt>
      <trkpt lat="47.27031" lon="-2.26671">
        <ele>19.39999961853</ele>
        <time>2022-08-14T08:50:25.000Z</time>
      </trkpt>
      <trkpt lat="47.27031" lon="-2.26656">
        <ele>19.39999961853</ele>
        <time>2022-08-14T08:50:27.000Z</time>
      </trkpt>
      <trkpt lat="47.27021" lon="-2.26632">
        <ele>19.39999961853</ele>
        <time>2022-08-14T08:50:31.000Z</time>
      </trkpt>
      <trkpt lat="47.27015" lon="-2.26622">
        <ele>19.39999961853</ele>
        <time>2022-08-14T08:50:33.000Z</time>
      </trkpt>
      <trkpt lat="47.27011" lon="-2.26617">
        <ele>19.39999961853</ele>
        <time>2022-08-14T08:50:34.000Z</time>
      </trkpt>
      <trkpt lat="47.27006" lon="-2.26603">
        <ele>19.39999961853</ele>
        <time>2022-08-14T08:50:36.000Z</time>
      </trkpt>
      <trkpt lat="47.27" lon="-2.26594">
        <ele>19.39999961853</ele>
        <time>2022-08-14T08:50:38.000Z</time>
      </trkpt>
      <trkpt lat="47.26997" lon="-2.26589">
        <ele>19.799999237061</ele>
        <time>2022-08-14T08:50:39.000Z</time>
      </trkpt>
      <trkpt lat="47.26994" lon="-2.26584">
        <ele>20.200000762939</ele>
        <time>2022-08-14T08:50:40.000Z</time>
      </trkpt>
      <trkpt lat="47.26991" lon="-2.2658">
        <ele>20.60000038147</ele>
        <time>2022-08-14T08:50:41.000Z</time>
      </trkpt>
      <trkpt lat="47.26988" lon="-2.26575">
        <ele>21</ele>
        <time>2022-08-14T08:50:42.000Z</time>
      </trkpt>
      <trkpt lat="47.26984" lon="-2.26571">
        <ele>21.39999961853</ele>
        <time>2022-08-14T08:50:43.000Z</time>
      </trkpt>
      <trkpt lat="47.26981" lon="-2.26564">
        <ele>21.39999961853</ele>
        <time>2022-08-14T08:50:44.000Z</time>
      </trkpt>
      <trkpt lat="47.26979" lon="-2.26558">
        <ele>21.39999961853</ele>
        <time>2022-08-14T08:50:45.000Z</time>
      </trkpt>
      <trkpt lat="47.26969" lon="-2.26522">
        <ele>21.39999961853</ele>
        <time>2022-08-14T08:50:51.000Z</time>
      </trkpt>
      <trkpt lat="47.26969" lon="-2.26513">
        <ele>21.799999237061</ele>
        <time>2022-08-14T08:50:53.000Z</time>
      </trkpt>
      <trkpt lat="47.2697" lon="-2.26509">
        <ele>22.200000762939</ele>
        <time>2022-08-14T08:50:54.000Z</time>
      </trkpt>
      <trkpt lat="47.26971" lon="-2.26504">
        <ele>22.60000038147</ele>
        <time>2022-08-14T08:50:55.000Z</time>
      </trkpt>
      <trkpt lat="47.26974" lon="-2.26499">
        <ele>23.200000762939</ele>
        <time>2022-08-14T08:50:56.000Z</time>
      </trkpt>
      <trkpt lat="47.26977" lon="-2.26495">
        <ele>23.60000038147</ele>
        <time>2022-08-14T08:50:57.000Z</time>
      </trkpt>
      <trkpt lat="47.2698" lon="-2.2649">
        <ele>23.60000038147</ele>
        <time>2022-08-14T08:50:58.000Z</time>
      </trkpt>
      <trkpt lat="47.26984" lon="-2.26486">
        <ele>23.60000038147</ele>
        <time>2022-08-14T08:50:59.000Z</time>
      </trkpt>
      <trkpt lat="47.26997" lon="-2.26466">
        <ele>23.60000038147</ele>
        <time>2022-08-14T08:51:03.000Z</time>
      </trkpt>
      <trkpt lat="47.27" lon="-2.26461">
        <ele>23.60000038147</ele>
        <time>2022-08-14T08:51:04.000Z</time>
      </trkpt>
      <trkpt lat="47.27018" lon="-2.26434">
        <ele>23.60000038147</ele>
        <time>2022-08-14T08:51:09.000Z</time>
      </trkpt>
      <trkpt lat="47.27025" lon="-2.26424">
        <ele>23.60000038147</ele>
        <time>2022-08-14T08:51:11.000Z</time>
      </trkpt>
      <trkpt lat="47.27039" lon="-2.26402">
        <ele>23.60000038147</ele>
        <time>2022-08-14T08:51:15.000Z</time>
      </trkpt>
      <trkpt lat="47.27043" lon="-2.26397">
        <ele>23.60000038147</ele>
        <time>2022-08-14T08:51:16.000Z</time>
      </trkpt>
      <trkpt lat="47.2707" lon="-2.2636">
        <ele>23.60000038147</ele>
        <time>2022-08-14T08:51:23.000Z</time>
      </trkpt>
      <trkpt lat="47.27074" lon="-2.26354">
        <ele>23.60000038147</ele>
        <time>2022-08-14T08:51:24.000Z</time>
      </trkpt>
      <trkpt lat="47.27085" lon="-2.26338">
        <ele>23.60000038147</ele>
        <time>2022-08-14T08:51:27.000Z</time>
      </trkpt>
      <trkpt lat="47.27091" lon="-2.26328">
        <ele>23.60000038147</ele>
        <time>2022-08-14T08:51:29.000Z</time>
      </trkpt>
      <trkpt lat="47.27101" lon="-2.26313">
        <ele>23.60000038147</ele>
        <time>2022-08-14T08:51:33.000Z</time>
      </trkpt>
      <trkpt lat="47.27107" lon="-2.26304">
        <ele>23.60000038147</ele>
        <time>2022-08-14T08:51:38.000Z</time>
      </trkpt>
      <trkpt lat="47.27116" lon="-2.26295">
        <ele>23.60000038147</ele>
        <time>2022-08-14T08:51:44.000Z</time>
      </trkpt>
      <trkpt lat="47.2713" lon="-2.26276">
        <ele>23.60000038147</ele>
        <time>2022-08-14T08:51:52.000Z</time>
      </trkpt>
      <trkpt lat="47.27137" lon="-2.26264">
        <ele>23.60000038147</ele>
        <time>2022-08-14T08:51:56.000Z</time>
      </trkpt>
      <trkpt lat="47.27138" lon="-2.26261">
        <ele>23.60000038147</ele>
        <time>2022-08-14T08:51:57.000Z</time>
      </trkpt>
      <trkpt lat="47.27139" lon="-2.26259">
        <ele>23.60000038147</ele>
        <time>2022-08-14T08:52:00.000Z</time>
      </trkpt>
      <trkpt lat="47.27144" lon="-2.26262">
        <ele>22</ele>
        <time>2022-08-14T08:55:19.000Z</time>
      </trkpt>
      <trkpt lat="47.27144" lon="-2.2626">
        <ele>21.60000038147</ele>
        <time>2022-08-14T08:55:20.000Z</time>
      </trkpt>
      <trkpt lat="47.27146" lon="-2.26258">
        <ele>21.60000038147</ele>
        <time>2022-08-14T08:55:21.000Z</time>
      </trkpt>
      <trkpt lat="47.27154" lon="-2.26243">
        <ele>21.60000038147</ele>
        <time>2022-08-14T08:55:25.000Z</time>
      </trkpt>
      <trkpt lat="47.27178" lon="-2.26214">
        <ele>21.60000038147</ele>
        <time>2022-08-14T08:55:31.000Z</time>
      </trkpt>
      <trkpt lat="47.27215" lon="-2.26181">
        <ele>21.200000762939</ele>
        <time>2022-08-14T08:55:39.000Z</time>
      </trkpt>
      <trkpt lat="47.27219" lon="-2.26177">
        <ele>20.799999237061</ele>
        <time>2022-08-14T08:55:40.000Z</time>
      </trkpt>
      <trkpt lat="47.27223" lon="-2.26174">
        <ele>20.39999961853</ele>
        <time>2022-08-14T08:55:41.000Z</time>
      </trkpt>
      <trkpt lat="47.27227" lon="-2.2617">
        <ele>20</ele>
        <time>2022-08-14T08:55:42.000Z</time>
      </trkpt>
      <trkpt lat="47.27232" lon="-2.26167">
        <ele>19.60000038147</ele>
        <time>2022-08-14T08:55:43.000Z</time>
      </trkpt>
      <trkpt lat="47.27237" lon="-2.26164">
        <ele>19.60000038147</ele>
        <time>2022-08-14T08:55:44.000Z</time>
      </trkpt>
      <trkpt lat="47.27265" lon="-2.26149">
        <ele>19.60000038147</ele>
        <time>2022-08-14T08:55:49.000Z</time>
      </trkpt>
      <trkpt lat="47.27301" lon="-2.26136">
        <ele>19.60000038147</ele>
        <time>2022-08-14T08:55:55.000Z</time>
      </trkpt>
      <trkpt lat="47.27325" lon="-2.26128">
        <ele>19.60000038147</ele>
        <time>2022-08-14T08:55:59.000Z</time>
      </trkpt>
      <trkpt lat="47.27339" lon="-2.2612">
        <ele>19.60000038147</ele>
        <time>2022-08-14T08:56:02.000Z</time>
      </trkpt>
      <trkpt lat="47.27339" lon="-2.26103">
        <ele>19.60000038147</ele>
        <time>2022-08-14T08:56:05.000Z</time>
      </trkpt>
      <trkpt lat="47.27331" lon="-2.26085">
        <ele>19.60000038147</ele>
        <time>2022-08-14T08:56:08.000Z</time>
      </trkpt>
      <trkpt lat="47.27324" lon="-2.26071">
        <ele>19.60000038147</ele>
        <time>2022-08-14T08:56:10.000Z</time>
      </trkpt>
      <trkpt lat="47.27293" lon="-2.26008">
        <ele>19.60000038147</ele>
        <time>2022-08-14T08:56:20.000Z</time>
      </trkpt>
      <trkpt lat="47.2729" lon="-2.25999">
        <ele>19.60000038147</ele>
        <time>2022-08-14T08:56:22.000Z</time>
      </trkpt>
      <trkpt lat="47.27292" lon="-2.25995">
        <ele>19.60000038147</ele>
        <time>2022-08-14T08:56:23.000Z</time>
      </trkpt>
      <trkpt lat="47.27298" lon="-2.25988">
        <ele>19.60000038147</ele>
        <time>2022-08-14T08:56:26.000Z</time>
      </trkpt>
      <trkpt lat="47.27306" lon="-2.25982">
        <ele>19.60000038147</ele>
        <time>2022-08-14T08:56:29.000Z</time>
      </trkpt>
      <trkpt lat="47.27309" lon="-2.2598">
        <ele>19.60000038147</ele>
        <time>2022-08-14T08:56:30.000Z</time>
      </trkpt>
      <trkpt lat="47.27332" lon="-2.25967">
        <ele>19.60000038147</ele>
        <time>2022-08-14T08:56:36.000Z</time>
      </trkpt>
      <trkpt lat="47.27344" lon="-2.2596">
        <ele>19.60000038147</ele>
        <time>2022-08-14T08:56:39.000Z</time>
      </trkpt>
      <trkpt lat="47.27353" lon="-2.25955">
        <ele>19.60000038147</ele>
        <time>2022-08-14T08:56:41.000Z</time>
      </trkpt>
      <trkpt lat="47.27366" lon="-2.25943">
        <ele>19.60000038147</ele>
        <time>2022-08-14T08:56:44.000Z</time>
      </trkpt>
      <trkpt lat="47.2737" lon="-2.25937">
        <ele>19.60000038147</ele>
        <time>2022-08-14T08:56:45.000Z</time>
      </trkpt>
      <trkpt lat="47.27387" lon="-2.25916">
        <ele>19.60000038147</ele>
        <time>2022-08-14T08:56:49.000Z</time>
      </trkpt>
      <trkpt lat="47.27395" lon="-2.25905">
        <ele>19.60000038147</ele>
        <time>2022-08-14T08:56:51.000Z</time>
      </trkpt>
      <trkpt lat="47.27407" lon="-2.25887">
        <ele>19.60000038147</ele>
        <time>2022-08-14T08:56:54.000Z</time>
      </trkpt>
      <trkpt lat="47.27411" lon="-2.2588">
        <ele>19.60000038147</ele>
        <time>2022-08-14T08:56:55.000Z</time>
      </trkpt>
      <trkpt lat="47.27425" lon="-2.25854">
        <ele>19.60000038147</ele>
        <time>2022-08-14T08:56:59.000Z</time>
      </trkpt>
      <trkpt lat="47.27428" lon="-2.25847">
        <ele>19.60000038147</ele>
        <time>2022-08-14T08:57:00.000Z</time>
      </trkpt>
      <trkpt lat="47.27439" lon="-2.25827">
        <ele>19.60000038147</ele>
        <time>2022-08-14T08:57:03.000Z</time>
      </trkpt>
      <trkpt lat="47.2746" lon="-2.258">
        <ele>19.60000038147</ele>
        <time>2022-08-14T08:57:08.000Z</time>
      </trkpt>
      <trkpt lat="47.27468" lon="-2.25793">
        <ele>19.60000038147</ele>
        <time>2022-08-14T08:57:10.000Z</time>
      </trkpt>
      <trkpt lat="47.27472" lon="-2.25789">
        <ele>19.60000038147</ele>
        <time>2022-08-14T08:57:11.000Z</time>
      </trkpt>
      <trkpt lat="47.27479" lon="-2.25783">
        <ele>19.200000762939</ele>
        <time>2022-08-14T08:57:13.000Z</time>
      </trkpt>
      <trkpt lat="47.27483" lon="-2.25779">
        <ele>18.799999237061</ele>
        <time>2022-08-14T08:57:14.000Z</time>
      </trkpt>
      <trkpt lat="47.27487" lon="-2.25775">
        <ele>18.200000762939</ele>
        <time>2022-08-14T08:57:15.000Z</time>
      </trkpt>
      <trkpt lat="47.2749" lon="-2.2577">
        <ele>17.799999237061</ele>
        <time>2022-08-14T08:57:16.000Z</time>
      </trkpt>
      <trkpt lat="47.27494" lon="-2.25766">
        <ele>17.39999961853</ele>
        <time>2022-08-14T08:57:17.000Z</time>
      </trkpt>
      <trkpt lat="47.27505" lon="-2.25753">
        <ele>17.39999961853</ele>
        <time>2022-08-14T08:57:20.000Z</time>
      </trkpt>
      <trkpt lat="47.27521" lon="-2.25731">
        <ele>17.39999961853</ele>
        <time>2022-08-14T08:57:25.000Z</time>
      </trkpt>
      <trkpt lat="47.27534" lon="-2.2571">
        <ele>17.39999961853</ele>
        <time>2022-08-14T08:57:29.000Z</time>
      </trkpt>
      <trkpt lat="47.27536" lon="-2.25704">
        <ele>17.39999961853</ele>
        <time>2022-08-14T08:57:30.000Z</time>
      </trkpt>
      <trkpt lat="47.27543" lon="-2.25693">
        <ele>17</ele>
        <time>2022-08-14T08:57:32.000Z</time>
      </trkpt>
      <trkpt lat="47.27546" lon="-2.25687">
        <ele>16.200000762939</ele>
        <time>2022-08-14T08:57:33.000Z</time>
      </trkpt>
      <trkpt lat="47.27549" lon="-2.25681">
        <ele>15.800000190735</ele>
        <time>2022-08-14T08:57:34.000Z</time>
      </trkpt>
      <trkpt lat="47.27553" lon="-2.25676">
        <ele>15.39999961853</ele>
        <time>2022-08-14T08:57:35.000Z</time>
      </trkpt>
      <trkpt lat="47.27556" lon="-2.2567">
        <ele>15.39999961853</ele>
        <time>2022-08-14T08:57:36.000Z</time>
      </trkpt>
      <trkpt lat="47.27563" lon="-2.25658">
        <ele>15.39999961853</ele>
        <time>2022-08-14T08:57:39.000Z</time>
      </trkpt>
      <trkpt lat="47.27562" lon="-2.25651">
        <ele>15.39999961853</ele>
        <time>2022-08-14T08:57:41.000Z</time>
      </trkpt>
      <trkpt lat="47.27562" lon="-2.25645">
        <ele>15.39999961853</ele>
        <time>2022-08-14T08:57:43.000Z</time>
      </trkpt>
      <trkpt lat="47.27563" lon="-2.25629">
        <ele>15.39999961853</ele>
        <time>2022-08-14T08:57:49.000Z</time>
      </trkpt>
      <trkpt lat="47.27564" lon="-2.25618">
        <ele>15.39999961853</ele>
        <time>2022-08-14T08:57:54.000Z</time>
      </trkpt>
      <trkpt lat="47.27565" lon="-2.25614">
        <ele>15.39999961853</ele>
        <time>2022-08-14T08:57:56.000Z</time>
      </trkpt>
      <trkpt lat="47.27564" lon="-2.2561">
        <ele>15.39999961853</ele>
        <time>2022-08-14T08:57:58.000Z</time>
      </trkpt>
      <trkpt lat="47.27563" lon="-2.256">
        <ele>15.39999961853</ele>
        <time>2022-08-14T08:58:01.000Z</time>
      </trkpt>
      <trkpt lat="47.27559" lon="-2.2557">
        <ele>15.39999961853</ele>
        <time>2022-08-14T08:58:06.000Z</time>
      </trkpt>
      <trkpt lat="47.27555" lon="-2.25557">
        <ele>15.39999961853</ele>
        <time>2022-08-14T08:58:08.000Z</time>
      </trkpt>
      <trkpt lat="47.27553" lon="-2.2555">
        <ele>15</ele>
        <time>2022-08-14T08:58:09.000Z</time>
      </trkpt>
      <trkpt lat="47.27551" lon="-2.25544">
        <ele>14.60000038147</ele>
        <time>2022-08-14T08:58:10.000Z</time>
      </trkpt>
      <trkpt lat="47.27549" lon="-2.25537">
        <ele>14.199999809265</ele>
        <time>2022-08-14T08:58:11.000Z</time>
      </trkpt>
      <trkpt lat="47.27548" lon="-2.2553">
        <ele>13.800000190735</ele>
        <time>2022-08-14T08:58:12.000Z</time>
      </trkpt>
      <trkpt lat="47.27546" lon="-2.25523">
        <ele>13.39999961853</ele>
        <time>2022-08-14T08:58:13.000Z</time>
      </trkpt>
      <trkpt lat="47.27542" lon="-2.25509">
        <ele>13.39999961853</ele>
        <time>2022-08-14T08:58:15.000Z</time>
      </trkpt>
      <trkpt lat="47.27528" lon="-2.25489">
        <ele>13.39999961853</ele>
        <time>2022-08-14T08:58:19.000Z</time>
      </trkpt>
      <trkpt lat="47.27525" lon="-2.25483">
        <ele>13.39999961853</ele>
        <time>2022-08-14T08:58:20.000Z</time>
      </trkpt>
      <trkpt lat="47.27521" lon="-2.25478">
        <ele>13.39999961853</ele>
        <time>2022-08-14T08:58:21.000Z</time>
      </trkpt>
      <trkpt lat="47.27512" lon="-2.25467">
        <ele>13.39999961853</ele>
        <time>2022-08-14T08:58:23.000Z</time>
      </trkpt>
      <trkpt lat="47.27506" lon="-2.25463">
        <ele>13.39999961853</ele>
        <time>2022-08-14T08:58:24.000Z</time>
      </trkpt>
      <trkpt lat="47.27502" lon="-2.2546">
        <ele>13.39999961853</ele>
        <time>2022-08-14T08:58:25.000Z</time>
      </trkpt>
      <trkpt lat="47.27493" lon="-2.25458">
        <ele>13.39999961853</ele>
        <time>2022-08-14T08:58:27.000Z</time>
      </trkpt>
      <trkpt lat="47.27483" lon="-2.25459">
        <ele>13.39999961853</ele>
        <time>2022-08-14T08:58:29.000Z</time>
      </trkpt>
      <trkpt lat="47.27473" lon="-2.25459">
        <ele>13.39999961853</ele>
        <time>2022-08-14T08:58:31.000Z</time>
      </trkpt>
      <trkpt lat="47.27469" lon="-2.25459">
        <ele>13.39999961853</ele>
        <time>2022-08-14T08:58:32.000Z</time>
      </trkpt>
      <trkpt lat="47.27456" lon="-2.25454">
        <ele>13.39999961853</ele>
        <time>2022-08-14T08:58:35.000Z</time>
      </trkpt>
      <trkpt lat="47.27452" lon="-2.25451">
        <ele>13.39999961853</ele>
        <time>2022-08-14T08:58:36.000Z</time>
      </trkpt>
      <trkpt lat="47.27447" lon="-2.25447">
        <ele>13.39999961853</ele>
        <time>2022-08-14T08:58:37.000Z</time>
      </trkpt>
      <trkpt lat="47.27436" lon="-2.25434">
        <ele>13.39999961853</ele>
        <time>2022-08-14T08:58:40.000Z</time>
      </trkpt>
      <trkpt lat="47.27424" lon="-2.2542">
        <ele>13.39999961853</ele>
        <time>2022-08-14T08:58:44.000Z</time>
      </trkpt>
      <trkpt lat="47.27421" lon="-2.25412">
        <ele>13.39999961853</ele>
        <time>2022-08-14T08:58:47.000Z</time>
      </trkpt>
      <trkpt lat="47.2742" lon="-2.2541">
        <ele>13.39999961853</ele>
        <time>2022-08-14T08:58:48.000Z</time>
      </trkpt>
      <trkpt lat="47.2742" lon="-2.2541">
        <ele>13.39999961853</ele>
        <time>2022-08-14T08:58:49.000Z</time>
      </trkpt>
      <trkpt lat="47.27419" lon="-2.25407">
        <ele>13.39999961853</ele>
        <time>2022-08-14T08:59:23.000Z</time>
      </trkpt>
      <trkpt lat="47.27417" lon="-2.25403">
        <ele>13.39999961853</ele>
        <time>2022-08-14T08:59:25.000Z</time>
      </trkpt>
      <trkpt lat="47.27413" lon="-2.25393">
        <ele>13.39999961853</ele>
        <time>2022-08-14T08:59:28.000Z</time>
      </trkpt>
      <trkpt lat="47.27408" lon="-2.25388">
        <ele>13.39999961853</ele>
        <time>2022-08-14T08:59:30.000Z</time>
      </trkpt>
      <trkpt lat="47.27406" lon="-2.25384">
        <ele>13.39999961853</ele>
        <time>2022-08-14T08:59:31.000Z</time>
      </trkpt>
      <trkpt lat="47.27405" lon="-2.2538">
        <ele>13.800000190735</ele>
        <time>2022-08-14T08:59:32.000Z</time>
      </trkpt>
      <trkpt lat="47.27404" lon="-2.25375">
        <ele>14.199999809265</ele>
        <time>2022-08-14T08:59:33.000Z</time>
      </trkpt>
      <trkpt lat="47.27402" lon="-2.25371">
        <ele>14.60000038147</ele>
        <time>2022-08-14T08:59:34.000Z</time>
      </trkpt>
      <trkpt lat="47.27402" lon="-2.25367">
        <ele>15.199999809265</ele>
        <time>2022-08-14T08:59:35.000Z</time>
      </trkpt>
      <trkpt lat="47.27402" lon="-2.25362">
        <ele>15.60000038147</ele>
        <time>2022-08-14T08:59:36.000Z</time>
      </trkpt>
      <trkpt lat="47.27404" lon="-2.25358">
        <ele>15.60000038147</ele>
        <time>2022-08-14T08:59:37.000Z</time>
      </trkpt>
      <trkpt lat="47.27405" lon="-2.25339">
        <ele>15.60000038147</ele>
        <time>2022-08-14T08:59:40.000Z</time>
      </trkpt>
      <trkpt lat="47.27399" lon="-2.25321">
        <ele>15.60000038147</ele>
        <time>2022-08-14T08:59:43.000Z</time>
      </trkpt>
      <trkpt lat="47.274" lon="-2.25306">
        <ele>15.60000038147</ele>
        <time>2022-08-14T08:59:46.000Z</time>
      </trkpt>
      <trkpt lat="47.27399" lon="-2.25286">
        <ele>15.60000038147</ele>
        <time>2022-08-14T08:59:49.000Z</time>
      </trkpt>
      <trkpt lat="47.27394" lon="-2.25266">
        <ele>15.60000038147</ele>
        <time>2022-08-14T08:59:52.000Z</time>
      </trkpt>
      <trkpt lat="47.27392" lon="-2.25259">
        <ele>15.60000038147</ele>
        <time>2022-08-14T08:59:53.000Z</time>
      </trkpt>
      <trkpt lat="47.27389" lon="-2.25236">
        <ele>15.60000038147</ele>
        <time>2022-08-14T08:59:56.000Z</time>
      </trkpt>
      <trkpt lat="47.2739" lon="-2.25228">
        <ele>15</ele>
        <time>2022-08-14T08:59:57.000Z</time>
      </trkpt>
      <trkpt lat="47.27391" lon="-2.25221">
        <ele>14.60000038147</ele>
        <time>2022-08-14T08:59:58.000Z</time>
      </trkpt>
      <trkpt lat="47.27392" lon="-2.25214">
        <ele>14.199999809265</ele>
        <time>2022-08-14T08:59:59.000Z</time>
      </trkpt>
      <trkpt lat="47.27393" lon="-2.25208">
        <ele>13.800000190735</ele>
        <time>2022-08-14T09:00:00.000Z</time>
      </trkpt>
      <trkpt lat="47.27393" lon="-2.25202">
        <ele>13.39999961853</ele>
        <time>2022-08-14T09:00:01.000Z</time>
      </trkpt>
      <trkpt lat="47.27385" lon="-2.25174">
        <ele>13.39999961853</ele>
        <time>2022-08-14T09:00:05.000Z</time>
      </trkpt>
      <trkpt lat="47.27371" lon="-2.25133">
        <ele>13.39999961853</ele>
        <time>2022-08-14T09:00:11.000Z</time>
      </trkpt>
      <trkpt lat="47.27368" lon="-2.25126">
        <ele>13.39999961853</ele>
        <time>2022-08-14T09:00:12.000Z</time>
      </trkpt>
      <trkpt lat="47.27353" lon="-2.25091">
        <ele>13.39999961853</ele>
        <time>2022-08-14T09:00:17.000Z</time>
      </trkpt>
      <trkpt lat="47.27343" lon="-2.25058">
        <ele>13.39999961853</ele>
        <time>2022-08-14T09:00:23.000Z</time>
      </trkpt>
      <trkpt lat="47.27336" lon="-2.25029">
        <ele>13.39999961853</ele>
        <time>2022-08-14T09:00:30.000Z</time>
      </trkpt>
      <trkpt lat="47.27333" lon="-2.25003">
        <ele>13.39999961853</ele>
        <time>2022-08-14T09:00:35.000Z</time>
      </trkpt>
      <trkpt lat="47.27334" lon="-2.24996">
        <ele>13.39999961853</ele>
        <time>2022-08-14T09:00:36.000Z</time>
      </trkpt>
      <trkpt lat="47.2734" lon="-2.24973">
        <ele>13.39999961853</ele>
        <time>2022-08-14T09:00:40.000Z</time>
      </trkpt>
      <trkpt lat="47.27342" lon="-2.24968">
        <ele>13.39999961853</ele>
        <time>2022-08-14T09:00:41.000Z</time>
      </trkpt>
      <trkpt lat="47.2736" lon="-2.24944">
        <ele>13.39999961853</ele>
        <time>2022-08-14T09:00:46.000Z</time>
      </trkpt>
      <trkpt lat="47.27382" lon="-2.24915">
        <ele>13.39999961853</ele>
        <time>2022-08-14T09:00:52.000Z</time>
      </trkpt>
      <trkpt lat="47.27389" lon="-2.24905">
        <ele>13.39999961853</ele>
        <time>2022-08-14T09:00:54.000Z</time>
      </trkpt>
      <trkpt lat="47.27398" lon="-2.24893">
        <ele>13.39999961853</ele>
        <time>2022-08-14T09:00:57.000Z</time>
      </trkpt>
      <trkpt lat="47.27405" lon="-2.24877">
        <ele>13.39999961853</ele>
        <time>2022-08-14T09:01:01.000Z</time>
      </trkpt>
      <trkpt lat="47.2741" lon="-2.24857">
        <ele>13.39999961853</ele>
        <time>2022-08-14T09:01:08.000Z</time>
      </trkpt>
      <trkpt lat="47.27418" lon="-2.24839">
        <ele>13.39999961853</ele>
        <time>2022-08-14T09:01:10.000Z</time>
      </trkpt>
      <trkpt lat="47.27422" lon="-2.24828">
        <ele>13.39999961853</ele>
        <time>2022-08-14T09:01:11.000Z</time>
      </trkpt>
      <trkpt lat="47.27432" lon="-2.248">
        <ele>13.39999961853</ele>
        <time>2022-08-14T09:01:15.000Z</time>
      </trkpt>
      <trkpt lat="47.27436" lon="-2.24796">
        <ele>13.39999961853</ele>
        <time>2022-08-14T09:01:16.000Z</time>
      </trkpt>
      <trkpt lat="47.27451" lon="-2.24786">
        <ele>13.800000190735</ele>
        <time>2022-08-14T09:01:19.000Z</time>
      </trkpt>
      <trkpt lat="47.27455" lon="-2.24785">
        <ele>14.199999809265</ele>
        <time>2022-08-14T09:01:20.000Z</time>
      </trkpt>
      <trkpt lat="47.27458" lon="-2.24785">
        <ele>14.800000190735</ele>
        <time>2022-08-14T09:01:21.000Z</time>
      </trkpt>
      <trkpt lat="47.27462" lon="-2.24785">
        <ele>15.199999809265</ele>
        <time>2022-08-14T09:01:22.000Z</time>
      </trkpt>
      <trkpt lat="47.27465" lon="-2.24786">
        <ele>15.800000190735</ele>
        <time>2022-08-14T09:01:23.000Z</time>
      </trkpt>
      <trkpt lat="47.27468" lon="-2.24786">
        <ele>15.800000190735</ele>
        <time>2022-08-14T09:01:24.000Z</time>
      </trkpt>
      <trkpt lat="47.27471" lon="-2.24786">
        <ele>16.200000762939</ele>
        <time>2022-08-14T09:01:25.000Z</time>
      </trkpt>
      <trkpt lat="47.27473" lon="-2.24785">
        <ele>16.60000038147</ele>
        <time>2022-08-14T09:01:26.000Z</time>
      </trkpt>
      <trkpt lat="47.27476" lon="-2.24785">
        <ele>17</ele>
        <time>2022-08-14T09:01:27.000Z</time>
      </trkpt>
      <trkpt lat="47.27479" lon="-2.24785">
        <ele>17.39999961853</ele>
        <time>2022-08-14T09:01:28.000Z</time>
      </trkpt>
      <trkpt lat="47.27483" lon="-2.24785">
        <ele>17.799999237061</ele>
        <time>2022-08-14T09:01:29.000Z</time>
      </trkpt>
      <trkpt lat="47.27498" lon="-2.24783">
        <ele>17.799999237061</ele>
        <time>2022-08-14T09:01:33.000Z</time>
      </trkpt>
      <trkpt lat="47.2751" lon="-2.24783">
        <ele>18.200000762939</ele>
        <time>2022-08-14T09:01:36.000Z</time>
      </trkpt>
      <trkpt lat="47.27514" lon="-2.24783">
        <ele>18.60000038147</ele>
        <time>2022-08-14T09:01:37.000Z</time>
      </trkpt>
      <trkpt lat="47.27518" lon="-2.24782">
        <ele>19</ele>
        <time>2022-08-14T09:01:38.000Z</time>
      </trkpt>
      <trkpt lat="47.27522" lon="-2.24782">
        <ele>19.39999961853</ele>
        <time>2022-08-14T09:01:39.000Z</time>
      </trkpt>
      <trkpt lat="47.27525" lon="-2.24782">
        <ele>20</ele>
        <time>2022-08-14T09:01:40.000Z</time>
      </trkpt>
      <trkpt lat="47.27534" lon="-2.24781">
        <ele>20</ele>
        <time>2022-08-14T09:01:42.000Z</time>
      </trkpt>
      <trkpt lat="47.27564" lon="-2.24781">
        <ele>20</ele>
        <time>2022-08-14T09:01:49.000Z</time>
      </trkpt>
      <trkpt lat="47.27583" lon="-2.24784">
        <ele>20</ele>
        <time>2022-08-14T09:01:54.000Z</time>
      </trkpt>
      <trkpt lat="47.27606" lon="-2.24784">
        <ele>20</ele>
        <time>2022-08-14T09:01:59.000Z</time>
      </trkpt>
      <trkpt lat="47.27634" lon="-2.24788">
        <ele>20</ele>
        <time>2022-08-14T09:02:05.000Z</time>
      </trkpt>
      <trkpt lat="47.27651" lon="-2.24798">
        <ele>20</ele>
        <time>2022-08-14T09:02:08.000Z</time>
      </trkpt>
      <trkpt lat="47.27668" lon="-2.248">
        <ele>20</ele>
        <time>2022-08-14T09:02:10.000Z</time>
      </trkpt>
      <trkpt lat="47.27681" lon="-2.248">
        <ele>20</ele>
        <time>2022-08-14T09:02:12.000Z</time>
      </trkpt>
      <trkpt lat="47.27687" lon="-2.24801">
        <ele>20</ele>
        <time>2022-08-14T09:02:13.000Z</time>
      </trkpt>
      <trkpt lat="47.27707" lon="-2.24801">
        <ele>20</ele>
        <time>2022-08-14T09:02:17.000Z</time>
      </trkpt>
      <trkpt lat="47.27737" lon="-2.24801">
        <ele>20</ele>
        <time>2022-08-14T09:02:23.000Z</time>
      </trkpt>
      <trkpt lat="47.27742" lon="-2.24801">
        <ele>20</ele>
        <time>2022-08-14T09:02:25.000Z</time>
      </trkpt>
      <trkpt lat="47.27766" lon="-2.24801">
        <ele>20</ele>
        <time>2022-08-14T09:02:30.000Z</time>
      </trkpt>
      <trkpt lat="47.27799" lon="-2.248">
        <ele>20</ele>
        <time>2022-08-14T09:02:37.000Z</time>
      </trkpt>
      <trkpt lat="47.27827" lon="-2.24795">
        <ele>20</ele>
        <time>2022-08-14T09:02:43.000Z</time>
      </trkpt>
      <trkpt lat="47.27837" lon="-2.24793">
        <ele>20</ele>
        <time>2022-08-14T09:02:45.000Z</time>
      </trkpt>
      <trkpt lat="47.27845" lon="-2.24787">
        <ele>20</ele>
        <time>2022-08-14T09:02:48.000Z</time>
      </trkpt>
      <trkpt lat="47.27847" lon="-2.24786">
        <ele>20</ele>
        <time>2022-08-14T09:02:49.000Z</time>
      </trkpt>
      <trkpt lat="47.27852" lon="-2.2478">
        <ele>20</ele>
        <time>2022-08-14T09:02:53.000Z</time>
      </trkpt>
      <trkpt lat="47.27857" lon="-2.24772">
        <ele>20</ele>
        <time>2022-08-14T09:02:58.000Z</time>
      </trkpt>
      <trkpt lat="47.27859" lon="-2.24772">
        <ele>20</ele>
        <time>2022-08-14T09:02:59.000Z</time>
      </trkpt>
      <trkpt lat="47.27864" lon="-2.24774">
        <ele>20</ele>
        <time>2022-08-14T09:03:02.000Z</time>
      </trkpt>
      <trkpt lat="47.2787" lon="-2.24783">
        <ele>20</ele>
        <time>2022-08-14T09:03:06.000Z</time>
      </trkpt>
      <trkpt lat="47.27879" lon="-2.24783">
        <ele>20.39999961853</ele>
        <time>2022-08-14T09:03:10.000Z</time>
      </trkpt>
      <trkpt lat="47.27881" lon="-2.24782">
        <ele>21</ele>
        <time>2022-08-14T09:03:11.000Z</time>
      </trkpt>
      <trkpt lat="47.27882" lon="-2.24782">
        <ele>21.60000038147</ele>
        <time>2022-08-14T09:03:12.000Z</time>
      </trkpt>
      <trkpt lat="47.27884" lon="-2.24783">
        <ele>22.200000762939</ele>
        <time>2022-08-14T09:03:13.000Z</time>
      </trkpt>
      <trkpt lat="47.27886" lon="-2.24784">
        <ele>22.60000038147</ele>
        <time>2022-08-14T09:03:14.000Z</time>
      </trkpt>
      <trkpt lat="47.27889" lon="-2.24786">
        <ele>22.60000038147</ele>
        <time>2022-08-14T09:03:16.000Z</time>
      </trkpt>
      <trkpt lat="47.27891" lon="-2.2479">
        <ele>22.60000038147</ele>
        <time>2022-08-14T09:03:19.000Z</time>
      </trkpt>
      <trkpt lat="47.27894" lon="-2.24795">
        <ele>22.60000038147</ele>
        <time>2022-08-14T09:03:55.000Z</time>
      </trkpt>
      <trkpt lat="47.27901" lon="-2.24801">
        <ele>22.60000038147</ele>
        <time>2022-08-14T09:03:58.000Z</time>
      </trkpt>
      <trkpt lat="47.27904" lon="-2.24802">
        <ele>22.60000038147</ele>
        <time>2022-08-14T09:03:59.000Z</time>
      </trkpt>
      <trkpt lat="47.27916" lon="-2.24809">
        <ele>22.60000038147</ele>
        <time>2022-08-14T09:04:02.000Z</time>
      </trkpt>
      <trkpt lat="47.27924" lon="-2.24815">
        <ele>22.60000038147</ele>
        <time>2022-08-14T09:04:04.000Z</time>
      </trkpt>
      <trkpt lat="47.27936" lon="-2.24818">
        <ele>22.60000038147</ele>
        <time>2022-08-14T09:04:07.000Z</time>
      </trkpt>
      <trkpt lat="47.2794" lon="-2.2482">
        <ele>22.60000038147</ele>
        <time>2022-08-14T09:04:08.000Z</time>
      </trkpt>
      <trkpt lat="47.27949" lon="-2.24821">
        <ele>22.60000038147</ele>
        <time>2022-08-14T09:04:10.000Z</time>
      </trkpt>
      <trkpt lat="47.27959" lon="-2.24822">
        <ele>22.60000038147</ele>
        <time>2022-08-14T09:04:12.000Z</time>
      </trkpt>
      <trkpt lat="47.27969" lon="-2.24825">
        <ele>22.60000038147</ele>
        <time>2022-08-14T09:04:14.000Z</time>
      </trkpt>
      <trkpt lat="47.27985" lon="-2.2483">
        <ele>22.60000038147</ele>
        <time>2022-08-14T09:04:17.000Z</time>
      </trkpt>
      <trkpt lat="47.27991" lon="-2.2483">
        <ele>22.60000038147</ele>
        <time>2022-08-14T09:04:18.000Z</time>
      </trkpt>
      <trkpt lat="47.28016" lon="-2.24834">
        <ele>22.60000038147</ele>
        <time>2022-08-14T09:04:23.000Z</time>
      </trkpt>
      <trkpt lat="47.28031" lon="-2.24837">
        <ele>22.60000038147</ele>
        <time>2022-08-14T09:04:26.000Z</time>
      </trkpt>
      <trkpt lat="47.28042" lon="-2.24839">
        <ele>22.60000038147</ele>
        <time>2022-08-14T09:04:28.000Z</time>
      </trkpt>
      <trkpt lat="47.28065" lon="-2.24846">
        <ele>22.60000038147</ele>
        <time>2022-08-14T09:04:32.000Z</time>
      </trkpt>
      <trkpt lat="47.28077" lon="-2.24844">
        <ele>22.60000038147</ele>
        <time>2022-08-14T09:04:34.000Z</time>
      </trkpt>
      <trkpt lat="47.28087" lon="-2.24844">
        <ele>22.60000038147</ele>
        <time>2022-08-14T09:04:36.000Z</time>
      </trkpt>
      <trkpt lat="47.28093" lon="-2.24845">
        <ele>22.60000038147</ele>
        <time>2022-08-14T09:04:37.000Z</time>
      </trkpt>
      <trkpt lat="47.28112" lon="-2.24854">
        <ele>22.60000038147</ele>
        <time>2022-08-14T09:04:40.000Z</time>
      </trkpt>
      <trkpt lat="47.2812" lon="-2.24855">
        <ele>22.60000038147</ele>
        <time>2022-08-14T09:04:41.000Z</time>
      </trkpt>
      <trkpt lat="47.28135" lon="-2.24856">
        <ele>22.60000038147</ele>
        <time>2022-08-14T09:04:43.000Z</time>
      </trkpt>
      <trkpt lat="47.28142" lon="-2.24856">
        <ele>22.200000762939</ele>
        <time>2022-08-14T09:04:44.000Z</time>
      </trkpt>
      <trkpt lat="47.28147" lon="-2.24854">
        <ele>21.799999237061</ele>
        <time>2022-08-14T09:04:45.000Z</time>
      </trkpt>
      <trkpt lat="47.28151" lon="-2.24852">
        <ele>21.39999961853</ele>
        <time>2022-08-14T09:04:46.000Z</time>
      </trkpt>
      <trkpt lat="47.28155" lon="-2.24849">
        <ele>21</ele>
        <time>2022-08-14T09:04:47.000Z</time>
      </trkpt>
      <trkpt lat="47.28159" lon="-2.24845">
        <ele>20.60000038147</ele>
        <time>2022-08-14T09:04:48.000Z</time>
      </trkpt>
      <trkpt lat="47.28164" lon="-2.24837">
        <ele>20.60000038147</ele>
        <time>2022-08-14T09:04:50.000Z</time>
      </trkpt>
      <trkpt lat="47.28166" lon="-2.24815">
        <ele>20.60000038147</ele>
        <time>2022-08-14T09:04:55.000Z</time>
      </trkpt>
      <trkpt lat="47.28168" lon="-2.24812">
        <ele>20</ele>
        <time>2022-08-14T09:04:56.000Z</time>
      </trkpt>
      <trkpt lat="47.28171" lon="-2.24811">
        <ele>19.60000038147</ele>
        <time>2022-08-14T09:04:57.000Z</time>
      </trkpt>
      <trkpt lat="47.28174" lon="-2.2481">
        <ele>19.200000762939</ele>
        <time>2022-08-14T09:04:58.000Z</time>
      </trkpt>
      <trkpt lat="47.28178" lon="-2.2481">
        <ele>18.799999237061</ele>
        <time>2022-08-14T09:04:59.000Z</time>
      </trkpt>
      <trkpt lat="47.28184" lon="-2.2481">
        <ele>18</ele>
        <time>2022-08-14T09:05:00.000Z</time>
      </trkpt>
      <trkpt lat="47.2819" lon="-2.2481">
        <ele>17.60000038147</ele>
        <time>2022-08-14T09:05:01.000Z</time>
      </trkpt>
      <trkpt lat="47.28197" lon="-2.24811">
        <ele>17.200000762939</ele>
        <time>2022-08-14T09:05:02.000Z</time>
      </trkpt>
      <trkpt lat="47.28205" lon="-2.24813">
        <ele>16.39999961853</ele>
        <time>2022-08-14T09:05:03.000Z</time>
      </trkpt>
      <trkpt lat="47.28214" lon="-2.24815">
        <ele>15.800000190735</ele>
        <time>2022-08-14T09:05:04.000Z</time>
      </trkpt>
      <trkpt lat="47.28221" lon="-2.24816">
        <ele>15</ele>
        <time>2022-08-14T09:05:05.000Z</time>
      </trkpt>
      <trkpt lat="47.28228" lon="-2.24816">
        <ele>14.199999809265</ele>
        <time>2022-08-14T09:05:06.000Z</time>
      </trkpt>
      <trkpt lat="47.28236" lon="-2.24814">
        <ele>13.60000038147</ele>
        <time>2022-08-14T09:05:07.000Z</time>
      </trkpt>
      <trkpt lat="47.28242" lon="-2.24811">
        <ele>13</ele>
        <time>2022-08-14T09:05:08.000Z</time>
      </trkpt>
      <trkpt lat="47.28249" lon="-2.24807">
        <ele>12.39999961853</ele>
        <time>2022-08-14T09:05:09.000Z</time>
      </trkpt>
      <trkpt lat="47.28254" lon="-2.24804">
        <ele>11.800000190735</ele>
        <time>2022-08-14T09:05:10.000Z</time>
      </trkpt>
      <trkpt lat="47.28261" lon="-2.248">
        <ele>11</ele>
        <time>2022-08-14T09:05:11.000Z</time>
      </trkpt>
      <trkpt lat="47.28267" lon="-2.24796">
        <ele>11</ele>
        <time>2022-08-14T09:05:12.000Z</time>
      </trkpt>
      <trkpt lat="47.28294" lon="-2.24778">
        <ele>11</ele>
        <time>2022-08-14T09:05:16.000Z</time>
      </trkpt>
      <trkpt lat="47.28302" lon="-2.24774">
        <ele>10.60000038147</ele>
        <time>2022-08-14T09:05:17.000Z</time>
      </trkpt>
      <trkpt lat="47.28309" lon="-2.2477">
        <ele>10.199999809265</ele>
        <time>2022-08-14T09:05:18.000Z</time>
      </trkpt>
      <trkpt lat="47.28317" lon="-2.24767">
        <ele>9.6000003814697</ele>
        <time>2022-08-14T09:05:19.000Z</time>
      </trkpt>
      <trkpt lat="47.28324" lon="-2.24764">
        <ele>9.1999998092651</ele>
        <time>2022-08-14T09:05:20.000Z</time>
      </trkpt>
      <trkpt lat="47.28332" lon="-2.24762">
        <ele>8.6000003814697</ele>
        <time>2022-08-14T09:05:21.000Z</time>
      </trkpt>
      <trkpt lat="47.28349" lon="-2.24756">
        <ele>8.6000003814697</ele>
        <time>2022-08-14T09:05:24.000Z</time>
      </trkpt>
      <trkpt lat="47.28356" lon="-2.24747">
        <ele>8.6000003814697</ele>
        <time>2022-08-14T09:05:27.000Z</time>
      </trkpt>
      <trkpt lat="47.28364" lon="-2.24752">
        <ele>8.1999998092651</ele>
        <time>2022-08-14T09:05:31.000Z</time>
      </trkpt>
      <trkpt lat="47.28364" lon="-2.24758">
        <ele>7.8000001907349</ele>
        <time>2022-08-14T09:05:32.000Z</time>
      </trkpt>
      <trkpt lat="47.28365" lon="-2.24764">
        <ele>7.4000000953674</ele>
        <time>2022-08-14T09:05:33.000Z</time>
      </trkpt>
      <trkpt lat="47.28367" lon="-2.2477">
        <ele>7</ele>
        <time>2022-08-14T09:05:34.000Z</time>
      </trkpt>
      <trkpt lat="47.2837" lon="-2.24774">
        <ele>6.5999999046326</ele>
        <time>2022-08-14T09:05:35.000Z</time>
      </trkpt>
      <trkpt lat="47.28381" lon="-2.24781">
        <ele>6.5999999046326</ele>
        <time>2022-08-14T09:05:38.000Z</time>
      </trkpt>
      <trkpt lat="47.28387" lon="-2.24802">
        <ele>6.5999999046326</ele>
        <time>2022-08-14T09:05:41.000Z</time>
      </trkpt>
      <trkpt lat="47.28389" lon="-2.24809">
        <ele>6.5999999046326</ele>
        <time>2022-08-14T09:05:42.000Z</time>
      </trkpt>
      <trkpt lat="47.28396" lon="-2.24821">
        <ele>6.1999998092651</ele>
        <time>2022-08-14T09:05:44.000Z</time>
      </trkpt>
      <trkpt lat="47.28399" lon="-2.24826">
        <ele>5.8000001907349</ele>
        <time>2022-08-14T09:05:45.000Z</time>
      </trkpt>
      <trkpt lat="47.28404" lon="-2.24827">
        <ele>5.4000000953674</ele>
        <time>2022-08-14T09:05:46.000Z</time>
      </trkpt>
      <trkpt lat="47.28408" lon="-2.24825">
        <ele>5</ele>
        <time>2022-08-14T09:05:47.000Z</time>
      </trkpt>
      <trkpt lat="47.28413" lon="-2.24821">
        <ele>4.4000000953674</ele>
        <time>2022-08-14T09:05:48.000Z</time>
      </trkpt>
      <trkpt lat="47.28419" lon="-2.24818">
        <ele>4.4000000953674</ele>
        <time>2022-08-14T09:05:50.000Z</time>
      </trkpt>
      <trkpt lat="47.28432" lon="-2.24813">
        <ele>4.4000000953674</ele>
        <time>2022-08-14T09:05:55.000Z</time>
      </trkpt>
      <trkpt lat="47.28456" lon="-2.248">
        <ele>4.4000000953674</ele>
        <time>2022-08-14T09:06:00.000Z</time>
      </trkpt>
      <trkpt lat="47.28473" lon="-2.24793">
        <ele>4.4000000953674</ele>
        <time>2022-08-14T09:06:03.000Z</time>
      </trkpt>
      <trkpt lat="47.28485" lon="-2.24787">
        <ele>4.4000000953674</ele>
        <time>2022-08-14T09:06:05.000Z</time>
      </trkpt>
      <trkpt lat="47.28506" lon="-2.24773">
        <ele>4.4000000953674</ele>
        <time>2022-08-14T09:06:09.000Z</time>
      </trkpt>
      <trkpt lat="47.28517" lon="-2.24767">
        <ele>4.4000000953674</ele>
        <time>2022-08-14T09:06:11.000Z</time>
      </trkpt>
      <trkpt lat="47.28545" lon="-2.24751">
        <ele>4.4000000953674</ele>
        <time>2022-08-14T09:06:16.000Z</time>
      </trkpt>
      <trkpt lat="47.28551" lon="-2.24748">
        <ele>4.4000000953674</ele>
        <time>2022-08-14T09:06:17.000Z</time>
      </trkpt>
      <trkpt lat="47.28567" lon="-2.24741">
        <ele>4.4000000953674</ele>
        <time>2022-08-14T09:06:20.000Z</time>
      </trkpt>
      <trkpt lat="47.28578" lon="-2.24737">
        <ele>4.4000000953674</ele>
        <time>2022-08-14T09:06:22.000Z</time>
      </trkpt>
      <trkpt lat="47.28584" lon="-2.24736">
        <ele>4.4000000953674</ele>
        <time>2022-08-14T09:06:23.000Z</time>
      </trkpt>
      <trkpt lat="47.28608" lon="-2.24731">
        <ele>4.4000000953674</ele>
        <time>2022-08-14T09:06:27.000Z</time>
      </trkpt>
      <trkpt lat="47.28637" lon="-2.24724">
        <ele>4.4000000953674</ele>
        <time>2022-08-14T09:06:33.000Z</time>
      </trkpt>
      <trkpt lat="47.28648" lon="-2.2472">
        <ele>4.4000000953674</ele>
        <time>2022-08-14T09:06:38.000Z</time>
      </trkpt>
      <trkpt lat="47.28654" lon="-2.24715">
        <ele>4.4000000953674</ele>
        <time>2022-08-14T09:06:43.000Z</time>
      </trkpt>
      <trkpt lat="47.2866" lon="-2.24714">
        <ele>4.4000000953674</ele>
        <time>2022-08-14T09:06:46.000Z</time>
      </trkpt>
      <trkpt lat="47.28666" lon="-2.24714">
        <ele>4.4000000953674</ele>
        <time>2022-08-14T09:06:48.000Z</time>
      </trkpt>
      <trkpt lat="47.28672" lon="-2.2471">
        <ele>4.4000000953674</ele>
        <time>2022-08-14T09:06:50.000Z</time>
      </trkpt>
      <trkpt lat="47.28679" lon="-2.24707">
        <ele>4.4000000953674</ele>
        <time>2022-08-14T09:06:52.000Z</time>
      </trkpt>
      <trkpt lat="47.28689" lon="-2.24696">
        <ele>4.4000000953674</ele>
        <time>2022-08-14T09:06:55.000Z</time>
      </trkpt>
      <trkpt lat="47.28692" lon="-2.2469">
        <ele>4.4000000953674</ele>
        <time>2022-08-14T09:06:56.000Z</time>
      </trkpt>
      <trkpt lat="47.28713" lon="-2.24655">
        <ele>4.4000000953674</ele>
        <time>2022-08-14T09:07:02.000Z</time>
      </trkpt>
      <trkpt lat="47.28715" lon="-2.24649">
        <ele>4.4000000953674</ele>
        <time>2022-08-14T09:07:03.000Z</time>
      </trkpt>
      <trkpt lat="47.28723" lon="-2.24624">
        <ele>4.4000000953674</ele>
        <time>2022-08-14T09:07:07.000Z</time>
      </trkpt>
      <trkpt lat="47.28726" lon="-2.24619">
        <ele>4.4000000953674</ele>
        <time>2022-08-14T09:07:08.000Z</time>
      </trkpt>
      <trkpt lat="47.28732" lon="-2.24606">
        <ele>4.4000000953674</ele>
        <time>2022-08-14T09:07:10.000Z</time>
      </trkpt>
      <trkpt lat="47.28748" lon="-2.24566">
        <ele>4.4000000953674</ele>
        <time>2022-08-14T09:07:15.000Z</time>
      </trkpt>
      <trkpt lat="47.28758" lon="-2.24534">
        <ele>4.4000000953674</ele>
        <time>2022-08-14T09:07:19.000Z</time>
      </trkpt>
      <trkpt lat="47.28762" lon="-2.2452">
        <ele>4.4000000953674</ele>
        <time>2022-08-14T09:07:21.000Z</time>
      </trkpt>
      <trkpt lat="47.2877" lon="-2.24499">
        <ele>4.4000000953674</ele>
        <time>2022-08-14T09:07:24.000Z</time>
      </trkpt>
      <trkpt lat="47.28772" lon="-2.24492">
        <ele>4.4000000953674</ele>
        <time>2022-08-14T09:07:25.000Z</time>
      </trkpt>
      <trkpt lat="47.2878" lon="-2.24469">
        <ele>4.4000000953674</ele>
        <time>2022-08-14T09:07:28.000Z</time>
      </trkpt>
      <trkpt lat="47.28787" lon="-2.24457">
        <ele>4.4000000953674</ele>
        <time>2022-08-14T09:07:30.000Z</time>
      </trkpt>
      <trkpt lat="47.28788" lon="-2.2445">
        <ele>4.4000000953674</ele>
        <time>2022-08-14T09:07:31.000Z</time>
      </trkpt>
      <trkpt lat="47.28796" lon="-2.24429">
        <ele>4.4000000953674</ele>
        <time>2022-08-14T09:07:34.000Z</time>
      </trkpt>
      <trkpt lat="47.28801" lon="-2.24414">
        <ele>4.4000000953674</ele>
        <time>2022-08-14T09:07:36.000Z</time>
      </trkpt>
      <trkpt lat="47.28807" lon="-2.244">
        <ele>4.4000000953674</ele>
        <time>2022-08-14T09:07:38.000Z</time>
      </trkpt>
      <trkpt lat="47.28809" lon="-2.24393">
        <ele>4.4000000953674</ele>
        <time>2022-08-14T09:07:39.000Z</time>
      </trkpt>
      <trkpt lat="47.28813" lon="-2.24379">
        <ele>4.4000000953674</ele>
        <time>2022-08-14T09:07:41.000Z</time>
      </trkpt>
      <trkpt lat="47.28816" lon="-2.24372">
        <ele>5</ele>
        <time>2022-08-14T09:07:42.000Z</time>
      </trkpt>
      <trkpt lat="47.28817" lon="-2.24365">
        <ele>5.4000000953674</ele>
        <time>2022-08-14T09:07:43.000Z</time>
      </trkpt>
      <trkpt lat="47.28818" lon="-2.24359">
        <ele>5.8000001907349</ele>
        <time>2022-08-14T09:07:44.000Z</time>
      </trkpt>
      <trkpt lat="47.28819" lon="-2.24353">
        <ele>6.1999998092651</ele>
        <time>2022-08-14T09:07:45.000Z</time>
      </trkpt>
      <trkpt lat="47.2882" lon="-2.24347">
        <ele>6.8000001907349</ele>
        <time>2022-08-14T09:07:46.000Z</time>
      </trkpt>
      <trkpt lat="47.28822" lon="-2.2434">
        <ele>7.4000000953674</ele>
        <time>2022-08-14T09:07:47.000Z</time>
      </trkpt>
      <trkpt lat="47.28824" lon="-2.24334">
        <ele>8</ele>
        <time>2022-08-14T09:07:48.000Z</time>
      </trkpt>
      <trkpt lat="47.28826" lon="-2.24327">
        <ele>8.3999996185303</ele>
        <time>2022-08-14T09:07:49.000Z</time>
      </trkpt>
      <trkpt lat="47.28828" lon="-2.2432">
        <ele>9</ele>
        <time>2022-08-14T09:07:50.000Z</time>
      </trkpt>
      <trkpt lat="47.28835" lon="-2.24293">
        <ele>9</ele>
        <time>2022-08-14T09:07:54.000Z</time>
      </trkpt>
      <trkpt lat="47.28841" lon="-2.2426">
        <ele>9</ele>
        <time>2022-08-14T09:07:58.000Z</time>
      </trkpt>
      <trkpt lat="47.28849" lon="-2.2423">
        <ele>9</ele>
        <time>2022-08-14T09:08:02.000Z</time>
      </trkpt>
      <trkpt lat="47.28851" lon="-2.24224">
        <ele>9</ele>
        <time>2022-08-14T09:08:03.000Z</time>
      </trkpt>
      <trkpt lat="47.28854" lon="-2.2422">
        <ele>9</ele>
        <time>2022-08-14T09:08:04.000Z</time>
      </trkpt>
      <trkpt lat="47.28858" lon="-2.24203">
        <ele>9</ele>
        <time>2022-08-14T09:08:07.000Z</time>
      </trkpt>
      <trkpt lat="47.28862" lon="-2.24191">
        <ele>9</ele>
        <time>2022-08-14T09:08:09.000Z</time>
      </trkpt>
      <trkpt lat="47.28868" lon="-2.24171">
        <ele>9</ele>
        <time>2022-08-14T09:08:12.000Z</time>
      </trkpt>
      <trkpt lat="47.28882" lon="-2.24126">
        <ele>9</ele>
        <time>2022-08-14T09:08:19.000Z</time>
      </trkpt>
      <trkpt lat="47.28884" lon="-2.24119">
        <ele>9.3999996185303</ele>
        <time>2022-08-14T09:08:20.000Z</time>
      </trkpt>
      <trkpt lat="47.28886" lon="-2.24112">
        <ele>9.8000001907349</ele>
        <time>2022-08-14T09:08:21.000Z</time>
      </trkpt>
      <trkpt lat="47.28888" lon="-2.24105">
        <ele>10.199999809265</ele>
        <time>2022-08-14T09:08:22.000Z</time>
      </trkpt>
      <trkpt lat="47.28889" lon="-2.24097">
        <ele>10.60000038147</ele>
        <time>2022-08-14T09:08:23.000Z</time>
      </trkpt>
      <trkpt lat="47.28891" lon="-2.24089">
        <ele>11</ele>
        <time>2022-08-14T09:08:24.000Z</time>
      </trkpt>
      <trkpt lat="47.28893" lon="-2.24082">
        <ele>11</ele>
        <time>2022-08-14T09:08:25.000Z</time>
      </trkpt>
      <trkpt lat="47.28896" lon="-2.24066">
        <ele>11</ele>
        <time>2022-08-14T09:08:27.000Z</time>
      </trkpt>
      <trkpt lat="47.28899" lon="-2.24041">
        <ele>11</ele>
        <time>2022-08-14T09:08:30.000Z</time>
      </trkpt>
      <trkpt lat="47.28906" lon="-2.24012">
        <ele>11</ele>
        <time>2022-08-14T09:08:34.000Z</time>
      </trkpt>
      <trkpt lat="47.28912" lon="-2.23991">
        <ele>11</ele>
        <time>2022-08-14T09:08:37.000Z</time>
      </trkpt>
      <trkpt lat="47.28916" lon="-2.23977">
        <ele>11</ele>
        <time>2022-08-14T09:08:39.000Z</time>
      </trkpt>
      <trkpt lat="47.28924" lon="-2.23948">
        <ele>11</ele>
        <time>2022-08-14T09:08:43.000Z</time>
      </trkpt>
      <trkpt lat="47.28928" lon="-2.23932">
        <ele>11</ele>
        <time>2022-08-14T09:08:45.000Z</time>
      </trkpt>
      <trkpt lat="47.28942" lon="-2.2388">
        <ele>11</ele>
        <time>2022-08-14T09:08:52.000Z</time>
      </trkpt>
      <trkpt lat="47.28958" lon="-2.23821">
        <ele>11</ele>
        <time>2022-08-14T09:09:00.000Z</time>
      </trkpt>
      <trkpt lat="47.2896" lon="-2.23813">
        <ele>11</ele>
        <time>2022-08-14T09:09:01.000Z</time>
      </trkpt>
      <trkpt lat="47.28965" lon="-2.23779">
        <ele>11</ele>
        <time>2022-08-14T09:09:05.000Z</time>
      </trkpt>
      <trkpt lat="47.28976" lon="-2.23727">
        <ele>11</ele>
        <time>2022-08-14T09:09:11.000Z</time>
      </trkpt>
      <trkpt lat="47.28983" lon="-2.23682">
        <ele>11</ele>
        <time>2022-08-14T09:09:18.000Z</time>
      </trkpt>
      <trkpt lat="47.28982" lon="-2.23679">
        <ele>11</ele>
        <time>2022-08-14T09:09:19.000Z</time>
      </trkpt>
      <trkpt lat="47.28981" lon="-2.23678">
        <ele>11</ele>
        <time>2022-08-14T09:09:21.000Z</time>
      </trkpt>
      <trkpt lat="47.28981" lon="-2.23677">
        <ele>11</ele>
        <time>2022-08-14T09:09:28.000Z</time>
      </trkpt>
      <trkpt lat="47.2898" lon="-2.23672">
        <ele>11</ele>
        <time>2022-08-14T09:09:31.000Z</time>
      </trkpt>
      <trkpt lat="47.28978" lon="-2.23662">
        <ele>11</ele>
        <time>2022-08-14T09:09:35.000Z</time>
      </trkpt>
      <trkpt lat="47.28978" lon="-2.23658">
        <ele>11</ele>
        <time>2022-08-14T09:09:36.000Z</time>
      </trkpt>
      <trkpt lat="47.28977" lon="-2.23653">
        <ele>11</ele>
        <time>2022-08-14T09:09:37.000Z</time>
      </trkpt>
      <trkpt lat="47.28974" lon="-2.23625">
        <ele>11</ele>
        <time>2022-08-14T09:09:42.000Z</time>
      </trkpt>
      <trkpt lat="47.28973" lon="-2.23618">
        <ele>11</ele>
        <time>2022-08-14T09:09:43.000Z</time>
      </trkpt>
      <trkpt lat="47.28971" lon="-2.23595">
        <ele>11</ele>
        <time>2022-08-14T09:09:47.000Z</time>
      </trkpt>
      <trkpt lat="47.2897" lon="-2.23582">
        <ele>11</ele>
        <time>2022-08-14T09:09:49.000Z</time>
      </trkpt>
      <trkpt lat="47.28967" lon="-2.2353">
        <ele>11</ele>
        <time>2022-08-14T09:09:57.000Z</time>
      </trkpt>
      <trkpt lat="47.28967" lon="-2.23517">
        <ele>11</ele>
        <time>2022-08-14T09:09:59.000Z</time>
      </trkpt>
      <trkpt lat="47.28962" lon="-2.23495">
        <ele>11</ele>
        <time>2022-08-14T09:10:03.000Z</time>
      </trkpt>
      <trkpt lat="47.28959" lon="-2.23493">
        <ele>11.39999961853</ele>
        <time>2022-08-14T09:10:04.000Z</time>
      </trkpt>
      <trkpt lat="47.28955" lon="-2.23492">
        <ele>12</ele>
        <time>2022-08-14T09:10:05.000Z</time>
      </trkpt>
      <trkpt lat="47.28951" lon="-2.23491">
        <ele>12.39999961853</ele>
        <time>2022-08-14T09:10:06.000Z</time>
      </trkpt>
      <trkpt lat="47.28946" lon="-2.23492">
        <ele>12.800000190735</ele>
        <time>2022-08-14T09:10:07.000Z</time>
      </trkpt>
      <trkpt lat="47.28942" lon="-2.23494">
        <ele>13.199999809265</ele>
        <time>2022-08-14T09:10:08.000Z</time>
      </trkpt>
      <trkpt lat="47.28932" lon="-2.23497">
        <ele>13.199999809265</ele>
        <time>2022-08-14T09:10:10.000Z</time>
      </trkpt>
      <trkpt lat="47.28908" lon="-2.23505">
        <ele>13.199999809265</ele>
        <time>2022-08-14T09:10:14.000Z</time>
      </trkpt>
      <trkpt lat="47.28902" lon="-2.23506">
        <ele>13.199999809265</ele>
        <time>2022-08-14T09:10:15.000Z</time>
      </trkpt>
      <trkpt lat="47.2889" lon="-2.23506">
        <ele>13.199999809265</ele>
        <time>2022-08-14T09:10:17.000Z</time>
      </trkpt>
      <trkpt lat="47.28872" lon="-2.23505">
        <ele>13.199999809265</ele>
        <time>2022-08-14T09:10:20.000Z</time>
      </trkpt>
      <trkpt lat="47.28844" lon="-2.23509">
        <ele>12.800000190735</ele>
        <time>2022-08-14T09:10:24.000Z</time>
      </trkpt>
      <trkpt lat="47.28837" lon="-2.23508">
        <ele>12.39999961853</ele>
        <time>2022-08-14T09:10:25.000Z</time>
      </trkpt>
      <trkpt lat="47.2883" lon="-2.23508">
        <ele>12</ele>
        <time>2022-08-14T09:10:26.000Z</time>
      </trkpt>
      <trkpt lat="47.28823" lon="-2.23509">
        <ele>11.39999961853</ele>
        <time>2022-08-14T09:10:27.000Z</time>
      </trkpt>
      <trkpt lat="47.28816" lon="-2.23509">
        <ele>11</ele>
        <time>2022-08-14T09:10:28.000Z</time>
      </trkpt>
      <trkpt lat="47.28796" lon="-2.23513">
        <ele>11</ele>
        <time>2022-08-14T09:10:31.000Z</time>
      </trkpt>
      <trkpt lat="47.28789" lon="-2.23516">
        <ele>10.60000038147</ele>
        <time>2022-08-14T09:10:32.000Z</time>
      </trkpt>
      <trkpt lat="47.28782" lon="-2.23518">
        <ele>10.199999809265</ele>
        <time>2022-08-14T09:10:33.000Z</time>
      </trkpt>
      <trkpt lat="47.28774" lon="-2.2352">
        <ele>9.8000001907349</ele>
        <time>2022-08-14T09:10:34.000Z</time>
      </trkpt>
      <trkpt lat="47.28767" lon="-2.23525">
        <ele>9.3999996185303</ele>
        <time>2022-08-14T09:10:35.000Z</time>
      </trkpt>
      <trkpt lat="47.2876" lon="-2.23528">
        <ele>9</ele>
        <time>2022-08-14T09:10:36.000Z</time>
      </trkpt>
      <trkpt lat="47.28741" lon="-2.23543">
        <ele>8.6000003814697</ele>
        <time>2022-08-14T09:10:39.000Z</time>
      </trkpt>
      <trkpt lat="47.28735" lon="-2.2355">
        <ele>8.1999998092651</ele>
        <time>2022-08-14T09:10:40.000Z</time>
      </trkpt>
      <trkpt lat="47.28729" lon="-2.23556">
        <ele>7.5999999046326</ele>
        <time>2022-08-14T09:10:41.000Z</time>
      </trkpt>
      <trkpt lat="47.28723" lon="-2.23564">
        <ele>7.1999998092651</ele>
        <time>2022-08-14T09:10:42.000Z</time>
      </trkpt>
      <trkpt lat="47.28719" lon="-2.23572">
        <ele>6.8000001907349</ele>
        <time>2022-08-14T09:10:43.000Z</time>
      </trkpt>
      <trkpt lat="47.2871" lon="-2.23585">
        <ele>6.8000001907349</ele>
        <time>2022-08-14T09:10:45.000Z</time>
      </trkpt>
      <trkpt lat="47.28706" lon="-2.23588">
        <ele>6</ele>
        <time>2022-08-14T09:10:46.000Z</time>
      </trkpt>
      <trkpt lat="47.28701" lon="-2.23592">
        <ele>5.5999999046326</ele>
        <time>2022-08-14T09:10:47.000Z</time>
      </trkpt>
      <trkpt lat="47.28696" lon="-2.23594">
        <ele>5</ele>
        <time>2022-08-14T09:10:48.000Z</time>
      </trkpt>
      <trkpt lat="47.28691" lon="-2.23592">
        <ele>4.5999999046326</ele>
        <time>2022-08-14T09:10:49.000Z</time>
      </trkpt>
      <trkpt lat="47.28686" lon="-2.23591">
        <ele>4.5999999046326</ele>
        <time>2022-08-14T09:10:50.000Z</time>
      </trkpt>
      <trkpt lat="47.2868" lon="-2.23583">
        <ele>4.5999999046326</ele>
        <time>2022-08-14T09:10:52.000Z</time>
      </trkpt>
      <trkpt lat="47.28672" lon="-2.23572">
        <ele>4.5999999046326</ele>
        <time>2022-08-14T09:10:55.000Z</time>
      </trkpt>
      <trkpt lat="47.28659" lon="-2.2356">
        <ele>4.5999999046326</ele>
        <time>2022-08-14T09:11:00.000Z</time>
      </trkpt>
      <trkpt lat="47.28652" lon="-2.23553">
        <ele>4.5999999046326</ele>
        <time>2022-08-14T09:11:04.000Z</time>
      </trkpt>
      <trkpt lat="47.28651" lon="-2.23551">
        <ele>4.5999999046326</ele>
        <time>2022-08-14T09:11:05.000Z</time>
      </trkpt>
      <trkpt lat="47.2865" lon="-2.23549">
        <ele>4.5999999046326</ele>
        <time>2022-08-14T09:11:07.000Z</time>
      </trkpt>
      <trkpt lat="47.28649" lon="-2.23542">
        <ele>4.5999999046326</ele>
        <time>2022-08-14T09:11:10.000Z</time>
      </trkpt>
      <trkpt lat="47.28648" lon="-2.23524">
        <ele>4.5999999046326</ele>
        <time>2022-08-14T09:11:16.000Z</time>
      </trkpt>
      <trkpt lat="47.28649" lon="-2.23501">
        <ele>4.5999999046326</ele>
        <time>2022-08-14T09:11:21.000Z</time>
      </trkpt>
      <trkpt lat="47.2865" lon="-2.23494">
        <ele>4.5999999046326</ele>
        <time>2022-08-14T09:11:22.000Z</time>
      </trkpt>
      <trkpt lat="47.2865" lon="-2.23472">
        <ele>4.5999999046326</ele>
        <time>2022-08-14T09:11:25.000Z</time>
      </trkpt>
      <trkpt lat="47.28649" lon="-2.23458">
        <ele>4.5999999046326</ele>
        <time>2022-08-14T09:11:27.000Z</time>
      </trkpt>
      <trkpt lat="47.28643" lon="-2.23436">
        <ele>4.5999999046326</ele>
        <time>2022-08-14T09:11:30.000Z</time>
      </trkpt>
      <trkpt lat="47.28635" lon="-2.23411">
        <ele>4.5999999046326</ele>
        <time>2022-08-14T09:11:33.000Z</time>
      </trkpt>
      <trkpt lat="47.28634" lon="-2.23402">
        <ele>4.5999999046326</ele>
        <time>2022-08-14T09:11:34.000Z</time>
      </trkpt>
      <trkpt lat="47.28638" lon="-2.23372">
        <ele>4.5999999046326</ele>
        <time>2022-08-14T09:11:38.000Z</time>
      </trkpt>
      <trkpt lat="47.28648" lon="-2.23364">
        <ele>4.5999999046326</ele>
        <time>2022-08-14T09:11:41.000Z</time>
      </trkpt>
      <trkpt lat="47.28658" lon="-2.2336">
        <ele>4.5999999046326</ele>
        <time>2022-08-14T09:11:45.000Z</time>
      </trkpt>
      <trkpt lat="47.28661" lon="-2.23344">
        <ele>4.5999999046326</ele>
        <time>2022-08-14T09:11:48.000Z</time>
      </trkpt>
      <trkpt lat="47.28665" lon="-2.23324">
        <ele>4.5999999046326</ele>
        <time>2022-08-14T09:11:52.000Z</time>
      </trkpt>
      <trkpt lat="47.28669" lon="-2.23309">
        <ele>4.5999999046326</ele>
        <time>2022-08-14T09:11:57.000Z</time>
      </trkpt>
      <trkpt lat="47.28669" lon="-2.23289">
        <ele>4.5999999046326</ele>
        <time>2022-08-14T09:12:02.000Z</time>
      </trkpt>
      <trkpt lat="47.28668" lon="-2.23283">
        <ele>4.5999999046326</ele>
        <time>2022-08-14T09:12:03.000Z</time>
      </trkpt>
      <trkpt lat="47.28669" lon="-2.23276">
        <ele>4.5999999046326</ele>
        <time>2022-08-14T09:12:05.000Z</time>
      </trkpt>
      <trkpt lat="47.28673" lon="-2.2326">
        <ele>4.5999999046326</ele>
        <time>2022-08-14T09:12:09.000Z</time>
      </trkpt>
      <trkpt lat="47.28679" lon="-2.23255">
        <ele>5.1999998092651</ele>
        <time>2022-08-14T09:12:11.000Z</time>
      </trkpt>
      <trkpt lat="47.28679" lon="-2.23253">
        <ele>5.5999999046326</ele>
        <time>2022-08-14T09:12:12.000Z</time>
      </trkpt>
      <trkpt lat="47.2868" lon="-2.23249">
        <ele>6.1999998092651</ele>
        <time>2022-08-14T09:12:13.000Z</time>
      </trkpt>
      <trkpt lat="47.28679" lon="-2.23246">
        <ele>6.8000001907349</ele>
        <time>2022-08-14T09:12:14.000Z</time>
      </trkpt>
      <trkpt lat="47.28678" lon="-2.23242">
        <ele>7.1999998092651</ele>
        <time>2022-08-14T09:12:15.000Z</time>
      </trkpt>
      <trkpt lat="47.28678" lon="-2.23237">
        <ele>7.1999998092651</ele>
        <time>2022-08-14T09:12:16.000Z</time>
      </trkpt>
      <trkpt lat="47.28677" lon="-2.23224">
        <ele>7.1999998092651</ele>
        <time>2022-08-14T09:12:18.000Z</time>
      </trkpt>
      <trkpt lat="47.28674" lon="-2.23209">
        <ele>7.1999998092651</ele>
        <time>2022-08-14T09:12:20.000Z</time>
      </trkpt>
      <trkpt lat="47.28675" lon="-2.23201">
        <ele>6.8000001907349</ele>
        <time>2022-08-14T09:12:21.000Z</time>
      </trkpt>
      <trkpt lat="47.28673" lon="-2.23195">
        <ele>6.1999998092651</ele>
        <time>2022-08-14T09:12:22.000Z</time>
      </trkpt>
      <trkpt lat="47.28671" lon="-2.23192">
        <ele>5.5999999046326</ele>
        <time>2022-08-14T09:12:23.000Z</time>
      </trkpt>
      <trkpt lat="47.28668" lon="-2.23189">
        <ele>5.1999998092651</ele>
        <time>2022-08-14T09:12:24.000Z</time>
      </trkpt>
      <trkpt lat="47.28664" lon="-2.23187">
        <ele>4.5999999046326</ele>
        <time>2022-08-14T09:12:25.000Z</time>
      </trkpt>
      <trkpt lat="47.28661" lon="-2.23186">
        <ele>4.5999999046326</ele>
        <time>2022-08-14T09:12:26.000Z</time>
      </trkpt>
      <trkpt lat="47.28658" lon="-2.23185">
        <ele>4.5999999046326</ele>
        <time>2022-08-14T09:12:27.000Z</time>
      </trkpt>
      <trkpt lat="47.28642" lon="-2.23186">
        <ele>4.5999999046326</ele>
        <time>2022-08-14T09:12:32.000Z</time>
      </trkpt>
      <trkpt lat="47.28627" lon="-2.2319">
        <ele>4.5999999046326</ele>
        <time>2022-08-14T09:12:36.000Z</time>
      </trkpt>
      <trkpt lat="47.28609" lon="-2.23202">
        <ele>4.5999999046326</ele>
        <time>2022-08-14T09:12:40.000Z</time>
      </trkpt>
      <trkpt lat="47.28606" lon="-2.23205">
        <ele>4.5999999046326</ele>
        <time>2022-08-14T09:12:41.000Z</time>
      </trkpt>
      <trkpt lat="47.28598" lon="-2.2322">
        <ele>4.5999999046326</ele>
        <time>2022-08-14T09:12:44.000Z</time>
      </trkpt>
      <trkpt lat="47.28597" lon="-2.23225">
        <ele>4.5999999046326</ele>
        <time>2022-08-14T09:12:45.000Z</time>
      </trkpt>
      <trkpt lat="47.2859" lon="-2.23247">
        <ele>4.5999999046326</ele>
        <time>2022-08-14T09:12:49.000Z</time>
      </trkpt>
      <trkpt lat="47.2859" lon="-2.23251">
        <ele>4.5999999046326</ele>
        <time>2022-08-14T09:12:50.000Z</time>
      </trkpt>
      <trkpt lat="47.28591" lon="-2.23267">
        <ele>4.5999999046326</ele>
        <time>2022-08-14T09:12:54.000Z</time>
      </trkpt>
      <trkpt lat="47.28592" lon="-2.23278">
        <ele>4.5999999046326</ele>
        <time>2022-08-14T09:12:56.000Z</time>
      </trkpt>
      <trkpt lat="47.28597" lon="-2.23288">
        <ele>4.5999999046326</ele>
        <time>2022-08-14T09:12:58.000Z</time>
      </trkpt>
      <trkpt lat="47.28612" lon="-2.23295">
        <ele>4.5999999046326</ele>
        <time>2022-08-14T09:13:01.000Z</time>
      </trkpt>
      <trkpt lat="47.28617" lon="-2.23297">
        <ele>4.5999999046326</ele>
        <time>2022-08-14T09:13:02.000Z</time>
      </trkpt>
      <trkpt lat="47.28624" lon="-2.23298">
        <ele>4.5999999046326</ele>
        <time>2022-08-14T09:13:03.000Z</time>
      </trkpt>
      <trkpt lat="47.28638" lon="-2.23297">
        <ele>4.5999999046326</ele>
        <time>2022-08-14T09:13:06.000Z</time>
      </trkpt>
      <trkpt lat="47.28655" lon="-2.23299">
        <ele>4.5999999046326</ele>
        <time>2022-08-14T09:13:10.000Z</time>
      </trkpt>
      <trkpt lat="47.28663" lon="-2.23299">
        <ele>4.5999999046326</ele>
        <time>2022-08-14T09:13:13.000Z</time>
      </trkpt>
      <trkpt lat="47.28664" lon="-2.23298">
        <ele>4.5999999046326</ele>
        <time>2022-08-14T09:13:14.000Z</time>
      </trkpt>
      <trkpt lat="47.28664" lon="-2.23294">
        <ele>5</ele>
        <time>2022-08-14T09:13:16.000Z</time>
      </trkpt>
      <trkpt lat="47.28663" lon="-2.23293">
        <ele>5.4000000953674</ele>
        <time>2022-08-14T09:13:17.000Z</time>
      </trkpt>
      <trkpt lat="47.28664" lon="-2.23293">
        <ele>6</ele>
        <time>2022-08-14T09:13:18.000Z</time>
      </trkpt>
      <trkpt lat="47.28663" lon="-2.23293">
        <ele>6.4000000953674</ele>
        <time>2022-08-14T09:13:19.000Z</time>
      </trkpt>
      <trkpt lat="47.28663" lon="-2.23293">
        <ele>6.8000001907349</ele>
        <time>2022-08-14T09:13:20.000Z</time>
      </trkpt>
      <trkpt lat="47.28663" lon="-2.23295">
        <ele>6.8000001907349</ele>
        <time>2022-08-14T09:13:21.000Z</time>
      </trkpt>
      <trkpt lat="47.28661" lon="-2.23298">
        <ele>6.8000001907349</ele>
        <time>2022-08-14T09:13:22.000Z</time>
      </trkpt>
      <trkpt lat="47.28659" lon="-2.233">
        <ele>6.4000000953674</ele>
        <time>2022-08-14T09:13:23.000Z</time>
      </trkpt>
      <trkpt lat="47.28659" lon="-2.23303">
        <ele>5.8000001907349</ele>
        <time>2022-08-14T09:13:24.000Z</time>
      </trkpt>
      <trkpt lat="47.28659" lon="-2.23307">
        <ele>5.4000000953674</ele>
        <time>2022-08-14T09:13:25.000Z</time>
      </trkpt>
      <trkpt lat="47.2866" lon="-2.2331">
        <ele>5</ele>
        <time>2022-08-14T09:13:26.000Z</time>
      </trkpt>
      <trkpt lat="47.28659" lon="-2.23315">
        <ele>4.4000000953674</ele>
        <time>2022-08-14T09:13:27.000Z</time>
      </trkpt>
      <trkpt lat="47.28658" lon="-2.2332">
        <ele>4.4000000953674</ele>
        <time>2022-08-14T09:13:28.000Z</time>
      </trkpt>
      <trkpt lat="47.28658" lon="-2.2333">
        <ele>4.4000000953674</ele>
        <time>2022-08-14T09:13:30.000Z</time>
      </trkpt>
      <trkpt lat="47.28656" lon="-2.2336">
        <ele>4.4000000953674</ele>
        <time>2022-08-14T09:13:35.000Z</time>
      </trkpt>
      <trkpt lat="47.28653" lon="-2.23375">
        <ele>4.4000000953674</ele>
        <time>2022-08-14T09:13:37.000Z</time>
      </trkpt>
      <trkpt lat="47.2865" lon="-2.23404">
        <ele>4.4000000953674</ele>
        <time>2022-08-14T09:13:41.000Z</time>
      </trkpt>
      <trkpt lat="47.28654" lon="-2.23434">
        <ele>4.4000000953674</ele>
        <time>2022-08-14T09:13:46.000Z</time>
      </trkpt>
      <trkpt lat="47.28659" lon="-2.23465">
        <ele>4.4000000953674</ele>
        <time>2022-08-14T09:13:51.000Z</time>
      </trkpt>
      <trkpt lat="47.28659" lon="-2.23472">
        <ele>4.4000000953674</ele>
        <time>2022-08-14T09:13:52.000Z</time>
      </trkpt>
      <trkpt lat="47.28657" lon="-2.23486">
        <ele>4.4000000953674</ele>
        <time>2022-08-14T09:13:54.000Z</time>
      </trkpt>
      <trkpt lat="47.28656" lon="-2.23505">
        <ele>4.4000000953674</ele>
        <time>2022-08-14T09:13:57.000Z</time>
      </trkpt>
      <trkpt lat="47.28654" lon="-2.2353">
        <ele>4.4000000953674</ele>
        <time>2022-08-14T09:14:01.000Z</time>
      </trkpt>
      <trkpt lat="47.28652" lon="-2.23545">
        <ele>4.4000000953674</ele>
        <time>2022-08-14T09:14:03.000Z</time>
      </trkpt>
      <trkpt lat="47.28646" lon="-2.23556">
        <ele>4.4000000953674</ele>
        <time>2022-08-14T09:14:06.000Z</time>
      </trkpt>
      <trkpt lat="47.28638" lon="-2.23565">
        <ele>4.4000000953674</ele>
        <time>2022-08-14T09:14:09.000Z</time>
      </trkpt>
      <trkpt lat="47.28632" lon="-2.23568">
        <ele>4.4000000953674</ele>
        <time>2022-08-14T09:14:12.000Z</time>
      </trkpt>
      <trkpt lat="47.28624" lon="-2.23568">
        <ele>4.4000000953674</ele>
        <time>2022-08-14T09:14:17.000Z</time>
      </trkpt>
      <trkpt lat="47.28616" lon="-2.23563">
        <ele>4.4000000953674</ele>
        <time>2022-08-14T09:14:23.000Z</time>
      </trkpt>
      <trkpt lat="47.28605" lon="-2.2356">
        <ele>4.4000000953674</ele>
        <time>2022-08-14T09:14:28.000Z</time>
      </trkpt>
      <trkpt lat="47.2859" lon="-2.23546">
        <ele>4.4000000953674</ele>
        <time>2022-08-14T09:14:33.000Z</time>
      </trkpt>
      <trkpt lat="47.28586" lon="-2.23536">
        <ele>4.4000000953674</ele>
        <time>2022-08-14T09:14:35.000Z</time>
      </trkpt>
      <trkpt lat="47.28586" lon="-2.23529">
        <ele>4.4000000953674</ele>
        <time>2022-08-14T09:14:36.000Z</time>
      </trkpt>
      <trkpt lat="47.28583" lon="-2.23495">
        <ele>4.4000000953674</ele>
        <time>2022-08-14T09:14:40.000Z</time>
      </trkpt>
      <trkpt lat="47.28582" lon="-2.23486">
        <ele>4.4000000953674</ele>
        <time>2022-08-14T09:14:41.000Z</time>
      </trkpt>
      <trkpt lat="47.28582" lon="-2.23477">
        <ele>4.4000000953674</ele>
        <time>2022-08-14T09:14:42.000Z</time>
      </trkpt>
      <trkpt lat="47.2858" lon="-2.23453">
        <ele>4.4000000953674</ele>
        <time>2022-08-14T09:14:45.000Z</time>
      </trkpt>
      <trkpt lat="47.28579" lon="-2.23439">
        <ele>4.4000000953674</ele>
        <time>2022-08-14T09:14:47.000Z</time>
      </trkpt>
      <trkpt lat="47.28577" lon="-2.2342">
        <ele>4.4000000953674</ele>
        <time>2022-08-14T09:14:50.000Z</time>
      </trkpt>
      <trkpt lat="47.28578" lon="-2.23397">
        <ele>4.4000000953674</ele>
        <time>2022-08-14T09:14:55.000Z</time>
      </trkpt>
      <trkpt lat="47.28581" lon="-2.23369">
        <ele>4.4000000953674</ele>
        <time>2022-08-14T09:15:00.000Z</time>
      </trkpt>
      <trkpt lat="47.28583" lon="-2.23347">
        <ele>4.4000000953674</ele>
        <time>2022-08-14T09:15:03.000Z</time>
      </trkpt>
      <trkpt lat="47.28582" lon="-2.23331">
        <ele>4.4000000953674</ele>
        <time>2022-08-14T09:15:05.000Z</time>
      </trkpt>
      <trkpt lat="47.28583" lon="-2.23313">
        <ele>4.4000000953674</ele>
        <time>2022-08-14T09:15:07.000Z</time>
      </trkpt>
      <trkpt lat="47.28584" lon="-2.23279">
        <ele>4.4000000953674</ele>
        <time>2022-08-14T09:15:11.000Z</time>
      </trkpt>
      <trkpt lat="47.28587" lon="-2.2326">
        <ele>4.4000000953674</ele>
        <time>2022-08-14T09:15:13.000Z</time>
      </trkpt>
      <trkpt lat="47.28592" lon="-2.23234">
        <ele>4.4000000953674</ele>
        <time>2022-08-14T09:15:16.000Z</time>
      </trkpt>
      <trkpt lat="47.28608" lon="-2.23174">
        <ele>4.4000000953674</ele>
        <time>2022-08-14T09:15:22.000Z</time>
      </trkpt>
      <trkpt lat="47.28613" lon="-2.23153">
        <ele>4.4000000953674</ele>
        <time>2022-08-14T09:15:24.000Z</time>
      </trkpt>
      <trkpt lat="47.28619" lon="-2.23123">
        <ele>4.4000000953674</ele>
        <time>2022-08-14T09:15:27.000Z</time>
      </trkpt>
      <trkpt lat="47.28625" lon="-2.23106">
        <ele>4.4000000953674</ele>
        <time>2022-08-14T09:15:29.000Z</time>
      </trkpt>
      <trkpt lat="47.2863" lon="-2.231">
        <ele>4.4000000953674</ele>
        <time>2022-08-14T09:15:30.000Z</time>
      </trkpt>
      <trkpt lat="47.28647" lon="-2.23082">
        <ele>4.4000000953674</ele>
        <time>2022-08-14T09:15:33.000Z</time>
      </trkpt>
      <trkpt lat="47.28661" lon="-2.23062">
        <ele>4.4000000953674</ele>
        <time>2022-08-14T09:15:36.000Z</time>
      </trkpt>
      <trkpt lat="47.28676" lon="-2.23045">
        <ele>4.4000000953674</ele>
        <time>2022-08-14T09:15:39.000Z</time>
      </trkpt>
      <trkpt lat="47.28683" lon="-2.23028">
        <ele>4.4000000953674</ele>
        <time>2022-08-14T09:15:41.000Z</time>
      </trkpt>
      <trkpt lat="47.28685" lon="-2.23019">
        <ele>4.4000000953674</ele>
        <time>2022-08-14T09:15:42.000Z</time>
      </trkpt>
      <trkpt lat="47.28687" lon="-2.23003">
        <ele>4.4000000953674</ele>
        <time>2022-08-14T09:15:44.000Z</time>
      </trkpt>
      <trkpt lat="47.28692" lon="-2.2296">
        <ele>4.4000000953674</ele>
        <time>2022-08-14T09:15:49.000Z</time>
      </trkpt>
      <trkpt lat="47.28691" lon="-2.22952">
        <ele>4.4000000953674</ele>
        <time>2022-08-14T09:15:50.000Z</time>
      </trkpt>
      <trkpt lat="47.28688" lon="-2.22932">
        <ele>4.4000000953674</ele>
        <time>2022-08-14T09:15:53.000Z</time>
      </trkpt>
      <trkpt lat="47.28687" lon="-2.22927">
        <ele>4.4000000953674</ele>
        <time>2022-08-14T09:15:54.000Z</time>
      </trkpt>
      <trkpt lat="47.28688" lon="-2.22921">
        <ele>4.4000000953674</ele>
        <time>2022-08-14T09:15:56.000Z</time>
      </trkpt>
      <trkpt lat="47.28689" lon="-2.22918">
        <ele>4.4000000953674</ele>
        <time>2022-08-14T09:15:57.000Z</time>
      </trkpt>
      <trkpt lat="47.28703" lon="-2.22899">
        <ele>4.4000000953674</ele>
        <time>2022-08-14T09:16:02.000Z</time>
      </trkpt>
      <trkpt lat="47.28718" lon="-2.22887">
        <ele>4.4000000953674</ele>
        <time>2022-08-14T09:16:06.000Z</time>
      </trkpt>
      <trkpt lat="47.28747" lon="-2.22876">
        <ele>4.4000000953674</ele>
        <time>2022-08-14T09:16:14.000Z</time>
      </trkpt>
      <trkpt lat="47.28769" lon="-2.2287">
        <ele>4.4000000953674</ele>
        <time>2022-08-14T09:16:20.000Z</time>
      </trkpt>
      <trkpt lat="47.28795" lon="-2.22866">
        <ele>4.4000000953674</ele>
        <time>2022-08-14T09:16:26.000Z</time>
      </trkpt>
      <trkpt lat="47.288" lon="-2.22867">
        <ele>4.4000000953674</ele>
        <time>2022-08-14T09:16:27.000Z</time>
      </trkpt>
      <trkpt lat="47.28813" lon="-2.22868">
        <ele>4</ele>
        <time>2022-08-14T09:16:30.000Z</time>
      </trkpt>
      <trkpt lat="47.28818" lon="-2.2287">
        <ele>3.2000000476837</ele>
        <time>2022-08-14T09:16:31.000Z</time>
      </trkpt>
      <trkpt lat="47.28822" lon="-2.22872">
        <ele>2.7999999523163</ele>
        <time>2022-08-14T09:16:32.000Z</time>
      </trkpt>
      <trkpt lat="47.28827" lon="-2.22874">
        <ele>2.4000000953674</ele>
        <time>2022-08-14T09:16:33.000Z</time>
      </trkpt>
      <trkpt lat="47.2886" lon="-2.22891">
        <ele>2.4000000953674</ele>
        <time>2022-08-14T09:16:40.000Z</time>
      </trkpt>
      <trkpt lat="47.28885" lon="-2.22907">
        <ele>2.4000000953674</ele>
        <time>2022-08-14T09:16:46.000Z</time>
      </trkpt>
      <trkpt lat="47.28922" lon="-2.22929">
        <ele>2.4000000953674</ele>
        <time>2022-08-14T09:16:54.000Z</time>
      </trkpt>
      <trkpt lat="47.28954" lon="-2.22948">
        <ele>2.4000000953674</ele>
        <time>2022-08-14T09:17:01.000Z</time>
      </trkpt>
      <trkpt lat="47.28987" lon="-2.22965">
        <ele>2.4000000953674</ele>
        <time>2022-08-14T09:17:08.000Z</time>
      </trkpt>
      <trkpt lat="47.28992" lon="-2.22966">
        <ele>2.4000000953674</ele>
        <time>2022-08-14T09:17:09.000Z</time>
      </trkpt>
      <trkpt lat="47.29004" lon="-2.2296">
        <ele>2.4000000953674</ele>
        <time>2022-08-14T09:17:13.000Z</time>
      </trkpt>
      <trkpt lat="47.29006" lon="-2.22959">
        <ele>2.4000000953674</ele>
        <time>2022-08-14T09:17:14.000Z</time>
      </trkpt>
      <trkpt lat="47.29019" lon="-2.22961">
        <ele>2.4000000953674</ele>
        <time>2022-08-14T09:17:18.000Z</time>
      </trkpt>
      <trkpt lat="47.29023" lon="-2.22964">
        <ele>2.4000000953674</ele>
        <time>2022-08-14T09:17:19.000Z</time>
      </trkpt>
      <trkpt lat="47.29036" lon="-2.22975">
        <ele>2.4000000953674</ele>
        <time>2022-08-14T09:17:22.000Z</time>
      </trkpt>
      <trkpt lat="47.29046" lon="-2.22994">
        <ele>2.4000000953674</ele>
        <time>2022-08-14T09:17:25.000Z</time>
      </trkpt>
      <trkpt lat="47.2905" lon="-2.23">
        <ele>2.4000000953674</ele>
        <time>2022-08-14T09:17:26.000Z</time>
      </trkpt>
      <trkpt lat="47.29064" lon="-2.23016">
        <ele>2.4000000953674</ele>
        <time>2022-08-14T09:17:29.000Z</time>
      </trkpt>
      <trkpt lat="47.29096" lon="-2.23055">
        <ele>2.4000000953674</ele>
        <time>2022-08-14T09:17:36.000Z</time>
      </trkpt>
      <trkpt lat="47.29132" lon="-2.23098">
        <ele>2.4000000953674</ele>
        <time>2022-08-14T09:17:44.000Z</time>
      </trkpt>
      <trkpt lat="47.29136" lon="-2.23104">
        <ele>2.4000000953674</ele>
        <time>2022-08-14T09:17:45.000Z</time>
      </trkpt>
      <trkpt lat="47.29149" lon="-2.2312">
        <ele>2.4000000953674</ele>
        <time>2022-08-14T09:17:48.000Z</time>
      </trkpt>
      <trkpt lat="47.29153" lon="-2.23126">
        <ele>2.4000000953674</ele>
        <time>2022-08-14T09:17:49.000Z</time>
      </trkpt>
      <trkpt lat="47.29182" lon="-2.23162">
        <ele>2.4000000953674</ele>
        <time>2022-08-14T09:17:56.000Z</time>
      </trkpt>
      <trkpt lat="47.29185" lon="-2.23169">
        <ele>2.4000000953674</ele>
        <time>2022-08-14T09:17:57.000Z</time>
      </trkpt>
      <trkpt lat="47.29201" lon="-2.23203">
        <ele>2.4000000953674</ele>
        <time>2022-08-14T09:18:02.000Z</time>
      </trkpt>
      <trkpt lat="47.29213" lon="-2.23235">
        <ele>2.4000000953674</ele>
        <time>2022-08-14T09:18:06.000Z</time>
      </trkpt>
      <trkpt lat="47.29234" lon="-2.2326">
        <ele>2.4000000953674</ele>
        <time>2022-08-14T09:18:10.000Z</time>
      </trkpt>
      <trkpt lat="47.29256" lon="-2.23292">
        <ele>2.4000000953674</ele>
        <time>2022-08-14T09:18:15.000Z</time>
      </trkpt>
      <trkpt lat="47.29259" lon="-2.23299">
        <ele>2.4000000953674</ele>
        <time>2022-08-14T09:18:16.000Z</time>
      </trkpt>
      <trkpt lat="47.29268" lon="-2.23322">
        <ele>2.4000000953674</ele>
        <time>2022-08-14T09:18:19.000Z</time>
      </trkpt>
      <trkpt lat="47.29271" lon="-2.23339">
        <ele>2.4000000953674</ele>
        <time>2022-08-14T09:18:21.000Z</time>
      </trkpt>
      <trkpt lat="47.29279" lon="-2.23381">
        <ele>2.4000000953674</ele>
        <time>2022-08-14T09:18:26.000Z</time>
      </trkpt>
      <trkpt lat="47.2928" lon="-2.23388">
        <ele>2.4000000953674</ele>
        <time>2022-08-14T09:18:27.000Z</time>
      </trkpt>
      <trkpt lat="47.29295" lon="-2.23455">
        <ele>2.4000000953674</ele>
        <time>2022-08-14T09:18:35.000Z</time>
      </trkpt>
      <trkpt lat="47.29304" lon="-2.23514">
        <ele>2.4000000953674</ele>
        <time>2022-08-14T09:18:42.000Z</time>
      </trkpt>
      <trkpt lat="47.29311" lon="-2.23566">
        <ele>2.4000000953674</ele>
        <time>2022-08-14T09:18:48.000Z</time>
      </trkpt>
      <trkpt lat="47.29312" lon="-2.23584">
        <ele>2.4000000953674</ele>
        <time>2022-08-14T09:18:50.000Z</time>
      </trkpt>
      <trkpt lat="47.29312" lon="-2.23619">
        <ele>2.4000000953674</ele>
        <time>2022-08-14T09:18:54.000Z</time>
      </trkpt>
      <trkpt lat="47.29313" lon="-2.23636">
        <ele>2.4000000953674</ele>
        <time>2022-08-14T09:18:56.000Z</time>
      </trkpt>
      <trkpt lat="47.29313" lon="-2.2367">
        <ele>2.4000000953674</ele>
        <time>2022-08-14T09:19:00.000Z</time>
      </trkpt>
      <trkpt lat="47.29313" lon="-2.23687">
        <ele>2.4000000953674</ele>
        <time>2022-08-14T09:19:02.000Z</time>
      </trkpt>
      <trkpt lat="47.29313" lon="-2.23748">
        <ele>2.4000000953674</ele>
        <time>2022-08-14T09:19:09.000Z</time>
      </trkpt>
      <trkpt lat="47.29313" lon="-2.23823">
        <ele>2.4000000953674</ele>
        <time>2022-08-14T09:19:17.000Z</time>
      </trkpt>
      <trkpt lat="47.29314" lon="-2.23832">
        <ele>2.4000000953674</ele>
        <time>2022-08-14T09:19:18.000Z</time>
      </trkpt>
      <trkpt lat="47.29317" lon="-2.23859">
        <ele>2.4000000953674</ele>
        <time>2022-08-14T09:19:21.000Z</time>
      </trkpt>
      <trkpt lat="47.2932" lon="-2.23877">
        <ele>2.4000000953674</ele>
        <time>2022-08-14T09:19:23.000Z</time>
      </trkpt>
      <trkpt lat="47.29322" lon="-2.23886">
        <ele>2.4000000953674</ele>
        <time>2022-08-14T09:19:24.000Z</time>
      </trkpt>
      <trkpt lat="47.29331" lon="-2.2391">
        <ele>2.4000000953674</ele>
        <time>2022-08-14T09:19:27.000Z</time>
      </trkpt>
      <trkpt lat="47.29335" lon="-2.23918">
        <ele>2.4000000953674</ele>
        <time>2022-08-14T09:19:28.000Z</time>
      </trkpt>
      <trkpt lat="47.29346" lon="-2.23938">
        <ele>2.4000000953674</ele>
        <time>2022-08-14T09:19:31.000Z</time>
      </trkpt>
      <trkpt lat="47.29355" lon="-2.23949">
        <ele>2.4000000953674</ele>
        <time>2022-08-14T09:19:33.000Z</time>
      </trkpt>
      <trkpt lat="47.29362" lon="-2.23967">
        <ele>2.4000000953674</ele>
        <time>2022-08-14T09:19:36.000Z</time>
      </trkpt>
      <trkpt lat="47.29359" lon="-2.23973">
        <ele>2.4000000953674</ele>
        <time>2022-08-14T09:19:37.000Z</time>
      </trkpt>
      <trkpt lat="47.29349" lon="-2.23975">
        <ele>2.4000000953674</ele>
        <time>2022-08-14T09:19:39.000Z</time>
      </trkpt>
      <trkpt lat="47.29338" lon="-2.23974">
        <ele>2.4000000953674</ele>
        <time>2022-08-14T09:19:41.000Z</time>
      </trkpt>
      <trkpt lat="47.29326" lon="-2.23973">
        <ele>2.4000000953674</ele>
        <time>2022-08-14T09:19:43.000Z</time>
      </trkpt>
      <trkpt lat="47.29314" lon="-2.2397">
        <ele>2.4000000953674</ele>
        <time>2022-08-14T09:19:45.000Z</time>
      </trkpt>
      <trkpt lat="47.29305" lon="-2.23966">
        <ele>2.4000000953674</ele>
        <time>2022-08-14T09:19:47.000Z</time>
      </trkpt>
      <trkpt lat="47.29288" lon="-2.23959">
        <ele>2.4000000953674</ele>
        <time>2022-08-14T09:19:51.000Z</time>
      </trkpt>
      <trkpt lat="47.29283" lon="-2.23959">
        <ele>2.4000000953674</ele>
        <time>2022-08-14T09:19:52.000Z</time>
      </trkpt>
      <trkpt lat="47.29262" lon="-2.23969">
        <ele>2.4000000953674</ele>
        <time>2022-08-14T09:19:56.000Z</time>
      </trkpt>
      <trkpt lat="47.29234" lon="-2.23993">
        <ele>2.7999999523163</ele>
        <time>2022-08-14T09:20:02.000Z</time>
      </trkpt>
      <trkpt lat="47.29229" lon="-2.23997">
        <ele>3.2000000476837</ele>
        <time>2022-08-14T09:20:03.000Z</time>
      </trkpt>
      <trkpt lat="47.29225" lon="-2.24001">
        <ele>3.5999999046326</ele>
        <time>2022-08-14T09:20:04.000Z</time>
      </trkpt>
      <trkpt lat="47.29221" lon="-2.24005">
        <ele>4</ele>
        <time>2022-08-14T09:20:05.000Z</time>
      </trkpt>
      <trkpt lat="47.29216" lon="-2.2401">
        <ele>4.4000000953674</ele>
        <time>2022-08-14T09:20:06.000Z</time>
      </trkpt>
      <trkpt lat="47.29206" lon="-2.24018">
        <ele>4.4000000953674</ele>
        <time>2022-08-14T09:20:08.000Z</time>
      </trkpt>
      <trkpt lat="47.29201" lon="-2.24021">
        <ele>4.4000000953674</ele>
        <time>2022-08-14T09:20:09.000Z</time>
      </trkpt>
      <trkpt lat="47.29181" lon="-2.24036">
        <ele>4.4000000953674</ele>
        <time>2022-08-14T09:20:13.000Z</time>
      </trkpt>
      <trkpt lat="47.29176" lon="-2.2404">
        <ele>5.1999998092651</ele>
        <time>2022-08-14T09:20:14.000Z</time>
      </trkpt>
      <trkpt lat="47.29171" lon="-2.24043">
        <ele>5.5999999046326</ele>
        <time>2022-08-14T09:20:15.000Z</time>
      </trkpt>
      <trkpt lat="47.29166" lon="-2.24046">
        <ele>6</ele>
        <time>2022-08-14T09:20:16.000Z</time>
      </trkpt>
      <trkpt lat="47.29161" lon="-2.24049">
        <ele>6.4000000953674</ele>
        <time>2022-08-14T09:20:17.000Z</time>
      </trkpt>
      <trkpt lat="47.29151" lon="-2.24055">
        <ele>6.4000000953674</ele>
        <time>2022-08-14T09:20:19.000Z</time>
      </trkpt>
      <trkpt lat="47.29136" lon="-2.24064">
        <ele>6.8000001907349</ele>
        <time>2022-08-14T09:20:22.000Z</time>
      </trkpt>
      <trkpt lat="47.29132" lon="-2.24067">
        <ele>7.4000000953674</ele>
        <time>2022-08-14T09:20:23.000Z</time>
      </trkpt>
      <trkpt lat="47.29129" lon="-2.24072">
        <ele>7.8000001907349</ele>
        <time>2022-08-14T09:20:24.000Z</time>
      </trkpt>
      <trkpt lat="47.29128" lon="-2.24077">
        <ele>8.1999998092651</ele>
        <time>2022-08-14T09:20:25.000Z</time>
      </trkpt>
      <trkpt lat="47.29128" lon="-2.24083">
        <ele>8.6000003814697</ele>
        <time>2022-08-14T09:20:26.000Z</time>
      </trkpt>
      <trkpt lat="47.29129" lon="-2.2409">
        <ele>8.6000003814697</ele>
        <time>2022-08-14T09:20:27.000Z</time>
      </trkpt>
      <trkpt lat="47.2913" lon="-2.24096">
        <ele>8.6000003814697</ele>
        <time>2022-08-14T09:20:28.000Z</time>
      </trkpt>
      <trkpt lat="47.29134" lon="-2.24122">
        <ele>8.6000003814697</ele>
        <time>2022-08-14T09:20:32.000Z</time>
      </trkpt>
      <trkpt lat="47.29133" lon="-2.24145">
        <ele>9</ele>
        <time>2022-08-14T09:20:36.000Z</time>
      </trkpt>
      <trkpt lat="47.29134" lon="-2.2415">
        <ele>9.3999996185303</ele>
        <time>2022-08-14T09:20:37.000Z</time>
      </trkpt>
      <trkpt lat="47.29135" lon="-2.24157">
        <ele>9.8000001907349</ele>
        <time>2022-08-14T09:20:38.000Z</time>
      </trkpt>
      <trkpt lat="47.29136" lon="-2.24163">
        <ele>10.60000038147</ele>
        <time>2022-08-14T09:20:39.000Z</time>
      </trkpt>
      <trkpt lat="47.29137" lon="-2.2417">
        <ele>10.60000038147</ele>
        <time>2022-08-14T09:20:40.000Z</time>
      </trkpt>
      <trkpt lat="47.29148" lon="-2.24213">
        <ele>10.60000038147</ele>
        <time>2022-08-14T09:20:46.000Z</time>
      </trkpt>
      <trkpt lat="47.29158" lon="-2.24249">
        <ele>10.60000038147</ele>
        <time>2022-08-14T09:20:51.000Z</time>
      </trkpt>
      <trkpt lat="47.29173" lon="-2.24295">
        <ele>10.60000038147</ele>
        <time>2022-08-14T09:20:57.000Z</time>
      </trkpt>
      <trkpt lat="47.29199" lon="-2.24357">
        <ele>10.60000038147</ele>
        <time>2022-08-14T09:21:05.000Z</time>
      </trkpt>
      <trkpt lat="47.29217" lon="-2.24401">
        <ele>10.60000038147</ele>
        <time>2022-08-14T09:21:11.000Z</time>
      </trkpt>
      <trkpt lat="47.29219" lon="-2.24409">
        <ele>10.60000038147</ele>
        <time>2022-08-14T09:21:12.000Z</time>
      </trkpt>
      <trkpt lat="47.29226" lon="-2.2444">
        <ele>10.60000038147</ele>
        <time>2022-08-14T09:21:16.000Z</time>
      </trkpt>
      <trkpt lat="47.29233" lon="-2.24468">
        <ele>10.60000038147</ele>
        <time>2022-08-14T09:21:21.000Z</time>
      </trkpt>
      <trkpt lat="47.2924" lon="-2.24474">
        <ele>10.60000038147</ele>
        <time>2022-08-14T09:21:25.000Z</time>
      </trkpt>
      <trkpt lat="47.29253" lon="-2.24469">
        <ele>10.60000038147</ele>
        <time>2022-08-14T09:21:28.000Z</time>
      </trkpt>
      <trkpt lat="47.29283" lon="-2.24457">
        <ele>10.60000038147</ele>
        <time>2022-08-14T09:21:34.000Z</time>
      </trkpt>
      <trkpt lat="47.29292" lon="-2.24468">
        <ele>10.60000038147</ele>
        <time>2022-08-14T09:21:37.000Z</time>
      </trkpt>
      <trkpt lat="47.29294" lon="-2.24497">
        <ele>10.60000038147</ele>
        <time>2022-08-14T09:21:41.000Z</time>
      </trkpt>
      <trkpt lat="47.29295" lon="-2.24539">
        <ele>10.60000038147</ele>
        <time>2022-08-14T09:21:46.000Z</time>
      </trkpt>
      <trkpt lat="47.29298" lon="-2.24587">
        <ele>10.60000038147</ele>
        <time>2022-08-14T09:21:51.000Z</time>
      </trkpt>
      <trkpt lat="47.29299" lon="-2.24597">
        <ele>10.60000038147</ele>
        <time>2022-08-14T09:21:52.000Z</time>
      </trkpt>
      <trkpt lat="47.29298" lon="-2.24632">
        <ele>10.60000038147</ele>
        <time>2022-08-14T09:21:56.000Z</time>
      </trkpt>
      <trkpt lat="47.29299" lon="-2.24666">
        <ele>10.60000038147</ele>
        <time>2022-08-14T09:22:00.000Z</time>
      </trkpt>
      <trkpt lat="47.29302" lon="-2.24681">
        <ele>10.60000038147</ele>
        <time>2022-08-14T09:22:02.000Z</time>
      </trkpt>
      <trkpt lat="47.29308" lon="-2.24701">
        <ele>10.60000038147</ele>
        <time>2022-08-14T09:22:05.000Z</time>
      </trkpt>
      <trkpt lat="47.29311" lon="-2.24715">
        <ele>10.60000038147</ele>
        <time>2022-08-14T09:22:07.000Z</time>
      </trkpt>
      <trkpt lat="47.29312" lon="-2.24723">
        <ele>11.199999809265</ele>
        <time>2022-08-14T09:22:08.000Z</time>
      </trkpt>
      <trkpt lat="47.29313" lon="-2.2473">
        <ele>11.60000038147</ele>
        <time>2022-08-14T09:22:09.000Z</time>
      </trkpt>
      <trkpt lat="47.29315" lon="-2.24738">
        <ele>12</ele>
        <time>2022-08-14T09:22:10.000Z</time>
      </trkpt>
      <trkpt lat="47.29317" lon="-2.24745">
        <ele>12.39999961853</ele>
        <time>2022-08-14T09:22:11.000Z</time>
      </trkpt>
      <trkpt lat="47.29318" lon="-2.24752">
        <ele>12.800000190735</ele>
        <time>2022-08-14T09:22:12.000Z</time>
      </trkpt>
      <trkpt lat="47.29325" lon="-2.24765">
        <ele>12.800000190735</ele>
        <time>2022-08-14T09:22:14.000Z</time>
      </trkpt>
      <trkpt lat="47.29327" lon="-2.24771">
        <ele>12.800000190735</ele>
        <time>2022-08-14T09:22:15.000Z</time>
      </trkpt>
      <trkpt lat="47.29334" lon="-2.24812">
        <ele>12.800000190735</ele>
        <time>2022-08-14T09:22:20.000Z</time>
      </trkpt>
      <trkpt lat="47.29336" lon="-2.24874">
        <ele>12.800000190735</ele>
        <time>2022-08-14T09:22:27.000Z</time>
      </trkpt>
      <trkpt lat="47.29333" lon="-2.24901">
        <ele>12.800000190735</ele>
        <time>2022-08-14T09:22:31.000Z</time>
      </trkpt>
      <trkpt lat="47.2933" lon="-2.2491">
        <ele>12.800000190735</ele>
        <time>2022-08-14T09:22:33.000Z</time>
      </trkpt>
      <trkpt lat="47.29325" lon="-2.24913">
        <ele>12.800000190735</ele>
        <time>2022-08-14T09:22:35.000Z</time>
      </trkpt>
      <trkpt lat="47.29306" lon="-2.24918">
        <ele>12.800000190735</ele>
        <time>2022-08-14T09:22:40.000Z</time>
      </trkpt>
      <trkpt lat="47.29297" lon="-2.24919">
        <ele>13.60000038147</ele>
        <time>2022-08-14T09:22:42.000Z</time>
      </trkpt>
      <trkpt lat="47.29292" lon="-2.24919">
        <ele>14</ele>
        <time>2022-08-14T09:22:43.000Z</time>
      </trkpt>
      <trkpt lat="47.29288" lon="-2.24919">
        <ele>14.39999961853</ele>
        <time>2022-08-14T09:22:44.000Z</time>
      </trkpt>
      <trkpt lat="47.29284" lon="-2.2492">
        <ele>14.800000190735</ele>
        <time>2022-08-14T09:22:45.000Z</time>
      </trkpt>
      <trkpt lat="47.29275" lon="-2.24921">
        <ele>14.800000190735</ele>
        <time>2022-08-14T09:22:47.000Z</time>
      </trkpt>
      <trkpt lat="47.29265" lon="-2.24922">
        <ele>14.800000190735</ele>
        <time>2022-08-14T09:22:49.000Z</time>
      </trkpt>
      <trkpt lat="47.29259" lon="-2.2493">
        <ele>14.800000190735</ele>
        <time>2022-08-14T09:22:51.000Z</time>
      </trkpt>
      <trkpt lat="47.29258" lon="-2.24952">
        <ele>14.800000190735</ele>
        <time>2022-08-14T09:22:54.000Z</time>
      </trkpt>
      <trkpt lat="47.29258" lon="-2.2496">
        <ele>14.800000190735</ele>
        <time>2022-08-14T09:22:55.000Z</time>
      </trkpt>
      <trkpt lat="47.29259" lon="-2.24967">
        <ele>14.800000190735</ele>
        <time>2022-08-14T09:22:56.000Z</time>
      </trkpt>
      <trkpt lat="47.29265" lon="-2.24997">
        <ele>14.800000190735</ele>
        <time>2022-08-14T09:23:00.000Z</time>
      </trkpt>
      <trkpt lat="47.29277" lon="-2.25043">
        <ele>14.800000190735</ele>
        <time>2022-08-14T09:23:05.000Z</time>
      </trkpt>
      <trkpt lat="47.29291" lon="-2.251">
        <ele>14.800000190735</ele>
        <time>2022-08-14T09:23:11.000Z</time>
      </trkpt>
      <trkpt lat="47.29292" lon="-2.25111">
        <ele>14.800000190735</ele>
        <time>2022-08-14T09:23:12.000Z</time>
      </trkpt>
      <trkpt lat="47.29296" lon="-2.25141">
        <ele>14.39999961853</ele>
        <time>2022-08-14T09:23:15.000Z</time>
      </trkpt>
      <trkpt lat="47.29298" lon="-2.2515">
        <ele>13.800000190735</ele>
        <time>2022-08-14T09:23:16.000Z</time>
      </trkpt>
      <trkpt lat="47.29299" lon="-2.2516">
        <ele>13.39999961853</ele>
        <time>2022-08-14T09:23:17.000Z</time>
      </trkpt>
      <trkpt lat="47.293" lon="-2.25171">
        <ele>13</ele>
        <time>2022-08-14T09:23:18.000Z</time>
      </trkpt>
      <trkpt lat="47.29302" lon="-2.2518">
        <ele>12.60000038147</ele>
        <time>2022-08-14T09:23:19.000Z</time>
      </trkpt>
      <trkpt lat="47.29308" lon="-2.25193">
        <ele>12</ele>
        <time>2022-08-14T09:23:21.000Z</time>
      </trkpt>
      <trkpt lat="47.29312" lon="-2.25196">
        <ele>11.60000038147</ele>
        <time>2022-08-14T09:23:22.000Z</time>
      </trkpt>
      <trkpt lat="47.29316" lon="-2.25197">
        <ele>11.199999809265</ele>
        <time>2022-08-14T09:23:23.000Z</time>
      </trkpt>
      <trkpt lat="47.29321" lon="-2.25197">
        <ele>10.800000190735</ele>
        <time>2022-08-14T09:23:24.000Z</time>
      </trkpt>
      <trkpt lat="47.29325" lon="-2.25196">
        <ele>10.39999961853</ele>
        <time>2022-08-14T09:23:25.000Z</time>
      </trkpt>
      <trkpt lat="47.29344" lon="-2.25198">
        <ele>10.39999961853</ele>
        <time>2022-08-14T09:23:28.000Z</time>
      </trkpt>
      <trkpt lat="47.2935" lon="-2.252">
        <ele>10.39999961853</ele>
        <time>2022-08-14T09:23:29.000Z</time>
      </trkpt>
      <trkpt lat="47.29369" lon="-2.25206">
        <ele>10.39999961853</ele>
        <time>2022-08-14T09:23:32.000Z</time>
      </trkpt>
      <trkpt lat="47.29383" lon="-2.25209">
        <ele>10.39999961853</ele>
        <time>2022-08-14T09:23:34.000Z</time>
      </trkpt>
      <trkpt lat="47.29395" lon="-2.25213">
        <ele>10.39999961853</ele>
        <time>2022-08-14T09:23:36.000Z</time>
      </trkpt>
      <trkpt lat="47.29402" lon="-2.25214">
        <ele>10.39999961853</ele>
        <time>2022-08-14T09:23:37.000Z</time>
      </trkpt>
      <trkpt lat="47.29419" lon="-2.25211">
        <ele>10.39999961853</ele>
        <time>2022-08-14T09:23:40.000Z</time>
      </trkpt>
      <trkpt lat="47.29425" lon="-2.25209">
        <ele>10.39999961853</ele>
        <time>2022-08-14T09:23:41.000Z</time>
      </trkpt>
      <trkpt lat="47.29437" lon="-2.25206">
        <ele>10.800000190735</ele>
        <time>2022-08-14T09:23:43.000Z</time>
      </trkpt>
      <trkpt lat="47.29443" lon="-2.25204">
        <ele>11.199999809265</ele>
        <time>2022-08-14T09:23:44.000Z</time>
      </trkpt>
      <trkpt lat="47.29449" lon="-2.25203">
        <ele>11.60000038147</ele>
        <time>2022-08-14T09:23:45.000Z</time>
      </trkpt>
      <trkpt lat="47.29455" lon="-2.25202">
        <ele>12</ele>
        <time>2022-08-14T09:23:46.000Z</time>
      </trkpt>
      <trkpt lat="47.29461" lon="-2.25201">
        <ele>12.39999961853</ele>
        <time>2022-08-14T09:23:47.000Z</time>
      </trkpt>
      <trkpt lat="47.29489" lon="-2.25193">
        <ele>12.39999961853</ele>
        <time>2022-08-14T09:23:52.000Z</time>
      </trkpt>
      <trkpt lat="47.29509" lon="-2.25187">
        <ele>12.800000190735</ele>
        <time>2022-08-14T09:23:56.000Z</time>
      </trkpt>
      <trkpt lat="47.29514" lon="-2.25185">
        <ele>13.199999809265</ele>
        <time>2022-08-14T09:23:57.000Z</time>
      </trkpt>
      <trkpt lat="47.29519" lon="-2.25183">
        <ele>13.60000038147</ele>
        <time>2022-08-14T09:23:58.000Z</time>
      </trkpt>
      <trkpt lat="47.29524" lon="-2.25181">
        <ele>14.199999809265</ele>
        <time>2022-08-14T09:23:59.000Z</time>
      </trkpt>
      <trkpt lat="47.29528" lon="-2.2518">
        <ele>14.60000038147</ele>
        <time>2022-08-14T09:24:00.000Z</time>
      </trkpt>
      <trkpt lat="47.29539" lon="-2.25178">
        <ele>14.60000038147</ele>
        <time>2022-08-14T09:24:03.000Z</time>
      </trkpt>
      <trkpt lat="47.29542" lon="-2.25179">
        <ele>14.60000038147</ele>
        <time>2022-08-14T09:24:04.000Z</time>
      </trkpt>
      <trkpt lat="47.29545" lon="-2.25184">
        <ele>14.60000038147</ele>
        <time>2022-08-14T09:24:06.000Z</time>
      </trkpt>
      <trkpt lat="47.29543" lon="-2.25205">
        <ele>14.60000038147</ele>
        <time>2022-08-14T09:24:10.000Z</time>
      </trkpt>
      <trkpt lat="47.2954" lon="-2.25228">
        <ele>14.60000038147</ele>
        <time>2022-08-14T09:24:13.000Z</time>
      </trkpt>
      <trkpt lat="47.29539" lon="-2.25236">
        <ele>14.60000038147</ele>
        <time>2022-08-14T09:24:14.000Z</time>
      </trkpt>
      <trkpt lat="47.29539" lon="-2.25261">
        <ele>14.60000038147</ele>
        <time>2022-08-14T09:24:17.000Z</time>
      </trkpt>
      <trkpt lat="47.29541" lon="-2.25279">
        <ele>14.60000038147</ele>
        <time>2022-08-14T09:24:19.000Z</time>
      </trkpt>
      <trkpt lat="47.29546" lon="-2.25303">
        <ele>14.60000038147</ele>
        <time>2022-08-14T09:24:22.000Z</time>
      </trkpt>
      <trkpt lat="47.29552" lon="-2.25318">
        <ele>14.60000038147</ele>
        <time>2022-08-14T09:24:24.000Z</time>
      </trkpt>
      <trkpt lat="47.29562" lon="-2.25339">
        <ele>15</ele>
        <time>2022-08-14T09:24:27.000Z</time>
      </trkpt>
      <trkpt lat="47.29565" lon="-2.25345">
        <ele>15.39999961853</ele>
        <time>2022-08-14T09:24:28.000Z</time>
      </trkpt>
      <trkpt lat="47.29568" lon="-2.25352">
        <ele>15.800000190735</ele>
        <time>2022-08-14T09:24:29.000Z</time>
      </trkpt>
      <trkpt lat="47.29571" lon="-2.25359">
        <ele>16.200000762939</ele>
        <time>2022-08-14T09:24:30.000Z</time>
      </trkpt>
      <trkpt lat="47.29573" lon="-2.25366">
        <ele>16.799999237061</ele>
        <time>2022-08-14T09:24:31.000Z</time>
      </trkpt>
      <trkpt lat="47.29577" lon="-2.25383">
        <ele>16.799999237061</ele>
        <time>2022-08-14T09:24:33.000Z</time>
      </trkpt>
      <trkpt lat="47.29581" lon="-2.25399">
        <ele>16.799999237061</ele>
        <time>2022-08-14T09:24:35.000Z</time>
      </trkpt>
      <trkpt lat="47.29586" lon="-2.25451">
        <ele>17.200000762939</ele>
        <time>2022-08-14T09:24:41.000Z</time>
      </trkpt>
      <trkpt lat="47.29586" lon="-2.25459">
        <ele>17.60000038147</ele>
        <time>2022-08-14T09:24:42.000Z</time>
      </trkpt>
      <trkpt lat="47.29587" lon="-2.25466">
        <ele>18</ele>
        <time>2022-08-14T09:24:43.000Z</time>
      </trkpt>
      <trkpt lat="47.29587" lon="-2.25473">
        <ele>18.60000038147</ele>
        <time>2022-08-14T09:24:44.000Z</time>
      </trkpt>
      <trkpt lat="47.29587" lon="-2.2548">
        <ele>19</ele>
        <time>2022-08-14T09:24:45.000Z</time>
      </trkpt>
      <trkpt lat="47.29585" lon="-2.25504">
        <ele>19</ele>
        <time>2022-08-14T09:24:48.000Z</time>
      </trkpt>
      <trkpt lat="47.29575" lon="-2.25532">
        <ele>19</ele>
        <time>2022-08-14T09:24:52.000Z</time>
      </trkpt>
      <trkpt lat="47.29556" lon="-2.2555">
        <ele>19</ele>
        <time>2022-08-14T09:24:56.000Z</time>
      </trkpt>
      <trkpt lat="47.29527" lon="-2.25569">
        <ele>19.39999961853</ele>
        <time>2022-08-14T09:25:02.000Z</time>
      </trkpt>
      <trkpt lat="47.29523" lon="-2.25571">
        <ele>19.799999237061</ele>
        <time>2022-08-14T09:25:03.000Z</time>
      </trkpt>
      <trkpt lat="47.29518" lon="-2.25574">
        <ele>20.200000762939</ele>
        <time>2022-08-14T09:25:04.000Z</time>
      </trkpt>
      <trkpt lat="47.29514" lon="-2.25578">
        <ele>20.60000038147</ele>
        <time>2022-08-14T09:25:05.000Z</time>
      </trkpt>
      <trkpt lat="47.29509" lon="-2.25581">
        <ele>21.200000762939</ele>
        <time>2022-08-14T09:25:06.000Z</time>
      </trkpt>
      <trkpt lat="47.29486" lon="-2.25595">
        <ele>21.200000762939</ele>
        <time>2022-08-14T09:25:11.000Z</time>
      </trkpt>
      <trkpt lat="47.29463" lon="-2.25606">
        <ele>21.60000038147</ele>
        <time>2022-08-14T09:25:16.000Z</time>
      </trkpt>
      <trkpt lat="47.29458" lon="-2.25608">
        <ele>22</ele>
        <time>2022-08-14T09:25:17.000Z</time>
      </trkpt>
      <trkpt lat="47.29453" lon="-2.2561">
        <ele>22.39999961853</ele>
        <time>2022-08-14T09:25:18.000Z</time>
      </trkpt>
      <trkpt lat="47.29448" lon="-2.25612">
        <ele>22.799999237061</ele>
        <time>2022-08-14T09:25:19.000Z</time>
      </trkpt>
      <trkpt lat="47.29443" lon="-2.25614">
        <ele>23.200000762939</ele>
        <time>2022-08-14T09:25:20.000Z</time>
      </trkpt>
      <trkpt lat="47.29417" lon="-2.25625">
        <ele>23.200000762939</ele>
        <time>2022-08-14T09:25:25.000Z</time>
      </trkpt>
      <trkpt lat="47.29398" lon="-2.25636">
        <ele>23.200000762939</ele>
        <time>2022-08-14T09:25:29.000Z</time>
      </trkpt>
      <trkpt lat="47.2939" lon="-2.25648">
        <ele>23.200000762939</ele>
        <time>2022-08-14T09:25:31.000Z</time>
      </trkpt>
      <trkpt lat="47.29383" lon="-2.25682">
        <ele>23.200000762939</ele>
        <time>2022-08-14T09:25:35.000Z</time>
      </trkpt>
      <trkpt lat="47.29382" lon="-2.25691">
        <ele>23.200000762939</ele>
        <time>2022-08-14T09:25:36.000Z</time>
      </trkpt>
      <trkpt lat="47.29379" lon="-2.25707">
        <ele>23.200000762939</ele>
        <time>2022-08-14T09:25:38.000Z</time>
      </trkpt>
      <trkpt lat="47.29375" lon="-2.25723">
        <ele>23.200000762939</ele>
        <time>2022-08-14T09:25:40.000Z</time>
      </trkpt>
      <trkpt lat="47.29372" lon="-2.25729">
        <ele>23.200000762939</ele>
        <time>2022-08-14T09:25:41.000Z</time>
      </trkpt>
      <trkpt lat="47.29366" lon="-2.2574">
        <ele>23.200000762939</ele>
        <time>2022-08-14T09:25:43.000Z</time>
      </trkpt>
      <trkpt lat="47.29363" lon="-2.25745">
        <ele>23.200000762939</ele>
        <time>2022-08-14T09:25:44.000Z</time>
      </trkpt>
      <trkpt lat="47.29344" lon="-2.25764">
        <ele>23.200000762939</ele>
        <time>2022-08-14T09:25:49.000Z</time>
      </trkpt>
      <trkpt lat="47.29327" lon="-2.2578">
        <ele>23.200000762939</ele>
        <time>2022-08-14T09:25:54.000Z</time>
      </trkpt>
      <trkpt lat="47.29325" lon="-2.2579">
        <ele>23.200000762939</ele>
        <time>2022-08-14T09:25:58.000Z</time>
      </trkpt>
      <trkpt lat="47.29333" lon="-2.25798">
        <ele>23.200000762939</ele>
        <time>2022-08-14T09:26:03.000Z</time>
      </trkpt>
      <trkpt lat="47.29335" lon="-2.25797">
        <ele>23.200000762939</ele>
        <time>2022-08-14T09:26:04.000Z</time>
      </trkpt>
      <trkpt lat="47.29337" lon="-2.25797">
        <ele>22.799999237061</ele>
        <time>2022-08-14T09:26:05.000Z</time>
      </trkpt>
      <trkpt lat="47.29339" lon="-2.25796">
        <ele>22.200000762939</ele>
        <time>2022-08-14T09:26:06.000Z</time>
      </trkpt>
      <trkpt lat="47.2934" lon="-2.25795">
        <ele>21.799999237061</ele>
        <time>2022-08-14T09:26:07.000Z</time>
      </trkpt>
      <trkpt lat="47.29342" lon="-2.25794">
        <ele>21.39999961853</ele>
        <time>2022-08-14T09:26:08.000Z</time>
      </trkpt>
      <trkpt lat="47.29342" lon="-2.25792">
        <ele>21</ele>
        <time>2022-08-14T09:26:09.000Z</time>
      </trkpt>
      <trkpt lat="47.29347" lon="-2.25782">
        <ele>21</ele>
        <time>2022-08-14T09:26:13.000Z</time>
      </trkpt>
      <trkpt lat="47.29352" lon="-2.25773">
        <ele>21</ele>
        <time>2022-08-14T09:26:17.000Z</time>
      </trkpt>
      <trkpt lat="47.29355" lon="-2.25771">
        <ele>21</ele>
        <time>2022-08-14T09:26:18.000Z</time>
      </trkpt>
      <trkpt lat="47.29361" lon="-2.25769">
        <ele>21</ele>
        <time>2022-08-14T09:26:21.000Z</time>
      </trkpt>
      <trkpt lat="47.29372" lon="-2.25759">
        <ele>21</ele>
        <time>2022-08-14T09:26:24.000Z</time>
      </trkpt>
      <trkpt lat="47.29375" lon="-2.25758">
        <ele>21</ele>
        <time>2022-08-14T09:26:25.000Z</time>
      </trkpt>
      <trkpt lat="47.29381" lon="-2.2576">
        <ele>20.60000038147</ele>
        <time>2022-08-14T09:26:28.000Z</time>
      </trkpt>
      <trkpt lat="47.29384" lon="-2.2576">
        <ele>20.200000762939</ele>
        <time>2022-08-14T09:26:29.000Z</time>
      </trkpt>
      <trkpt lat="47.29386" lon="-2.2576">
        <ele>19.799999237061</ele>
        <time>2022-08-14T09:26:30.000Z</time>
      </trkpt>
      <trkpt lat="47.29389" lon="-2.25764">
        <ele>19.39999961853</ele>
        <time>2022-08-14T09:26:31.000Z</time>
      </trkpt>
      <trkpt lat="47.29391" lon="-2.25769">
        <ele>19</ele>
        <time>2022-08-14T09:26:32.000Z</time>
      </trkpt>
      <trkpt lat="47.29399" lon="-2.25778">
        <ele>19</ele>
        <time>2022-08-14T09:26:35.000Z</time>
      </trkpt>
      <trkpt lat="47.29401" lon="-2.25779">
        <ele>19</ele>
        <time>2022-08-14T09:26:36.000Z</time>
      </trkpt>
      <trkpt lat="47.29406" lon="-2.25783">
        <ele>18.39999961853</ele>
        <time>2022-08-14T09:26:38.000Z</time>
      </trkpt>
      <trkpt lat="47.29408" lon="-2.25785">
        <ele>18</ele>
        <time>2022-08-14T09:26:39.000Z</time>
      </trkpt>
      <trkpt lat="47.2941" lon="-2.25787">
        <ele>17.60000038147</ele>
        <time>2022-08-14T09:26:40.000Z</time>
      </trkpt>
      <trkpt lat="47.2941" lon="-2.25788">
        <ele>17.200000762939</ele>
        <time>2022-08-14T09:26:41.000Z</time>
      </trkpt>
      <trkpt lat="47.29411" lon="-2.2579">
        <ele>16.799999237061</ele>
        <time>2022-08-14T09:26:42.000Z</time>
      </trkpt>
      <trkpt lat="47.29414" lon="-2.25794">
        <ele>16.799999237061</ele>
        <time>2022-08-14T09:26:44.000Z</time>
      </trkpt>
      <trkpt lat="47.29417" lon="-2.25801">
        <ele>16.799999237061</ele>
        <time>2022-08-14T09:26:47.000Z</time>
      </trkpt>
      <trkpt lat="47.29423" lon="-2.25813">
        <ele>16.799999237061</ele>
        <time>2022-08-14T09:26:50.000Z</time>
      </trkpt>
      <trkpt lat="47.29423" lon="-2.25818">
        <ele>16.799999237061</ele>
        <time>2022-08-14T09:26:51.000Z</time>
      </trkpt>
      <trkpt lat="47.29421" lon="-2.25826">
        <ele>16.799999237061</ele>
        <time>2022-08-14T09:26:53.000Z</time>
      </trkpt>
      <trkpt lat="47.29421" lon="-2.25849">
        <ele>16.799999237061</ele>
        <time>2022-08-14T09:26:58.000Z</time>
      </trkpt>
      <trkpt lat="47.2943" lon="-2.25874">
        <ele>16.799999237061</ele>
        <time>2022-08-14T09:27:02.000Z</time>
      </trkpt>
      <trkpt lat="47.29433" lon="-2.25881">
        <ele>16.799999237061</ele>
        <time>2022-08-14T09:27:03.000Z</time>
      </trkpt>
      <trkpt lat="47.29435" lon="-2.2589">
        <ele>16.799999237061</ele>
        <time>2022-08-14T09:27:04.000Z</time>
      </trkpt>
      <trkpt lat="47.29442" lon="-2.25914">
        <ele>16.799999237061</ele>
        <time>2022-08-14T09:27:07.000Z</time>
      </trkpt>
      <trkpt lat="47.29443" lon="-2.25928">
        <ele>16.799999237061</ele>
        <time>2022-08-14T09:27:10.000Z</time>
      </trkpt>
      <trkpt lat="47.29435" lon="-2.25939">
        <ele>16.799999237061</ele>
        <time>2022-08-14T09:27:14.000Z</time>
      </trkpt>
      <trkpt lat="47.29415" lon="-2.25949">
        <ele>16.799999237061</ele>
        <time>2022-08-14T09:27:18.000Z</time>
      </trkpt>
      <trkpt lat="47.29411" lon="-2.25948">
        <ele>16.799999237061</ele>
        <time>2022-08-14T09:27:19.000Z</time>
      </trkpt>
      <trkpt lat="47.29404" lon="-2.2595">
        <ele>16.799999237061</ele>
        <time>2022-08-14T09:27:21.000Z</time>
      </trkpt>
      <trkpt lat="47.29402" lon="-2.25954">
        <ele>16.799999237061</ele>
        <time>2022-08-14T09:27:22.000Z</time>
      </trkpt>
      <trkpt lat="47.29402" lon="-2.25959">
        <ele>16.799999237061</ele>
        <time>2022-08-14T09:27:23.000Z</time>
      </trkpt>
      <trkpt lat="47.29403" lon="-2.25978">
        <ele>16.799999237061</ele>
        <time>2022-08-14T09:27:26.000Z</time>
      </trkpt>
      <trkpt lat="47.29403" lon="-2.25993">
        <ele>16.799999237061</ele>
        <time>2022-08-14T09:27:28.000Z</time>
      </trkpt>
      <trkpt lat="47.29403" lon="-2.26007">
        <ele>16.799999237061</ele>
        <time>2022-08-14T09:27:30.000Z</time>
      </trkpt>
      <trkpt lat="47.29404" lon="-2.26022">
        <ele>16.799999237061</ele>
        <time>2022-08-14T09:27:32.000Z</time>
      </trkpt>
      <trkpt lat="47.29413" lon="-2.2605">
        <ele>16.799999237061</ele>
        <time>2022-08-14T09:27:36.000Z</time>
      </trkpt>
      <trkpt lat="47.29416" lon="-2.26055">
        <ele>16.799999237061</ele>
        <time>2022-08-14T09:27:37.000Z</time>
      </trkpt>
      <trkpt lat="47.29421" lon="-2.26066">
        <ele>16.799999237061</ele>
        <time>2022-08-14T09:27:39.000Z</time>
      </trkpt>
      <trkpt lat="47.29423" lon="-2.26072">
        <ele>16.799999237061</ele>
        <time>2022-08-14T09:27:40.000Z</time>
      </trkpt>
      <trkpt lat="47.29425" lon="-2.26079">
        <ele>16.799999237061</ele>
        <time>2022-08-14T09:27:41.000Z</time>
      </trkpt>
      <trkpt lat="47.29426" lon="-2.26101">
        <ele>16.799999237061</ele>
        <time>2022-08-14T09:27:44.000Z</time>
      </trkpt>
      <trkpt lat="47.29426" lon="-2.26107">
        <ele>16.799999237061</ele>
        <time>2022-08-14T09:27:45.000Z</time>
      </trkpt>
      <trkpt lat="47.29424" lon="-2.26134">
        <ele>16.799999237061</ele>
        <time>2022-08-14T09:27:49.000Z</time>
      </trkpt>
      <trkpt lat="47.2942" lon="-2.26141">
        <ele>16.799999237061</ele>
        <time>2022-08-14T09:27:50.000Z</time>
      </trkpt>
      <trkpt lat="47.29411" lon="-2.26149">
        <ele>17.200000762939</ele>
        <time>2022-08-14T09:27:52.000Z</time>
      </trkpt>
      <trkpt lat="47.29408" lon="-2.2615">
        <ele>17.60000038147</ele>
        <time>2022-08-14T09:27:53.000Z</time>
      </trkpt>
      <trkpt lat="47.29403" lon="-2.26151">
        <ele>18</ele>
        <time>2022-08-14T09:27:54.000Z</time>
      </trkpt>
      <trkpt lat="47.29399" lon="-2.26153">
        <ele>18.39999961853</ele>
        <time>2022-08-14T09:27:55.000Z</time>
      </trkpt>
      <trkpt lat="47.29396" lon="-2.26153">
        <ele>18.799999237061</ele>
        <time>2022-08-14T09:27:56.000Z</time>
      </trkpt>
      <trkpt lat="47.29393" lon="-2.26153">
        <ele>18.799999237061</ele>
        <time>2022-08-14T09:27:57.000Z</time>
      </trkpt>
      <trkpt lat="47.29382" lon="-2.26158">
        <ele>18.799999237061</ele>
        <time>2022-08-14T09:28:02.000Z</time>
      </trkpt>
      <trkpt lat="47.29382" lon="-2.26158">
        <ele>18.799999237061</ele>
        <time>2022-08-14T09:28:03.000Z</time>
      </trkpt>
      <trkpt lat="47.29376" lon="-2.26161">
        <ele>18.799999237061</ele>
        <time>2022-08-14T09:28:26.000Z</time>
      </trkpt>
      <trkpt lat="47.29372" lon="-2.26163">
        <ele>18.799999237061</ele>
        <time>2022-08-14T09:28:28.000Z</time>
      </trkpt>
      <trkpt lat="47.29369" lon="-2.26164">
        <ele>19.200000762939</ele>
        <time>2022-08-14T09:28:29.000Z</time>
      </trkpt>
      <trkpt lat="47.29366" lon="-2.26164">
        <ele>19.60000038147</ele>
        <time>2022-08-14T09:28:30.000Z</time>
      </trkpt>
      <trkpt lat="47.29363" lon="-2.26164">
        <ele>20</ele>
        <time>2022-08-14T09:28:31.000Z</time>
      </trkpt>
      <trkpt lat="47.2936" lon="-2.26164">
        <ele>20.39999961853</ele>
        <time>2022-08-14T09:28:32.000Z</time>
      </trkpt>
      <trkpt lat="47.29357" lon="-2.26163">
        <ele>20.799999237061</ele>
        <time>2022-08-14T09:28:33.000Z</time>
      </trkpt>
      <trkpt lat="47.29346" lon="-2.26167">
        <ele>20.799999237061</ele>
        <time>2022-08-14T09:28:37.000Z</time>
      </trkpt>
      <trkpt lat="47.29342" lon="-2.26168">
        <ele>20.799999237061</ele>
        <time>2022-08-14T09:28:39.000Z</time>
      </trkpt>
      <trkpt lat="47.29334" lon="-2.26169">
        <ele>20.799999237061</ele>
        <time>2022-08-14T09:28:42.000Z</time>
      </trkpt>
      <trkpt lat="47.29332" lon="-2.2617">
        <ele>20.799999237061</ele>
        <time>2022-08-14T09:28:43.000Z</time>
      </trkpt>
      <trkpt lat="47.29329" lon="-2.26171">
        <ele>21.39999961853</ele>
        <time>2022-08-14T09:28:44.000Z</time>
      </trkpt>
      <trkpt lat="47.29327" lon="-2.26172">
        <ele>21.799999237061</ele>
        <time>2022-08-14T09:28:45.000Z</time>
      </trkpt>
      <trkpt lat="47.29326" lon="-2.26175">
        <ele>22.200000762939</ele>
        <time>2022-08-14T09:28:46.000Z</time>
      </trkpt>
      <trkpt lat="47.29325" lon="-2.26178">
        <ele>22.60000038147</ele>
        <time>2022-08-14T09:28:47.000Z</time>
      </trkpt>
      <trkpt lat="47.29323" lon="-2.2618">
        <ele>23</ele>
        <time>2022-08-14T09:28:48.000Z</time>
      </trkpt>
      <trkpt lat="47.29318" lon="-2.26181">
        <ele>23</ele>
        <time>2022-08-14T09:28:50.000Z</time>
      </trkpt>
      <trkpt lat="47.29311" lon="-2.26178">
        <ele>23</ele>
        <time>2022-08-14T09:28:52.000Z</time>
      </trkpt>
      <trkpt lat="47.293" lon="-2.26177">
        <ele>23</ele>
        <time>2022-08-14T09:28:55.000Z</time>
      </trkpt>
      <trkpt lat="47.29276" lon="-2.26181">
        <ele>23</ele>
        <time>2022-08-14T09:29:01.000Z</time>
      </trkpt>
      <trkpt lat="47.29263" lon="-2.26172">
        <ele>23</ele>
        <time>2022-08-14T09:29:05.000Z</time>
      </trkpt>
      <trkpt lat="47.29255" lon="-2.26157">
        <ele>23</ele>
        <time>2022-08-14T09:29:09.000Z</time>
      </trkpt>
      <trkpt lat="47.29245" lon="-2.26139">
        <ele>23</ele>
        <time>2022-08-14T09:29:14.000Z</time>
      </trkpt>
      <trkpt lat="47.29235" lon="-2.26118">
        <ele>23</ele>
        <time>2022-08-14T09:29:19.000Z</time>
      </trkpt>
      <trkpt lat="47.29224" lon="-2.26099">
        <ele>23</ele>
        <time>2022-08-14T09:29:24.000Z</time>
      </trkpt>
      <trkpt lat="47.29211" lon="-2.26077">
        <ele>23</ele>
        <time>2022-08-14T09:29:29.000Z</time>
      </trkpt>
      <trkpt lat="47.29198" lon="-2.26056">
        <ele>23</ele>
        <time>2022-08-14T09:29:34.000Z</time>
      </trkpt>
      <trkpt lat="47.29182" lon="-2.26026">
        <ele>23</ele>
        <time>2022-08-14T09:29:40.000Z</time>
      </trkpt>
      <trkpt lat="47.2918" lon="-2.26017">
        <ele>23</ele>
        <time>2022-08-14T09:29:42.000Z</time>
      </trkpt>
      <trkpt lat="47.29177" lon="-2.26003">
        <ele>23</ele>
        <time>2022-08-14T09:29:45.000Z</time>
      </trkpt>
      <trkpt lat="47.29167" lon="-2.25984">
        <ele>23</ele>
        <time>2022-08-14T09:29:51.000Z</time>
      </trkpt>
      <trkpt lat="47.29152" lon="-2.2598">
        <ele>23</ele>
        <time>2022-08-14T09:29:56.000Z</time>
      </trkpt>
      <trkpt lat="47.29131" lon="-2.25975">
        <ele>23</ele>
        <time>2022-08-14T09:30:01.000Z</time>
      </trkpt>
      <trkpt lat="47.29122" lon="-2.25974">
        <ele>23</ele>
        <time>2022-08-14T09:30:03.000Z</time>
      </trkpt>
      <trkpt lat="47.29113" lon="-2.25974">
        <ele>23</ele>
        <time>2022-08-14T09:30:05.000Z</time>
      </trkpt>
      <trkpt lat="47.29108" lon="-2.25975">
        <ele>23</ele>
        <time>2022-08-14T09:30:06.000Z</time>
      </trkpt>
      <trkpt lat="47.29098" lon="-2.25984">
        <ele>23</ele>
        <time>2022-08-14T09:30:09.000Z</time>
      </trkpt>
      <trkpt lat="47.29095" lon="-2.25987">
        <ele>23</ele>
        <time>2022-08-14T09:30:10.000Z</time>
      </trkpt>
      <trkpt lat="47.29082" lon="-2.26">
        <ele>23</ele>
        <time>2022-08-14T09:30:14.000Z</time>
      </trkpt>
      <trkpt lat="47.29081" lon="-2.26006">
        <ele>23</ele>
        <time>2022-08-14T09:30:15.000Z</time>
      </trkpt>
      <trkpt lat="47.29084" lon="-2.26026">
        <ele>23</ele>
        <time>2022-08-14T09:30:18.000Z</time>
      </trkpt>
      <trkpt lat="47.29086" lon="-2.26032">
        <ele>23</ele>
        <time>2022-08-14T09:30:19.000Z</time>
      </trkpt>
      <trkpt lat="47.29096" lon="-2.26067">
        <ele>23</ele>
        <time>2022-08-14T09:30:24.000Z</time>
      </trkpt>
      <trkpt lat="47.29098" lon="-2.26074">
        <ele>23</ele>
        <time>2022-08-14T09:30:25.000Z</time>
      </trkpt>
      <trkpt lat="47.29101" lon="-2.26096">
        <ele>23</ele>
        <time>2022-08-14T09:30:28.000Z</time>
      </trkpt>
      <trkpt lat="47.29101" lon="-2.26111">
        <ele>23</ele>
        <time>2022-08-14T09:30:30.000Z</time>
      </trkpt>
      <trkpt lat="47.29098" lon="-2.26132">
        <ele>23</ele>
        <time>2022-08-14T09:30:33.000Z</time>
      </trkpt>
      <trkpt lat="47.29096" lon="-2.26155">
        <ele>23</ele>
        <time>2022-08-14T09:30:36.000Z</time>
      </trkpt>
      <trkpt lat="47.29095" lon="-2.26172">
        <ele>23</ele>
        <time>2022-08-14T09:30:38.000Z</time>
      </trkpt>
      <trkpt lat="47.2909" lon="-2.26197">
        <ele>23</ele>
        <time>2022-08-14T09:30:41.000Z</time>
      </trkpt>
      <trkpt lat="47.2908" lon="-2.26254">
        <ele>23</ele>
        <time>2022-08-14T09:30:48.000Z</time>
      </trkpt>
      <trkpt lat="47.29066" lon="-2.26316">
        <ele>23</ele>
        <time>2022-08-14T09:30:56.000Z</time>
      </trkpt>
      <trkpt lat="47.29063" lon="-2.26322">
        <ele>23</ele>
        <time>2022-08-14T09:30:57.000Z</time>
      </trkpt>
      <trkpt lat="47.29052" lon="-2.26339">
        <ele>23</ele>
        <time>2022-08-14T09:31:00.000Z</time>
      </trkpt>
      <trkpt lat="47.29048" lon="-2.26344">
        <ele>23</ele>
        <time>2022-08-14T09:31:01.000Z</time>
      </trkpt>
      <trkpt lat="47.29028" lon="-2.26361">
        <ele>23</ele>
        <time>2022-08-14T09:31:05.000Z</time>
      </trkpt>
      <trkpt lat="47.29024" lon="-2.26364">
        <ele>23</ele>
        <time>2022-08-14T09:31:06.000Z</time>
      </trkpt>
      <trkpt lat="47.2902" lon="-2.26369">
        <ele>23</ele>
        <time>2022-08-14T09:31:07.000Z</time>
      </trkpt>
      <trkpt lat="47.29015" lon="-2.26381">
        <ele>23</ele>
        <time>2022-08-14T09:31:09.000Z</time>
      </trkpt>
      <trkpt lat="47.29015" lon="-2.26411">
        <ele>23</ele>
        <time>2022-08-14T09:31:13.000Z</time>
      </trkpt>
      <trkpt lat="47.2902" lon="-2.2646">
        <ele>23</ele>
        <time>2022-08-14T09:31:18.000Z</time>
      </trkpt>
      <trkpt lat="47.29022" lon="-2.26494">
        <ele>22.60000038147</ele>
        <time>2022-08-14T09:31:21.000Z</time>
      </trkpt>
      <trkpt lat="47.29024" lon="-2.26504">
        <ele>22.200000762939</ele>
        <time>2022-08-14T09:31:22.000Z</time>
      </trkpt>
      <trkpt lat="47.29026" lon="-2.26515">
        <ele>21.799999237061</ele>
        <time>2022-08-14T09:31:23.000Z</time>
      </trkpt>
      <trkpt lat="47.29028" lon="-2.26525">
        <ele>21.39999961853</ele>
        <time>2022-08-14T09:31:24.000Z</time>
      </trkpt>
      <trkpt lat="47.2903" lon="-2.26535">
        <ele>21</ele>
        <time>2022-08-14T09:31:25.000Z</time>
      </trkpt>
      <trkpt lat="47.29039" lon="-2.26569">
        <ele>21</ele>
        <time>2022-08-14T09:31:29.000Z</time>
      </trkpt>
      <trkpt lat="47.29045" lon="-2.26607">
        <ele>21</ele>
        <time>2022-08-14T09:31:34.000Z</time>
      </trkpt>
      <trkpt lat="47.2905" lon="-2.26673">
        <ele>21</ele>
        <time>2022-08-14T09:31:41.000Z</time>
      </trkpt>
      <trkpt lat="47.29053" lon="-2.26703">
        <ele>20.60000038147</ele>
        <time>2022-08-14T09:31:44.000Z</time>
      </trkpt>
      <trkpt lat="47.29054" lon="-2.26713">
        <ele>20.200000762939</ele>
        <time>2022-08-14T09:31:45.000Z</time>
      </trkpt>
      <trkpt lat="47.29055" lon="-2.26724">
        <ele>19.799999237061</ele>
        <time>2022-08-14T09:31:46.000Z</time>
      </trkpt>
      <trkpt lat="47.29057" lon="-2.26735">
        <ele>19.39999961853</ele>
        <time>2022-08-14T09:31:47.000Z</time>
      </trkpt>
      <trkpt lat="47.29059" lon="-2.26747">
        <ele>18.799999237061</ele>
        <time>2022-08-14T09:31:48.000Z</time>
      </trkpt>
      <trkpt lat="47.2906" lon="-2.26759">
        <ele>18.39999961853</ele>
        <time>2022-08-14T09:31:49.000Z</time>
      </trkpt>
      <trkpt lat="47.29063" lon="-2.2677">
        <ele>17.799999237061</ele>
        <time>2022-08-14T09:31:50.000Z</time>
      </trkpt>
      <trkpt lat="47.29065" lon="-2.26783">
        <ele>17.39999961853</ele>
        <time>2022-08-14T09:31:51.000Z</time>
      </trkpt>
      <trkpt lat="47.29067" lon="-2.26795">
        <ele>16.799999237061</ele>
        <time>2022-08-14T09:31:52.000Z</time>
      </trkpt>
      <trkpt lat="47.29067" lon="-2.26808">
        <ele>16.39999961853</ele>
        <time>2022-08-14T09:31:53.000Z</time>
      </trkpt>
      <trkpt lat="47.29067" lon="-2.26821">
        <ele>15.800000190735</ele>
        <time>2022-08-14T09:31:54.000Z</time>
      </trkpt>
      <trkpt lat="47.29066" lon="-2.26832">
        <ele>15.39999961853</ele>
        <time>2022-08-14T09:31:55.000Z</time>
      </trkpt>
      <trkpt lat="47.29065" lon="-2.26844">
        <ele>15</ele>
        <time>2022-08-14T09:31:56.000Z</time>
      </trkpt>
      <trkpt lat="47.29064" lon="-2.26856">
        <ele>14.60000038147</ele>
        <time>2022-08-14T09:31:57.000Z</time>
      </trkpt>
      <trkpt lat="47.29063" lon="-2.26885">
        <ele>14.60000038147</ele>
        <time>2022-08-14T09:32:00.000Z</time>
      </trkpt>
      <trkpt lat="47.29065" lon="-2.26895">
        <ele>14.60000038147</ele>
        <time>2022-08-14T09:32:02.000Z</time>
      </trkpt>
      <trkpt lat="47.29066" lon="-2.26899">
        <ele>14.60000038147</ele>
        <time>2022-08-14T09:32:03.000Z</time>
      </trkpt>
      <trkpt lat="47.29069" lon="-2.26905">
        <ele>14.60000038147</ele>
        <time>2022-08-14T09:32:05.000Z</time>
      </trkpt>
      <trkpt lat="47.29074" lon="-2.26915">
        <ele>14.60000038147</ele>
        <time>2022-08-14T09:32:08.000Z</time>
      </trkpt>
      <trkpt lat="47.29077" lon="-2.26923">
        <ele>14.60000038147</ele>
        <time>2022-08-14T09:32:11.000Z</time>
      </trkpt>
      <trkpt lat="47.29077" lon="-2.26925">
        <ele>14.60000038147</ele>
        <time>2022-08-14T09:32:12.000Z</time>
      </trkpt>
      <trkpt lat="47.29074" lon="-2.26937">
        <ele>14.60000038147</ele>
        <time>2022-08-14T09:32:16.000Z</time>
      </trkpt>
      <trkpt lat="47.29075" lon="-2.26953">
        <ele>14.60000038147</ele>
        <time>2022-08-14T09:32:21.000Z</time>
      </trkpt>
      <trkpt lat="47.29076" lon="-2.26977">
        <ele>14.60000038147</ele>
        <time>2022-08-14T09:32:25.000Z</time>
      </trkpt>
      <trkpt lat="47.29076" lon="-2.26989">
        <ele>14.60000038147</ele>
        <time>2022-08-14T09:32:27.000Z</time>
      </trkpt>
      <trkpt lat="47.29075" lon="-2.2701">
        <ele>14.60000038147</ele>
        <time>2022-08-14T09:32:31.000Z</time>
      </trkpt>
      <trkpt lat="47.29076" lon="-2.27034">
        <ele>14.60000038147</ele>
        <time>2022-08-14T09:32:35.000Z</time>
      </trkpt>
      <trkpt lat="47.29073" lon="-2.27047">
        <ele>14.60000038147</ele>
        <time>2022-08-14T09:32:37.000Z</time>
      </trkpt>
      <trkpt lat="47.29071" lon="-2.2706">
        <ele>14.60000038147</ele>
        <time>2022-08-14T09:32:39.000Z</time>
      </trkpt>
      <trkpt lat="47.29071" lon="-2.27065">
        <ele>14.60000038147</ele>
        <time>2022-08-14T09:32:40.000Z</time>
      </trkpt>
      <trkpt lat="47.29069" lon="-2.27097">
        <ele>14.60000038147</ele>
        <time>2022-08-14T09:32:46.000Z</time>
      </trkpt>
      <trkpt lat="47.29066" lon="-2.27123">
        <ele>14.60000038147</ele>
        <time>2022-08-14T09:32:50.000Z</time>
      </trkpt>
      <trkpt lat="47.29065" lon="-2.27129">
        <ele>14.60000038147</ele>
        <time>2022-08-14T09:32:51.000Z</time>
      </trkpt>
      <trkpt lat="47.29066" lon="-2.27151">
        <ele>14.60000038147</ele>
        <time>2022-08-14T09:32:55.000Z</time>
      </trkpt>
      <trkpt lat="47.29066" lon="-2.2717">
        <ele>14.60000038147</ele>
        <time>2022-08-14T09:32:59.000Z</time>
      </trkpt>
      <trkpt lat="47.29072" lon="-2.27185">
        <ele>14.60000038147</ele>
        <time>2022-08-14T09:33:02.000Z</time>
      </trkpt>
      <trkpt lat="47.29076" lon="-2.27189">
        <ele>14.60000038147</ele>
        <time>2022-08-14T09:33:03.000Z</time>
      </trkpt>
      <trkpt lat="47.29088" lon="-2.27193">
        <ele>14.60000038147</ele>
        <time>2022-08-14T09:33:06.000Z</time>
      </trkpt>
      <trkpt lat="47.29103" lon="-2.27197">
        <ele>14.60000038147</ele>
        <time>2022-08-14T09:33:10.000Z</time>
      </trkpt>
      <trkpt lat="47.29112" lon="-2.27201">
        <ele>14.60000038147</ele>
        <time>2022-08-14T09:33:15.000Z</time>
      </trkpt>
      <trkpt lat="47.29112" lon="-2.27202">
        <ele>14.60000038147</ele>
        <time>2022-08-14T09:33:16.000Z</time>
      </trkpt>
      <trkpt lat="47.29113" lon="-2.27204">
        <ele>14.60000038147</ele>
        <time>2022-08-14T09:33:18.000Z</time>
      </trkpt>
      <trkpt lat="47.29114" lon="-2.27208">
        <ele>14.60000038147</ele>
        <time>2022-08-14T09:33:20.000Z</time>
      </trkpt>
      <trkpt lat="47.29116" lon="-2.27221">
        <ele>14.60000038147</ele>
        <time>2022-08-14T09:33:24.000Z</time>
      </trkpt>
      <trkpt lat="47.29119" lon="-2.27236">
        <ele>14.60000038147</ele>
        <time>2022-08-14T09:33:27.000Z</time>
      </trkpt>
      <trkpt lat="47.29116" lon="-2.27251">
        <ele>14.60000038147</ele>
        <time>2022-08-14T09:33:30.000Z</time>
      </trkpt>
      <trkpt lat="47.29113" lon="-2.27261">
        <ele>14.60000038147</ele>
        <time>2022-08-14T09:33:32.000Z</time>
      </trkpt>
      <trkpt lat="47.29113" lon="-2.27266">
        <ele>14.60000038147</ele>
        <time>2022-08-14T09:33:33.000Z</time>
      </trkpt>
      <trkpt lat="47.29112" lon="-2.27273">
        <ele>14.60000038147</ele>
        <time>2022-08-14T09:33:34.000Z</time>
      </trkpt>
      <trkpt lat="47.29109" lon="-2.27299">
        <ele>14.60000038147</ele>
        <time>2022-08-14T09:33:39.000Z</time>
      </trkpt>
      <trkpt lat="47.2911" lon="-2.27328">
        <ele>14.60000038147</ele>
        <time>2022-08-14T09:33:45.000Z</time>
      </trkpt>
      <trkpt lat="47.2911" lon="-2.27347">
        <ele>14.60000038147</ele>
        <time>2022-08-14T09:33:49.000Z</time>
      </trkpt>
      <trkpt lat="47.29112" lon="-2.27362">
        <ele>14.60000038147</ele>
        <time>2022-08-14T09:33:51.000Z</time>
      </trkpt>
      <trkpt lat="47.29114" lon="-2.27378">
        <ele>14.60000038147</ele>
        <time>2022-08-14T09:33:53.000Z</time>
      </trkpt>
      <trkpt lat="47.29116" lon="-2.27413">
        <ele>14.60000038147</ele>
        <time>2022-08-14T09:33:57.000Z</time>
      </trkpt>
      <trkpt lat="47.29116" lon="-2.27421">
        <ele>14.60000038147</ele>
        <time>2022-08-14T09:33:58.000Z</time>
      </trkpt>
      <trkpt lat="47.29115" lon="-2.27437">
        <ele>14.60000038147</ele>
        <time>2022-08-14T09:34:00.000Z</time>
      </trkpt>
      <trkpt lat="47.29114" lon="-2.27467">
        <ele>14.60000038147</ele>
        <time>2022-08-14T09:34:04.000Z</time>
      </trkpt>
      <trkpt lat="47.29111" lon="-2.27499">
        <ele>14.60000038147</ele>
        <time>2022-08-14T09:34:09.000Z</time>
      </trkpt>
      <trkpt lat="47.29108" lon="-2.27515">
        <ele>14.60000038147</ele>
        <time>2022-08-14T09:34:13.000Z</time>
      </trkpt>
      <trkpt lat="47.29107" lon="-2.27516">
        <ele>14.60000038147</ele>
        <time>2022-08-14T09:34:15.000Z</time>
      </trkpt>
      <trkpt lat="47.29104" lon="-2.2752">
        <ele>14.60000038147</ele>
        <time>2022-08-14T09:34:35.000Z</time>
      </trkpt>
      <trkpt lat="47.29102" lon="-2.27522">
        <ele>14.60000038147</ele>
        <time>2022-08-14T09:34:36.000Z</time>
      </trkpt>
      <trkpt lat="47.29092" lon="-2.27521">
        <ele>14.60000038147</ele>
        <time>2022-08-14T09:34:41.000Z</time>
      </trkpt>
      <trkpt lat="47.29086" lon="-2.27522">
        <ele>14.60000038147</ele>
        <time>2022-08-14T09:34:43.000Z</time>
      </trkpt>
      <trkpt lat="47.29076" lon="-2.27525">
        <ele>14.60000038147</ele>
        <time>2022-08-14T09:34:45.000Z</time>
      </trkpt>
      <trkpt lat="47.29071" lon="-2.27525">
        <ele>14.60000038147</ele>
        <time>2022-08-14T09:34:46.000Z</time>
      </trkpt>
      <trkpt lat="47.29062" lon="-2.27525">
        <ele>14.60000038147</ele>
        <time>2022-08-14T09:34:48.000Z</time>
      </trkpt>
      <trkpt lat="47.29051" lon="-2.27525">
        <ele>14.60000038147</ele>
        <time>2022-08-14T09:34:51.000Z</time>
      </trkpt>
      <trkpt lat="47.29012" lon="-2.27525">
        <ele>14.60000038147</ele>
        <time>2022-08-14T09:34:57.000Z</time>
      </trkpt>
      <trkpt lat="47.28989" lon="-2.27524">
        <ele>14.60000038147</ele>
        <time>2022-08-14T09:35:01.000Z</time>
      </trkpt>
      <trkpt lat="47.28982" lon="-2.27524">
        <ele>14.60000038147</ele>
        <time>2022-08-14T09:35:02.000Z</time>
      </trkpt>
      <trkpt lat="47.28932" lon="-2.27523">
        <ele>14.60000038147</ele>
        <time>2022-08-14T09:35:10.000Z</time>
      </trkpt>
      <trkpt lat="47.2892" lon="-2.27524">
        <ele>14.60000038147</ele>
        <time>2022-08-14T09:35:12.000Z</time>
      </trkpt>
      <trkpt lat="47.289" lon="-2.27527">
        <ele>14.60000038147</ele>
        <time>2022-08-14T09:35:15.000Z</time>
      </trkpt>
      <trkpt lat="47.2887" lon="-2.27533">
        <ele>14.60000038147</ele>
        <time>2022-08-14T09:35:20.000Z</time>
      </trkpt>
      <trkpt lat="47.28836" lon="-2.27537">
        <ele>14.60000038147</ele>
        <time>2022-08-14T09:35:26.000Z</time>
      </trkpt>
      <trkpt lat="47.28812" lon="-2.27545">
        <ele>14.60000038147</ele>
        <time>2022-08-14T09:35:30.000Z</time>
      </trkpt>
      <trkpt lat="47.28807" lon="-2.27549">
        <ele>14.60000038147</ele>
        <time>2022-08-14T09:35:31.000Z</time>
      </trkpt>
      <trkpt lat="47.28788" lon="-2.27571">
        <ele>14.60000038147</ele>
        <time>2022-08-14T09:35:35.000Z</time>
      </trkpt>
      <trkpt lat="47.28784" lon="-2.27576">
        <ele>14.60000038147</ele>
        <time>2022-08-14T09:35:36.000Z</time>
      </trkpt>
      <trkpt lat="47.28767" lon="-2.27595">
        <ele>14.60000038147</ele>
        <time>2022-08-14T09:35:40.000Z</time>
      </trkpt>
      <trkpt lat="47.28748" lon="-2.27622">
        <ele>14.60000038147</ele>
        <time>2022-08-14T09:35:45.000Z</time>
      </trkpt>
      <trkpt lat="47.28739" lon="-2.27635">
        <ele>15</ele>
        <time>2022-08-14T09:35:47.000Z</time>
      </trkpt>
      <trkpt lat="47.28734" lon="-2.27641">
        <ele>15.39999961853</ele>
        <time>2022-08-14T09:35:48.000Z</time>
      </trkpt>
      <trkpt lat="47.2873" lon="-2.27648">
        <ele>15.800000190735</ele>
        <time>2022-08-14T09:35:49.000Z</time>
      </trkpt>
      <trkpt lat="47.28726" lon="-2.27655">
        <ele>16.200000762939</ele>
        <time>2022-08-14T09:35:50.000Z</time>
      </trkpt>
      <trkpt lat="47.28721" lon="-2.27662">
        <ele>16.60000038147</ele>
        <time>2022-08-14T09:35:51.000Z</time>
      </trkpt>
      <trkpt lat="47.28691" lon="-2.2771">
        <ele>16.60000038147</ele>
        <time>2022-08-14T09:35:58.000Z</time>
      </trkpt>
      <trkpt lat="47.28668" lon="-2.27753">
        <ele>16.60000038147</ele>
        <time>2022-08-14T09:36:04.000Z</time>
      </trkpt>
      <trkpt lat="47.28653" lon="-2.27792">
        <ele>16.60000038147</ele>
        <time>2022-08-14T09:36:09.000Z</time>
      </trkpt>
      <trkpt lat="47.28645" lon="-2.27841">
        <ele>16.60000038147</ele>
        <time>2022-08-14T09:36:15.000Z</time>
      </trkpt>
      <trkpt lat="47.28635" lon="-2.27899">
        <ele>16.60000038147</ele>
        <time>2022-08-14T09:36:22.000Z</time>
      </trkpt>
      <trkpt lat="47.28629" lon="-2.27938">
        <ele>16.60000038147</ele>
        <time>2022-08-14T09:36:27.000Z</time>
      </trkpt>
      <trkpt lat="47.28626" lon="-2.27944">
        <ele>17</ele>
        <time>2022-08-14T09:36:28.000Z</time>
      </trkpt>
      <trkpt lat="47.28623" lon="-2.27951">
        <ele>17.39999961853</ele>
        <time>2022-08-14T09:36:29.000Z</time>
      </trkpt>
      <trkpt lat="47.2862" lon="-2.27957">
        <ele>17.799999237061</ele>
        <time>2022-08-14T09:36:30.000Z</time>
      </trkpt>
      <trkpt lat="47.28617" lon="-2.27964">
        <ele>18.200000762939</ele>
        <time>2022-08-14T09:36:31.000Z</time>
      </trkpt>
      <trkpt lat="47.28614" lon="-2.27971">
        <ele>18.60000038147</ele>
        <time>2022-08-14T09:36:32.000Z</time>
      </trkpt>
      <trkpt lat="47.28612" lon="-2.27978">
        <ele>18.60000038147</ele>
        <time>2022-08-14T09:36:33.000Z</time>
      </trkpt>
      <trkpt lat="47.2861" lon="-2.27993">
        <ele>18.60000038147</ele>
        <time>2022-08-14T09:36:35.000Z</time>
      </trkpt>
      <trkpt lat="47.28606" lon="-2.28008">
        <ele>18.60000038147</ele>
        <time>2022-08-14T09:36:37.000Z</time>
      </trkpt>
      <trkpt lat="47.28605" lon="-2.28014">
        <ele>18.60000038147</ele>
        <time>2022-08-14T09:36:38.000Z</time>
      </trkpt>
      <trkpt lat="47.28595" lon="-2.28024">
        <ele>18.60000038147</ele>
        <time>2022-08-14T09:36:41.000Z</time>
      </trkpt>
      <trkpt lat="47.28585" lon="-2.28038">
        <ele>18.60000038147</ele>
        <time>2022-08-14T09:36:45.000Z</time>
      </trkpt>
      <trkpt lat="47.28581" lon="-2.28039">
        <ele>18.60000038147</ele>
        <time>2022-08-14T09:36:46.000Z</time>
      </trkpt>
      <trkpt lat="47.28571" lon="-2.28045">
        <ele>18.60000038147</ele>
        <time>2022-08-14T09:36:48.000Z</time>
      </trkpt>
      <trkpt lat="47.28555" lon="-2.28046">
        <ele>18.60000038147</ele>
        <time>2022-08-14T09:36:52.000Z</time>
      </trkpt>
      <trkpt lat="47.28551" lon="-2.28045">
        <ele>18.60000038147</ele>
        <time>2022-08-14T09:36:53.000Z</time>
      </trkpt>
      <trkpt lat="47.28543" lon="-2.28045">
        <ele>19</ele>
        <time>2022-08-14T09:36:55.000Z</time>
      </trkpt>
      <trkpt lat="47.28541" lon="-2.28046">
        <ele>19.60000038147</ele>
        <time>2022-08-14T09:36:56.000Z</time>
      </trkpt>
      <trkpt lat="47.28539" lon="-2.28046">
        <ele>20</ele>
        <time>2022-08-14T09:36:57.000Z</time>
      </trkpt>
      <trkpt lat="47.28537" lon="-2.28045">
        <ele>20.39999961853</ele>
        <time>2022-08-14T09:36:58.000Z</time>
      </trkpt>
      <trkpt lat="47.28534" lon="-2.28045">
        <ele>20.799999237061</ele>
        <time>2022-08-14T09:36:59.000Z</time>
      </trkpt>
      <trkpt lat="47.2853" lon="-2.28046">
        <ele>21.200000762939</ele>
        <time>2022-08-14T09:37:00.000Z</time>
      </trkpt>
      <trkpt lat="47.28526" lon="-2.28048">
        <ele>21.60000038147</ele>
        <time>2022-08-14T09:37:01.000Z</time>
      </trkpt>
      <trkpt lat="47.28523" lon="-2.28048">
        <ele>22</ele>
        <time>2022-08-14T09:37:02.000Z</time>
      </trkpt>
      <trkpt lat="47.28521" lon="-2.28048">
        <ele>22.39999961853</ele>
        <time>2022-08-14T09:37:03.000Z</time>
      </trkpt>
      <trkpt lat="47.28518" lon="-2.28048">
        <ele>22.799999237061</ele>
        <time>2022-08-14T09:37:04.000Z</time>
      </trkpt>
      <trkpt lat="47.28513" lon="-2.28046">
        <ele>23.39999961853</ele>
        <time>2022-08-14T09:37:06.000Z</time>
      </trkpt>
      <trkpt lat="47.28512" lon="-2.28045">
        <ele>23.799999237061</ele>
        <time>2022-08-14T09:37:07.000Z</time>
      </trkpt>
      <trkpt lat="47.2851" lon="-2.28043">
        <ele>24.60000038147</ele>
        <time>2022-08-14T09:37:08.000Z</time>
      </trkpt>
      <trkpt lat="47.28508" lon="-2.28042">
        <ele>25</ele>
        <time>2022-08-14T09:37:09.000Z</time>
      </trkpt>
      <trkpt lat="47.28503" lon="-2.28039">
        <ele>25</ele>
        <time>2022-08-14T09:37:11.000Z</time>
      </trkpt>
      <trkpt lat="47.28498" lon="-2.28038">
        <ele>25</ele>
        <time>2022-08-14T09:37:13.000Z</time>
      </trkpt>
      <trkpt lat="47.28495" lon="-2.28041">
        <ele>25</ele>
        <time>2022-08-14T09:37:15.000Z</time>
      </trkpt>
      <trkpt lat="47.28492" lon="-2.28051">
        <ele>25</ele>
        <time>2022-08-14T09:37:20.000Z</time>
      </trkpt>
      <trkpt lat="47.28493" lon="-2.28055">
        <ele>25</ele>
        <time>2022-08-14T09:37:21.000Z</time>
      </trkpt>
      <trkpt lat="47.28497" lon="-2.28065">
        <ele>25</ele>
        <time>2022-08-14T09:37:24.000Z</time>
      </trkpt>
      <trkpt lat="47.28498" lon="-2.28069">
        <ele>25</ele>
        <time>2022-08-14T09:37:25.000Z</time>
      </trkpt>
      <trkpt lat="47.28492" lon="-2.2808">
        <ele>25</ele>
        <time>2022-08-14T09:37:28.000Z</time>
      </trkpt>
      <trkpt lat="47.28486" lon="-2.28083">
        <ele>25</ele>
        <time>2022-08-14T09:37:30.000Z</time>
      </trkpt>
      <trkpt lat="47.28476" lon="-2.28086">
        <ele>25</ele>
        <time>2022-08-14T09:37:33.000Z</time>
      </trkpt>
      <trkpt lat="47.28463" lon="-2.28083">
        <ele>25</ele>
        <time>2022-08-14T09:37:38.000Z</time>
      </trkpt>
      <trkpt lat="47.28454" lon="-2.28083">
        <ele>25</ele>
        <time>2022-08-14T09:37:42.000Z</time>
      </trkpt>
      <trkpt lat="47.28452" lon="-2.28084">
        <ele>25</ele>
        <time>2022-08-14T09:37:43.000Z</time>
      </trkpt>
      <trkpt lat="47.28441" lon="-2.28084">
        <ele>25</ele>
        <time>2022-08-14T09:37:47.000Z</time>
      </trkpt>
      <trkpt lat="47.28432" lon="-2.28085">
        <ele>25</ele>
        <time>2022-08-14T09:37:50.000Z</time>
      </trkpt>
      <trkpt lat="47.28426" lon="-2.28082">
        <ele>25</ele>
        <time>2022-08-14T09:37:52.000Z</time>
      </trkpt>
      <trkpt lat="47.28399" lon="-2.28083">
        <ele>25</ele>
        <time>2022-08-14T09:37:58.000Z</time>
      </trkpt>
      <trkpt lat="47.28395" lon="-2.28083">
        <ele>24.60000038147</ele>
        <time>2022-08-14T09:37:59.000Z</time>
      </trkpt>
      <trkpt lat="47.28392" lon="-2.28083">
        <ele>24.200000762939</ele>
        <time>2022-08-14T09:38:00.000Z</time>
      </trkpt>
      <trkpt lat="47.28389" lon="-2.28084">
        <ele>23.799999237061</ele>
        <time>2022-08-14T09:38:01.000Z</time>
      </trkpt>
      <trkpt lat="47.28387" lon="-2.28083">
        <ele>23.39999961853</ele>
        <time>2022-08-14T09:38:02.000Z</time>
      </trkpt>
      <trkpt lat="47.28385" lon="-2.28082">
        <ele>23</ele>
        <time>2022-08-14T09:38:03.000Z</time>
      </trkpt>
      <trkpt lat="47.28379" lon="-2.28071">
        <ele>23</ele>
        <time>2022-08-14T09:38:07.000Z</time>
      </trkpt>
      <trkpt lat="47.28376" lon="-2.28065">
        <ele>23.39999961853</ele>
        <time>2022-08-14T09:38:10.000Z</time>
      </trkpt>
      <trkpt lat="47.28376" lon="-2.28063">
        <ele>23.799999237061</ele>
        <time>2022-08-14T09:38:11.000Z</time>
      </trkpt>
      <trkpt lat="47.28375" lon="-2.28061">
        <ele>24.200000762939</ele>
        <time>2022-08-14T09:38:12.000Z</time>
      </trkpt>
      <trkpt lat="47.28375" lon="-2.28059">
        <ele>24.60000038147</ele>
        <time>2022-08-14T09:38:13.000Z</time>
      </trkpt>
      <trkpt lat="47.28375" lon="-2.28056">
        <ele>25</ele>
        <time>2022-08-14T09:38:14.000Z</time>
      </trkpt>
      <trkpt lat="47.28376" lon="-2.28054">
        <ele>25</ele>
        <time>2022-08-14T09:38:15.000Z</time>
      </trkpt>
      <trkpt lat="47.28377" lon="-2.28052">
        <ele>25</ele>
        <time>2022-08-14T09:38:16.000Z</time>
      </trkpt>
      <trkpt lat="47.28378" lon="-2.28051">
        <ele>25</ele>
        <time>2022-08-14T09:38:17.000Z</time>
      </trkpt>
      <trkpt lat="47.28379" lon="-2.2805">
        <ele>25.39999961853</ele>
        <time>2022-08-14T09:38:18.000Z</time>
      </trkpt>
      <trkpt lat="47.2838" lon="-2.28049">
        <ele>25.799999237061</ele>
        <time>2022-08-14T09:38:19.000Z</time>
      </trkpt>
      <trkpt lat="47.28381" lon="-2.28048">
        <ele>26.200000762939</ele>
        <time>2022-08-14T09:38:20.000Z</time>
      </trkpt>
      <trkpt lat="47.28382" lon="-2.28046">
        <ele>27</ele>
        <time>2022-08-14T09:38:21.000Z</time>
      </trkpt>
      <trkpt lat="47.28383" lon="-2.28044">
        <ele>27</ele>
        <time>2022-08-14T09:38:22.000Z</time>
      </trkpt>
      <trkpt lat="47.28384" lon="-2.28041">
        <ele>27</ele>
        <time>2022-08-14T09:38:23.000Z</time>
      </trkpt>
      <trkpt lat="47.28386" lon="-2.28031">
        <ele>27</ele>
        <time>2022-08-14T09:38:27.000Z</time>
      </trkpt>
      <trkpt lat="47.28389" lon="-2.28025">
        <ele>27</ele>
        <time>2022-08-14T09:38:29.000Z</time>
      </trkpt>
      <trkpt lat="47.28389" lon="-2.28021">
        <ele>27.60000038147</ele>
        <time>2022-08-14T09:38:31.000Z</time>
      </trkpt>
      <trkpt lat="47.28387" lon="-2.28019">
        <ele>28</ele>
        <time>2022-08-14T09:38:32.000Z</time>
      </trkpt>
      <trkpt lat="47.28386" lon="-2.28019">
        <ele>28.39999961853</ele>
        <time>2022-08-14T09:38:33.000Z</time>
      </trkpt>
      <trkpt lat="47.28385" lon="-2.28018">
        <ele>28.799999237061</ele>
        <time>2022-08-14T09:38:34.000Z</time>
      </trkpt>
      <trkpt lat="47.28383" lon="-2.28019">
        <ele>29.200000762939</ele>
        <time>2022-08-14T09:38:35.000Z</time>
      </trkpt>
      <trkpt lat="47.2838" lon="-2.2802">
        <ele>29.200000762939</ele>
        <time>2022-08-14T09:38:37.000Z</time>
      </trkpt>
      <trkpt lat="47.28379" lon="-2.2802">
        <ele>29.200000762939</ele>
        <time>2022-08-14T09:38:38.000Z</time>
      </trkpt>
      <trkpt lat="47.28377" lon="-2.28022">
        <ele>29.200000762939</ele>
        <time>2022-08-14T09:38:40.000Z</time>
      </trkpt>
      <trkpt lat="47.28376" lon="-2.28031">
        <ele>29.200000762939</ele>
        <time>2022-08-14T09:38:43.000Z</time>
      </trkpt>
      <trkpt lat="47.28374" lon="-2.28035">
        <ele>29.200000762939</ele>
        <time>2022-08-14T09:38:45.000Z</time>
      </trkpt>
      <trkpt lat="47.28374" lon="-2.28037">
        <ele>28.799999237061</ele>
        <time>2022-08-14T09:38:46.000Z</time>
      </trkpt>
      <trkpt lat="47.28373" lon="-2.28039">
        <ele>28.200000762939</ele>
        <time>2022-08-14T09:38:47.000Z</time>
      </trkpt>
      <trkpt lat="47.28373" lon="-2.2804">
        <ele>27.799999237061</ele>
        <time>2022-08-14T09:38:48.000Z</time>
      </trkpt>
      <trkpt lat="47.28373" lon="-2.28042">
        <ele>27.39999961853</ele>
        <time>2022-08-14T09:38:49.000Z</time>
      </trkpt>
      <trkpt lat="47.28372" lon="-2.28045">
        <ele>27</ele>
        <time>2022-08-14T09:38:50.000Z</time>
      </trkpt>
      <trkpt lat="47.28372" lon="-2.28052">
        <ele>26.60000038147</ele>
        <time>2022-08-14T09:38:52.000Z</time>
      </trkpt>
      <trkpt lat="47.28372" lon="-2.28056">
        <ele>26</ele>
        <time>2022-08-14T09:38:53.000Z</time>
      </trkpt>
      <trkpt lat="47.28373" lon="-2.28061">
        <ele>25.60000038147</ele>
        <time>2022-08-14T09:38:54.000Z</time>
      </trkpt>
      <trkpt lat="47.28373" lon="-2.28064">
        <ele>25.200000762939</ele>
        <time>2022-08-14T09:38:55.000Z</time>
      </trkpt>
      <trkpt lat="47.28373" lon="-2.28067">
        <ele>24.799999237061</ele>
        <time>2022-08-14T09:38:56.000Z</time>
      </trkpt>
      <trkpt lat="47.28373" lon="-2.2807">
        <ele>24.200000762939</ele>
        <time>2022-08-14T09:38:57.000Z</time>
      </trkpt>
      <trkpt lat="47.28372" lon="-2.28075">
        <ele>23.799999237061</ele>
        <time>2022-08-14T09:38:58.000Z</time>
      </trkpt>
      <trkpt lat="47.28368" lon="-2.28081">
        <ele>23.39999961853</ele>
        <time>2022-08-14T09:38:59.000Z</time>
      </trkpt>
      <trkpt lat="47.28365" lon="-2.28084">
        <ele>23</ele>
        <time>2022-08-14T09:39:00.000Z</time>
      </trkpt>
      <trkpt lat="47.28361" lon="-2.28087">
        <ele>22.39999961853</ele>
        <time>2022-08-14T09:39:01.000Z</time>
      </trkpt>
      <trkpt lat="47.2835" lon="-2.28095">
        <ele>22.39999961853</ele>
        <time>2022-08-14T09:39:04.000Z</time>
      </trkpt>
      <trkpt lat="47.28331" lon="-2.28107">
        <ele>22.39999961853</ele>
        <time>2022-08-14T09:39:11.000Z</time>
      </trkpt>
      <trkpt lat="47.28329" lon="-2.2811">
        <ele>22.39999961853</ele>
        <time>2022-08-14T09:39:12.000Z</time>
      </trkpt>
      <trkpt lat="47.28327" lon="-2.28123">
        <ele>22.39999961853</ele>
        <time>2022-08-14T09:39:16.000Z</time>
      </trkpt>
      <trkpt lat="47.28327" lon="-2.28145">
        <ele>22.39999961853</ele>
        <time>2022-08-14T09:39:22.000Z</time>
      </trkpt>
      <trkpt lat="47.28326" lon="-2.28151">
        <ele>22.39999961853</ele>
        <time>2022-08-14T09:39:23.000Z</time>
      </trkpt>
      <trkpt lat="47.28324" lon="-2.28166">
        <ele>23</ele>
        <time>2022-08-14T09:39:26.000Z</time>
      </trkpt>
      <trkpt lat="47.28323" lon="-2.2817">
        <ele>23.39999961853</ele>
        <time>2022-08-14T09:39:27.000Z</time>
      </trkpt>
      <trkpt lat="47.28323" lon="-2.28174">
        <ele>23.799999237061</ele>
        <time>2022-08-14T09:39:28.000Z</time>
      </trkpt>
      <trkpt lat="47.28323" lon="-2.28179">
        <ele>24.200000762939</ele>
        <time>2022-08-14T09:39:29.000Z</time>
      </trkpt>
      <trkpt lat="47.28323" lon="-2.28183">
        <ele>24.60000038147</ele>
        <time>2022-08-14T09:39:30.000Z</time>
      </trkpt>
      <trkpt lat="47.28323" lon="-2.28206">
        <ele>24.60000038147</ele>
        <time>2022-08-14T09:39:35.000Z</time>
      </trkpt>
      <trkpt lat="47.28323" lon="-2.28216">
        <ele>25.200000762939</ele>
        <time>2022-08-14T09:39:37.000Z</time>
      </trkpt>
      <trkpt lat="47.28324" lon="-2.2822">
        <ele>25.60000038147</ele>
        <time>2022-08-14T09:39:38.000Z</time>
      </trkpt>
      <trkpt lat="47.28323" lon="-2.28225">
        <ele>26</ele>
        <time>2022-08-14T09:39:39.000Z</time>
      </trkpt>
      <trkpt lat="47.28323" lon="-2.2823">
        <ele>26.39999961853</ele>
        <time>2022-08-14T09:39:40.000Z</time>
      </trkpt>
      <trkpt lat="47.28324" lon="-2.28235">
        <ele>26.799999237061</ele>
        <time>2022-08-14T09:39:41.000Z</time>
      </trkpt>
      <trkpt lat="47.28324" lon="-2.2824">
        <ele>26.799999237061</ele>
        <time>2022-08-14T09:39:42.000Z</time>
      </trkpt>
      <trkpt lat="47.28324" lon="-2.2827">
        <ele>26.799999237061</ele>
        <time>2022-08-14T09:39:48.000Z</time>
      </trkpt>
      <trkpt lat="47.28323" lon="-2.2828">
        <ele>27.200000762939</ele>
        <time>2022-08-14T09:39:50.000Z</time>
      </trkpt>
      <trkpt lat="47.28323" lon="-2.28284">
        <ele>27.60000038147</ele>
        <time>2022-08-14T09:39:51.000Z</time>
      </trkpt>
      <trkpt lat="47.28323" lon="-2.28289">
        <ele>28.200000762939</ele>
        <time>2022-08-14T09:39:52.000Z</time>
      </trkpt>
      <trkpt lat="47.28323" lon="-2.28294">
        <ele>28.60000038147</ele>
        <time>2022-08-14T09:39:53.000Z</time>
      </trkpt>
      <trkpt lat="47.28323" lon="-2.28298">
        <ele>29</ele>
        <time>2022-08-14T09:39:54.000Z</time>
      </trkpt>
      <trkpt lat="47.28324" lon="-2.28328">
        <ele>29</ele>
        <time>2022-08-14T09:40:00.000Z</time>
      </trkpt>
      <trkpt lat="47.28323" lon="-2.28351">
        <ele>29.39999961853</ele>
        <time>2022-08-14T09:40:04.000Z</time>
      </trkpt>
      <trkpt lat="47.28323" lon="-2.28356">
        <ele>29.799999237061</ele>
        <time>2022-08-14T09:40:05.000Z</time>
      </trkpt>
      <trkpt lat="47.28323" lon="-2.2836">
        <ele>30.200000762939</ele>
        <time>2022-08-14T09:40:06.000Z</time>
      </trkpt>
      <trkpt lat="47.28322" lon="-2.28365">
        <ele>30.60000038147</ele>
        <time>2022-08-14T09:40:07.000Z</time>
      </trkpt>
      <trkpt lat="47.28322" lon="-2.2837">
        <ele>31</ele>
        <time>2022-08-14T09:40:08.000Z</time>
      </trkpt>
      <trkpt lat="47.28318" lon="-2.28396">
        <ele>31</ele>
        <time>2022-08-14T09:40:13.000Z</time>
      </trkpt>
      <trkpt lat="47.28311" lon="-2.28423">
        <ele>31</ele>
        <time>2022-08-14T09:40:18.000Z</time>
      </trkpt>
      <trkpt lat="47.28307" lon="-2.28435">
        <ele>31</ele>
        <time>2022-08-14T09:40:20.000Z</time>
      </trkpt>
      <trkpt lat="47.28303" lon="-2.28453">
        <ele>31</ele>
        <time>2022-08-14T09:40:23.000Z</time>
      </trkpt>
      <trkpt lat="47.28296" lon="-2.28482">
        <ele>31</ele>
        <time>2022-08-14T09:40:28.000Z</time>
      </trkpt>
      <trkpt lat="47.28292" lon="-2.28518">
        <ele>31</ele>
        <time>2022-08-14T09:40:34.000Z</time>
      </trkpt>
      <trkpt lat="47.28285" lon="-2.28566">
        <ele>31</ele>
        <time>2022-08-14T09:40:40.000Z</time>
      </trkpt>
      <trkpt lat="47.2827" lon="-2.28641">
        <ele>31</ele>
        <time>2022-08-14T09:40:49.000Z</time>
      </trkpt>
      <trkpt lat="47.28258" lon="-2.287">
        <ele>31</ele>
        <time>2022-08-14T09:40:56.000Z</time>
      </trkpt>
      <trkpt lat="47.28245" lon="-2.28772">
        <ele>31</ele>
        <time>2022-08-14T09:41:04.000Z</time>
      </trkpt>
      <trkpt lat="47.28234" lon="-2.28839">
        <ele>31</ele>
        <time>2022-08-14T09:41:12.000Z</time>
      </trkpt>
      <trkpt lat="47.28227" lon="-2.28862">
        <ele>31</ele>
        <time>2022-08-14T09:41:15.000Z</time>
      </trkpt>
      <trkpt lat="47.28218" lon="-2.2887">
        <ele>31</ele>
        <time>2022-08-14T09:41:17.000Z</time>
      </trkpt>
      <trkpt lat="47.28202" lon="-2.28865">
        <ele>31</ele>
        <time>2022-08-14T09:41:20.000Z</time>
      </trkpt>
      <trkpt lat="47.28197" lon="-2.28862">
        <ele>31</ele>
        <time>2022-08-14T09:41:21.000Z</time>
      </trkpt>
      <trkpt lat="47.28176" lon="-2.28845">
        <ele>30.60000038147</ele>
        <time>2022-08-14T09:41:25.000Z</time>
      </trkpt>
      <trkpt lat="47.28171" lon="-2.2884">
        <ele>30.200000762939</ele>
        <time>2022-08-14T09:41:26.000Z</time>
      </trkpt>
      <trkpt lat="47.28166" lon="-2.28835">
        <ele>29.799999237061</ele>
        <time>2022-08-14T09:41:27.000Z</time>
      </trkpt>
      <trkpt lat="47.28161" lon="-2.2883">
        <ele>29.39999961853</ele>
        <time>2022-08-14T09:41:28.000Z</time>
      </trkpt>
      <trkpt lat="47.28155" lon="-2.28825">
        <ele>29</ele>
        <time>2022-08-14T09:41:29.000Z</time>
      </trkpt>
      <trkpt lat="47.28132" lon="-2.28807">
        <ele>29</ele>
        <time>2022-08-14T09:41:33.000Z</time>
      </trkpt>
      <trkpt lat="47.28119" lon="-2.28798">
        <ele>28.60000038147</ele>
        <time>2022-08-14T09:41:35.000Z</time>
      </trkpt>
      <trkpt lat="47.28113" lon="-2.28795">
        <ele>28.200000762939</ele>
        <time>2022-08-14T09:41:36.000Z</time>
      </trkpt>
      <trkpt lat="47.28106" lon="-2.28791">
        <ele>27.60000038147</ele>
        <time>2022-08-14T09:41:37.000Z</time>
      </trkpt>
      <trkpt lat="47.281" lon="-2.28787">
        <ele>27.200000762939</ele>
        <time>2022-08-14T09:41:38.000Z</time>
      </trkpt>
      <trkpt lat="47.28093" lon="-2.28785">
        <ele>26.799999237061</ele>
        <time>2022-08-14T09:41:39.000Z</time>
      </trkpt>
      <trkpt lat="47.28061" lon="-2.28769">
        <ele>26.39999961853</ele>
        <time>2022-08-14T09:41:44.000Z</time>
      </trkpt>
      <trkpt lat="47.28055" lon="-2.28766">
        <ele>26</ele>
        <time>2022-08-14T09:41:45.000Z</time>
      </trkpt>
      <trkpt lat="47.28048" lon="-2.28763">
        <ele>25.60000038147</ele>
        <time>2022-08-14T09:41:46.000Z</time>
      </trkpt>
      <trkpt lat="47.28042" lon="-2.2876">
        <ele>25.200000762939</ele>
        <time>2022-08-14T09:41:47.000Z</time>
      </trkpt>
      <trkpt lat="47.28036" lon="-2.28759">
        <ele>24.799999237061</ele>
        <time>2022-08-14T09:41:48.000Z</time>
      </trkpt>
      <trkpt lat="47.28001" lon="-2.28751">
        <ele>24.799999237061</ele>
        <time>2022-08-14T09:41:53.000Z</time>
      </trkpt>
      <trkpt lat="47.27956" lon="-2.28748">
        <ele>24.799999237061</ele>
        <time>2022-08-14T09:42:00.000Z</time>
      </trkpt>
      <trkpt lat="47.2792" lon="-2.28759">
        <ele>24.799999237061</ele>
        <time>2022-08-14T09:42:06.000Z</time>
      </trkpt>
      <trkpt lat="47.2789" lon="-2.2877">
        <ele>24.799999237061</ele>
        <time>2022-08-14T09:42:12.000Z</time>
      </trkpt>
      <trkpt lat="47.27881" lon="-2.28776">
        <ele>24.799999237061</ele>
        <time>2022-08-14T09:42:14.000Z</time>
      </trkpt>
      <trkpt lat="47.27876" lon="-2.28786">
        <ele>24.799999237061</ele>
        <time>2022-08-14T09:42:16.000Z</time>
      </trkpt>
      <trkpt lat="47.2787" lon="-2.28805">
        <ele>24.799999237061</ele>
        <time>2022-08-14T09:42:19.000Z</time>
      </trkpt>
      <trkpt lat="47.27865" lon="-2.28815">
        <ele>24.799999237061</ele>
        <time>2022-08-14T09:42:21.000Z</time>
      </trkpt>
      <trkpt lat="47.27852" lon="-2.28812">
        <ele>24.799999237061</ele>
        <time>2022-08-14T09:42:24.000Z</time>
      </trkpt>
      <trkpt lat="47.27833" lon="-2.28798">
        <ele>24.799999237061</ele>
        <time>2022-08-14T09:42:28.000Z</time>
      </trkpt>
      <trkpt lat="47.27827" lon="-2.28796">
        <ele>24.799999237061</ele>
        <time>2022-08-14T09:42:29.000Z</time>
      </trkpt>
      <trkpt lat="47.27822" lon="-2.28795">
        <ele>24.799999237061</ele>
        <time>2022-08-14T09:42:30.000Z</time>
      </trkpt>
      <trkpt lat="47.27804" lon="-2.28796">
        <ele>24.799999237061</ele>
        <time>2022-08-14T09:42:33.000Z</time>
      </trkpt>
      <trkpt lat="47.27798" lon="-2.28798">
        <ele>24.799999237061</ele>
        <time>2022-08-14T09:42:34.000Z</time>
      </trkpt>
      <trkpt lat="47.27792" lon="-2.28798">
        <ele>24.799999237061</ele>
        <time>2022-08-14T09:42:35.000Z</time>
      </trkpt>
      <trkpt lat="47.27775" lon="-2.28799">
        <ele>24.799999237061</ele>
        <time>2022-08-14T09:42:38.000Z</time>
      </trkpt>
      <trkpt lat="47.27747" lon="-2.28808">
        <ele>24.799999237061</ele>
        <time>2022-08-14T09:42:43.000Z</time>
      </trkpt>
      <trkpt lat="47.27742" lon="-2.28808">
        <ele>24.799999237061</ele>
        <time>2022-08-14T09:42:44.000Z</time>
      </trkpt>
      <trkpt lat="47.27724" lon="-2.28815">
        <ele>24.799999237061</ele>
        <time>2022-08-14T09:42:47.000Z</time>
      </trkpt>
      <trkpt lat="47.27719" lon="-2.28817">
        <ele>24.799999237061</ele>
        <time>2022-08-14T09:42:48.000Z</time>
      </trkpt>
      <trkpt lat="47.27708" lon="-2.28818">
        <ele>24.799999237061</ele>
        <time>2022-08-14T09:42:50.000Z</time>
      </trkpt>
      <trkpt lat="47.27703" lon="-2.28814">
        <ele>24.799999237061</ele>
        <time>2022-08-14T09:42:51.000Z</time>
      </trkpt>
      <trkpt lat="47.27694" lon="-2.28797">
        <ele>24.799999237061</ele>
        <time>2022-08-14T09:42:54.000Z</time>
      </trkpt>
      <trkpt lat="47.27692" lon="-2.2879">
        <ele>24.799999237061</ele>
        <time>2022-08-14T09:42:55.000Z</time>
      </trkpt>
      <trkpt lat="47.27688" lon="-2.28784">
        <ele>24.799999237061</ele>
        <time>2022-08-14T09:42:56.000Z</time>
      </trkpt>
      <trkpt lat="47.27674" lon="-2.28768">
        <ele>24.799999237061</ele>
        <time>2022-08-14T09:42:59.000Z</time>
      </trkpt>
      <trkpt lat="47.2765" lon="-2.28753">
        <ele>24.799999237061</ele>
        <time>2022-08-14T09:43:04.000Z</time>
      </trkpt>
      <trkpt lat="47.27614" lon="-2.28742">
        <ele>24.799999237061</ele>
        <time>2022-08-14T09:43:10.000Z</time>
      </trkpt>
      <trkpt lat="47.27572" lon="-2.28718">
        <ele>24.799999237061</ele>
        <time>2022-08-14T09:43:16.000Z</time>
      </trkpt>
      <trkpt lat="47.27558" lon="-2.28713">
        <ele>24.799999237061</ele>
        <time>2022-08-14T09:43:18.000Z</time>
      </trkpt>
      <trkpt lat="47.27538" lon="-2.28705">
        <ele>24.799999237061</ele>
        <time>2022-08-14T09:43:21.000Z</time>
      </trkpt>
      <trkpt lat="47.27527" lon="-2.28696">
        <ele>24.799999237061</ele>
        <time>2022-08-14T09:43:23.000Z</time>
      </trkpt>
      <trkpt lat="47.27519" lon="-2.28682">
        <ele>24.799999237061</ele>
        <time>2022-08-14T09:43:25.000Z</time>
      </trkpt>
      <trkpt lat="47.27495" lon="-2.28647">
        <ele>24.799999237061</ele>
        <time>2022-08-14T09:43:30.000Z</time>
      </trkpt>
      <trkpt lat="47.27491" lon="-2.28639">
        <ele>24.799999237061</ele>
        <time>2022-08-14T09:43:31.000Z</time>
      </trkpt>
      <trkpt lat="47.27481" lon="-2.28619">
        <ele>24.799999237061</ele>
        <time>2022-08-14T09:43:34.000Z</time>
      </trkpt>
      <trkpt lat="47.27472" lon="-2.28615">
        <ele>24.799999237061</ele>
        <time>2022-08-14T09:43:36.000Z</time>
      </trkpt>
      <trkpt lat="47.27466" lon="-2.28623">
        <ele>24.799999237061</ele>
        <time>2022-08-14T09:43:39.000Z</time>
      </trkpt>
      <trkpt lat="47.2746" lon="-2.28638">
        <ele>25.200000762939</ele>
        <time>2022-08-14T09:43:42.000Z</time>
      </trkpt>
      <trkpt lat="47.27458" lon="-2.28643">
        <ele>25.60000038147</ele>
        <time>2022-08-14T09:43:43.000Z</time>
      </trkpt>
      <trkpt lat="47.27456" lon="-2.28649">
        <ele>26</ele>
        <time>2022-08-14T09:43:44.000Z</time>
      </trkpt>
      <trkpt lat="47.27452" lon="-2.28655">
        <ele>26.39999961853</ele>
        <time>2022-08-14T09:43:45.000Z</time>
      </trkpt>
      <trkpt lat="47.27448" lon="-2.28662">
        <ele>26.799999237061</ele>
        <time>2022-08-14T09:43:46.000Z</time>
      </trkpt>
      <trkpt lat="47.27444" lon="-2.28668">
        <ele>26.799999237061</ele>
        <time>2022-08-14T09:43:47.000Z</time>
      </trkpt>
      <trkpt lat="47.27441" lon="-2.28675">
        <ele>26.799999237061</ele>
        <time>2022-08-14T09:43:48.000Z</time>
      </trkpt>
      <trkpt lat="47.27432" lon="-2.28696">
        <ele>26.799999237061</ele>
        <time>2022-08-14T09:43:51.000Z</time>
      </trkpt>
      <trkpt lat="47.27409" lon="-2.28746">
        <ele>26.799999237061</ele>
        <time>2022-08-14T09:43:58.000Z</time>
      </trkpt>
      <trkpt lat="47.27399" lon="-2.28766">
        <ele>26.799999237061</ele>
        <time>2022-08-14T09:44:01.000Z</time>
      </trkpt>
      <trkpt lat="47.27396" lon="-2.28774">
        <ele>26.799999237061</ele>
        <time>2022-08-14T09:44:02.000Z</time>
      </trkpt>
      <trkpt lat="47.27377" lon="-2.28814">
        <ele>26.799999237061</ele>
        <time>2022-08-14T09:44:07.000Z</time>
      </trkpt>
      <trkpt lat="47.27375" lon="-2.28822">
        <ele>26.799999237061</ele>
        <time>2022-08-14T09:44:08.000Z</time>
      </trkpt>
      <trkpt lat="47.27368" lon="-2.28849">
        <ele>26.799999237061</ele>
        <time>2022-08-14T09:44:11.000Z</time>
      </trkpt>
      <trkpt lat="47.27366" lon="-2.28857">
        <ele>26.799999237061</ele>
        <time>2022-08-14T09:44:12.000Z</time>
      </trkpt>
      <trkpt lat="47.27356" lon="-2.28911">
        <ele>26.799999237061</ele>
        <time>2022-08-14T09:44:18.000Z</time>
      </trkpt>
      <trkpt lat="47.27349" lon="-2.28939">
        <ele>26.799999237061</ele>
        <time>2022-08-14T09:44:22.000Z</time>
      </trkpt>
      <trkpt lat="47.27345" lon="-2.28944">
        <ele>26.799999237061</ele>
        <time>2022-08-14T09:44:24.000Z</time>
      </trkpt>
      <trkpt lat="47.27343" lon="-2.28945">
        <ele>26.799999237061</ele>
        <time>2022-08-14T09:44:25.000Z</time>
      </trkpt>
      <trkpt lat="47.27335" lon="-2.28942">
        <ele>26.799999237061</ele>
        <time>2022-08-14T09:44:29.000Z</time>
      </trkpt>
      <trkpt lat="47.27324" lon="-2.28944">
        <ele>26.799999237061</ele>
        <time>2022-08-14T09:44:33.000Z</time>
      </trkpt>
      <trkpt lat="47.27319" lon="-2.2896">
        <ele>26.799999237061</ele>
        <time>2022-08-14T09:44:37.000Z</time>
      </trkpt>
      <trkpt lat="47.27317" lon="-2.28963">
        <ele>26.799999237061</ele>
        <time>2022-08-14T09:44:38.000Z</time>
      </trkpt>
      <trkpt lat="47.2731" lon="-2.28971">
        <ele>26.799999237061</ele>
        <time>2022-08-14T09:44:41.000Z</time>
      </trkpt>
      <trkpt lat="47.27298" lon="-2.28989">
        <ele>26.799999237061</ele>
        <time>2022-08-14T09:44:46.000Z</time>
      </trkpt>
      <trkpt lat="47.2729" lon="-2.29011">
        <ele>26.799999237061</ele>
        <time>2022-08-14T09:44:50.000Z</time>
      </trkpt>
      <trkpt lat="47.27287" lon="-2.29016">
        <ele>26.799999237061</ele>
        <time>2022-08-14T09:44:51.000Z</time>
      </trkpt>
      <trkpt lat="47.27271" lon="-2.29036">
        <ele>26.799999237061</ele>
        <time>2022-08-14T09:44:55.000Z</time>
      </trkpt>
      <trkpt lat="47.27252" lon="-2.29053">
        <ele>26.799999237061</ele>
        <time>2022-08-14T09:44:59.000Z</time>
      </trkpt>
      <trkpt lat="47.2724" lon="-2.29069">
        <ele>26.799999237061</ele>
        <time>2022-08-14T09:45:01.000Z</time>
      </trkpt>
      <trkpt lat="47.27226" lon="-2.29084">
        <ele>26.799999237061</ele>
        <time>2022-08-14T09:45:03.000Z</time>
      </trkpt>
      <trkpt lat="47.27206" lon="-2.29099">
        <ele>26.799999237061</ele>
        <time>2022-08-14T09:45:06.000Z</time>
      </trkpt>
      <trkpt lat="47.27177" lon="-2.29127">
        <ele>26.799999237061</ele>
        <time>2022-08-14T09:45:12.000Z</time>
      </trkpt>
      <trkpt lat="47.2717" lon="-2.29136">
        <ele>26.799999237061</ele>
        <time>2022-08-14T09:45:14.000Z</time>
      </trkpt>
      <trkpt lat="47.27163" lon="-2.29152">
        <ele>26.799999237061</ele>
        <time>2022-08-14T09:45:17.000Z</time>
      </trkpt>
      <trkpt lat="47.27161" lon="-2.29158">
        <ele>26.799999237061</ele>
        <time>2022-08-14T09:45:18.000Z</time>
      </trkpt>
      <trkpt lat="47.27158" lon="-2.29182">
        <ele>26.799999237061</ele>
        <time>2022-08-14T09:45:21.000Z</time>
      </trkpt>
      <trkpt lat="47.27168" lon="-2.29217">
        <ele>26.799999237061</ele>
        <time>2022-08-14T09:45:26.000Z</time>
      </trkpt>
      <trkpt lat="47.27176" lon="-2.2925">
        <ele>26.799999237061</ele>
        <time>2022-08-14T09:45:31.000Z</time>
      </trkpt>
      <trkpt lat="47.27171" lon="-2.29274">
        <ele>26.799999237061</ele>
        <time>2022-08-14T09:45:35.000Z</time>
      </trkpt>
      <trkpt lat="47.27168" lon="-2.29285">
        <ele>27.200000762939</ele>
        <time>2022-08-14T09:45:37.000Z</time>
      </trkpt>
      <trkpt lat="47.27166" lon="-2.29291">
        <ele>27.60000038147</ele>
        <time>2022-08-14T09:45:38.000Z</time>
      </trkpt>
      <trkpt lat="47.27164" lon="-2.29298">
        <ele>28</ele>
        <time>2022-08-14T09:45:39.000Z</time>
      </trkpt>
      <trkpt lat="47.27164" lon="-2.29306">
        <ele>28.39999961853</ele>
        <time>2022-08-14T09:45:40.000Z</time>
      </trkpt>
      <trkpt lat="47.27165" lon="-2.2931">
        <ele>28.799999237061</ele>
        <time>2022-08-14T09:45:41.000Z</time>
      </trkpt>
      <trkpt lat="47.27173" lon="-2.29326">
        <ele>28.799999237061</ele>
        <time>2022-08-14T09:45:44.000Z</time>
      </trkpt>
      <trkpt lat="47.27177" lon="-2.29332">
        <ele>28.799999237061</ele>
        <time>2022-08-14T09:45:45.000Z</time>
      </trkpt>
      <trkpt lat="47.27193" lon="-2.29359">
        <ele>28.799999237061</ele>
        <time>2022-08-14T09:45:49.000Z</time>
      </trkpt>
      <trkpt lat="47.27202" lon="-2.29386">
        <ele>28.799999237061</ele>
        <time>2022-08-14T09:45:52.000Z</time>
      </trkpt>
      <trkpt lat="47.27205" lon="-2.29404">
        <ele>28.799999237061</ele>
        <time>2022-08-14T09:45:54.000Z</time>
      </trkpt>
      <trkpt lat="47.27218" lon="-2.2945">
        <ele>28.799999237061</ele>
        <time>2022-08-14T09:46:00.000Z</time>
      </trkpt>
      <trkpt lat="47.2723" lon="-2.29492">
        <ele>28.799999237061</ele>
        <time>2022-08-14T09:46:06.000Z</time>
      </trkpt>
      <trkpt lat="47.27232" lon="-2.29498">
        <ele>28.799999237061</ele>
        <time>2022-08-14T09:46:07.000Z</time>
      </trkpt>
      <trkpt lat="47.27238" lon="-2.2951">
        <ele>28.799999237061</ele>
        <time>2022-08-14T09:46:09.000Z</time>
      </trkpt>
      <trkpt lat="47.27241" lon="-2.29517">
        <ele>28.799999237061</ele>
        <time>2022-08-14T09:46:10.000Z</time>
      </trkpt>
      <trkpt lat="47.27244" lon="-2.29539">
        <ele>28.799999237061</ele>
        <time>2022-08-14T09:46:13.000Z</time>
      </trkpt>
      <trkpt lat="47.27245" lon="-2.29553">
        <ele>28.799999237061</ele>
        <time>2022-08-14T09:46:15.000Z</time>
      </trkpt>
      <trkpt lat="47.27244" lon="-2.29566">
        <ele>28.799999237061</ele>
        <time>2022-08-14T09:46:17.000Z</time>
      </trkpt>
      <trkpt lat="47.27236" lon="-2.29576">
        <ele>28.799999237061</ele>
        <time>2022-08-14T09:46:20.000Z</time>
      </trkpt>
      <trkpt lat="47.2722" lon="-2.29589">
        <ele>28.799999237061</ele>
        <time>2022-08-14T09:46:24.000Z</time>
      </trkpt>
      <trkpt lat="47.27188" lon="-2.29617">
        <ele>28.799999237061</ele>
        <time>2022-08-14T09:46:30.000Z</time>
      </trkpt>
      <trkpt lat="47.27171" lon="-2.29629">
        <ele>29.200000762939</ele>
        <time>2022-08-14T09:46:33.000Z</time>
      </trkpt>
      <trkpt lat="47.27165" lon="-2.29633">
        <ele>29.60000038147</ele>
        <time>2022-08-14T09:46:34.000Z</time>
      </trkpt>
      <trkpt lat="47.27159" lon="-2.29635">
        <ele>30.39999961853</ele>
        <time>2022-08-14T09:46:35.000Z</time>
      </trkpt>
      <trkpt lat="47.27153" lon="-2.29635">
        <ele>30.799999237061</ele>
        <time>2022-08-14T09:46:36.000Z</time>
      </trkpt>
      <trkpt lat="47.27135" lon="-2.29641">
        <ele>30.799999237061</ele>
        <time>2022-08-14T09:46:39.000Z</time>
      </trkpt>
      <trkpt lat="47.27123" lon="-2.29651">
        <ele>30.799999237061</ele>
        <time>2022-08-14T09:46:43.000Z</time>
      </trkpt>
      <trkpt lat="47.27122" lon="-2.29652">
        <ele>30.799999237061</ele>
        <time>2022-08-14T09:46:46.000Z</time>
      </trkpt>
      <trkpt lat="47.27122" lon="-2.29652">
        <ele>30.799999237061</ele>
        <time>2022-08-14T09:46:47.000Z</time>
      </trkpt>
      <trkpt lat="47.2712" lon="-2.29655">
        <ele>30.799999237061</ele>
        <time>2022-08-14T09:46:54.000Z</time>
      </trkpt>
      <trkpt lat="47.27119" lon="-2.29662">
        <ele>30.799999237061</ele>
        <time>2022-08-14T09:46:56.000Z</time>
      </trkpt>
      <trkpt lat="47.27118" lon="-2.29681">
        <ele>30.799999237061</ele>
        <time>2022-08-14T09:47:00.000Z</time>
      </trkpt>
      <trkpt lat="47.27117" lon="-2.29715">
        <ele>30.799999237061</ele>
        <time>2022-08-14T09:47:05.000Z</time>
      </trkpt>
      <trkpt lat="47.27116" lon="-2.29723">
        <ele>30.799999237061</ele>
        <time>2022-08-14T09:47:06.000Z</time>
      </trkpt>
      <trkpt lat="47.27112" lon="-2.29755">
        <ele>30.799999237061</ele>
        <time>2022-08-14T09:47:10.000Z</time>
      </trkpt>
      <trkpt lat="47.27112" lon="-2.29807">
        <ele>30.799999237061</ele>
        <time>2022-08-14T09:47:16.000Z</time>
      </trkpt>
      <trkpt lat="47.27109" lon="-2.29849">
        <ele>30.799999237061</ele>
        <time>2022-08-14T09:47:21.000Z</time>
      </trkpt>
      <trkpt lat="47.27105" lon="-2.29863">
        <ele>30.799999237061</ele>
        <time>2022-08-14T09:47:23.000Z</time>
      </trkpt>
      <trkpt lat="47.271" lon="-2.29879">
        <ele>30.799999237061</ele>
        <time>2022-08-14T09:47:25.000Z</time>
      </trkpt>
      <trkpt lat="47.27082" lon="-2.29907">
        <ele>30.799999237061</ele>
        <time>2022-08-14T09:47:29.000Z</time>
      </trkpt>
      <trkpt lat="47.27076" lon="-2.29913">
        <ele>30.799999237061</ele>
        <time>2022-08-14T09:47:30.000Z</time>
      </trkpt>
      <trkpt lat="47.27056" lon="-2.2994">
        <ele>30.799999237061</ele>
        <time>2022-08-14T09:47:34.000Z</time>
      </trkpt>
      <trkpt lat="47.27053" lon="-2.29947">
        <ele>30.799999237061</ele>
        <time>2022-08-14T09:47:35.000Z</time>
      </trkpt>
      <trkpt lat="47.27045" lon="-2.29968">
        <ele>30.799999237061</ele>
        <time>2022-08-14T09:47:38.000Z</time>
      </trkpt>
      <trkpt lat="47.27039" lon="-2.2998">
        <ele>30.799999237061</ele>
        <time>2022-08-14T09:47:40.000Z</time>
      </trkpt>
      <trkpt lat="47.27032" lon="-2.29995">
        <ele>30.799999237061</ele>
        <time>2022-08-14T09:47:42.000Z</time>
      </trkpt>
      <trkpt lat="47.27029" lon="-2.30003">
        <ele>30.799999237061</ele>
        <time>2022-08-14T09:47:43.000Z</time>
      </trkpt>
      <trkpt lat="47.27017" lon="-2.30042">
        <ele>30.799999237061</ele>
        <time>2022-08-14T09:47:48.000Z</time>
      </trkpt>
      <trkpt lat="47.27016" lon="-2.30059">
        <ele>30.799999237061</ele>
        <time>2022-08-14T09:47:51.000Z</time>
      </trkpt>
      <trkpt lat="47.27019" lon="-2.30061">
        <ele>30.799999237061</ele>
        <time>2022-08-14T09:47:52.000Z</time>
      </trkpt>
      <trkpt lat="47.27029" lon="-2.30057">
        <ele>30.799999237061</ele>
        <time>2022-08-14T09:47:55.000Z</time>
      </trkpt>
      <trkpt lat="47.27038" lon="-2.30057">
        <ele>30.799999237061</ele>
        <time>2022-08-14T09:47:57.000Z</time>
      </trkpt>
      <trkpt lat="47.27048" lon="-2.30059">
        <ele>30.799999237061</ele>
        <time>2022-08-14T09:47:59.000Z</time>
      </trkpt>
      <trkpt lat="47.27065" lon="-2.30065">
        <ele>30.39999961853</ele>
        <time>2022-08-14T09:48:03.000Z</time>
      </trkpt>
      <trkpt lat="47.2707" lon="-2.30067">
        <ele>30</ele>
        <time>2022-08-14T09:48:04.000Z</time>
      </trkpt>
      <trkpt lat="47.27074" lon="-2.30071">
        <ele>29.60000038147</ele>
        <time>2022-08-14T09:48:05.000Z</time>
      </trkpt>
      <trkpt lat="47.27078" lon="-2.30076">
        <ele>29.200000762939</ele>
        <time>2022-08-14T09:48:06.000Z</time>
      </trkpt>
      <trkpt lat="47.27082" lon="-2.30081">
        <ele>28.799999237061</ele>
        <time>2022-08-14T09:48:07.000Z</time>
      </trkpt>
      <trkpt lat="47.27091" lon="-2.30089">
        <ele>28.799999237061</ele>
        <time>2022-08-14T09:48:09.000Z</time>
      </trkpt>
      <trkpt lat="47.27107" lon="-2.301">
        <ele>28.799999237061</ele>
        <time>2022-08-14T09:48:12.000Z</time>
      </trkpt>
      <trkpt lat="47.27118" lon="-2.30104">
        <ele>28.799999237061</ele>
        <time>2022-08-14T09:48:14.000Z</time>
      </trkpt>
      <trkpt lat="47.27135" lon="-2.3011">
        <ele>28.799999237061</ele>
        <time>2022-08-14T09:48:17.000Z</time>
      </trkpt>
      <trkpt lat="47.27141" lon="-2.3011">
        <ele>28.39999961853</ele>
        <time>2022-08-14T09:48:18.000Z</time>
      </trkpt>
      <trkpt lat="47.27146" lon="-2.30113">
        <ele>28</ele>
        <time>2022-08-14T09:48:19.000Z</time>
      </trkpt>
      <trkpt lat="47.27151" lon="-2.30117">
        <ele>27.60000038147</ele>
        <time>2022-08-14T09:48:20.000Z</time>
      </trkpt>
      <trkpt lat="47.27154" lon="-2.30124">
        <ele>27.200000762939</ele>
        <time>2022-08-14T09:48:21.000Z</time>
      </trkpt>
      <trkpt lat="47.27155" lon="-2.3013">
        <ele>26.799999237061</ele>
        <time>2022-08-14T09:48:22.000Z</time>
      </trkpt>
      <trkpt lat="47.27156" lon="-2.30145">
        <ele>26.799999237061</ele>
        <time>2022-08-14T09:48:24.000Z</time>
      </trkpt>
      <trkpt lat="47.27156" lon="-2.30174">
        <ele>26.200000762939</ele>
        <time>2022-08-14T09:48:27.000Z</time>
      </trkpt>
      <trkpt lat="47.27156" lon="-2.30184">
        <ele>25.799999237061</ele>
        <time>2022-08-14T09:48:28.000Z</time>
      </trkpt>
      <trkpt lat="47.27156" lon="-2.30195">
        <ele>25.39999961853</ele>
        <time>2022-08-14T09:48:29.000Z</time>
      </trkpt>
      <trkpt lat="47.27157" lon="-2.30206">
        <ele>25</ele>
        <time>2022-08-14T09:48:30.000Z</time>
      </trkpt>
      <trkpt lat="47.27157" lon="-2.30216">
        <ele>24.60000038147</ele>
        <time>2022-08-14T09:48:31.000Z</time>
      </trkpt>
      <trkpt lat="47.27155" lon="-2.30224">
        <ele>24.60000038147</ele>
        <time>2022-08-14T09:48:32.000Z</time>
      </trkpt>
      <trkpt lat="47.27154" lon="-2.30229">
        <ele>24.60000038147</ele>
        <time>2022-08-14T09:48:33.000Z</time>
      </trkpt>
      <trkpt lat="47.27156" lon="-2.30235">
        <ele>24.200000762939</ele>
        <time>2022-08-14T09:48:35.000Z</time>
      </trkpt>
      <trkpt lat="47.27158" lon="-2.30237">
        <ele>23.799999237061</ele>
        <time>2022-08-14T09:48:36.000Z</time>
      </trkpt>
      <trkpt lat="47.2716" lon="-2.30239">
        <ele>23.39999961853</ele>
        <time>2022-08-14T09:48:37.000Z</time>
      </trkpt>
      <trkpt lat="47.27161" lon="-2.3024">
        <ele>22.60000038147</ele>
        <time>2022-08-14T09:48:38.000Z</time>
      </trkpt>
      <trkpt lat="47.27165" lon="-2.30246">
        <ele>22.60000038147</ele>
        <time>2022-08-14T09:48:40.000Z</time>
      </trkpt>
      <trkpt lat="47.27167" lon="-2.3025">
        <ele>22.60000038147</ele>
        <time>2022-08-14T09:48:41.000Z</time>
      </trkpt>
      <trkpt lat="47.27177" lon="-2.30252">
        <ele>22.60000038147</ele>
        <time>2022-08-14T09:48:44.000Z</time>
      </trkpt>
      <trkpt lat="47.27195" lon="-2.30248">
        <ele>22.60000038147</ele>
        <time>2022-08-14T09:48:48.000Z</time>
      </trkpt>
      <trkpt lat="47.27205" lon="-2.30255">
        <ele>22.60000038147</ele>
        <time>2022-08-14T09:48:50.000Z</time>
      </trkpt>
      <trkpt lat="47.2721" lon="-2.30256">
        <ele>22.60000038147</ele>
        <time>2022-08-14T09:48:51.000Z</time>
      </trkpt>
      <trkpt lat="47.27226" lon="-2.30262">
        <ele>22.60000038147</ele>
        <time>2022-08-14T09:48:55.000Z</time>
      </trkpt>
      <trkpt lat="47.2723" lon="-2.30261">
        <ele>22.60000038147</ele>
        <time>2022-08-14T09:48:56.000Z</time>
      </trkpt>
      <trkpt lat="47.2724" lon="-2.30261">
        <ele>22.60000038147</ele>
        <time>2022-08-14T09:48:58.000Z</time>
      </trkpt>
      <trkpt lat="47.2725" lon="-2.30258">
        <ele>22.60000038147</ele>
        <time>2022-08-14T09:49:00.000Z</time>
      </trkpt>
      <trkpt lat="47.27263" lon="-2.30259">
        <ele>22.60000038147</ele>
        <time>2022-08-14T09:49:02.000Z</time>
      </trkpt>
      <trkpt lat="47.27276" lon="-2.3026">
        <ele>22.60000038147</ele>
        <time>2022-08-14T09:49:04.000Z</time>
      </trkpt>
      <trkpt lat="47.27288" lon="-2.30259">
        <ele>22.60000038147</ele>
        <time>2022-08-14T09:49:06.000Z</time>
      </trkpt>
      <trkpt lat="47.27315" lon="-2.30258">
        <ele>22.60000038147</ele>
        <time>2022-08-14T09:49:11.000Z</time>
      </trkpt>
      <trkpt lat="47.27343" lon="-2.30256">
        <ele>22.60000038147</ele>
        <time>2022-08-14T09:49:16.000Z</time>
      </trkpt>
      <trkpt lat="47.27358" lon="-2.30255">
        <ele>22.60000038147</ele>
        <time>2022-08-14T09:49:19.000Z</time>
      </trkpt>
      <trkpt lat="47.2737" lon="-2.30251">
        <ele>22.60000038147</ele>
        <time>2022-08-14T09:49:21.000Z</time>
      </trkpt>
      <trkpt lat="47.27383" lon="-2.30245">
        <ele>22.60000038147</ele>
        <time>2022-08-14T09:49:23.000Z</time>
      </trkpt>
      <trkpt lat="47.27402" lon="-2.30237">
        <ele>22.60000038147</ele>
        <time>2022-08-14T09:49:26.000Z</time>
      </trkpt>
      <trkpt lat="47.27434" lon="-2.30223">
        <ele>22.60000038147</ele>
        <time>2022-08-14T09:49:32.000Z</time>
      </trkpt>
      <trkpt lat="47.27451" lon="-2.30217">
        <ele>22.60000038147</ele>
        <time>2022-08-14T09:49:36.000Z</time>
      </trkpt>
      <trkpt lat="47.27457" lon="-2.30229">
        <ele>22.60000038147</ele>
        <time>2022-08-14T09:49:38.000Z</time>
      </trkpt>
      <trkpt lat="47.27465" lon="-2.30247">
        <ele>22.60000038147</ele>
        <time>2022-08-14T09:49:41.000Z</time>
      </trkpt>
      <trkpt lat="47.27469" lon="-2.30261">
        <ele>22.60000038147</ele>
        <time>2022-08-14T09:49:43.000Z</time>
      </trkpt>
      <trkpt lat="47.2748" lon="-2.30306">
        <ele>22.60000038147</ele>
        <time>2022-08-14T09:49:49.000Z</time>
      </trkpt>
      <trkpt lat="47.27483" lon="-2.30323">
        <ele>22.200000762939</ele>
        <time>2022-08-14T09:49:51.000Z</time>
      </trkpt>
      <trkpt lat="47.27485" lon="-2.30332">
        <ele>21.799999237061</ele>
        <time>2022-08-14T09:49:52.000Z</time>
      </trkpt>
      <trkpt lat="47.27487" lon="-2.30342">
        <ele>21.39999961853</ele>
        <time>2022-08-14T09:49:53.000Z</time>
      </trkpt>
      <trkpt lat="47.27489" lon="-2.30351">
        <ele>21</ele>
        <time>2022-08-14T09:49:54.000Z</time>
      </trkpt>
      <trkpt lat="47.27491" lon="-2.3036">
        <ele>20.60000038147</ele>
        <time>2022-08-14T09:49:55.000Z</time>
      </trkpt>
      <trkpt lat="47.27495" lon="-2.30381">
        <ele>20.60000038147</ele>
        <time>2022-08-14T09:49:57.000Z</time>
      </trkpt>
      <trkpt lat="47.275" lon="-2.30411">
        <ele>20.200000762939</ele>
        <time>2022-08-14T09:50:00.000Z</time>
      </trkpt>
      <trkpt lat="47.27501" lon="-2.3042">
        <ele>19.60000038147</ele>
        <time>2022-08-14T09:50:01.000Z</time>
      </trkpt>
      <trkpt lat="47.27501" lon="-2.30428">
        <ele>19.200000762939</ele>
        <time>2022-08-14T09:50:02.000Z</time>
      </trkpt>
      <trkpt lat="47.27501" lon="-2.30432">
        <ele>18.799999237061</ele>
        <time>2022-08-14T09:50:03.000Z</time>
      </trkpt>
      <trkpt lat="47.27501" lon="-2.30433">
        <ele>18.39999961853</ele>
        <time>2022-08-14T09:50:04.000Z</time>
      </trkpt>
      <trkpt lat="47.27497" lon="-2.30435">
        <ele>18.39999961853</ele>
        <time>2022-08-14T09:50:09.000Z</time>
      </trkpt>
      <trkpt lat="47.27487" lon="-2.30442">
        <ele>18.39999961853</ele>
        <time>2022-08-14T09:50:15.000Z</time>
      </trkpt>
      <trkpt lat="47.27469" lon="-2.30446">
        <ele>18.39999961853</ele>
        <time>2022-08-14T09:50:21.000Z</time>
      </trkpt>
      <trkpt lat="47.2745" lon="-2.3045">
        <ele>18.39999961853</ele>
        <time>2022-08-14T09:50:28.000Z</time>
      </trkpt>
      <trkpt lat="47.27432" lon="-2.3045">
        <ele>18.39999961853</ele>
        <time>2022-08-14T09:50:32.000Z</time>
      </trkpt>
      <trkpt lat="47.27422" lon="-2.30456">
        <ele>18.39999961853</ele>
        <time>2022-08-14T09:50:36.000Z</time>
      </trkpt>
      <trkpt lat="47.2742" lon="-2.30459">
        <ele>18.39999961853</ele>
        <time>2022-08-14T09:50:41.000Z</time>
      </trkpt>
      <trkpt lat="47.27417" lon="-2.3046">
        <ele>18.39999961853</ele>
        <time>2022-08-14T09:50:45.000Z</time>
      </trkpt>
      <trkpt lat="47.27417" lon="-2.30461">
        <ele>18.39999961853</ele>
        <time>2022-08-14T09:50:46.000Z</time>
      </trkpt>
      <trkpt lat="47.27408" lon="-2.30474">
        <ele>18.39999961853</ele>
        <time>2022-08-14T09:50:49.000Z</time>
      </trkpt>
      <trkpt lat="47.27404" lon="-2.30478">
        <ele>18.39999961853</ele>
        <time>2022-08-14T09:50:50.000Z</time>
      </trkpt>
      <trkpt lat="47.27394" lon="-2.30485">
        <ele>18.39999961853</ele>
        <time>2022-08-14T09:50:53.000Z</time>
      </trkpt>
      <trkpt lat="47.27391" lon="-2.30488">
        <ele>18.39999961853</ele>
        <time>2022-08-14T09:50:54.000Z</time>
      </trkpt>
      <trkpt lat="47.27381" lon="-2.30494">
        <ele>18</ele>
        <time>2022-08-14T09:50:56.000Z</time>
      </trkpt>
      <trkpt lat="47.27376" lon="-2.30496">
        <ele>17.60000038147</ele>
        <time>2022-08-14T09:50:57.000Z</time>
      </trkpt>
      <trkpt lat="47.27372" lon="-2.30498">
        <ele>17.200000762939</ele>
        <time>2022-08-14T09:50:58.000Z</time>
      </trkpt>
      <trkpt lat="47.27368" lon="-2.30502">
        <ele>16.799999237061</ele>
        <time>2022-08-14T09:50:59.000Z</time>
      </trkpt>
      <trkpt lat="47.27364" lon="-2.30505">
        <ele>16.39999961853</ele>
        <time>2022-08-14T09:51:00.000Z</time>
      </trkpt>
      <trkpt lat="47.27355" lon="-2.30509">
        <ele>16.39999961853</ele>
        <time>2022-08-14T09:51:02.000Z</time>
      </trkpt>
      <trkpt lat="47.27346" lon="-2.30512">
        <ele>16.39999961853</ele>
        <time>2022-08-14T09:51:04.000Z</time>
      </trkpt>
      <trkpt lat="47.27322" lon="-2.3052">
        <ele>16.39999961853</ele>
        <time>2022-08-14T09:51:09.000Z</time>
      </trkpt>
      <trkpt lat="47.27306" lon="-2.30532">
        <ele>16.39999961853</ele>
        <time>2022-08-14T09:51:13.000Z</time>
      </trkpt>
      <trkpt lat="47.27301" lon="-2.30534">
        <ele>16.39999961853</ele>
        <time>2022-08-14T09:51:14.000Z</time>
      </trkpt>
      <trkpt lat="47.2729" lon="-2.30539">
        <ele>16.39999961853</ele>
        <time>2022-08-14T09:51:17.000Z</time>
      </trkpt>
      <trkpt lat="47.27285" lon="-2.30542">
        <ele>16.39999961853</ele>
        <time>2022-08-14T09:51:18.000Z</time>
      </trkpt>
      <trkpt lat="47.27276" lon="-2.30545">
        <ele>16.39999961853</ele>
        <time>2022-08-14T09:51:20.000Z</time>
      </trkpt>
      <trkpt lat="47.27267" lon="-2.30547">
        <ele>16.39999961853</ele>
        <time>2022-08-14T09:51:22.000Z</time>
      </trkpt>
      <trkpt lat="47.2725" lon="-2.30547">
        <ele>16.39999961853</ele>
        <time>2022-08-14T09:51:27.000Z</time>
      </trkpt>
      <trkpt lat="47.27234" lon="-2.30548">
        <ele>16.39999961853</ele>
        <time>2022-08-14T09:51:32.000Z</time>
      </trkpt>
      <trkpt lat="47.27224" lon="-2.30551">
        <ele>16.39999961853</ele>
        <time>2022-08-14T09:51:35.000Z</time>
      </trkpt>
      <trkpt lat="47.27222" lon="-2.30552">
        <ele>16.39999961853</ele>
        <time>2022-08-14T09:51:36.000Z</time>
      </trkpt>
      <trkpt lat="47.27219" lon="-2.30551">
        <ele>16.39999961853</ele>
        <time>2022-08-14T09:51:37.000Z</time>
      </trkpt>
      <trkpt lat="47.27209" lon="-2.30553">
        <ele>16.39999961853</ele>
        <time>2022-08-14T09:51:40.000Z</time>
      </trkpt>
      <trkpt lat="47.27191" lon="-2.30552">
        <ele>16.799999237061</ele>
        <time>2022-08-14T09:51:46.000Z</time>
      </trkpt>
      <trkpt lat="47.27189" lon="-2.30551">
        <ele>17.200000762939</ele>
        <time>2022-08-14T09:51:47.000Z</time>
      </trkpt>
      <trkpt lat="47.27186" lon="-2.30551">
        <ele>17.60000038147</ele>
        <time>2022-08-14T09:51:48.000Z</time>
      </trkpt>
      <trkpt lat="47.27181" lon="-2.30549">
        <ele>18</ele>
        <time>2022-08-14T09:51:49.000Z</time>
      </trkpt>
      <trkpt lat="47.27178" lon="-2.30549">
        <ele>18.39999961853</ele>
        <time>2022-08-14T09:51:50.000Z</time>
      </trkpt>
      <trkpt lat="47.27162" lon="-2.30536">
        <ele>18.39999961853</ele>
        <time>2022-08-14T09:51:54.000Z</time>
      </trkpt>
      <trkpt lat="47.27146" lon="-2.3052">
        <ele>18.39999961853</ele>
        <time>2022-08-14T09:51:59.000Z</time>
      </trkpt>
      <trkpt lat="47.27123" lon="-2.30511">
        <ele>18.39999961853</ele>
        <time>2022-08-14T09:52:04.000Z</time>
      </trkpt>
      <trkpt lat="47.27115" lon="-2.30508">
        <ele>18.799999237061</ele>
        <time>2022-08-14T09:52:06.000Z</time>
      </trkpt>
      <trkpt lat="47.27112" lon="-2.30506">
        <ele>19.200000762939</ele>
        <time>2022-08-14T09:52:07.000Z</time>
      </trkpt>
      <trkpt lat="47.27109" lon="-2.30505">
        <ele>19.60000038147</ele>
        <time>2022-08-14T09:52:08.000Z</time>
      </trkpt>
      <trkpt lat="47.27105" lon="-2.30505">
        <ele>20</ele>
        <time>2022-08-14T09:52:09.000Z</time>
      </trkpt>
      <trkpt lat="47.27102" lon="-2.30504">
        <ele>20.60000038147</ele>
        <time>2022-08-14T09:52:10.000Z</time>
      </trkpt>
      <trkpt lat="47.27082" lon="-2.30497">
        <ele>20.60000038147</ele>
        <time>2022-08-14T09:52:16.000Z</time>
      </trkpt>
      <trkpt lat="47.27066" lon="-2.30493">
        <ele>21</ele>
        <time>2022-08-14T09:52:20.000Z</time>
      </trkpt>
      <trkpt lat="47.27061" lon="-2.30493">
        <ele>21.39999961853</ele>
        <time>2022-08-14T09:52:21.000Z</time>
      </trkpt>
      <trkpt lat="47.27057" lon="-2.30492">
        <ele>21.799999237061</ele>
        <time>2022-08-14T09:52:22.000Z</time>
      </trkpt>
      <trkpt lat="47.27053" lon="-2.3049">
        <ele>22.200000762939</ele>
        <time>2022-08-14T09:52:23.000Z</time>
      </trkpt>
      <trkpt lat="47.2705" lon="-2.30489">
        <ele>22.60000038147</ele>
        <time>2022-08-14T09:52:24.000Z</time>
      </trkpt>
      <trkpt lat="47.27044" lon="-2.30487">
        <ele>22.60000038147</ele>
        <time>2022-08-14T09:52:26.000Z</time>
      </trkpt>
      <trkpt lat="47.2704" lon="-2.30486">
        <ele>22.60000038147</ele>
        <time>2022-08-14T09:52:30.000Z</time>
      </trkpt>
      <trkpt lat="47.27039" lon="-2.30488">
        <ele>22.60000038147</ele>
        <time>2022-08-14T09:53:24.000Z</time>
      </trkpt>
      <trkpt lat="47.27038" lon="-2.30495">
        <ele>22.60000038147</ele>
        <time>2022-08-14T09:53:26.000Z</time>
      </trkpt>
      <trkpt lat="47.27033" lon="-2.30514">
        <ele>22.60000038147</ele>
        <time>2022-08-14T09:53:30.000Z</time>
      </trkpt>
      <trkpt lat="47.27031" lon="-2.30525">
        <ele>22.60000038147</ele>
        <time>2022-08-14T09:53:32.000Z</time>
      </trkpt>
      <trkpt lat="47.27027" lon="-2.30537">
        <ele>22.60000038147</ele>
        <time>2022-08-14T09:53:34.000Z</time>
      </trkpt>
      <trkpt lat="47.27013" lon="-2.30581">
        <ele>22.60000038147</ele>
        <time>2022-08-14T09:53:41.000Z</time>
      </trkpt>
      <trkpt lat="47.2701" lon="-2.30588">
        <ele>22.60000038147</ele>
        <time>2022-08-14T09:53:42.000Z</time>
      </trkpt>
      <trkpt lat="47.26997" lon="-2.30604">
        <ele>22.60000038147</ele>
        <time>2022-08-14T09:53:45.000Z</time>
      </trkpt>
      <trkpt lat="47.26981" lon="-2.30613">
        <ele>22.60000038147</ele>
        <time>2022-08-14T09:53:48.000Z</time>
      </trkpt>
      <trkpt lat="47.26971" lon="-2.30619">
        <ele>22.60000038147</ele>
        <time>2022-08-14T09:53:50.000Z</time>
      </trkpt>
      <trkpt lat="47.26949" lon="-2.30629">
        <ele>22.60000038147</ele>
        <time>2022-08-14T09:53:54.000Z</time>
      </trkpt>
      <trkpt lat="47.26944" lon="-2.30632">
        <ele>22.60000038147</ele>
        <time>2022-08-14T09:53:55.000Z</time>
      </trkpt>
      <trkpt lat="47.26939" lon="-2.30634">
        <ele>22.60000038147</ele>
        <time>2022-08-14T09:53:56.000Z</time>
      </trkpt>
      <trkpt lat="47.26922" lon="-2.30638">
        <ele>23</ele>
        <time>2022-08-14T09:54:00.000Z</time>
      </trkpt>
      <trkpt lat="47.26918" lon="-2.30639">
        <ele>23.39999961853</ele>
        <time>2022-08-14T09:54:01.000Z</time>
      </trkpt>
      <trkpt lat="47.26914" lon="-2.30641">
        <ele>23.799999237061</ele>
        <time>2022-08-14T09:54:02.000Z</time>
      </trkpt>
      <trkpt lat="47.26911" lon="-2.30644">
        <ele>24.39999961853</ele>
        <time>2022-08-14T09:54:03.000Z</time>
      </trkpt>
      <trkpt lat="47.26909" lon="-2.30648">
        <ele>24.799999237061</ele>
        <time>2022-08-14T09:54:04.000Z</time>
      </trkpt>
      <trkpt lat="47.269" lon="-2.30664">
        <ele>24.799999237061</ele>
        <time>2022-08-14T09:54:08.000Z</time>
      </trkpt>
      <trkpt lat="47.26906" lon="-2.3068">
        <ele>24.799999237061</ele>
        <time>2022-08-14T09:54:11.000Z</time>
      </trkpt>
      <trkpt lat="47.2691" lon="-2.30685">
        <ele>24.799999237061</ele>
        <time>2022-08-14T09:54:12.000Z</time>
      </trkpt>
      <trkpt lat="47.26914" lon="-2.3069">
        <ele>24.799999237061</ele>
        <time>2022-08-14T09:54:13.000Z</time>
      </trkpt>
      <trkpt lat="47.26921" lon="-2.307">
        <ele>24.799999237061</ele>
        <time>2022-08-14T09:54:15.000Z</time>
      </trkpt>
      <trkpt lat="47.26925" lon="-2.30704">
        <ele>24.799999237061</ele>
        <time>2022-08-14T09:54:16.000Z</time>
      </trkpt>
      <trkpt lat="47.26946" lon="-2.3074">
        <ele>24.799999237061</ele>
        <time>2022-08-14T09:54:22.000Z</time>
      </trkpt>
      <trkpt lat="47.2695" lon="-2.30745">
        <ele>24.799999237061</ele>
        <time>2022-08-14T09:54:23.000Z</time>
      </trkpt>
      <trkpt lat="47.2696" lon="-2.30757">
        <ele>24.799999237061</ele>
        <time>2022-08-14T09:54:25.000Z</time>
      </trkpt>
      <trkpt lat="47.26969" lon="-2.30771">
        <ele>24.39999961853</ele>
        <time>2022-08-14T09:54:27.000Z</time>
      </trkpt>
      <trkpt lat="47.26974" lon="-2.30778">
        <ele>23.799999237061</ele>
        <time>2022-08-14T09:54:28.000Z</time>
      </trkpt>
      <trkpt lat="47.2698" lon="-2.30786">
        <ele>23.39999961853</ele>
        <time>2022-08-14T09:54:29.000Z</time>
      </trkpt>
      <trkpt lat="47.26986" lon="-2.30793">
        <ele>23</ele>
        <time>2022-08-14T09:54:30.000Z</time>
      </trkpt>
      <trkpt lat="47.26991" lon="-2.30801">
        <ele>22.60000038147</ele>
        <time>2022-08-14T09:54:31.000Z</time>
      </trkpt>
      <trkpt lat="47.27012" lon="-2.30833">
        <ele>22.200000762939</ele>
        <time>2022-08-14T09:54:35.000Z</time>
      </trkpt>
      <trkpt lat="47.27016" lon="-2.30841">
        <ele>21.799999237061</ele>
        <time>2022-08-14T09:54:36.000Z</time>
      </trkpt>
      <trkpt lat="47.27021" lon="-2.30849">
        <ele>21.39999961853</ele>
        <time>2022-08-14T09:54:37.000Z</time>
      </trkpt>
      <trkpt lat="47.27026" lon="-2.30857">
        <ele>21</ele>
        <time>2022-08-14T09:54:38.000Z</time>
      </trkpt>
      <trkpt lat="47.2703" lon="-2.30864">
        <ele>20.60000038147</ele>
        <time>2022-08-14T09:54:39.000Z</time>
      </trkpt>
      <trkpt lat="47.2704" lon="-2.30885">
        <ele>20.200000762939</ele>
        <time>2022-08-14T09:54:42.000Z</time>
      </trkpt>
      <trkpt lat="47.27041" lon="-2.30891">
        <ele>19.799999237061</ele>
        <time>2022-08-14T09:54:43.000Z</time>
      </trkpt>
      <trkpt lat="47.27041" lon="-2.30895">
        <ele>19.39999961853</ele>
        <time>2022-08-14T09:54:44.000Z</time>
      </trkpt>
      <trkpt lat="47.27042" lon="-2.309">
        <ele>19</ele>
        <time>2022-08-14T09:54:45.000Z</time>
      </trkpt>
      <trkpt lat="47.27044" lon="-2.30904">
        <ele>18.60000038147</ele>
        <time>2022-08-14T09:54:46.000Z</time>
      </trkpt>
      <trkpt lat="47.27046" lon="-2.30909">
        <ele>18.60000038147</ele>
        <time>2022-08-14T09:54:47.000Z</time>
      </trkpt>
      <trkpt lat="47.27056" lon="-2.30925">
        <ele>18.60000038147</ele>
        <time>2022-08-14T09:54:51.000Z</time>
      </trkpt>
      <trkpt lat="47.27067" lon="-2.30947">
        <ele>18.60000038147</ele>
        <time>2022-08-14T09:54:56.000Z</time>
      </trkpt>
      <trkpt lat="47.2707" lon="-2.3096">
        <ele>18.60000038147</ele>
        <time>2022-08-14T09:54:58.000Z</time>
      </trkpt>
      <trkpt lat="47.2707" lon="-2.30976">
        <ele>18.60000038147</ele>
        <time>2022-08-14T09:55:00.000Z</time>
      </trkpt>
      <trkpt lat="47.2706" lon="-2.3099">
        <ele>18.60000038147</ele>
        <time>2022-08-14T09:55:03.000Z</time>
      </trkpt>
      <trkpt lat="47.27053" lon="-2.31">
        <ele>18.60000038147</ele>
        <time>2022-08-14T09:55:05.000Z</time>
      </trkpt>
      <trkpt lat="47.27049" lon="-2.31004">
        <ele>18.60000038147</ele>
        <time>2022-08-14T09:55:06.000Z</time>
      </trkpt>
      <trkpt lat="47.27041" lon="-2.31012">
        <ele>18.60000038147</ele>
        <time>2022-08-14T09:55:08.000Z</time>
      </trkpt>
      <trkpt lat="47.27038" lon="-2.31017">
        <ele>18.60000038147</ele>
        <time>2022-08-14T09:55:09.000Z</time>
      </trkpt>
      <trkpt lat="47.27028" lon="-2.31029">
        <ele>18.60000038147</ele>
        <time>2022-08-14T09:55:12.000Z</time>
      </trkpt>
      <trkpt lat="47.27023" lon="-2.31034">
        <ele>18.60000038147</ele>
        <time>2022-08-14T09:55:13.000Z</time>
      </trkpt>
      <trkpt lat="47.27007" lon="-2.31051">
        <ele>19</ele>
        <time>2022-08-14T09:55:17.000Z</time>
      </trkpt>
      <trkpt lat="47.27003" lon="-2.31057">
        <ele>19.39999961853</ele>
        <time>2022-08-14T09:55:18.000Z</time>
      </trkpt>
      <trkpt lat="47.27" lon="-2.31063">
        <ele>19.799999237061</ele>
        <time>2022-08-14T09:55:19.000Z</time>
      </trkpt>
      <trkpt lat="47.26999" lon="-2.3107">
        <ele>20.200000762939</ele>
        <time>2022-08-14T09:55:20.000Z</time>
      </trkpt>
      <trkpt lat="47.26998" lon="-2.31078">
        <ele>20.60000038147</ele>
        <time>2022-08-14T09:55:21.000Z</time>
      </trkpt>
      <trkpt lat="47.26997" lon="-2.31086">
        <ele>20.60000038147</ele>
        <time>2022-08-14T09:55:22.000Z</time>
      </trkpt>
      <trkpt lat="47.26996" lon="-2.31093">
        <ele>20.60000038147</ele>
        <time>2022-08-14T09:55:23.000Z</time>
      </trkpt>
      <trkpt lat="47.26995" lon="-2.31101">
        <ele>20.60000038147</ele>
        <time>2022-08-14T09:55:24.000Z</time>
      </trkpt>
      <trkpt lat="47.2699" lon="-2.31139">
        <ele>20.60000038147</ele>
        <time>2022-08-14T09:55:29.000Z</time>
      </trkpt>
      <trkpt lat="47.26989" lon="-2.31146">
        <ele>20.60000038147</ele>
        <time>2022-08-14T09:55:30.000Z</time>
      </trkpt>
      <trkpt lat="47.26987" lon="-2.31158">
        <ele>21</ele>
        <time>2022-08-14T09:55:32.000Z</time>
      </trkpt>
      <trkpt lat="47.26985" lon="-2.31164">
        <ele>21.39999961853</ele>
        <time>2022-08-14T09:55:33.000Z</time>
      </trkpt>
      <trkpt lat="47.26984" lon="-2.31171">
        <ele>21.799999237061</ele>
        <time>2022-08-14T09:55:34.000Z</time>
      </trkpt>
      <trkpt lat="47.26983" lon="-2.31179">
        <ele>22.39999961853</ele>
        <time>2022-08-14T09:55:35.000Z</time>
      </trkpt>
      <trkpt lat="47.26982" lon="-2.31186">
        <ele>22.799999237061</ele>
        <time>2022-08-14T09:55:36.000Z</time>
      </trkpt>
      <trkpt lat="47.2698" lon="-2.31199">
        <ele>22.799999237061</ele>
        <time>2022-08-14T09:55:38.000Z</time>
      </trkpt>
      <trkpt lat="47.26976" lon="-2.31219">
        <ele>23.200000762939</ele>
        <time>2022-08-14T09:55:41.000Z</time>
      </trkpt>
      <trkpt lat="47.26975" lon="-2.31226">
        <ele>23.60000038147</ele>
        <time>2022-08-14T09:55:42.000Z</time>
      </trkpt>
      <trkpt lat="47.26974" lon="-2.31233">
        <ele>24</ele>
        <time>2022-08-14T09:55:43.000Z</time>
      </trkpt>
      <trkpt lat="47.26974" lon="-2.3124">
        <ele>24.39999961853</ele>
        <time>2022-08-14T09:55:44.000Z</time>
      </trkpt>
      <trkpt lat="47.26974" lon="-2.31247">
        <ele>24.799999237061</ele>
        <time>2022-08-14T09:55:45.000Z</time>
      </trkpt>
      <trkpt lat="47.26974" lon="-2.31263">
        <ele>24.799999237061</ele>
        <time>2022-08-14T09:55:47.000Z</time>
      </trkpt>
      <trkpt lat="47.26975" lon="-2.31299">
        <ele>24.799999237061</ele>
        <time>2022-08-14T09:55:52.000Z</time>
      </trkpt>
      <trkpt lat="47.26976" lon="-2.31306">
        <ele>24.799999237061</ele>
        <time>2022-08-14T09:55:53.000Z</time>
      </trkpt>
      <trkpt lat="47.26977" lon="-2.31313">
        <ele>24.799999237061</ele>
        <time>2022-08-14T09:55:54.000Z</time>
      </trkpt>
      <trkpt lat="47.26982" lon="-2.3134">
        <ele>24.799999237061</ele>
        <time>2022-08-14T09:55:58.000Z</time>
      </trkpt>
      <trkpt lat="47.26984" lon="-2.31347">
        <ele>24.799999237061</ele>
        <time>2022-08-14T09:55:59.000Z</time>
      </trkpt>
      <trkpt lat="47.26985" lon="-2.31353">
        <ele>24.799999237061</ele>
        <time>2022-08-14T09:56:00.000Z</time>
      </trkpt>
      <trkpt lat="47.26989" lon="-2.31377">
        <ele>24.799999237061</ele>
        <time>2022-08-14T09:56:03.000Z</time>
      </trkpt>
      <trkpt lat="47.26989" lon="-2.31386">
        <ele>24.799999237061</ele>
        <time>2022-08-14T09:56:04.000Z</time>
      </trkpt>
      <trkpt lat="47.2699" lon="-2.31414">
        <ele>24.799999237061</ele>
        <time>2022-08-14T09:56:07.000Z</time>
      </trkpt>
      <trkpt lat="47.26993" lon="-2.31432">
        <ele>24.39999961853</ele>
        <time>2022-08-14T09:56:09.000Z</time>
      </trkpt>
      <trkpt lat="47.26993" lon="-2.31441">
        <ele>24</ele>
        <time>2022-08-14T09:56:10.000Z</time>
      </trkpt>
      <trkpt lat="47.26993" lon="-2.31449">
        <ele>23.60000038147</ele>
        <time>2022-08-14T09:56:11.000Z</time>
      </trkpt>
      <trkpt lat="47.26994" lon="-2.31456">
        <ele>23.200000762939</ele>
        <time>2022-08-14T09:56:12.000Z</time>
      </trkpt>
      <trkpt lat="47.26995" lon="-2.31463">
        <ele>22.799999237061</ele>
        <time>2022-08-14T09:56:13.000Z</time>
      </trkpt>
      <trkpt lat="47.26996" lon="-2.31489">
        <ele>22.799999237061</ele>
        <time>2022-08-14T09:56:16.000Z</time>
      </trkpt>
      <trkpt lat="47.26997" lon="-2.31499">
        <ele>22.799999237061</ele>
        <time>2022-08-14T09:56:17.000Z</time>
      </trkpt>
      <trkpt lat="47.27001" lon="-2.31518">
        <ele>22.200000762939</ele>
        <time>2022-08-14T09:56:19.000Z</time>
      </trkpt>
      <trkpt lat="47.27003" lon="-2.31527">
        <ele>21.799999237061</ele>
        <time>2022-08-14T09:56:20.000Z</time>
      </trkpt>
      <trkpt lat="47.27006" lon="-2.31537">
        <ele>21.200000762939</ele>
        <time>2022-08-14T09:56:21.000Z</time>
      </trkpt>
      <trkpt lat="47.27009" lon="-2.31546">
        <ele>20.799999237061</ele>
        <time>2022-08-14T09:56:22.000Z</time>
      </trkpt>
      <trkpt lat="47.27012" lon="-2.31556">
        <ele>20.39999961853</ele>
        <time>2022-08-14T09:56:23.000Z</time>
      </trkpt>
      <trkpt lat="47.27015" lon="-2.31564">
        <ele>20.39999961853</ele>
        <time>2022-08-14T09:56:24.000Z</time>
      </trkpt>
      <trkpt lat="47.27018" lon="-2.31572">
        <ele>19.799999237061</ele>
        <time>2022-08-14T09:56:25.000Z</time>
      </trkpt>
      <trkpt lat="47.27021" lon="-2.3158">
        <ele>19.39999961853</ele>
        <time>2022-08-14T09:56:26.000Z</time>
      </trkpt>
      <trkpt lat="47.27023" lon="-2.31587">
        <ele>18.60000038147</ele>
        <time>2022-08-14T09:56:27.000Z</time>
      </trkpt>
      <trkpt lat="47.27025" lon="-2.31594">
        <ele>18</ele>
        <time>2022-08-14T09:56:28.000Z</time>
      </trkpt>
      <trkpt lat="47.27027" lon="-2.31601">
        <ele>17.60000038147</ele>
        <time>2022-08-14T09:56:29.000Z</time>
      </trkpt>
      <trkpt lat="47.27029" lon="-2.31609">
        <ele>17.200000762939</ele>
        <time>2022-08-14T09:56:30.000Z</time>
      </trkpt>
      <trkpt lat="47.2703" lon="-2.31618">
        <ele>16.60000038147</ele>
        <time>2022-08-14T09:56:31.000Z</time>
      </trkpt>
      <trkpt lat="47.27032" lon="-2.31627">
        <ele>16.200000762939</ele>
        <time>2022-08-14T09:56:32.000Z</time>
      </trkpt>
      <trkpt lat="47.27032" lon="-2.31637">
        <ele>15.800000190735</ele>
        <time>2022-08-14T09:56:33.000Z</time>
      </trkpt>
      <trkpt lat="47.27033" lon="-2.31665">
        <ele>15.199999809265</ele>
        <time>2022-08-14T09:56:36.000Z</time>
      </trkpt>
      <trkpt lat="47.27032" lon="-2.31675">
        <ele>14.800000190735</ele>
        <time>2022-08-14T09:56:37.000Z</time>
      </trkpt>
      <trkpt lat="47.2703" lon="-2.31683">
        <ele>14.39999961853</ele>
        <time>2022-08-14T09:56:38.000Z</time>
      </trkpt>
      <trkpt lat="47.27029" lon="-2.31691">
        <ele>14</ele>
        <time>2022-08-14T09:56:39.000Z</time>
      </trkpt>
      <trkpt lat="47.27028" lon="-2.31696">
        <ele>13.60000038147</ele>
        <time>2022-08-14T09:56:40.000Z</time>
      </trkpt>
      <trkpt lat="47.27026" lon="-2.31699">
        <ele>13.60000038147</ele>
        <time>2022-08-14T09:56:41.000Z</time>
      </trkpt>
      <trkpt lat="47.27025" lon="-2.31701">
        <ele>13.199999809265</ele>
        <time>2022-08-14T09:56:44.000Z</time>
      </trkpt>
      <trkpt lat="47.27025" lon="-2.31704">
        <ele>12.800000190735</ele>
        <time>2022-08-14T09:56:45.000Z</time>
      </trkpt>
      <trkpt lat="47.27026" lon="-2.31706">
        <ele>12.199999809265</ele>
        <time>2022-08-14T09:56:46.000Z</time>
      </trkpt>
      <trkpt lat="47.27028" lon="-2.31709">
        <ele>11.800000190735</ele>
        <time>2022-08-14T09:56:47.000Z</time>
      </trkpt>
      <trkpt lat="47.2703" lon="-2.31713">
        <ele>11.39999961853</ele>
        <time>2022-08-14T09:56:48.000Z</time>
      </trkpt>
      <trkpt lat="47.27036" lon="-2.3172">
        <ele>11.39999961853</ele>
        <time>2022-08-14T09:56:50.000Z</time>
      </trkpt>
      <trkpt lat="47.27042" lon="-2.31725">
        <ele>11.39999961853</ele>
        <time>2022-08-14T09:56:52.000Z</time>
      </trkpt>
      <trkpt lat="47.27044" lon="-2.31743">
        <ele>11.39999961853</ele>
        <time>2022-08-14T09:56:55.000Z</time>
      </trkpt>
      <trkpt lat="47.27045" lon="-2.31771">
        <ele>11.39999961853</ele>
        <time>2022-08-14T09:56:59.000Z</time>
      </trkpt>
      <trkpt lat="47.27052" lon="-2.31814">
        <ele>11</ele>
        <time>2022-08-14T09:57:04.000Z</time>
      </trkpt>
      <trkpt lat="47.27053" lon="-2.31821">
        <ele>10.60000038147</ele>
        <time>2022-08-14T09:57:05.000Z</time>
      </trkpt>
      <trkpt lat="47.27054" lon="-2.31827">
        <ele>10.199999809265</ele>
        <time>2022-08-14T09:57:06.000Z</time>
      </trkpt>
      <trkpt lat="47.27054" lon="-2.31831">
        <ele>9.8000001907349</ele>
        <time>2022-08-14T09:57:07.000Z</time>
      </trkpt>
      <trkpt lat="47.27055" lon="-2.31835">
        <ele>9.1999998092651</ele>
        <time>2022-08-14T09:57:08.000Z</time>
      </trkpt>
      <trkpt lat="47.27059" lon="-2.31849">
        <ele>9.1999998092651</ele>
        <time>2022-08-14T09:57:12.000Z</time>
      </trkpt>
      <trkpt lat="47.27071" lon="-2.31856">
        <ele>9.1999998092651</ele>
        <time>2022-08-14T09:57:17.000Z</time>
      </trkpt>
      <trkpt lat="47.27073" lon="-2.31859">
        <ele>8.8000001907349</ele>
        <time>2022-08-14T09:57:18.000Z</time>
      </trkpt>
      <trkpt lat="47.27073" lon="-2.31861">
        <ele>8.3999996185303</ele>
        <time>2022-08-14T09:57:19.000Z</time>
      </trkpt>
      <trkpt lat="47.27073" lon="-2.31864">
        <ele>8</ele>
        <time>2022-08-14T09:57:20.000Z</time>
      </trkpt>
      <trkpt lat="47.27073" lon="-2.31866">
        <ele>7.5999999046326</ele>
        <time>2022-08-14T09:57:21.000Z</time>
      </trkpt>
      <trkpt lat="47.27073" lon="-2.31868">
        <ele>7.1999998092651</ele>
        <time>2022-08-14T09:57:22.000Z</time>
      </trkpt>
      <trkpt lat="47.27073" lon="-2.31879">
        <ele>7.1999998092651</ele>
        <time>2022-08-14T09:57:25.000Z</time>
      </trkpt>
      <trkpt lat="47.27074" lon="-2.31897">
        <ele>7.1999998092651</ele>
        <time>2022-08-14T09:57:28.000Z</time>
      </trkpt>
      <trkpt lat="47.27075" lon="-2.31903">
        <ele>7.1999998092651</ele>
        <time>2022-08-14T09:57:29.000Z</time>
      </trkpt>
      <trkpt lat="47.27076" lon="-2.31923">
        <ele>7.1999998092651</ele>
        <time>2022-08-14T09:57:32.000Z</time>
      </trkpt>
      <trkpt lat="47.27076" lon="-2.31928">
        <ele>7.1999998092651</ele>
        <time>2022-08-14T09:57:33.000Z</time>
      </trkpt>
      <trkpt lat="47.27076" lon="-2.31939">
        <ele>6.8000001907349</ele>
        <time>2022-08-14T09:57:36.000Z</time>
      </trkpt>
      <trkpt lat="47.27078" lon="-2.31941">
        <ele>6.4000000953674</ele>
        <time>2022-08-14T09:57:37.000Z</time>
      </trkpt>
      <trkpt lat="47.27079" lon="-2.31942">
        <ele>6</ele>
        <time>2022-08-14T09:57:38.000Z</time>
      </trkpt>
      <trkpt lat="47.27081" lon="-2.31943">
        <ele>5.5999999046326</ele>
        <time>2022-08-14T09:57:39.000Z</time>
      </trkpt>
      <trkpt lat="47.27084" lon="-2.31944">
        <ele>5.1999998092651</ele>
        <time>2022-08-14T09:57:40.000Z</time>
      </trkpt>
      <trkpt lat="47.27087" lon="-2.31945">
        <ele>5.1999998092651</ele>
        <time>2022-08-14T09:57:42.000Z</time>
      </trkpt>
      <trkpt lat="47.2709" lon="-2.31946">
        <ele>5.1999998092651</ele>
        <time>2022-08-14T09:57:43.000Z</time>
      </trkpt>
      <trkpt lat="47.27105" lon="-2.31954">
        <ele>5.1999998092651</ele>
        <time>2022-08-14T09:57:48.000Z</time>
      </trkpt>
      <trkpt lat="47.27114" lon="-2.31959">
        <ele>5.1999998092651</ele>
        <time>2022-08-14T09:57:50.000Z</time>
      </trkpt>
      <trkpt lat="47.27123" lon="-2.31966">
        <ele>4.8000001907349</ele>
        <time>2022-08-14T09:57:52.000Z</time>
      </trkpt>
      <trkpt lat="47.27128" lon="-2.31969">
        <ele>4.4000000953674</ele>
        <time>2022-08-14T09:57:53.000Z</time>
      </trkpt>
      <trkpt lat="47.27132" lon="-2.31972">
        <ele>4</ele>
        <time>2022-08-14T09:57:54.000Z</time>
      </trkpt>
      <trkpt lat="47.27136" lon="-2.31976">
        <ele>3.5999999046326</ele>
        <time>2022-08-14T09:57:55.000Z</time>
      </trkpt>
      <trkpt lat="47.2714" lon="-2.3198">
        <ele>3.2000000476837</ele>
        <time>2022-08-14T09:57:56.000Z</time>
      </trkpt>
      <trkpt lat="47.27148" lon="-2.31987">
        <ele>3.2000000476837</ele>
        <time>2022-08-14T09:57:58.000Z</time>
      </trkpt>
      <trkpt lat="47.27159" lon="-2.31988">
        <ele>3.2000000476837</ele>
        <time>2022-08-14T09:58:01.000Z</time>
      </trkpt>
      <trkpt lat="47.27166" lon="-2.31975">
        <ele>3.2000000476837</ele>
        <time>2022-08-14T09:58:04.000Z</time>
      </trkpt>
      <trkpt lat="47.27178" lon="-2.31963">
        <ele>3.2000000476837</ele>
        <time>2022-08-14T09:58:08.000Z</time>
      </trkpt>
      <trkpt lat="47.27193" lon="-2.31946">
        <ele>3.2000000476837</ele>
        <time>2022-08-14T09:58:13.000Z</time>
      </trkpt>
      <trkpt lat="47.27211" lon="-2.31924">
        <ele>3.2000000476837</ele>
        <time>2022-08-14T09:58:19.000Z</time>
      </trkpt>
      <trkpt lat="47.27215" lon="-2.31922">
        <ele>3.5999999046326</ele>
        <time>2022-08-14T09:58:20.000Z</time>
      </trkpt>
      <trkpt lat="47.27218" lon="-2.3192">
        <ele>4</ele>
        <time>2022-08-14T09:58:21.000Z</time>
      </trkpt>
      <trkpt lat="47.27223" lon="-2.3192">
        <ele>4.4000000953674</ele>
        <time>2022-08-14T09:58:22.000Z</time>
      </trkpt>
      <trkpt lat="47.27227" lon="-2.31921">
        <ele>4.8000001907349</ele>
        <time>2022-08-14T09:58:23.000Z</time>
      </trkpt>
      <trkpt lat="47.27231" lon="-2.31922">
        <ele>5.1999998092651</ele>
        <time>2022-08-14T09:58:24.000Z</time>
      </trkpt>
      <trkpt lat="47.27241" lon="-2.31925">
        <ele>5.1999998092651</ele>
        <time>2022-08-14T09:58:26.000Z</time>
      </trkpt>
      <trkpt lat="47.2725" lon="-2.31927">
        <ele>5.1999998092651</ele>
        <time>2022-08-14T09:58:28.000Z</time>
      </trkpt>
      <trkpt lat="47.2728" lon="-2.31936">
        <ele>5.1999998092651</ele>
        <time>2022-08-14T09:58:34.000Z</time>
      </trkpt>
      <trkpt lat="47.27294" lon="-2.31944">
        <ele>5.1999998092651</ele>
        <time>2022-08-14T09:58:37.000Z</time>
      </trkpt>
      <trkpt lat="47.27303" lon="-2.31952">
        <ele>5.1999998092651</ele>
        <time>2022-08-14T09:58:39.000Z</time>
      </trkpt>
      <trkpt lat="47.27307" lon="-2.31956">
        <ele>5.1999998092651</ele>
        <time>2022-08-14T09:58:40.000Z</time>
      </trkpt>
      <trkpt lat="47.27319" lon="-2.31972">
        <ele>5.1999998092651</ele>
        <time>2022-08-14T09:58:43.000Z</time>
      </trkpt>
      <trkpt lat="47.27328" lon="-2.31984">
        <ele>5.1999998092651</ele>
        <time>2022-08-14T09:58:45.000Z</time>
      </trkpt>
      <trkpt lat="47.27366" lon="-2.32032">
        <ele>5.1999998092651</ele>
        <time>2022-08-14T09:58:53.000Z</time>
      </trkpt>
      <trkpt lat="47.27376" lon="-2.32044">
        <ele>5.1999998092651</ele>
        <time>2022-08-14T09:58:55.000Z</time>
      </trkpt>
      <trkpt lat="47.27381" lon="-2.3205">
        <ele>4.4000000953674</ele>
        <time>2022-08-14T09:58:56.000Z</time>
      </trkpt>
      <trkpt lat="47.27386" lon="-2.32056">
        <ele>4</ele>
        <time>2022-08-14T09:58:57.000Z</time>
      </trkpt>
      <trkpt lat="47.2739" lon="-2.32061">
        <ele>3.5999999046326</ele>
        <time>2022-08-14T09:58:58.000Z</time>
      </trkpt>
      <trkpt lat="47.27395" lon="-2.32068">
        <ele>3.2000000476837</ele>
        <time>2022-08-14T09:58:59.000Z</time>
      </trkpt>
      <trkpt lat="47.27408" lon="-2.32091">
        <ele>3.2000000476837</ele>
        <time>2022-08-14T09:59:02.000Z</time>
      </trkpt>
      <trkpt lat="47.2741" lon="-2.32108">
        <ele>3.2000000476837</ele>
        <time>2022-08-14T09:59:04.000Z</time>
      </trkpt>
      <trkpt lat="47.27409" lon="-2.32116">
        <ele>3.2000000476837</ele>
        <time>2022-08-14T09:59:05.000Z</time>
      </trkpt>
      <trkpt lat="47.27407" lon="-2.32141">
        <ele>3.2000000476837</ele>
        <time>2022-08-14T09:59:08.000Z</time>
      </trkpt>
      <trkpt lat="47.27406" lon="-2.3215">
        <ele>3.2000000476837</ele>
        <time>2022-08-14T09:59:09.000Z</time>
      </trkpt>
      <trkpt lat="47.27403" lon="-2.32177">
        <ele>3.2000000476837</ele>
        <time>2022-08-14T09:59:12.000Z</time>
      </trkpt>
      <trkpt lat="47.27395" lon="-2.32237">
        <ele>3.2000000476837</ele>
        <time>2022-08-14T09:59:18.000Z</time>
      </trkpt>
      <trkpt lat="47.2739" lon="-2.32255">
        <ele>3.2000000476837</ele>
        <time>2022-08-14T09:59:20.000Z</time>
      </trkpt>
      <trkpt lat="47.27382" lon="-2.3228">
        <ele>3.5999999046326</ele>
        <time>2022-08-14T09:59:23.000Z</time>
      </trkpt>
      <trkpt lat="47.2738" lon="-2.32288">
        <ele>4</ele>
        <time>2022-08-14T09:59:24.000Z</time>
      </trkpt>
      <trkpt lat="47.27378" lon="-2.32296">
        <ele>4.4000000953674</ele>
        <time>2022-08-14T09:59:25.000Z</time>
      </trkpt>
      <trkpt lat="47.27376" lon="-2.32304">
        <ele>4.8000001907349</ele>
        <time>2022-08-14T09:59:26.000Z</time>
      </trkpt>
      <trkpt lat="47.27375" lon="-2.32312">
        <ele>5.1999998092651</ele>
        <time>2022-08-14T09:59:27.000Z</time>
      </trkpt>
      <trkpt lat="47.2737" lon="-2.32336">
        <ele>5.1999998092651</ele>
        <time>2022-08-14T09:59:30.000Z</time>
      </trkpt>
      <trkpt lat="47.27368" lon="-2.32344">
        <ele>5.1999998092651</ele>
        <time>2022-08-14T09:59:31.000Z</time>
      </trkpt>
      <trkpt lat="47.2736" lon="-2.32382">
        <ele>5.1999998092651</ele>
        <time>2022-08-14T09:59:35.000Z</time>
      </trkpt>
      <trkpt lat="47.27343" lon="-2.32439">
        <ele>5.1999998092651</ele>
        <time>2022-08-14T09:59:41.000Z</time>
      </trkpt>
      <trkpt lat="47.27328" lon="-2.32472">
        <ele>5.1999998092651</ele>
        <time>2022-08-14T09:59:45.000Z</time>
      </trkpt>
      <trkpt lat="47.27323" lon="-2.32479">
        <ele>5.1999998092651</ele>
        <time>2022-08-14T09:59:46.000Z</time>
      </trkpt>
      <trkpt lat="47.27297" lon="-2.32523">
        <ele>5.1999998092651</ele>
        <time>2022-08-14T09:59:53.000Z</time>
      </trkpt>
      <trkpt lat="47.27277" lon="-2.32551">
        <ele>5.1999998092651</ele>
        <time>2022-08-14T09:59:58.000Z</time>
      </trkpt>
      <trkpt lat="47.27273" lon="-2.32556">
        <ele>5.1999998092651</ele>
        <time>2022-08-14T09:59:59.000Z</time>
      </trkpt>
      <trkpt lat="47.27263" lon="-2.32567">
        <ele>5.1999998092651</ele>
        <time>2022-08-14T10:00:01.000Z</time>
      </trkpt>
      <trkpt lat="47.27254" lon="-2.32578">
        <ele>5.1999998092651</ele>
        <time>2022-08-14T10:00:03.000Z</time>
      </trkpt>
      <trkpt lat="47.27225" lon="-2.32607">
        <ele>5.1999998092651</ele>
        <time>2022-08-14T10:00:09.000Z</time>
      </trkpt>
      <trkpt lat="47.2719" lon="-2.3264">
        <ele>5.1999998092651</ele>
        <time>2022-08-14T10:00:16.000Z</time>
      </trkpt>
      <trkpt lat="47.27157" lon="-2.32673">
        <ele>5.1999998092651</ele>
        <time>2022-08-14T10:00:23.000Z</time>
      </trkpt>
      <trkpt lat="47.27138" lon="-2.32692">
        <ele>5.1999998092651</ele>
        <time>2022-08-14T10:00:27.000Z</time>
      </trkpt>
      <trkpt lat="47.27135" lon="-2.32698">
        <ele>5.1999998092651</ele>
        <time>2022-08-14T10:00:28.000Z</time>
      </trkpt>
      <trkpt lat="47.27124" lon="-2.32713">
        <ele>5.1999998092651</ele>
        <time>2022-08-14T10:00:31.000Z</time>
      </trkpt>
      <trkpt lat="47.27098" lon="-2.32736">
        <ele>5.1999998092651</ele>
        <time>2022-08-14T10:00:37.000Z</time>
      </trkpt>
      <trkpt lat="47.27063" lon="-2.32768">
        <ele>5.1999998092651</ele>
        <time>2022-08-14T10:00:44.000Z</time>
      </trkpt>
      <trkpt lat="47.27023" lon="-2.32804">
        <ele>5.1999998092651</ele>
        <time>2022-08-14T10:00:52.000Z</time>
      </trkpt>
      <trkpt lat="47.26988" lon="-2.32836">
        <ele>5.1999998092651</ele>
        <time>2022-08-14T10:00:59.000Z</time>
      </trkpt>
      <trkpt lat="47.26958" lon="-2.32863">
        <ele>5.1999998092651</ele>
        <time>2022-08-14T10:01:05.000Z</time>
      </trkpt>
      <trkpt lat="47.26917" lon="-2.32903">
        <ele>5.1999998092651</ele>
        <time>2022-08-14T10:01:13.000Z</time>
      </trkpt>
      <trkpt lat="47.26896" lon="-2.32922">
        <ele>4.8000001907349</ele>
        <time>2022-08-14T10:01:17.000Z</time>
      </trkpt>
      <trkpt lat="47.26891" lon="-2.32928">
        <ele>4.4000000953674</ele>
        <time>2022-08-14T10:01:18.000Z</time>
      </trkpt>
      <trkpt lat="47.26886" lon="-2.32933">
        <ele>4</ele>
        <time>2022-08-14T10:01:19.000Z</time>
      </trkpt>
      <trkpt lat="47.26881" lon="-2.32937">
        <ele>3.5999999046326</ele>
        <time>2022-08-14T10:01:20.000Z</time>
      </trkpt>
      <trkpt lat="47.26876" lon="-2.32941">
        <ele>3</ele>
        <time>2022-08-14T10:01:21.000Z</time>
      </trkpt>
      <trkpt lat="47.26862" lon="-2.32953">
        <ele>3</ele>
        <time>2022-08-14T10:01:24.000Z</time>
      </trkpt>
      <trkpt lat="47.26827" lon="-2.32987">
        <ele>3</ele>
        <time>2022-08-14T10:01:31.000Z</time>
      </trkpt>
      <trkpt lat="47.26785" lon="-2.33028">
        <ele>3</ele>
        <time>2022-08-14T10:01:39.000Z</time>
      </trkpt>
      <trkpt lat="47.26746" lon="-2.33064">
        <ele>3</ele>
        <time>2022-08-14T10:01:47.000Z</time>
      </trkpt>
      <trkpt lat="47.26739" lon="-2.33066">
        <ele>3</ele>
        <time>2022-08-14T10:01:49.000Z</time>
      </trkpt>
      <trkpt lat="47.26736" lon="-2.33064">
        <ele>2.5999999046326</ele>
        <time>2022-08-14T10:01:50.000Z</time>
      </trkpt>
      <trkpt lat="47.26733" lon="-2.33061">
        <ele>2.2000000476837</ele>
        <time>2022-08-14T10:01:51.000Z</time>
      </trkpt>
      <trkpt lat="47.26729" lon="-2.3306">
        <ele>1.7999999523163</ele>
        <time>2022-08-14T10:01:52.000Z</time>
      </trkpt>
      <trkpt lat="47.26725" lon="-2.33062">
        <ele>1.3999999761581</ele>
        <time>2022-08-14T10:01:53.000Z</time>
      </trkpt>
      <trkpt lat="47.26722" lon="-2.33066">
        <ele>1</ele>
        <time>2022-08-14T10:01:54.000Z</time>
      </trkpt>
      <trkpt lat="47.26719" lon="-2.3307">
        <ele>1</ele>
        <time>2022-08-14T10:01:55.000Z</time>
      </trkpt>
      <trkpt lat="47.26716" lon="-2.33074">
        <ele>1</ele>
        <time>2022-08-14T10:01:56.000Z</time>
      </trkpt>
      <trkpt lat="47.26714" lon="-2.33079">
        <ele>1</ele>
        <time>2022-08-14T10:01:57.000Z</time>
      </trkpt>
      <trkpt lat="47.26707" lon="-2.33088">
        <ele>1</ele>
        <time>2022-08-14T10:01:59.000Z</time>
      </trkpt>
      <trkpt lat="47.26695" lon="-2.33099">
        <ele>1</ele>
        <time>2022-08-14T10:02:02.000Z</time>
      </trkpt>
      <trkpt lat="47.26692" lon="-2.33103">
        <ele>1</ele>
        <time>2022-08-14T10:02:03.000Z</time>
      </trkpt>
      <trkpt lat="47.2667" lon="-2.33122">
        <ele>1</ele>
        <time>2022-08-14T10:02:09.000Z</time>
      </trkpt>
      <trkpt lat="47.26646" lon="-2.33141">
        <ele>1</ele>
        <time>2022-08-14T10:02:16.000Z</time>
      </trkpt>
      <trkpt lat="47.26628" lon="-2.33151">
        <ele>1</ele>
        <time>2022-08-14T10:02:23.000Z</time>
      </trkpt>
      <trkpt lat="47.26609" lon="-2.33153">
        <ele>1</ele>
        <time>2022-08-14T10:02:29.000Z</time>
      </trkpt>
      <trkpt lat="47.26605" lon="-2.33164">
        <ele>1</ele>
        <time>2022-08-14T10:02:32.000Z</time>
      </trkpt>
      <trkpt lat="47.26603" lon="-2.33168">
        <ele>1</ele>
        <time>2022-08-14T10:02:33.000Z</time>
      </trkpt>
      <trkpt lat="47.26596" lon="-2.33186">
        <ele>1</ele>
        <time>2022-08-14T10:02:37.000Z</time>
      </trkpt>
      <trkpt lat="47.26587" lon="-2.33203">
        <ele>1</ele>
        <time>2022-08-14T10:02:41.000Z</time>
      </trkpt>
      <trkpt lat="47.26566" lon="-2.33216">
        <ele>1</ele>
        <time>2022-08-14T10:02:46.000Z</time>
      </trkpt>
      <trkpt lat="47.26535" lon="-2.33237">
        <ele>1</ele>
        <time>2022-08-14T10:02:53.000Z</time>
      </trkpt>
      <trkpt lat="47.26507" lon="-2.33256">
        <ele>1</ele>
        <time>2022-08-14T10:03:00.000Z</time>
      </trkpt>
      <trkpt lat="47.26498" lon="-2.33267">
        <ele>1</ele>
        <time>2022-08-14T10:03:04.000Z</time>
      </trkpt>
      <trkpt lat="47.26496" lon="-2.33271">
        <ele>1</ele>
        <time>2022-08-14T10:03:05.000Z</time>
      </trkpt>
      <trkpt lat="47.2649" lon="-2.33279">
        <ele>1</ele>
        <time>2022-08-14T10:03:08.000Z</time>
      </trkpt>
      <trkpt lat="47.26488" lon="-2.3328">
        <ele>1</ele>
        <time>2022-08-14T10:03:09.000Z</time>
      </trkpt>
      <trkpt lat="47.26483" lon="-2.33288">
        <ele>1</ele>
        <time>2022-08-14T10:03:14.000Z</time>
      </trkpt>
      <trkpt lat="47.26483" lon="-2.33288">
        <ele>1</ele>
        <time>2022-08-14T10:03:15.000Z</time>
      </trkpt>
      <trkpt lat="47.26483" lon="-2.33293">
        <ele>1</ele>
        <time>2022-08-14T10:04:13.000Z</time>
      </trkpt>
      <trkpt lat="47.26482" lon="-2.33297">
        <ele>1</ele>
        <time>2022-08-14T10:04:15.000Z</time>
      </trkpt>
      <trkpt lat="47.26472" lon="-2.33305">
        <ele>1</ele>
        <time>2022-08-14T10:04:19.000Z</time>
      </trkpt>
      <trkpt lat="47.26452" lon="-2.33321">
        <ele>1</ele>
        <time>2022-08-14T10:04:25.000Z</time>
      </trkpt>
      <trkpt lat="47.26422" lon="-2.33343">
        <ele>1</ele>
        <time>2022-08-14T10:04:32.000Z</time>
      </trkpt>
      <trkpt lat="47.2639" lon="-2.33365">
        <ele>1</ele>
        <time>2022-08-14T10:04:39.000Z</time>
      </trkpt>
      <trkpt lat="47.26345" lon="-2.3339">
        <ele>1</ele>
        <time>2022-08-14T10:04:48.000Z</time>
      </trkpt>
      <trkpt lat="47.2632" lon="-2.33404">
        <ele>1</ele>
        <time>2022-08-14T10:04:53.000Z</time>
      </trkpt>
      <trkpt lat="47.26312" lon="-2.33413">
        <ele>1</ele>
        <time>2022-08-14T10:04:55.000Z</time>
      </trkpt>
      <trkpt lat="47.26295" lon="-2.3342">
        <ele>1</ele>
        <time>2022-08-14T10:04:59.000Z</time>
      </trkpt>
      <trkpt lat="47.2629" lon="-2.33422">
        <ele>1</ele>
        <time>2022-08-14T10:05:00.000Z</time>
      </trkpt>
      <trkpt lat="47.26285" lon="-2.33423">
        <ele>1</ele>
        <time>2022-08-14T10:05:02.000Z</time>
      </trkpt>
      <trkpt lat="47.26272" lon="-2.33426">
        <ele>1</ele>
        <time>2022-08-14T10:05:06.000Z</time>
      </trkpt>
      <trkpt lat="47.26246" lon="-2.33431">
        <ele>1</ele>
        <time>2022-08-14T10:05:12.000Z</time>
      </trkpt>
      <trkpt lat="47.26218" lon="-2.33438">
        <ele>1</ele>
        <time>2022-08-14T10:05:18.000Z</time>
      </trkpt>
      <trkpt lat="47.26186" lon="-2.33443">
        <ele>1</ele>
        <time>2022-08-14T10:05:25.000Z</time>
      </trkpt>
      <trkpt lat="47.26166" lon="-2.33442">
        <ele>1</ele>
        <time>2022-08-14T10:05:30.000Z</time>
      </trkpt>
      <trkpt lat="47.26158" lon="-2.33439">
        <ele>1</ele>
        <time>2022-08-14T10:05:32.000Z</time>
      </trkpt>
      <trkpt lat="47.26141" lon="-2.33432">
        <ele>1</ele>
        <time>2022-08-14T10:05:37.000Z</time>
      </trkpt>
      <trkpt lat="47.26139" lon="-2.33434">
        <ele>1</ele>
        <time>2022-08-14T10:05:38.000Z</time>
      </trkpt>
      <trkpt lat="47.26133" lon="-2.33446">
        <ele>1</ele>
        <time>2022-08-14T10:05:42.000Z</time>
      </trkpt>
      <trkpt lat="47.26131" lon="-2.33449">
        <ele>1</ele>
        <time>2022-08-14T10:05:43.000Z</time>
      </trkpt>
      <trkpt lat="47.26124" lon="-2.33452">
        <ele>1</ele>
        <time>2022-08-14T10:05:45.000Z</time>
      </trkpt>
      <trkpt lat="47.26115" lon="-2.33454">
        <ele>1</ele>
        <time>2022-08-14T10:05:47.000Z</time>
      </trkpt>
      <trkpt lat="47.26108" lon="-2.33461">
        <ele>1</ele>
        <time>2022-08-14T10:05:49.000Z</time>
      </trkpt>
      <trkpt lat="47.261" lon="-2.33469">
        <ele>1</ele>
        <time>2022-08-14T10:05:51.000Z</time>
      </trkpt>
      <trkpt lat="47.26085" lon="-2.33473">
        <ele>1</ele>
        <time>2022-08-14T10:05:54.000Z</time>
      </trkpt>
      <trkpt lat="47.26066" lon="-2.3346">
        <ele>1</ele>
        <time>2022-08-14T10:05:58.000Z</time>
      </trkpt>
      <trkpt lat="47.26062" lon="-2.33455">
        <ele>1</ele>
        <time>2022-08-14T10:05:59.000Z</time>
      </trkpt>
      <trkpt lat="47.26057" lon="-2.33453">
        <ele>1</ele>
        <time>2022-08-14T10:06:00.000Z</time>
      </trkpt>
      <trkpt lat="47.26047" lon="-2.33458">
        <ele>1</ele>
        <time>2022-08-14T10:06:02.000Z</time>
      </trkpt>
      <trkpt lat="47.26038" lon="-2.33477">
        <ele>1</ele>
        <time>2022-08-14T10:06:05.000Z</time>
      </trkpt>
      <trkpt lat="47.26019" lon="-2.33492">
        <ele>1</ele>
        <time>2022-08-14T10:06:09.000Z</time>
      </trkpt>
      <trkpt lat="47.26014" lon="-2.33493">
        <ele>1</ele>
        <time>2022-08-14T10:06:10.000Z</time>
      </trkpt>
      <trkpt lat="47.25987" lon="-2.335">
        <ele>1</ele>
        <time>2022-08-14T10:06:16.000Z</time>
      </trkpt>
      <trkpt lat="47.25981" lon="-2.33509">
        <ele>1</ele>
        <time>2022-08-14T10:06:18.000Z</time>
      </trkpt>
      <trkpt lat="47.25977" lon="-2.33512">
        <ele>1</ele>
        <time>2022-08-14T10:06:19.000Z</time>
      </trkpt>
      <trkpt lat="47.25962" lon="-2.3351">
        <ele>1</ele>
        <time>2022-08-14T10:06:22.000Z</time>
      </trkpt>
      <trkpt lat="47.25957" lon="-2.3351">
        <ele>1</ele>
        <time>2022-08-14T10:06:23.000Z</time>
      </trkpt>
      <trkpt lat="47.25948" lon="-2.33518">
        <ele>1</ele>
        <time>2022-08-14T10:06:25.000Z</time>
      </trkpt>
      <trkpt lat="47.25916" lon="-2.33544">
        <ele>1</ele>
        <time>2022-08-14T10:06:32.000Z</time>
      </trkpt>
      <trkpt lat="47.25903" lon="-2.33555">
        <ele>1.3999999761581</ele>
        <time>2022-08-14T10:06:35.000Z</time>
      </trkpt>
      <trkpt lat="47.25898" lon="-2.3356">
        <ele>1.7999999523163</ele>
        <time>2022-08-14T10:06:36.000Z</time>
      </trkpt>
      <trkpt lat="47.25894" lon="-2.33563">
        <ele>2.2000000476837</ele>
        <time>2022-08-14T10:06:37.000Z</time>
      </trkpt>
      <trkpt lat="47.2589" lon="-2.33567">
        <ele>2.5999999046326</ele>
        <time>2022-08-14T10:06:38.000Z</time>
      </trkpt>
      <trkpt lat="47.25885" lon="-2.33571">
        <ele>3</ele>
        <time>2022-08-14T10:06:39.000Z</time>
      </trkpt>
      <trkpt lat="47.2588" lon="-2.33574">
        <ele>3</ele>
        <time>2022-08-14T10:06:40.000Z</time>
      </trkpt>
      <trkpt lat="47.25865" lon="-2.33577">
        <ele>3</ele>
        <time>2022-08-14T10:06:43.000Z</time>
      </trkpt>
      <trkpt lat="47.25843" lon="-2.3358">
        <ele>3</ele>
        <time>2022-08-14T10:06:47.000Z</time>
      </trkpt>
      <trkpt lat="47.25838" lon="-2.3358">
        <ele>3</ele>
        <time>2022-08-14T10:06:48.000Z</time>
      </trkpt>
      <trkpt lat="47.25799" lon="-2.33583">
        <ele>3</ele>
        <time>2022-08-14T10:06:55.000Z</time>
      </trkpt>
      <trkpt lat="47.2576" lon="-2.33585">
        <ele>3</ele>
        <time>2022-08-14T10:07:02.000Z</time>
      </trkpt>
      <trkpt lat="47.25749" lon="-2.33588">
        <ele>3</ele>
        <time>2022-08-14T10:07:04.000Z</time>
      </trkpt>
      <trkpt lat="47.25738" lon="-2.33589">
        <ele>3</ele>
        <time>2022-08-14T10:07:06.000Z</time>
      </trkpt>
      <trkpt lat="47.25721" lon="-2.33587">
        <ele>3</ele>
        <time>2022-08-14T10:07:09.000Z</time>
      </trkpt>
      <trkpt lat="47.25704" lon="-2.33587">
        <ele>3</ele>
        <time>2022-08-14T10:07:12.000Z</time>
      </trkpt>
      <trkpt lat="47.25664" lon="-2.3358">
        <ele>3</ele>
        <time>2022-08-14T10:07:20.000Z</time>
      </trkpt>
      <trkpt lat="47.25652" lon="-2.33575">
        <ele>3.4000000953674</ele>
        <time>2022-08-14T10:07:22.000Z</time>
      </trkpt>
      <trkpt lat="47.25647" lon="-2.33573">
        <ele>3.7999999523163</ele>
        <time>2022-08-14T10:07:23.000Z</time>
      </trkpt>
      <trkpt lat="47.25642" lon="-2.3357">
        <ele>4.1999998092651</ele>
        <time>2022-08-14T10:07:24.000Z</time>
      </trkpt>
      <trkpt lat="47.25636" lon="-2.33567">
        <ele>4.5999999046326</ele>
        <time>2022-08-14T10:07:25.000Z</time>
      </trkpt>
      <trkpt lat="47.2563" lon="-2.33563">
        <ele>5</ele>
        <time>2022-08-14T10:07:26.000Z</time>
      </trkpt>
      <trkpt lat="47.25625" lon="-2.33559">
        <ele>5</ele>
        <time>2022-08-14T10:07:27.000Z</time>
      </trkpt>
      <trkpt lat="47.25593" lon="-2.33531">
        <ele>5</ele>
        <time>2022-08-14T10:07:33.000Z</time>
      </trkpt>
      <trkpt lat="47.25584" lon="-2.33519">
        <ele>5</ele>
        <time>2022-08-14T10:07:35.000Z</time>
      </trkpt>
      <trkpt lat="47.25571" lon="-2.33499">
        <ele>5</ele>
        <time>2022-08-14T10:07:38.000Z</time>
      </trkpt>
      <trkpt lat="47.25567" lon="-2.33493">
        <ele>5</ele>
        <time>2022-08-14T10:07:39.000Z</time>
      </trkpt>
      <trkpt lat="47.25548" lon="-2.33456">
        <ele>5</ele>
        <time>2022-08-14T10:07:44.000Z</time>
      </trkpt>
      <trkpt lat="47.25545" lon="-2.33448">
        <ele>5</ele>
        <time>2022-08-14T10:07:45.000Z</time>
      </trkpt>
      <trkpt lat="47.25543" lon="-2.33439">
        <ele>5</ele>
        <time>2022-08-14T10:07:46.000Z</time>
      </trkpt>
      <trkpt lat="47.25535" lon="-2.33413">
        <ele>5</ele>
        <time>2022-08-14T10:07:49.000Z</time>
      </trkpt>
      <trkpt lat="47.25533" lon="-2.33404">
        <ele>5</ele>
        <time>2022-08-14T10:07:50.000Z</time>
      </trkpt>
      <trkpt lat="47.25523" lon="-2.33337">
        <ele>5</ele>
        <time>2022-08-14T10:07:57.000Z</time>
      </trkpt>
      <trkpt lat="47.25513" lon="-2.3326">
        <ele>5</ele>
        <time>2022-08-14T10:08:05.000Z</time>
      </trkpt>
      <trkpt lat="47.25506" lon="-2.33208">
        <ele>5</ele>
        <time>2022-08-14T10:08:11.000Z</time>
      </trkpt>
      <trkpt lat="47.25496" lon="-2.33139">
        <ele>5</ele>
        <time>2022-08-14T10:08:19.000Z</time>
      </trkpt>
      <trkpt lat="47.25491" lon="-2.331">
        <ele>5</ele>
        <time>2022-08-14T10:08:24.000Z</time>
      </trkpt>
      <trkpt lat="47.25486" lon="-2.33095">
        <ele>5</ele>
        <time>2022-08-14T10:08:25.000Z</time>
      </trkpt>
      <trkpt lat="47.25477" lon="-2.33096">
        <ele>5</ele>
        <time>2022-08-14T10:08:27.000Z</time>
      </trkpt>
      <trkpt lat="47.25467" lon="-2.33101">
        <ele>5</ele>
        <time>2022-08-14T10:08:29.000Z</time>
      </trkpt>
      <trkpt lat="47.25448" lon="-2.33111">
        <ele>5</ele>
        <time>2022-08-14T10:08:33.000Z</time>
      </trkpt>
      <trkpt lat="47.25414" lon="-2.33125">
        <ele>5</ele>
        <time>2022-08-14T10:08:40.000Z</time>
      </trkpt>
      <trkpt lat="47.25398" lon="-2.33133">
        <ele>5</ele>
        <time>2022-08-14T10:08:44.000Z</time>
      </trkpt>
      <trkpt lat="47.25391" lon="-2.33138">
        <ele>5</ele>
        <time>2022-08-14T10:08:46.000Z</time>
      </trkpt>
      <trkpt lat="47.25384" lon="-2.3314">
        <ele>5</ele>
        <time>2022-08-14T10:08:48.000Z</time>
      </trkpt>
      <trkpt lat="47.25378" lon="-2.33134">
        <ele>5</ele>
        <time>2022-08-14T10:08:50.000Z</time>
      </trkpt>
      <trkpt lat="47.25374" lon="-2.33122">
        <ele>5</ele>
        <time>2022-08-14T10:08:53.000Z</time>
      </trkpt>
      <trkpt lat="47.25373" lon="-2.3312">
        <ele>5</ele>
        <time>2022-08-14T10:08:54.000Z</time>
      </trkpt>
      <trkpt lat="47.25371" lon="-2.33117">
        <ele>5</ele>
        <time>2022-08-14T10:08:57.000Z</time>
      </trkpt>
      <trkpt lat="47.25368" lon="-2.33102">
        <ele>5</ele>
        <time>2022-08-14T10:25:15.000Z</time>
      </trkpt>
      <trkpt lat="47.25363" lon="-2.33088">
        <ele>5</ele>
        <time>2022-08-14T10:25:20.000Z</time>
      </trkpt>
      <trkpt lat="47.25357" lon="-2.33073">
        <ele>5</ele>
        <time>2022-08-14T10:25:23.000Z</time>
      </trkpt>
      <trkpt lat="47.25353" lon="-2.33062">
        <ele>5</ele>
        <time>2022-08-14T10:25:25.000Z</time>
      </trkpt>
      <trkpt lat="47.25344" lon="-2.33038">
        <ele>5</ele>
        <time>2022-08-14T10:25:31.000Z</time>
      </trkpt>
      <trkpt lat="47.25336" lon="-2.33017">
        <ele>5</ele>
        <time>2022-08-14T10:25:36.000Z</time>
      </trkpt>
      <trkpt lat="47.25323" lon="-2.32983">
        <ele>5</ele>
        <time>2022-08-14T10:25:43.000Z</time>
      </trkpt>
      <trkpt lat="47.25309" lon="-2.32941">
        <ele>5</ele>
        <time>2022-08-14T10:25:52.000Z</time>
      </trkpt>
      <trkpt lat="47.25309" lon="-2.32923">
        <ele>5</ele>
        <time>2022-08-14T10:25:56.000Z</time>
      </trkpt>
      <trkpt lat="47.25315" lon="-2.32915">
        <ele>5</ele>
        <time>2022-08-14T10:25:58.000Z</time>
      </trkpt>
      <trkpt lat="47.25322" lon="-2.32908">
        <ele>5</ele>
        <time>2022-08-14T10:26:00.000Z</time>
      </trkpt>
      <trkpt lat="47.25349" lon="-2.32884">
        <ele>5</ele>
        <time>2022-08-14T10:26:07.000Z</time>
      </trkpt>
      <trkpt lat="47.25376" lon="-2.32856">
        <ele>5</ele>
        <time>2022-08-14T10:26:14.000Z</time>
      </trkpt>
      <trkpt lat="47.2538" lon="-2.32852">
        <ele>5</ele>
        <time>2022-08-14T10:26:15.000Z</time>
      </trkpt>
      <trkpt lat="47.25404" lon="-2.32822">
        <ele>5</ele>
        <time>2022-08-14T10:26:21.000Z</time>
      </trkpt>
      <trkpt lat="47.25425" lon="-2.32785">
        <ele>5</ele>
        <time>2022-08-14T10:26:28.000Z</time>
      </trkpt>
      <trkpt lat="47.25433" lon="-2.32765">
        <ele>5</ele>
        <time>2022-08-14T10:26:32.000Z</time>
      </trkpt>
      <trkpt lat="47.25437" lon="-2.32761">
        <ele>5.4000000953674</ele>
        <time>2022-08-14T10:26:33.000Z</time>
      </trkpt>
      <trkpt lat="47.25441" lon="-2.32757">
        <ele>5.8000001907349</ele>
        <time>2022-08-14T10:26:34.000Z</time>
      </trkpt>
      <trkpt lat="47.25445" lon="-2.32752">
        <ele>6.1999998092651</ele>
        <time>2022-08-14T10:26:35.000Z</time>
      </trkpt>
      <trkpt lat="47.25448" lon="-2.32747">
        <ele>6.5999999046326</ele>
        <time>2022-08-14T10:26:36.000Z</time>
      </trkpt>
      <trkpt lat="47.25451" lon="-2.32742">
        <ele>7</ele>
        <time>2022-08-14T10:26:37.000Z</time>
      </trkpt>
      <trkpt lat="47.25468" lon="-2.3272">
        <ele>7</ele>
        <time>2022-08-14T10:26:42.000Z</time>
      </trkpt>
      <trkpt lat="47.25484" lon="-2.32695">
        <ele>7</ele>
        <time>2022-08-14T10:26:47.000Z</time>
      </trkpt>
      <trkpt lat="47.25486" lon="-2.32689">
        <ele>7</ele>
        <time>2022-08-14T10:26:48.000Z</time>
      </trkpt>
      <trkpt lat="47.25487" lon="-2.32662">
        <ele>7</ele>
        <time>2022-08-14T10:26:52.000Z</time>
      </trkpt>
      <trkpt lat="47.25485" lon="-2.32649">
        <ele>7</ele>
        <time>2022-08-14T10:26:54.000Z</time>
      </trkpt>
      <trkpt lat="47.25481" lon="-2.32623">
        <ele>7</ele>
        <time>2022-08-14T10:26:58.000Z</time>
      </trkpt>
      <trkpt lat="47.25475" lon="-2.32598">
        <ele>7</ele>
        <time>2022-08-14T10:27:02.000Z</time>
      </trkpt>
      <trkpt lat="47.25472" lon="-2.32587">
        <ele>7</ele>
        <time>2022-08-14T10:27:04.000Z</time>
      </trkpt>
      <trkpt lat="47.25472" lon="-2.32571">
        <ele>7</ele>
        <time>2022-08-14T10:27:07.000Z</time>
      </trkpt>
      <trkpt lat="47.25474" lon="-2.32566">
        <ele>7</ele>
        <time>2022-08-14T10:27:08.000Z</time>
      </trkpt>
      <trkpt lat="47.25488" lon="-2.32551">
        <ele>7</ele>
        <time>2022-08-14T10:27:12.000Z</time>
      </trkpt>
      <trkpt lat="47.25518" lon="-2.32524">
        <ele>7</ele>
        <time>2022-08-14T10:27:19.000Z</time>
      </trkpt>
      <trkpt lat="47.25548" lon="-2.32496">
        <ele>7</ele>
        <time>2022-08-14T10:27:25.000Z</time>
      </trkpt>
      <trkpt lat="47.25554" lon="-2.32491">
        <ele>6.5999999046326</ele>
        <time>2022-08-14T10:27:26.000Z</time>
      </trkpt>
      <trkpt lat="47.2556" lon="-2.32486">
        <ele>6.1999998092651</ele>
        <time>2022-08-14T10:27:27.000Z</time>
      </trkpt>
      <trkpt lat="47.25566" lon="-2.3248">
        <ele>5.8000001907349</ele>
        <time>2022-08-14T10:27:28.000Z</time>
      </trkpt>
      <trkpt lat="47.25572" lon="-2.32474">
        <ele>5.1999998092651</ele>
        <time>2022-08-14T10:27:29.000Z</time>
      </trkpt>
      <trkpt lat="47.25578" lon="-2.32467">
        <ele>4.8000001907349</ele>
        <time>2022-08-14T10:27:30.000Z</time>
      </trkpt>
      <trkpt lat="47.25583" lon="-2.32461">
        <ele>4.8000001907349</ele>
        <time>2022-08-14T10:27:31.000Z</time>
      </trkpt>
      <trkpt lat="47.25596" lon="-2.32448">
        <ele>4.4000000953674</ele>
        <time>2022-08-14T10:27:33.000Z</time>
      </trkpt>
      <trkpt lat="47.25602" lon="-2.32442">
        <ele>4</ele>
        <time>2022-08-14T10:27:34.000Z</time>
      </trkpt>
      <trkpt lat="47.25608" lon="-2.32435">
        <ele>3.5999999046326</ele>
        <time>2022-08-14T10:27:35.000Z</time>
      </trkpt>
      <trkpt lat="47.25615" lon="-2.32427">
        <ele>3.2000000476837</ele>
        <time>2022-08-14T10:27:36.000Z</time>
      </trkpt>
      <trkpt lat="47.25621" lon="-2.32421">
        <ele>2.7999999523163</ele>
        <time>2022-08-14T10:27:37.000Z</time>
      </trkpt>
      <trkpt lat="47.25633" lon="-2.32408">
        <ele>2.7999999523163</ele>
        <time>2022-08-14T10:27:39.000Z</time>
      </trkpt>
      <trkpt lat="47.25639" lon="-2.32404">
        <ele>2.2000000476837</ele>
        <time>2022-08-14T10:27:40.000Z</time>
      </trkpt>
      <trkpt lat="47.25644" lon="-2.32403">
        <ele>1.7999999523163</ele>
        <time>2022-08-14T10:27:41.000Z</time>
      </trkpt>
      <trkpt lat="47.2565" lon="-2.32403">
        <ele>1.3999999761581</ele>
        <time>2022-08-14T10:27:42.000Z</time>
      </trkpt>
      <trkpt lat="47.25655" lon="-2.32403">
        <ele>0.80000001192093</ele>
        <time>2022-08-14T10:27:43.000Z</time>
      </trkpt>
      <trkpt lat="47.2566" lon="-2.32404">
        <ele>0.40000000596046</ele>
        <time>2022-08-14T10:27:44.000Z</time>
      </trkpt>
      <trkpt lat="47.25668" lon="-2.3241">
        <ele>0.40000000596046</ele>
        <time>2022-08-14T10:27:46.000Z</time>
      </trkpt>
      <trkpt lat="47.25687" lon="-2.32421">
        <ele>0.40000000596046</ele>
        <time>2022-08-14T10:27:50.000Z</time>
      </trkpt>
      <trkpt lat="47.25698" lon="-2.32421">
        <ele>0.40000000596046</ele>
        <time>2022-08-14T10:27:52.000Z</time>
      </trkpt>
      <trkpt lat="47.25722" lon="-2.32423">
        <ele>0.40000000596046</ele>
        <time>2022-08-14T10:27:56.000Z</time>
      </trkpt>
      <trkpt lat="47.2576" lon="-2.32421">
        <ele>0.40000000596046</ele>
        <time>2022-08-14T10:28:03.000Z</time>
      </trkpt>
      <trkpt lat="47.25764" lon="-2.32418">
        <ele>0.40000000596046</ele>
        <time>2022-08-14T10:28:04.000Z</time>
      </trkpt>
      <trkpt lat="47.25772" lon="-2.32414">
        <ele>0.40000000596046</ele>
        <time>2022-08-14T10:28:06.000Z</time>
      </trkpt>
      <trkpt lat="47.25776" lon="-2.32414">
        <ele>0.40000000596046</ele>
        <time>2022-08-14T10:28:07.000Z</time>
      </trkpt>
      <trkpt lat="47.25788" lon="-2.32426">
        <ele>0.40000000596046</ele>
        <time>2022-08-14T10:28:10.000Z</time>
      </trkpt>
      <trkpt lat="47.25795" lon="-2.32439">
        <ele>0.40000000596046</ele>
        <time>2022-08-14T10:28:12.000Z</time>
      </trkpt>
      <trkpt lat="47.25799" lon="-2.32445">
        <ele>0.40000000596046</ele>
        <time>2022-08-14T10:28:13.000Z</time>
      </trkpt>
      <trkpt lat="47.25804" lon="-2.3245">
        <ele>0.40000000596046</ele>
        <time>2022-08-14T10:28:14.000Z</time>
      </trkpt>
      <trkpt lat="47.25832" lon="-2.32468">
        <ele>0.40000000596046</ele>
        <time>2022-08-14T10:28:19.000Z</time>
      </trkpt>
      <trkpt lat="47.25838" lon="-2.32471">
        <ele>0.40000000596046</ele>
        <time>2022-08-14T10:28:20.000Z</time>
      </trkpt>
      <trkpt lat="47.2586" lon="-2.32474">
        <ele>0.40000000596046</ele>
        <time>2022-08-14T10:28:24.000Z</time>
      </trkpt>
      <trkpt lat="47.25871" lon="-2.32473">
        <ele>0.40000000596046</ele>
        <time>2022-08-14T10:28:26.000Z</time>
      </trkpt>
      <trkpt lat="47.25887" lon="-2.32468">
        <ele>0.40000000596046</ele>
        <time>2022-08-14T10:28:29.000Z</time>
      </trkpt>
      <trkpt lat="47.25892" lon="-2.32464">
        <ele>0.40000000596046</ele>
        <time>2022-08-14T10:28:30.000Z</time>
      </trkpt>
      <trkpt lat="47.2592" lon="-2.32433">
        <ele>3.1</ele>
        <time>2022-08-14T10:28:36.000Z</time>
      </trkpt>
      <trkpt lat="47.25925" lon="-2.32427">
        <ele>-0.40000000596046</ele>
        <time>2022-08-14T10:28:37.000Z</time>
      </trkpt>
      <trkpt lat="47.25929" lon="-2.32421">
        <ele>-0.80000001192093</ele>
        <time>2022-08-14T10:28:38.000Z</time>
      </trkpt>
      <trkpt lat="47.25933" lon="-2.32416">
        <ele>-1.2000000476837</ele>
        <time>2022-08-14T10:28:39.000Z</time>
      </trkpt>
      <trkpt lat="47.25937" lon="-2.3241">
        <ele>-1.6000000238419</ele>
        <time>2022-08-14T10:28:40.000Z</time>
      </trkpt>
      <trkpt lat="47.25954" lon="-2.32388">
        <ele>-1.6000000238419</ele>
        <time>2022-08-14T10:28:44.000Z</time>
      </trkpt>
      <trkpt lat="47.25984" lon="-2.3235">
        <ele>-1.6000000238419</ele>
        <time>2022-08-14T10:28:51.000Z</time>
      </trkpt>
      <trkpt lat="47.26013" lon="-2.32312">
        <ele>-1.6000000238419</ele>
        <time>2022-08-14T10:28:58.000Z</time>
      </trkpt>
      <trkpt lat="47.26047" lon="-2.32273">
        <ele>-1.6000000238419</ele>
        <time>2022-08-14T10:29:06.000Z</time>
      </trkpt>
      <trkpt lat="47.26059" lon="-2.32259">
        <ele>-1.6000000238419</ele>
        <time>2022-08-14T10:29:09.000Z</time>
      </trkpt>
      <trkpt lat="47.2607" lon="-2.32246">
        <ele>-1.6000000238419</ele>
        <time>2022-08-14T10:29:12.000Z</time>
      </trkpt>
      <trkpt lat="47.26082" lon="-2.3223">
        <ele>-1.6000000238419</ele>
        <time>2022-08-14T10:29:15.000Z</time>
      </trkpt>
      <trkpt lat="47.26093" lon="-2.32214">
        <ele>-1.6000000238419</ele>
        <time>2022-08-14T10:29:18.000Z</time>
      </trkpt>
      <trkpt lat="47.26097" lon="-2.32208">
        <ele>-1.6000000238419</ele>
        <time>2022-08-14T10:29:19.000Z</time>
      </trkpt>
      <trkpt lat="47.26107" lon="-2.32181">
        <ele>-1.6000000238419</ele>
        <time>2022-08-14T10:29:23.000Z</time>
      </trkpt>
      <trkpt lat="47.2611" lon="-2.32175">
        <ele>-1.6000000238419</ele>
        <time>2022-08-14T10:29:24.000Z</time>
      </trkpt>
      <trkpt lat="47.2612" lon="-2.32148">
        <ele>-1.6000000238419</ele>
        <time>2022-08-14T10:29:28.000Z</time>
      </trkpt>
      <trkpt lat="47.26135" lon="-2.32099">
        <ele>-1.6000000238419</ele>
        <time>2022-08-14T10:29:35.000Z</time>
      </trkpt>
      <trkpt lat="47.26146" lon="-2.32065">
        <ele>-1.6000000238419</ele>
        <time>2022-08-14T10:29:40.000Z</time>
      </trkpt>
      <trkpt lat="47.26161" lon="-2.32028">
        <ele>-1.6000000238419</ele>
        <time>2022-08-14T10:29:46.000Z</time>
      </trkpt>
      <trkpt lat="47.26164" lon="-2.32024">
        <ele>-1.6000000238419</ele>
        <time>2022-08-14T10:29:47.000Z</time>
      </trkpt>
      <trkpt lat="47.26176" lon="-2.3202">
        <ele>-1.6000000238419</ele>
        <time>2022-08-14T10:29:50.000Z</time>
      </trkpt>
      <trkpt lat="47.26187" lon="-2.32022">
        <ele>-1.6000000238419</ele>
        <time>2022-08-14T10:29:54.000Z</time>
      </trkpt>
      <trkpt lat="47.26196" lon="-2.32018">
        <ele>-1.6000000238419</ele>
        <time>2022-08-14T10:29:59.000Z</time>
      </trkpt>
      <trkpt lat="47.26196" lon="-2.32014">
        <ele>-1.6000000238419</ele>
        <time>2022-08-14T10:30:00.000Z</time>
      </trkpt>
      <trkpt lat="47.26198" lon="-2.32007">
        <ele>-1.6000000238419</ele>
        <time>2022-08-14T10:30:02.000Z</time>
      </trkpt>
      <trkpt lat="47.26201" lon="-2.32004">
        <ele>-1.6000000238419</ele>
        <time>2022-08-14T10:30:04.000Z</time>
      </trkpt>
      <trkpt lat="47.26206" lon="-2.31998">
        <ele>-1.6000000238419</ele>
        <time>2022-08-14T10:30:06.000Z</time>
      </trkpt>
      <trkpt lat="47.26211" lon="-2.31992">
        <ele>-1.6000000238419</ele>
        <time>2022-08-14T10:30:08.000Z</time>
      </trkpt>
      <trkpt lat="47.26223" lon="-2.31974">
        <ele>-1.6000000238419</ele>
        <time>2022-08-14T10:30:13.000Z</time>
      </trkpt>
      <trkpt lat="47.26244" lon="-2.31949">
        <ele>-1.6000000238419</ele>
        <time>2022-08-14T10:30:20.000Z</time>
      </trkpt>
      <trkpt lat="47.26257" lon="-2.31928">
        <ele>-1.6000000238419</ele>
        <time>2022-08-14T10:30:25.000Z</time>
      </trkpt>
      <trkpt lat="47.2627" lon="-2.3191">
        <ele>-1.6000000238419</ele>
        <time>2022-08-14T10:30:30.000Z</time>
      </trkpt>
      <trkpt lat="47.26287" lon="-2.31893">
        <ele>-1.6000000238419</ele>
        <time>2022-08-14T10:30:35.000Z</time>
      </trkpt>
      <trkpt lat="47.26291" lon="-2.31872">
        <ele>-1.6000000238419</ele>
        <time>2022-08-14T10:30:39.000Z</time>
      </trkpt>
      <trkpt lat="47.26292" lon="-2.31866">
        <ele>-1.6000000238419</ele>
        <time>2022-08-14T10:30:40.000Z</time>
      </trkpt>
      <trkpt lat="47.26299" lon="-2.31833">
        <ele>-1.6000000238419</ele>
        <time>2022-08-14T10:30:45.000Z</time>
      </trkpt>
      <trkpt lat="47.26301" lon="-2.318">
        <ele>-1.6000000238419</ele>
        <time>2022-08-14T10:30:51.000Z</time>
      </trkpt>
      <trkpt lat="47.263" lon="-2.31766">
        <ele>-1.6000000238419</ele>
        <time>2022-08-14T10:30:57.000Z</time>
      </trkpt>
      <trkpt lat="47.26301" lon="-2.31729">
        <ele>-1.6000000238419</ele>
        <time>2022-08-14T10:31:03.000Z</time>
      </trkpt>
      <trkpt lat="47.26314" lon="-2.31714">
        <ele>-1.6000000238419</ele>
        <time>2022-08-14T10:31:07.000Z</time>
      </trkpt>
      <trkpt lat="47.26324" lon="-2.31708">
        <ele>-1.6000000238419</ele>
        <time>2022-08-14T10:31:10.000Z</time>
      </trkpt>
      <trkpt lat="47.2633" lon="-2.31701">
        <ele>-1.6000000238419</ele>
        <time>2022-08-14T10:31:12.000Z</time>
      </trkpt>
      <trkpt lat="47.26336" lon="-2.31689">
        <ele>-1.2000000476837</ele>
        <time>2022-08-14T10:31:15.000Z</time>
      </trkpt>
      <trkpt lat="47.26339" lon="-2.31687">
        <ele>-0.80000001192093</ele>
        <time>2022-08-14T10:31:16.000Z</time>
      </trkpt>
      <trkpt lat="47.26342" lon="-2.31685">
        <ele>-0.40000000596046</ele>
        <time>2022-08-14T10:31:17.000Z</time>
      </trkpt>
      <trkpt lat="47.26345" lon="-2.31684">
        <ele>6.8</ele>
        <time>2022-08-14T10:31:18.000Z</time>
      </trkpt>
      <trkpt lat="47.26349" lon="-2.31681">
        <ele>0.40000000596046</ele>
        <time>2022-08-14T10:31:19.000Z</time>
      </trkpt>
      <trkpt lat="47.26362" lon="-2.31676">
        <ele>0.40000000596046</ele>
        <time>2022-08-14T10:31:23.000Z</time>
      </trkpt>
      <trkpt lat="47.26378" lon="-2.31668">
        <ele>1.2000000476837</ele>
        <time>2022-08-14T10:31:28.000Z</time>
      </trkpt>
      <trkpt lat="47.26381" lon="-2.31665">
        <ele>1.6000000238419</ele>
        <time>2022-08-14T10:31:29.000Z</time>
      </trkpt>
      <trkpt lat="47.26385" lon="-2.31663">
        <ele>2</ele>
        <time>2022-08-14T10:31:30.000Z</time>
      </trkpt>
      <trkpt lat="47.26388" lon="-2.31662">
        <ele>2.4000000953674</ele>
        <time>2022-08-14T10:31:31.000Z</time>
      </trkpt>
      <trkpt lat="47.26395" lon="-2.31659">
        <ele>2.4000000953674</ele>
        <time>2022-08-14T10:31:34.000Z</time>
      </trkpt>
      <trkpt lat="47.26401" lon="-2.31656">
        <ele>2.4000000953674</ele>
        <time>2022-08-14T10:31:36.000Z</time>
      </trkpt>
      <trkpt lat="47.26409" lon="-2.31649">
        <ele>2.4000000953674</ele>
        <time>2022-08-14T10:31:39.000Z</time>
      </trkpt>
      <trkpt lat="47.2641" lon="-2.31646">
        <ele>2.4000000953674</ele>
        <time>2022-08-14T10:31:40.000Z</time>
      </trkpt>
      <trkpt lat="47.2641" lon="-2.31614">
        <ele>2.4000000953674</ele>
        <time>2022-08-14T10:31:47.000Z</time>
      </trkpt>
      <trkpt lat="47.2641" lon="-2.3159">
        <ele>2.4000000953674</ele>
        <time>2022-08-14T10:31:52.000Z</time>
      </trkpt>
      <trkpt lat="47.2641" lon="-2.31568">
        <ele>2.4000000953674</ele>
        <time>2022-08-14T10:31:57.000Z</time>
      </trkpt>
      <trkpt lat="47.26411" lon="-2.31554">
        <ele>2.4000000953674</ele>
        <time>2022-08-14T10:32:01.000Z</time>
      </trkpt>
      <trkpt lat="47.26412" lon="-2.31553">
        <ele>2.4000000953674</ele>
        <time>2022-08-14T10:32:02.000Z</time>
      </trkpt>
      <trkpt lat="47.26415" lon="-2.31553">
        <ele>2.7999999523163</ele>
        <time>2022-08-14T10:32:05.000Z</time>
      </trkpt>
      <trkpt lat="47.26416" lon="-2.31553">
        <ele>3.4000000953674</ele>
        <time>2022-08-14T10:32:06.000Z</time>
      </trkpt>
      <trkpt lat="47.26416" lon="-2.31553">
        <ele>3.7999999523163</ele>
        <time>2022-08-14T10:32:07.000Z</time>
      </trkpt>
      <trkpt lat="47.26416" lon="-2.31553">
        <ele>4.1999998092651</ele>
        <time>2022-08-14T10:32:08.000Z</time>
      </trkpt>
    </trkseg>
  </trk>
</gpx>